<?xml version="1.0" encoding="UTF-8" standalone="no" ?>
<gpx xmlns="http://www.topografix.com/GPX/1/1" xmlns:xsi="http://www.w3.org/2001/XMLSchema-instance" xsi:schemaLocation="http://www.topografix.com/GPX/1/1 http://www.topografix.com/GPX/1/1/gpx.xsd" version="1.1" creator="VisuGPX - https://www.visugpx.com">
  <metadata>
    <name>Pornichet 09/07/2020</name>
    <desc><![CDATA[Sortie VTT du jeudi 09 juillet 2020]]></desc>
  </metadata>
  <trk>
    <name><![CDATA[Pornichet Cyclisme]]></name>
    <trkseg>
      <trkpt lat="47.26409" lon="-2.31564">
        <ele>14.60000038147</ele>
        <time>2020-07-09T06:59:33.000Z</time>
      </trkpt>
      <trkpt lat="47.26409" lon="-2.31575">
        <ele>14.60000038147</ele>
        <time>2020-07-09T06:59:36.000Z</time>
      </trkpt>
      <trkpt lat="47.2641" lon="-2.31579">
        <ele>14.60000038147</ele>
        <time>2020-07-09T06:59:37.000Z</time>
      </trkpt>
      <trkpt lat="47.26411" lon="-2.31591">
        <ele>14.60000038147</ele>
        <time>2020-07-09T06:59:40.000Z</time>
      </trkpt>
      <trkpt lat="47.26413" lon="-2.31616">
        <ele>14.60000038147</ele>
        <time>2020-07-09T06:59:46.000Z</time>
      </trkpt>
      <trkpt lat="47.26415" lon="-2.31643">
        <ele>14.60000038147</ele>
        <time>2020-07-09T06:59:52.000Z</time>
      </trkpt>
      <trkpt lat="47.26413" lon="-2.31662">
        <ele>14.60000038147</ele>
        <time>2020-07-09T06:59:57.000Z</time>
      </trkpt>
      <trkpt lat="47.26409" lon="-2.31666">
        <ele>14.60000038147</ele>
        <time>2020-07-09T06:59:59.000Z</time>
      </trkpt>
      <trkpt lat="47.26402" lon="-2.31671">
        <ele>14.60000038147</ele>
        <time>2020-07-09T07:00:01.000Z</time>
      </trkpt>
      <trkpt lat="47.26393" lon="-2.31676">
        <ele>14.60000038147</ele>
        <time>2020-07-09T07:00:03.000Z</time>
      </trkpt>
      <trkpt lat="47.26379" lon="-2.31685">
        <ele>14.60000038147</ele>
        <time>2020-07-09T07:00:06.000Z</time>
      </trkpt>
      <trkpt lat="47.26354" lon="-2.31697">
        <ele>14.60000038147</ele>
        <time>2020-07-09T07:00:11.000Z</time>
      </trkpt>
      <trkpt lat="47.2635" lon="-2.31701">
        <ele>13.800000190735</ele>
        <time>2020-07-09T07:00:12.000Z</time>
      </trkpt>
      <trkpt lat="47.26347" lon="-2.31701">
        <ele>13.39999961853</ele>
        <time>2020-07-09T07:00:13.000Z</time>
      </trkpt>
      <trkpt lat="47.26345" lon="-2.317">
        <ele>13</ele>
        <time>2020-07-09T07:00:14.000Z</time>
      </trkpt>
      <trkpt lat="47.26342" lon="-2.31702">
        <ele>12.60000038147</ele>
        <time>2020-07-09T07:00:15.000Z</time>
      </trkpt>
      <trkpt lat="47.2633" lon="-2.31708">
        <ele>12.60000038147</ele>
        <time>2020-07-09T07:00:18.000Z</time>
      </trkpt>
      <trkpt lat="47.26316" lon="-2.31714">
        <ele>12.60000038147</ele>
        <time>2020-07-09T07:00:21.000Z</time>
      </trkpt>
      <trkpt lat="47.26309" lon="-2.31711">
        <ele>12.60000038147</ele>
        <time>2020-07-09T07:00:23.000Z</time>
      </trkpt>
      <trkpt lat="47.26301" lon="-2.31703">
        <ele>12</ele>
        <time>2020-07-09T07:00:25.000Z</time>
      </trkpt>
      <trkpt lat="47.26297" lon="-2.31698">
        <ele>11.60000038147</ele>
        <time>2020-07-09T07:00:26.000Z</time>
      </trkpt>
      <trkpt lat="47.26294" lon="-2.31693">
        <ele>11.199999809265</ele>
        <time>2020-07-09T07:00:27.000Z</time>
      </trkpt>
      <trkpt lat="47.2629" lon="-2.31688">
        <ele>10.800000190735</ele>
        <time>2020-07-09T07:00:28.000Z</time>
      </trkpt>
      <trkpt lat="47.26286" lon="-2.31683">
        <ele>10.39999961853</ele>
        <time>2020-07-09T07:00:29.000Z</time>
      </trkpt>
      <trkpt lat="47.26271" lon="-2.31659">
        <ele>10.39999961853</ele>
        <time>2020-07-09T07:00:34.000Z</time>
      </trkpt>
      <trkpt lat="47.26249" lon="-2.31622">
        <ele>10.39999961853</ele>
        <time>2020-07-09T07:00:41.000Z</time>
      </trkpt>
      <trkpt lat="47.26233" lon="-2.31606">
        <ele>10.39999961853</ele>
        <time>2020-07-09T07:00:45.000Z</time>
      </trkpt>
      <trkpt lat="47.26229" lon="-2.31603">
        <ele>10.39999961853</ele>
        <time>2020-07-09T07:00:46.000Z</time>
      </trkpt>
      <trkpt lat="47.26216" lon="-2.31598">
        <ele>10.39999961853</ele>
        <time>2020-07-09T07:00:49.000Z</time>
      </trkpt>
      <trkpt lat="47.26211" lon="-2.31598">
        <ele>10.39999961853</ele>
        <time>2020-07-09T07:00:50.000Z</time>
      </trkpt>
      <trkpt lat="47.26197" lon="-2.31602">
        <ele>10.39999961853</ele>
        <time>2020-07-09T07:00:53.000Z</time>
      </trkpt>
      <trkpt lat="47.26188" lon="-2.31604">
        <ele>10.39999961853</ele>
        <time>2020-07-09T07:00:55.000Z</time>
      </trkpt>
      <trkpt lat="47.26144" lon="-2.31614">
        <ele>10.39999961853</ele>
        <time>2020-07-09T07:01:04.000Z</time>
      </trkpt>
      <trkpt lat="47.26111" lon="-2.31616">
        <ele>10.39999961853</ele>
        <time>2020-07-09T07:01:11.000Z</time>
      </trkpt>
      <trkpt lat="47.261" lon="-2.31606">
        <ele>10.39999961853</ele>
        <time>2020-07-09T07:01:14.000Z</time>
      </trkpt>
      <trkpt lat="47.26097" lon="-2.31601">
        <ele>10.39999961853</ele>
        <time>2020-07-09T07:01:15.000Z</time>
      </trkpt>
      <trkpt lat="47.26087" lon="-2.31584">
        <ele>10.39999961853</ele>
        <time>2020-07-09T07:01:19.000Z</time>
      </trkpt>
      <trkpt lat="47.26084" lon="-2.31582">
        <ele>10.39999961853</ele>
        <time>2020-07-09T07:01:21.000Z</time>
      </trkpt>
      <trkpt lat="47.26084" lon="-2.31582">
        <ele>10.39999961853</ele>
        <time>2020-07-09T07:01:23.000Z</time>
      </trkpt>
      <trkpt lat="47.26084" lon="-2.31582">
        <ele>10.39999961853</ele>
        <time>2020-07-09T07:01:24.000Z</time>
      </trkpt>
      <trkpt lat="47.26082" lon="-2.31581">
        <ele>10.39999961853</ele>
        <time>2020-07-09T07:01:26.000Z</time>
      </trkpt>
      <trkpt lat="47.26078" lon="-2.31578">
        <ele>10.39999961853</ele>
        <time>2020-07-09T07:01:28.000Z</time>
      </trkpt>
      <trkpt lat="47.26068" lon="-2.31562">
        <ele>10.39999961853</ele>
        <time>2020-07-09T07:01:32.000Z</time>
      </trkpt>
      <trkpt lat="47.26065" lon="-2.31556">
        <ele>10.39999961853</ele>
        <time>2020-07-09T07:01:33.000Z</time>
      </trkpt>
      <trkpt lat="47.26053" lon="-2.31532">
        <ele>10.39999961853</ele>
        <time>2020-07-09T07:01:38.000Z</time>
      </trkpt>
      <trkpt lat="47.26038" lon="-2.31516">
        <ele>10.39999961853</ele>
        <time>2020-07-09T07:01:43.000Z</time>
      </trkpt>
      <trkpt lat="47.26031" lon="-2.31518">
        <ele>10.39999961853</ele>
        <time>2020-07-09T07:01:45.000Z</time>
      </trkpt>
      <trkpt lat="47.26028" lon="-2.31522">
        <ele>10.800000190735</ele>
        <time>2020-07-09T07:01:46.000Z</time>
      </trkpt>
      <trkpt lat="47.26026" lon="-2.31526">
        <ele>11.199999809265</ele>
        <time>2020-07-09T07:01:47.000Z</time>
      </trkpt>
      <trkpt lat="47.26024" lon="-2.3153">
        <ele>11.60000038147</ele>
        <time>2020-07-09T07:01:48.000Z</time>
      </trkpt>
      <trkpt lat="47.26024" lon="-2.31536">
        <ele>12</ele>
        <time>2020-07-09T07:01:49.000Z</time>
      </trkpt>
      <trkpt lat="47.26023" lon="-2.31542">
        <ele>12.39999961853</ele>
        <time>2020-07-09T07:01:50.000Z</time>
      </trkpt>
      <trkpt lat="47.26021" lon="-2.31548">
        <ele>12.39999961853</ele>
        <time>2020-07-09T07:01:51.000Z</time>
      </trkpt>
      <trkpt lat="47.2601" lon="-2.31564">
        <ele>12.39999961853</ele>
        <time>2020-07-09T07:01:56.000Z</time>
      </trkpt>
      <trkpt lat="47.26008" lon="-2.31562">
        <ele>12.39999961853</ele>
        <time>2020-07-09T07:01:57.000Z</time>
      </trkpt>
      <trkpt lat="47.25999" lon="-2.31548">
        <ele>12.39999961853</ele>
        <time>2020-07-09T07:02:01.000Z</time>
      </trkpt>
      <trkpt lat="47.25976" lon="-2.31506">
        <ele>12.39999961853</ele>
        <time>2020-07-09T07:02:09.000Z</time>
      </trkpt>
      <trkpt lat="47.25969" lon="-2.31489">
        <ele>12.39999961853</ele>
        <time>2020-07-09T07:02:12.000Z</time>
      </trkpt>
      <trkpt lat="47.25959" lon="-2.31477">
        <ele>12.39999961853</ele>
        <time>2020-07-09T07:02:15.000Z</time>
      </trkpt>
      <trkpt lat="47.25951" lon="-2.3147">
        <ele>12.39999961853</ele>
        <time>2020-07-09T07:02:17.000Z</time>
      </trkpt>
      <trkpt lat="47.25944" lon="-2.31464">
        <ele>12.39999961853</ele>
        <time>2020-07-09T07:02:19.000Z</time>
      </trkpt>
      <trkpt lat="47.25936" lon="-2.3146">
        <ele>12.39999961853</ele>
        <time>2020-07-09T07:02:21.000Z</time>
      </trkpt>
      <trkpt lat="47.25926" lon="-2.31465">
        <ele>12.39999961853</ele>
        <time>2020-07-09T07:02:24.000Z</time>
      </trkpt>
      <trkpt lat="47.2592" lon="-2.3148">
        <ele>12.39999961853</ele>
        <time>2020-07-09T07:02:27.000Z</time>
      </trkpt>
      <trkpt lat="47.25916" lon="-2.31493">
        <ele>12.39999961853</ele>
        <time>2020-07-09T07:02:30.000Z</time>
      </trkpt>
      <trkpt lat="47.25909" lon="-2.31508">
        <ele>12.39999961853</ele>
        <time>2020-07-09T07:02:36.000Z</time>
      </trkpt>
      <trkpt lat="47.25906" lon="-2.31515">
        <ele>12.39999961853</ele>
        <time>2020-07-09T07:02:41.000Z</time>
      </trkpt>
      <trkpt lat="47.25904" lon="-2.31517">
        <ele>12.39999961853</ele>
        <time>2020-07-09T07:02:42.000Z</time>
      </trkpt>
      <trkpt lat="47.25896" lon="-2.31533">
        <ele>12.39999961853</ele>
        <time>2020-07-09T07:02:46.000Z</time>
      </trkpt>
      <trkpt lat="47.25894" lon="-2.31538">
        <ele>12.800000190735</ele>
        <time>2020-07-09T07:02:47.000Z</time>
      </trkpt>
      <trkpt lat="47.25892" lon="-2.31543">
        <ele>13.199999809265</ele>
        <time>2020-07-09T07:02:48.000Z</time>
      </trkpt>
      <trkpt lat="47.2589" lon="-2.31548">
        <ele>13.60000038147</ele>
        <time>2020-07-09T07:02:49.000Z</time>
      </trkpt>
      <trkpt lat="47.25889" lon="-2.31553">
        <ele>14</ele>
        <time>2020-07-09T07:02:50.000Z</time>
      </trkpt>
      <trkpt lat="47.25887" lon="-2.31557">
        <ele>14.39999961853</ele>
        <time>2020-07-09T07:02:51.000Z</time>
      </trkpt>
      <trkpt lat="47.25886" lon="-2.31562">
        <ele>14.39999961853</ele>
        <time>2020-07-09T07:02:52.000Z</time>
      </trkpt>
      <trkpt lat="47.2587" lon="-2.31584">
        <ele>14.39999961853</ele>
        <time>2020-07-09T07:02:58.000Z</time>
      </trkpt>
      <trkpt lat="47.2585" lon="-2.31604">
        <ele>14.39999961853</ele>
        <time>2020-07-09T07:03:05.000Z</time>
      </trkpt>
      <trkpt lat="47.25848" lon="-2.31606">
        <ele>15</ele>
        <time>2020-07-09T07:03:06.000Z</time>
      </trkpt>
      <trkpt lat="47.25845" lon="-2.31609">
        <ele>15.39999961853</ele>
        <time>2020-07-09T07:03:07.000Z</time>
      </trkpt>
      <trkpt lat="47.25842" lon="-2.31612">
        <ele>15.800000190735</ele>
        <time>2020-07-09T07:03:08.000Z</time>
      </trkpt>
      <trkpt lat="47.25839" lon="-2.31615">
        <ele>16.200000762939</ele>
        <time>2020-07-09T07:03:09.000Z</time>
      </trkpt>
      <trkpt lat="47.25836" lon="-2.31617">
        <ele>16.799999237061</ele>
        <time>2020-07-09T07:03:10.000Z</time>
      </trkpt>
      <trkpt lat="47.25825" lon="-2.31627">
        <ele>16.799999237061</ele>
        <time>2020-07-09T07:03:14.000Z</time>
      </trkpt>
      <trkpt lat="47.25805" lon="-2.31645">
        <ele>16.799999237061</ele>
        <time>2020-07-09T07:03:20.000Z</time>
      </trkpt>
      <trkpt lat="47.25774" lon="-2.31668">
        <ele>16.799999237061</ele>
        <time>2020-07-09T07:03:28.000Z</time>
      </trkpt>
      <trkpt lat="47.25737" lon="-2.31697">
        <ele>16.799999237061</ele>
        <time>2020-07-09T07:03:36.000Z</time>
      </trkpt>
      <trkpt lat="47.25718" lon="-2.31698">
        <ele>16.799999237061</ele>
        <time>2020-07-09T07:03:40.000Z</time>
      </trkpt>
      <trkpt lat="47.25713" lon="-2.31696">
        <ele>16.799999237061</ele>
        <time>2020-07-09T07:03:41.000Z</time>
      </trkpt>
      <trkpt lat="47.25683" lon="-2.3168">
        <ele>16.799999237061</ele>
        <time>2020-07-09T07:03:48.000Z</time>
      </trkpt>
      <trkpt lat="47.25675" lon="-2.31675">
        <ele>16.799999237061</ele>
        <time>2020-07-09T07:03:52.000Z</time>
      </trkpt>
      <trkpt lat="47.25671" lon="-2.31675">
        <ele>16.799999237061</ele>
        <time>2020-07-09T07:03:55.000Z</time>
      </trkpt>
      <trkpt lat="47.25669" lon="-2.3168">
        <ele>16.799999237061</ele>
        <time>2020-07-09T07:03:57.000Z</time>
      </trkpt>
      <trkpt lat="47.25655" lon="-2.31691">
        <ele>16.799999237061</ele>
        <time>2020-07-09T07:04:02.000Z</time>
      </trkpt>
      <trkpt lat="47.25642" lon="-2.31709">
        <ele>16.799999237061</ele>
        <time>2020-07-09T07:04:07.000Z</time>
      </trkpt>
      <trkpt lat="47.2563" lon="-2.31725">
        <ele>17.200000762939</ele>
        <time>2020-07-09T07:04:12.000Z</time>
      </trkpt>
      <trkpt lat="47.25629" lon="-2.31729">
        <ele>17.60000038147</ele>
        <time>2020-07-09T07:04:13.000Z</time>
      </trkpt>
      <trkpt lat="47.25628" lon="-2.31734">
        <ele>18</ele>
        <time>2020-07-09T07:04:14.000Z</time>
      </trkpt>
      <trkpt lat="47.25627" lon="-2.3174">
        <ele>18.39999961853</ele>
        <time>2020-07-09T07:04:15.000Z</time>
      </trkpt>
      <trkpt lat="47.25626" lon="-2.31745">
        <ele>18.799999237061</ele>
        <time>2020-07-09T07:04:16.000Z</time>
      </trkpt>
      <trkpt lat="47.25624" lon="-2.31751">
        <ele>18.799999237061</ele>
        <time>2020-07-09T07:04:17.000Z</time>
      </trkpt>
      <trkpt lat="47.25622" lon="-2.31757">
        <ele>18.799999237061</ele>
        <time>2020-07-09T07:04:18.000Z</time>
      </trkpt>
      <trkpt lat="47.25608" lon="-2.31769">
        <ele>18.799999237061</ele>
        <time>2020-07-09T07:04:22.000Z</time>
      </trkpt>
      <trkpt lat="47.25586" lon="-2.31771">
        <ele>18.799999237061</ele>
        <time>2020-07-09T07:04:27.000Z</time>
      </trkpt>
      <trkpt lat="47.25571" lon="-2.3178">
        <ele>18.799999237061</ele>
        <time>2020-07-09T07:04:31.000Z</time>
      </trkpt>
      <trkpt lat="47.25566" lon="-2.31793">
        <ele>19.200000762939</ele>
        <time>2020-07-09T07:04:34.000Z</time>
      </trkpt>
      <trkpt lat="47.25565" lon="-2.31798">
        <ele>19.60000038147</ele>
        <time>2020-07-09T07:04:35.000Z</time>
      </trkpt>
      <trkpt lat="47.25563" lon="-2.31802">
        <ele>20</ele>
        <time>2020-07-09T07:04:36.000Z</time>
      </trkpt>
      <trkpt lat="47.2556" lon="-2.31804">
        <ele>20.39999961853</ele>
        <time>2020-07-09T07:04:37.000Z</time>
      </trkpt>
      <trkpt lat="47.25557" lon="-2.31804">
        <ele>20.799999237061</ele>
        <time>2020-07-09T07:04:38.000Z</time>
      </trkpt>
      <trkpt lat="47.25553" lon="-2.31805">
        <ele>20.799999237061</ele>
        <time>2020-07-09T07:04:39.000Z</time>
      </trkpt>
      <trkpt lat="47.25537" lon="-2.31808">
        <ele>20.799999237061</ele>
        <time>2020-07-09T07:04:44.000Z</time>
      </trkpt>
      <trkpt lat="47.25521" lon="-2.31812">
        <ele>21.200000762939</ele>
        <time>2020-07-09T07:04:50.000Z</time>
      </trkpt>
      <trkpt lat="47.25518" lon="-2.31813">
        <ele>21.60000038147</ele>
        <time>2020-07-09T07:04:51.000Z</time>
      </trkpt>
      <trkpt lat="47.25515" lon="-2.31815">
        <ele>22</ele>
        <time>2020-07-09T07:04:52.000Z</time>
      </trkpt>
      <trkpt lat="47.25512" lon="-2.31816">
        <ele>22.60000038147</ele>
        <time>2020-07-09T07:04:53.000Z</time>
      </trkpt>
      <trkpt lat="47.25509" lon="-2.31817">
        <ele>23</ele>
        <time>2020-07-09T07:04:54.000Z</time>
      </trkpt>
      <trkpt lat="47.25507" lon="-2.31819">
        <ele>23</ele>
        <time>2020-07-09T07:04:55.000Z</time>
      </trkpt>
      <trkpt lat="47.25507" lon="-2.31826">
        <ele>23</ele>
        <time>2020-07-09T07:04:57.000Z</time>
      </trkpt>
      <trkpt lat="47.25514" lon="-2.31828">
        <ele>23</ele>
        <time>2020-07-09T07:05:00.000Z</time>
      </trkpt>
      <trkpt lat="47.25519" lon="-2.31825">
        <ele>23</ele>
        <time>2020-07-09T07:05:02.000Z</time>
      </trkpt>
      <trkpt lat="47.25522" lon="-2.31824">
        <ele>23</ele>
        <time>2020-07-09T07:05:05.000Z</time>
      </trkpt>
      <trkpt lat="47.25526" lon="-2.3183">
        <ele>23</ele>
        <time>2020-07-09T07:11:58.000Z</time>
      </trkpt>
      <trkpt lat="47.25526" lon="-2.31836">
        <ele>23</ele>
        <time>2020-07-09T07:12:00.000Z</time>
      </trkpt>
      <trkpt lat="47.25527" lon="-2.31858">
        <ele>23</ele>
        <time>2020-07-09T07:12:05.000Z</time>
      </trkpt>
      <trkpt lat="47.25529" lon="-2.31893">
        <ele>23</ele>
        <time>2020-07-09T07:12:13.000Z</time>
      </trkpt>
      <trkpt lat="47.25533" lon="-2.31917">
        <ele>22.39999961853</ele>
        <time>2020-07-09T07:12:19.000Z</time>
      </trkpt>
      <trkpt lat="47.25535" lon="-2.3192">
        <ele>22</ele>
        <time>2020-07-09T07:12:20.000Z</time>
      </trkpt>
      <trkpt lat="47.25536" lon="-2.31923">
        <ele>21.60000038147</ele>
        <time>2020-07-09T07:12:21.000Z</time>
      </trkpt>
      <trkpt lat="47.25539" lon="-2.31925">
        <ele>21.200000762939</ele>
        <time>2020-07-09T07:12:22.000Z</time>
      </trkpt>
      <trkpt lat="47.25542" lon="-2.31924">
        <ele>20.799999237061</ele>
        <time>2020-07-09T07:12:23.000Z</time>
      </trkpt>
      <trkpt lat="47.25545" lon="-2.31923">
        <ele>20.799999237061</ele>
        <time>2020-07-09T07:12:24.000Z</time>
      </trkpt>
      <trkpt lat="47.2556" lon="-2.3192">
        <ele>20.799999237061</ele>
        <time>2020-07-09T07:12:30.000Z</time>
      </trkpt>
      <trkpt lat="47.25566" lon="-2.31936">
        <ele>20.799999237061</ele>
        <time>2020-07-09T07:12:34.000Z</time>
      </trkpt>
      <trkpt lat="47.25572" lon="-2.31974">
        <ele>20.799999237061</ele>
        <time>2020-07-09T07:12:40.000Z</time>
      </trkpt>
      <trkpt lat="47.25573" lon="-2.3198">
        <ele>20.39999961853</ele>
        <time>2020-07-09T07:12:41.000Z</time>
      </trkpt>
      <trkpt lat="47.25574" lon="-2.31987">
        <ele>20</ele>
        <time>2020-07-09T07:12:42.000Z</time>
      </trkpt>
      <trkpt lat="47.25575" lon="-2.31993">
        <ele>19.60000038147</ele>
        <time>2020-07-09T07:12:43.000Z</time>
      </trkpt>
      <trkpt lat="47.25576" lon="-2.31999">
        <ele>19.200000762939</ele>
        <time>2020-07-09T07:12:44.000Z</time>
      </trkpt>
      <trkpt lat="47.25578" lon="-2.32005">
        <ele>18.799999237061</ele>
        <time>2020-07-09T07:12:45.000Z</time>
      </trkpt>
      <trkpt lat="47.25581" lon="-2.32015">
        <ele>18.799999237061</ele>
        <time>2020-07-09T07:12:47.000Z</time>
      </trkpt>
      <trkpt lat="47.25596" lon="-2.32055">
        <ele>18.799999237061</ele>
        <time>2020-07-09T07:12:54.000Z</time>
      </trkpt>
      <trkpt lat="47.25616" lon="-2.32107">
        <ele>18.799999237061</ele>
        <time>2020-07-09T07:13:02.000Z</time>
      </trkpt>
      <trkpt lat="47.25636" lon="-2.32169">
        <ele>18.799999237061</ele>
        <time>2020-07-09T07:13:11.000Z</time>
      </trkpt>
      <trkpt lat="47.25647" lon="-2.32214">
        <ele>18.799999237061</ele>
        <time>2020-07-09T07:13:18.000Z</time>
      </trkpt>
      <trkpt lat="47.25648" lon="-2.32221">
        <ele>18.799999237061</ele>
        <time>2020-07-09T07:13:19.000Z</time>
      </trkpt>
      <trkpt lat="47.2565" lon="-2.32245">
        <ele>18</ele>
        <time>2020-07-09T07:13:22.000Z</time>
      </trkpt>
      <trkpt lat="47.25651" lon="-2.32254">
        <ele>17.39999961853</ele>
        <time>2020-07-09T07:13:23.000Z</time>
      </trkpt>
      <trkpt lat="47.25651" lon="-2.32263">
        <ele>17</ele>
        <time>2020-07-09T07:13:24.000Z</time>
      </trkpt>
      <trkpt lat="47.25651" lon="-2.32273">
        <ele>16.60000038147</ele>
        <time>2020-07-09T07:13:25.000Z</time>
      </trkpt>
      <trkpt lat="47.25653" lon="-2.32303">
        <ele>16.60000038147</ele>
        <time>2020-07-09T07:13:28.000Z</time>
      </trkpt>
      <trkpt lat="47.25655" lon="-2.32346">
        <ele>16</ele>
        <time>2020-07-09T07:13:32.000Z</time>
      </trkpt>
      <trkpt lat="47.25656" lon="-2.32357">
        <ele>15.39999961853</ele>
        <time>2020-07-09T07:13:33.000Z</time>
      </trkpt>
      <trkpt lat="47.25656" lon="-2.32367">
        <ele>14.800000190735</ele>
        <time>2020-07-09T07:13:34.000Z</time>
      </trkpt>
      <trkpt lat="47.25657" lon="-2.32378">
        <ele>14.39999961853</ele>
        <time>2020-07-09T07:13:35.000Z</time>
      </trkpt>
      <trkpt lat="47.25657" lon="-2.32387">
        <ele>13.800000190735</ele>
        <time>2020-07-09T07:13:36.000Z</time>
      </trkpt>
      <trkpt lat="47.25658" lon="-2.32396">
        <ele>13.39999961853</ele>
        <time>2020-07-09T07:13:37.000Z</time>
      </trkpt>
      <trkpt lat="47.25661" lon="-2.32403">
        <ele>12.800000190735</ele>
        <time>2020-07-09T07:13:38.000Z</time>
      </trkpt>
      <trkpt lat="47.25664" lon="-2.3241">
        <ele>12.39999961853</ele>
        <time>2020-07-09T07:13:39.000Z</time>
      </trkpt>
      <trkpt lat="47.25669" lon="-2.32417">
        <ele>12</ele>
        <time>2020-07-09T07:13:40.000Z</time>
      </trkpt>
      <trkpt lat="47.25675" lon="-2.32422">
        <ele>11.60000038147</ele>
        <time>2020-07-09T07:13:41.000Z</time>
      </trkpt>
      <trkpt lat="47.25682" lon="-2.32425">
        <ele>11</ele>
        <time>2020-07-09T07:13:42.000Z</time>
      </trkpt>
      <trkpt lat="47.25689" lon="-2.32426">
        <ele>10.60000038147</ele>
        <time>2020-07-09T07:13:43.000Z</time>
      </trkpt>
      <trkpt lat="47.25696" lon="-2.32427">
        <ele>10</ele>
        <time>2020-07-09T07:13:44.000Z</time>
      </trkpt>
      <trkpt lat="47.25704" lon="-2.32427">
        <ele>9.6000003814697</ele>
        <time>2020-07-09T07:13:45.000Z</time>
      </trkpt>
      <trkpt lat="47.25726" lon="-2.32428">
        <ele>9.6000003814697</ele>
        <time>2020-07-09T07:13:48.000Z</time>
      </trkpt>
      <trkpt lat="47.25752" lon="-2.3243">
        <ele>9.6000003814697</ele>
        <time>2020-07-09T07:13:52.000Z</time>
      </trkpt>
      <trkpt lat="47.25756" lon="-2.32432">
        <ele>9.6000003814697</ele>
        <time>2020-07-09T07:13:53.000Z</time>
      </trkpt>
      <trkpt lat="47.25767" lon="-2.32437">
        <ele>9.1999998092651</ele>
        <time>2020-07-09T07:13:56.000Z</time>
      </trkpt>
      <trkpt lat="47.2577" lon="-2.3244">
        <ele>8.8000001907349</ele>
        <time>2020-07-09T07:13:57.000Z</time>
      </trkpt>
      <trkpt lat="47.25773" lon="-2.32444">
        <ele>8.3999996185303</ele>
        <time>2020-07-09T07:13:58.000Z</time>
      </trkpt>
      <trkpt lat="47.25774" lon="-2.32449">
        <ele>8</ele>
        <time>2020-07-09T07:13:59.000Z</time>
      </trkpt>
      <trkpt lat="47.25776" lon="-2.32455">
        <ele>7.5999999046326</ele>
        <time>2020-07-09T07:14:00.000Z</time>
      </trkpt>
      <trkpt lat="47.25778" lon="-2.32466">
        <ele>7.5999999046326</ele>
        <time>2020-07-09T07:14:02.000Z</time>
      </trkpt>
      <trkpt lat="47.25782" lon="-2.32481">
        <ele>7.5999999046326</ele>
        <time>2020-07-09T07:14:07.000Z</time>
      </trkpt>
      <trkpt lat="47.25785" lon="-2.32485">
        <ele>7.5999999046326</ele>
        <time>2020-07-09T07:14:11.000Z</time>
      </trkpt>
      <trkpt lat="47.25791" lon="-2.32483">
        <ele>7.5999999046326</ele>
        <time>2020-07-09T07:14:13.000Z</time>
      </trkpt>
      <trkpt lat="47.25804" lon="-2.32481">
        <ele>7.5999999046326</ele>
        <time>2020-07-09T07:14:17.000Z</time>
      </trkpt>
      <trkpt lat="47.25807" lon="-2.32482">
        <ele>7.5999999046326</ele>
        <time>2020-07-09T07:14:18.000Z</time>
      </trkpt>
      <trkpt lat="47.25823" lon="-2.3249">
        <ele>7.5999999046326</ele>
        <time>2020-07-09T07:14:22.000Z</time>
      </trkpt>
      <trkpt lat="47.25826" lon="-2.32494">
        <ele>7.5999999046326</ele>
        <time>2020-07-09T07:14:23.000Z</time>
      </trkpt>
      <trkpt lat="47.25833" lon="-2.32503">
        <ele>7.5999999046326</ele>
        <time>2020-07-09T07:14:25.000Z</time>
      </trkpt>
      <trkpt lat="47.25853" lon="-2.32534">
        <ele>7.5999999046326</ele>
        <time>2020-07-09T07:14:31.000Z</time>
      </trkpt>
      <trkpt lat="47.25884" lon="-2.32579">
        <ele>7.5999999046326</ele>
        <time>2020-07-09T07:14:40.000Z</time>
      </trkpt>
      <trkpt lat="47.25887" lon="-2.32583">
        <ele>7.5999999046326</ele>
        <time>2020-07-09T07:14:41.000Z</time>
      </trkpt>
      <trkpt lat="47.25899" lon="-2.32593">
        <ele>7.5999999046326</ele>
        <time>2020-07-09T07:14:44.000Z</time>
      </trkpt>
      <trkpt lat="47.25903" lon="-2.32598">
        <ele>7.5999999046326</ele>
        <time>2020-07-09T07:14:45.000Z</time>
      </trkpt>
      <trkpt lat="47.25931" lon="-2.32633">
        <ele>7.5999999046326</ele>
        <time>2020-07-09T07:14:52.000Z</time>
      </trkpt>
      <trkpt lat="47.25947" lon="-2.32652">
        <ele>7.5999999046326</ele>
        <time>2020-07-09T07:14:56.000Z</time>
      </trkpt>
      <trkpt lat="47.25959" lon="-2.32658">
        <ele>7.5999999046326</ele>
        <time>2020-07-09T07:14:59.000Z</time>
      </trkpt>
      <trkpt lat="47.25972" lon="-2.32656">
        <ele>7.5999999046326</ele>
        <time>2020-07-09T07:15:02.000Z</time>
      </trkpt>
      <trkpt lat="47.25977" lon="-2.32657">
        <ele>7.5999999046326</ele>
        <time>2020-07-09T07:15:03.000Z</time>
      </trkpt>
      <trkpt lat="47.26004" lon="-2.32655">
        <ele>7.5999999046326</ele>
        <time>2020-07-09T07:15:08.000Z</time>
      </trkpt>
      <trkpt lat="47.26049" lon="-2.32647">
        <ele>7.5999999046326</ele>
        <time>2020-07-09T07:15:16.000Z</time>
      </trkpt>
      <trkpt lat="47.26093" lon="-2.32642">
        <ele>7.5999999046326</ele>
        <time>2020-07-09T07:15:25.000Z</time>
      </trkpt>
      <trkpt lat="47.26103" lon="-2.3264">
        <ele>7.5999999046326</ele>
        <time>2020-07-09T07:15:27.000Z</time>
      </trkpt>
      <trkpt lat="47.26123" lon="-2.32638">
        <ele>7.5999999046326</ele>
        <time>2020-07-09T07:15:31.000Z</time>
      </trkpt>
      <trkpt lat="47.26154" lon="-2.32646">
        <ele>7.5999999046326</ele>
        <time>2020-07-09T07:15:37.000Z</time>
      </trkpt>
      <trkpt lat="47.26184" lon="-2.32662">
        <ele>7.5999999046326</ele>
        <time>2020-07-09T07:15:43.000Z</time>
      </trkpt>
      <trkpt lat="47.26197" lon="-2.32674">
        <ele>7.5999999046326</ele>
        <time>2020-07-09T07:15:46.000Z</time>
      </trkpt>
      <trkpt lat="47.26207" lon="-2.32687">
        <ele>7.5999999046326</ele>
        <time>2020-07-09T07:15:49.000Z</time>
      </trkpt>
      <trkpt lat="47.26233" lon="-2.32728">
        <ele>7.5999999046326</ele>
        <time>2020-07-09T07:15:58.000Z</time>
      </trkpt>
      <trkpt lat="47.26265" lon="-2.3278">
        <ele>7.5999999046326</ele>
        <time>2020-07-09T07:16:08.000Z</time>
      </trkpt>
      <trkpt lat="47.26283" lon="-2.32832">
        <ele>7.5999999046326</ele>
        <time>2020-07-09T07:16:16.000Z</time>
      </trkpt>
      <trkpt lat="47.26285" lon="-2.32838">
        <ele>7.5999999046326</ele>
        <time>2020-07-09T07:16:17.000Z</time>
      </trkpt>
      <trkpt lat="47.26297" lon="-2.32858">
        <ele>7.5999999046326</ele>
        <time>2020-07-09T07:16:21.000Z</time>
      </trkpt>
      <trkpt lat="47.26315" lon="-2.32869">
        <ele>7.5999999046326</ele>
        <time>2020-07-09T07:16:25.000Z</time>
      </trkpt>
      <trkpt lat="47.26327" lon="-2.32896">
        <ele>7.5999999046326</ele>
        <time>2020-07-09T07:16:29.000Z</time>
      </trkpt>
      <trkpt lat="47.26329" lon="-2.32903">
        <ele>7.5999999046326</ele>
        <time>2020-07-09T07:16:30.000Z</time>
      </trkpt>
      <trkpt lat="47.26346" lon="-2.32956">
        <ele>7.5999999046326</ele>
        <time>2020-07-09T07:16:38.000Z</time>
      </trkpt>
      <trkpt lat="47.26351" lon="-2.32968">
        <ele>7.5999999046326</ele>
        <time>2020-07-09T07:16:40.000Z</time>
      </trkpt>
      <trkpt lat="47.26361" lon="-2.32982">
        <ele>7.5999999046326</ele>
        <time>2020-07-09T07:16:43.000Z</time>
      </trkpt>
      <trkpt lat="47.26365" lon="-2.32987">
        <ele>7.5999999046326</ele>
        <time>2020-07-09T07:16:44.000Z</time>
      </trkpt>
      <trkpt lat="47.26368" lon="-2.33001">
        <ele>7.5999999046326</ele>
        <time>2020-07-09T07:16:46.000Z</time>
      </trkpt>
      <trkpt lat="47.26369" lon="-2.33016">
        <ele>7.5999999046326</ele>
        <time>2020-07-09T07:16:48.000Z</time>
      </trkpt>
      <trkpt lat="47.2637" lon="-2.33045">
        <ele>7.5999999046326</ele>
        <time>2020-07-09T07:16:52.000Z</time>
      </trkpt>
      <trkpt lat="47.2637" lon="-2.33108">
        <ele>7.5999999046326</ele>
        <time>2020-07-09T07:17:01.000Z</time>
      </trkpt>
      <trkpt lat="47.26371" lon="-2.3316">
        <ele>7.5999999046326</ele>
        <time>2020-07-09T07:17:08.000Z</time>
      </trkpt>
      <trkpt lat="47.26374" lon="-2.33241">
        <ele>7.5999999046326</ele>
        <time>2020-07-09T07:17:19.000Z</time>
      </trkpt>
      <trkpt lat="47.26375" lon="-2.33248">
        <ele>7.5999999046326</ele>
        <time>2020-07-09T07:17:20.000Z</time>
      </trkpt>
      <trkpt lat="47.26383" lon="-2.33265">
        <ele>7.5999999046326</ele>
        <time>2020-07-09T07:17:23.000Z</time>
      </trkpt>
      <trkpt lat="47.26397" lon="-2.33273">
        <ele>7.5999999046326</ele>
        <time>2020-07-09T07:17:26.000Z</time>
      </trkpt>
      <trkpt lat="47.26403" lon="-2.33273">
        <ele>7.5999999046326</ele>
        <time>2020-07-09T07:17:27.000Z</time>
      </trkpt>
      <trkpt lat="47.26438" lon="-2.33277">
        <ele>7.5999999046326</ele>
        <time>2020-07-09T07:17:34.000Z</time>
      </trkpt>
      <trkpt lat="47.26475" lon="-2.33279">
        <ele>7.5999999046326</ele>
        <time>2020-07-09T07:17:42.000Z</time>
      </trkpt>
      <trkpt lat="47.26503" lon="-2.33283">
        <ele>7.5999999046326</ele>
        <time>2020-07-09T07:17:49.000Z</time>
      </trkpt>
      <trkpt lat="47.26524" lon="-2.3329">
        <ele>7.5999999046326</ele>
        <time>2020-07-09T07:17:54.000Z</time>
      </trkpt>
      <trkpt lat="47.26528" lon="-2.3329">
        <ele>7.5999999046326</ele>
        <time>2020-07-09T07:17:55.000Z</time>
      </trkpt>
      <trkpt lat="47.2653" lon="-2.33292">
        <ele>7.5999999046326</ele>
        <time>2020-07-09T07:17:56.000Z</time>
      </trkpt>
      <trkpt lat="47.26534" lon="-2.33298">
        <ele>7.5999999046326</ele>
        <time>2020-07-09T07:17:58.000Z</time>
      </trkpt>
      <trkpt lat="47.26543" lon="-2.33297">
        <ele>7.5999999046326</ele>
        <time>2020-07-09T07:18:02.000Z</time>
      </trkpt>
      <trkpt lat="47.26546" lon="-2.33294">
        <ele>7.5999999046326</ele>
        <time>2020-07-09T07:18:03.000Z</time>
      </trkpt>
      <trkpt lat="47.26568" lon="-2.33267">
        <ele>7.5999999046326</ele>
        <time>2020-07-09T07:18:10.000Z</time>
      </trkpt>
      <trkpt lat="47.26599" lon="-2.33236">
        <ele>7.5999999046326</ele>
        <time>2020-07-09T07:18:17.000Z</time>
      </trkpt>
      <trkpt lat="47.26631" lon="-2.33203">
        <ele>7.5999999046326</ele>
        <time>2020-07-09T07:18:24.000Z</time>
      </trkpt>
      <trkpt lat="47.26679" lon="-2.33155">
        <ele>7.5999999046326</ele>
        <time>2020-07-09T07:18:33.000Z</time>
      </trkpt>
      <trkpt lat="47.26714" lon="-2.3312">
        <ele>7.5999999046326</ele>
        <time>2020-07-09T07:18:40.000Z</time>
      </trkpt>
      <trkpt lat="47.26739" lon="-2.33095">
        <ele>7.5999999046326</ele>
        <time>2020-07-09T07:18:46.000Z</time>
      </trkpt>
      <trkpt lat="47.26757" lon="-2.33088">
        <ele>7.5999999046326</ele>
        <time>2020-07-09T07:18:51.000Z</time>
      </trkpt>
      <trkpt lat="47.26763" lon="-2.33096">
        <ele>7.5999999046326</ele>
        <time>2020-07-09T07:18:53.000Z</time>
      </trkpt>
      <trkpt lat="47.26766" lon="-2.33104">
        <ele>7.5999999046326</ele>
        <time>2020-07-09T07:18:54.000Z</time>
      </trkpt>
      <trkpt lat="47.26767" lon="-2.33138">
        <ele>7.5999999046326</ele>
        <time>2020-07-09T07:18:58.000Z</time>
      </trkpt>
      <trkpt lat="47.26765" lon="-2.33146">
        <ele>7.1999998092651</ele>
        <time>2020-07-09T07:18:59.000Z</time>
      </trkpt>
      <trkpt lat="47.26763" lon="-2.33155">
        <ele>6.8000001907349</ele>
        <time>2020-07-09T07:19:00.000Z</time>
      </trkpt>
      <trkpt lat="47.26761" lon="-2.33164">
        <ele>6.4000000953674</ele>
        <time>2020-07-09T07:19:01.000Z</time>
      </trkpt>
      <trkpt lat="47.26759" lon="-2.33173">
        <ele>6</ele>
        <time>2020-07-09T07:19:02.000Z</time>
      </trkpt>
      <trkpt lat="47.26757" lon="-2.33181">
        <ele>5.4000000953674</ele>
        <time>2020-07-09T07:19:03.000Z</time>
      </trkpt>
      <trkpt lat="47.26745" lon="-2.33227">
        <ele>5.4000000953674</ele>
        <time>2020-07-09T07:19:09.000Z</time>
      </trkpt>
      <trkpt lat="47.26734" lon="-2.33266">
        <ele>5.4000000953674</ele>
        <time>2020-07-09T07:19:14.000Z</time>
      </trkpt>
      <trkpt lat="47.26735" lon="-2.33275">
        <ele>5.4000000953674</ele>
        <time>2020-07-09T07:19:15.000Z</time>
      </trkpt>
      <trkpt lat="47.26741" lon="-2.3331">
        <ele>5.4000000953674</ele>
        <time>2020-07-09T07:19:19.000Z</time>
      </trkpt>
      <trkpt lat="47.26744" lon="-2.33318">
        <ele>5.4000000953674</ele>
        <time>2020-07-09T07:19:20.000Z</time>
      </trkpt>
      <trkpt lat="47.26751" lon="-2.33344">
        <ele>5.4000000953674</ele>
        <time>2020-07-09T07:19:23.000Z</time>
      </trkpt>
      <trkpt lat="47.26755" lon="-2.33378">
        <ele>5.4000000953674</ele>
        <time>2020-07-09T07:19:27.000Z</time>
      </trkpt>
      <trkpt lat="47.26756" lon="-2.33388">
        <ele>5.4000000953674</ele>
        <time>2020-07-09T07:19:28.000Z</time>
      </trkpt>
      <trkpt lat="47.26761" lon="-2.33437">
        <ele>5.4000000953674</ele>
        <time>2020-07-09T07:19:34.000Z</time>
      </trkpt>
      <trkpt lat="47.26771" lon="-2.33493">
        <ele>5.4000000953674</ele>
        <time>2020-07-09T07:19:41.000Z</time>
      </trkpt>
      <trkpt lat="47.26779" lon="-2.33544">
        <ele>5.4000000953674</ele>
        <time>2020-07-09T07:19:48.000Z</time>
      </trkpt>
      <trkpt lat="47.26784" lon="-2.33567">
        <ele>5.4000000953674</ele>
        <time>2020-07-09T07:19:53.000Z</time>
      </trkpt>
      <trkpt lat="47.26797" lon="-2.33566">
        <ele>5.4000000953674</ele>
        <time>2020-07-09T07:19:56.000Z</time>
      </trkpt>
      <trkpt lat="47.26812" lon="-2.3356">
        <ele>5.4000000953674</ele>
        <time>2020-07-09T07:19:59.000Z</time>
      </trkpt>
      <trkpt lat="47.26823" lon="-2.33556">
        <ele>5.4000000953674</ele>
        <time>2020-07-09T07:20:01.000Z</time>
      </trkpt>
      <trkpt lat="47.26829" lon="-2.33554">
        <ele>5.4000000953674</ele>
        <time>2020-07-09T07:20:02.000Z</time>
      </trkpt>
      <trkpt lat="47.2685" lon="-2.33546">
        <ele>5.4000000953674</ele>
        <time>2020-07-09T07:20:06.000Z</time>
      </trkpt>
      <trkpt lat="47.26856" lon="-2.33544">
        <ele>5.4000000953674</ele>
        <time>2020-07-09T07:20:07.000Z</time>
      </trkpt>
      <trkpt lat="47.2688" lon="-2.33539">
        <ele>5.4000000953674</ele>
        <time>2020-07-09T07:20:11.000Z</time>
      </trkpt>
      <trkpt lat="47.26885" lon="-2.33541">
        <ele>5.4000000953674</ele>
        <time>2020-07-09T07:20:12.000Z</time>
      </trkpt>
      <trkpt lat="47.26895" lon="-2.33548">
        <ele>5.8000001907349</ele>
        <time>2020-07-09T07:20:14.000Z</time>
      </trkpt>
      <trkpt lat="47.26899" lon="-2.33553">
        <ele>6.1999998092651</ele>
        <time>2020-07-09T07:20:15.000Z</time>
      </trkpt>
      <trkpt lat="47.26901" lon="-2.33558">
        <ele>6.8000001907349</ele>
        <time>2020-07-09T07:20:16.000Z</time>
      </trkpt>
      <trkpt lat="47.26904" lon="-2.33564">
        <ele>7.1999998092651</ele>
        <time>2020-07-09T07:20:17.000Z</time>
      </trkpt>
      <trkpt lat="47.26907" lon="-2.3357">
        <ele>7.5999999046326</ele>
        <time>2020-07-09T07:20:18.000Z</time>
      </trkpt>
      <trkpt lat="47.26918" lon="-2.33602">
        <ele>8</ele>
        <time>2020-07-09T07:20:23.000Z</time>
      </trkpt>
      <trkpt lat="47.26919" lon="-2.33608">
        <ele>8.3999996185303</ele>
        <time>2020-07-09T07:20:24.000Z</time>
      </trkpt>
      <trkpt lat="47.26921" lon="-2.33614">
        <ele>8.8000001907349</ele>
        <time>2020-07-09T07:20:25.000Z</time>
      </trkpt>
      <trkpt lat="47.26923" lon="-2.33619">
        <ele>9.1999998092651</ele>
        <time>2020-07-09T07:20:26.000Z</time>
      </trkpt>
      <trkpt lat="47.26925" lon="-2.33625">
        <ele>9.6000003814697</ele>
        <time>2020-07-09T07:20:27.000Z</time>
      </trkpt>
      <trkpt lat="47.2693" lon="-2.3365">
        <ele>9.6000003814697</ele>
        <time>2020-07-09T07:20:31.000Z</time>
      </trkpt>
      <trkpt lat="47.26939" lon="-2.33695">
        <ele>9.6000003814697</ele>
        <time>2020-07-09T07:20:38.000Z</time>
      </trkpt>
      <trkpt lat="47.26941" lon="-2.33734">
        <ele>9.6000003814697</ele>
        <time>2020-07-09T07:20:44.000Z</time>
      </trkpt>
      <trkpt lat="47.26933" lon="-2.33769">
        <ele>9.6000003814697</ele>
        <time>2020-07-09T07:20:49.000Z</time>
      </trkpt>
      <trkpt lat="47.26931" lon="-2.33783">
        <ele>9.6000003814697</ele>
        <time>2020-07-09T07:20:51.000Z</time>
      </trkpt>
      <trkpt lat="47.26934" lon="-2.33804">
        <ele>9.6000003814697</ele>
        <time>2020-07-09T07:20:54.000Z</time>
      </trkpt>
      <trkpt lat="47.26949" lon="-2.33823">
        <ele>9.6000003814697</ele>
        <time>2020-07-09T07:20:58.000Z</time>
      </trkpt>
      <trkpt lat="47.26961" lon="-2.33832">
        <ele>9.6000003814697</ele>
        <time>2020-07-09T07:21:01.000Z</time>
      </trkpt>
      <trkpt lat="47.26971" lon="-2.33836">
        <ele>9.6000003814697</ele>
        <time>2020-07-09T07:21:03.000Z</time>
      </trkpt>
      <trkpt lat="47.26975" lon="-2.33838">
        <ele>10</ele>
        <time>2020-07-09T07:21:04.000Z</time>
      </trkpt>
      <trkpt lat="47.2698" lon="-2.3384">
        <ele>10.39999961853</ele>
        <time>2020-07-09T07:21:05.000Z</time>
      </trkpt>
      <trkpt lat="47.26984" lon="-2.33843">
        <ele>10.800000190735</ele>
        <time>2020-07-09T07:21:06.000Z</time>
      </trkpt>
      <trkpt lat="47.26988" lon="-2.33845">
        <ele>11.199999809265</ele>
        <time>2020-07-09T07:21:07.000Z</time>
      </trkpt>
      <trkpt lat="47.26992" lon="-2.33847">
        <ele>11.800000190735</ele>
        <time>2020-07-09T07:21:08.000Z</time>
      </trkpt>
      <trkpt lat="47.26996" lon="-2.33849">
        <ele>11.800000190735</ele>
        <time>2020-07-09T07:21:09.000Z</time>
      </trkpt>
      <trkpt lat="47.27003" lon="-2.33854">
        <ele>11.800000190735</ele>
        <time>2020-07-09T07:21:11.000Z</time>
      </trkpt>
      <trkpt lat="47.27006" lon="-2.33857">
        <ele>12.60000038147</ele>
        <time>2020-07-09T07:21:12.000Z</time>
      </trkpt>
      <trkpt lat="47.2701" lon="-2.33859">
        <ele>13</ele>
        <time>2020-07-09T07:21:13.000Z</time>
      </trkpt>
      <trkpt lat="47.27014" lon="-2.33862">
        <ele>13.39999961853</ele>
        <time>2020-07-09T07:21:14.000Z</time>
      </trkpt>
      <trkpt lat="47.27017" lon="-2.33865">
        <ele>13.800000190735</ele>
        <time>2020-07-09T07:21:15.000Z</time>
      </trkpt>
      <trkpt lat="47.27033" lon="-2.33877">
        <ele>14.199999809265</ele>
        <time>2020-07-09T07:21:19.000Z</time>
      </trkpt>
      <trkpt lat="47.27037" lon="-2.3388">
        <ele>14.60000038147</ele>
        <time>2020-07-09T07:21:20.000Z</time>
      </trkpt>
      <trkpt lat="47.2704" lon="-2.33883">
        <ele>15</ele>
        <time>2020-07-09T07:21:21.000Z</time>
      </trkpt>
      <trkpt lat="47.27044" lon="-2.33886">
        <ele>15.60000038147</ele>
        <time>2020-07-09T07:21:22.000Z</time>
      </trkpt>
      <trkpt lat="47.27048" lon="-2.3389">
        <ele>16</ele>
        <time>2020-07-09T07:21:23.000Z</time>
      </trkpt>
      <trkpt lat="47.27056" lon="-2.33897">
        <ele>16</ele>
        <time>2020-07-09T07:21:25.000Z</time>
      </trkpt>
      <trkpt lat="47.27067" lon="-2.33906">
        <ele>16</ele>
        <time>2020-07-09T07:21:28.000Z</time>
      </trkpt>
      <trkpt lat="47.27084" lon="-2.33919">
        <ele>16.39999961853</ele>
        <time>2020-07-09T07:21:33.000Z</time>
      </trkpt>
      <trkpt lat="47.27087" lon="-2.33922">
        <ele>16.799999237061</ele>
        <time>2020-07-09T07:21:34.000Z</time>
      </trkpt>
      <trkpt lat="47.27089" lon="-2.33925">
        <ele>17.200000762939</ele>
        <time>2020-07-09T07:21:35.000Z</time>
      </trkpt>
      <trkpt lat="47.27092" lon="-2.33928">
        <ele>18</ele>
        <time>2020-07-09T07:21:36.000Z</time>
      </trkpt>
      <trkpt lat="47.27101" lon="-2.33937">
        <ele>18.60000038147</ele>
        <time>2020-07-09T07:21:39.000Z</time>
      </trkpt>
      <trkpt lat="47.27104" lon="-2.33939">
        <ele>19</ele>
        <time>2020-07-09T07:21:40.000Z</time>
      </trkpt>
      <trkpt lat="47.27107" lon="-2.33942">
        <ele>19.39999961853</ele>
        <time>2020-07-09T07:21:41.000Z</time>
      </trkpt>
      <trkpt lat="47.27111" lon="-2.33945">
        <ele>19.799999237061</ele>
        <time>2020-07-09T07:21:42.000Z</time>
      </trkpt>
      <trkpt lat="47.27114" lon="-2.33948">
        <ele>20.200000762939</ele>
        <time>2020-07-09T07:21:43.000Z</time>
      </trkpt>
      <trkpt lat="47.27133" lon="-2.3397">
        <ele>20.200000762939</ele>
        <time>2020-07-09T07:21:49.000Z</time>
      </trkpt>
      <trkpt lat="47.27143" lon="-2.3398">
        <ele>20.60000038147</ele>
        <time>2020-07-09T07:21:52.000Z</time>
      </trkpt>
      <trkpt lat="47.27147" lon="-2.33983">
        <ele>21</ele>
        <time>2020-07-09T07:21:53.000Z</time>
      </trkpt>
      <trkpt lat="47.2715" lon="-2.33987">
        <ele>21.60000038147</ele>
        <time>2020-07-09T07:21:54.000Z</time>
      </trkpt>
      <trkpt lat="47.27153" lon="-2.3399">
        <ele>22</ele>
        <time>2020-07-09T07:21:55.000Z</time>
      </trkpt>
      <trkpt lat="47.27156" lon="-2.33993">
        <ele>22.39999961853</ele>
        <time>2020-07-09T07:21:56.000Z</time>
      </trkpt>
      <trkpt lat="47.27171" lon="-2.34008">
        <ele>22.39999961853</ele>
        <time>2020-07-09T07:22:00.000Z</time>
      </trkpt>
      <trkpt lat="47.27207" lon="-2.34044">
        <ele>22.39999961853</ele>
        <time>2020-07-09T07:22:10.000Z</time>
      </trkpt>
      <trkpt lat="47.2721" lon="-2.34047">
        <ele>22.39999961853</ele>
        <time>2020-07-09T07:22:11.000Z</time>
      </trkpt>
      <trkpt lat="47.27226" lon="-2.34053">
        <ele>22.39999961853</ele>
        <time>2020-07-09T07:22:15.000Z</time>
      </trkpt>
      <trkpt lat="47.27238" lon="-2.34051">
        <ele>22.39999961853</ele>
        <time>2020-07-09T07:22:18.000Z</time>
      </trkpt>
      <trkpt lat="47.27246" lon="-2.3405">
        <ele>22.799999237061</ele>
        <time>2020-07-09T07:22:20.000Z</time>
      </trkpt>
      <trkpt lat="47.2725" lon="-2.3405">
        <ele>23.200000762939</ele>
        <time>2020-07-09T07:22:21.000Z</time>
      </trkpt>
      <trkpt lat="47.27254" lon="-2.34052">
        <ele>23.60000038147</ele>
        <time>2020-07-09T07:22:22.000Z</time>
      </trkpt>
      <trkpt lat="47.27259" lon="-2.34053">
        <ele>24</ele>
        <time>2020-07-09T07:22:23.000Z</time>
      </trkpt>
      <trkpt lat="47.27263" lon="-2.34056">
        <ele>24.39999961853</ele>
        <time>2020-07-09T07:22:24.000Z</time>
      </trkpt>
      <trkpt lat="47.2727" lon="-2.34063">
        <ele>24.39999961853</ele>
        <time>2020-07-09T07:22:26.000Z</time>
      </trkpt>
      <trkpt lat="47.27273" lon="-2.34067">
        <ele>24.39999961853</ele>
        <time>2020-07-09T07:22:27.000Z</time>
      </trkpt>
      <trkpt lat="47.2728" lon="-2.34082">
        <ele>24.39999961853</ele>
        <time>2020-07-09T07:22:30.000Z</time>
      </trkpt>
      <trkpt lat="47.27283" lon="-2.34109">
        <ele>24.39999961853</ele>
        <time>2020-07-09T07:22:34.000Z</time>
      </trkpt>
      <trkpt lat="47.27285" lon="-2.3412">
        <ele>24.39999961853</ele>
        <time>2020-07-09T07:22:36.000Z</time>
      </trkpt>
      <trkpt lat="47.27291" lon="-2.34126">
        <ele>24.39999961853</ele>
        <time>2020-07-09T07:22:38.000Z</time>
      </trkpt>
      <trkpt lat="47.27295" lon="-2.34129">
        <ele>24.39999961853</ele>
        <time>2020-07-09T07:22:39.000Z</time>
      </trkpt>
      <trkpt lat="47.27308" lon="-2.34137">
        <ele>24.39999961853</ele>
        <time>2020-07-09T07:22:42.000Z</time>
      </trkpt>
      <trkpt lat="47.27336" lon="-2.34156">
        <ele>24.39999961853</ele>
        <time>2020-07-09T07:22:48.000Z</time>
      </trkpt>
      <trkpt lat="47.27341" lon="-2.3416">
        <ele>24.39999961853</ele>
        <time>2020-07-09T07:22:49.000Z</time>
      </trkpt>
      <trkpt lat="47.27365" lon="-2.34174">
        <ele>24.39999961853</ele>
        <time>2020-07-09T07:22:54.000Z</time>
      </trkpt>
      <trkpt lat="47.27393" lon="-2.34196">
        <ele>24.39999961853</ele>
        <time>2020-07-09T07:23:00.000Z</time>
      </trkpt>
      <trkpt lat="47.27399" lon="-2.34213">
        <ele>24.39999961853</ele>
        <time>2020-07-09T07:23:03.000Z</time>
      </trkpt>
      <trkpt lat="47.27402" lon="-2.34225">
        <ele>24.39999961853</ele>
        <time>2020-07-09T07:23:05.000Z</time>
      </trkpt>
      <trkpt lat="47.27404" lon="-2.34236">
        <ele>24.39999961853</ele>
        <time>2020-07-09T07:23:08.000Z</time>
      </trkpt>
      <trkpt lat="47.27404" lon="-2.34238">
        <ele>24.39999961853</ele>
        <time>2020-07-09T07:23:10.000Z</time>
      </trkpt>
      <trkpt lat="47.27405" lon="-2.34239">
        <ele>24.39999961853</ele>
        <time>2020-07-09T07:23:19.000Z</time>
      </trkpt>
      <trkpt lat="47.27407" lon="-2.34241">
        <ele>24.39999961853</ele>
        <time>2020-07-09T07:23:20.000Z</time>
      </trkpt>
      <trkpt lat="47.27415" lon="-2.34259">
        <ele>24.39999961853</ele>
        <time>2020-07-09T07:23:26.000Z</time>
      </trkpt>
      <trkpt lat="47.27417" lon="-2.34292">
        <ele>24.39999961853</ele>
        <time>2020-07-09T07:23:32.000Z</time>
      </trkpt>
      <trkpt lat="47.27418" lon="-2.34343">
        <ele>24.39999961853</ele>
        <time>2020-07-09T07:23:41.000Z</time>
      </trkpt>
      <trkpt lat="47.2742" lon="-2.3438">
        <ele>24.39999961853</ele>
        <time>2020-07-09T07:23:48.000Z</time>
      </trkpt>
      <trkpt lat="47.27424" lon="-2.34429">
        <ele>24.39999961853</ele>
        <time>2020-07-09T07:23:56.000Z</time>
      </trkpt>
      <trkpt lat="47.27428" lon="-2.34477">
        <ele>24.39999961853</ele>
        <time>2020-07-09T07:24:04.000Z</time>
      </trkpt>
      <trkpt lat="47.27435" lon="-2.3452">
        <ele>24.799999237061</ele>
        <time>2020-07-09T07:24:11.000Z</time>
      </trkpt>
      <trkpt lat="47.27437" lon="-2.34526">
        <ele>25.200000762939</ele>
        <time>2020-07-09T07:24:12.000Z</time>
      </trkpt>
      <trkpt lat="47.27438" lon="-2.34532">
        <ele>25.60000038147</ele>
        <time>2020-07-09T07:24:13.000Z</time>
      </trkpt>
      <trkpt lat="47.2744" lon="-2.34538">
        <ele>26.200000762939</ele>
        <time>2020-07-09T07:24:14.000Z</time>
      </trkpt>
      <trkpt lat="47.27441" lon="-2.34544">
        <ele>26.60000038147</ele>
        <time>2020-07-09T07:24:15.000Z</time>
      </trkpt>
      <trkpt lat="47.27447" lon="-2.34569">
        <ele>26.60000038147</ele>
        <time>2020-07-09T07:24:19.000Z</time>
      </trkpt>
      <trkpt lat="47.27455" lon="-2.34627">
        <ele>26.60000038147</ele>
        <time>2020-07-09T07:24:27.000Z</time>
      </trkpt>
      <trkpt lat="47.2746" lon="-2.34681">
        <ele>26.60000038147</ele>
        <time>2020-07-09T07:24:34.000Z</time>
      </trkpt>
      <trkpt lat="47.27461" lon="-2.34688">
        <ele>26.60000038147</ele>
        <time>2020-07-09T07:24:35.000Z</time>
      </trkpt>
      <trkpt lat="47.27466" lon="-2.34694">
        <ele>26.60000038147</ele>
        <time>2020-07-09T07:24:37.000Z</time>
      </trkpt>
      <trkpt lat="47.27478" lon="-2.34687">
        <ele>26.60000038147</ele>
        <time>2020-07-09T07:24:40.000Z</time>
      </trkpt>
      <trkpt lat="47.27497" lon="-2.3468">
        <ele>26.60000038147</ele>
        <time>2020-07-09T07:24:44.000Z</time>
      </trkpt>
      <trkpt lat="47.27502" lon="-2.34679">
        <ele>26.60000038147</ele>
        <time>2020-07-09T07:24:45.000Z</time>
      </trkpt>
      <trkpt lat="47.27535" lon="-2.34675">
        <ele>26.60000038147</ele>
        <time>2020-07-09T07:24:52.000Z</time>
      </trkpt>
      <trkpt lat="47.2755" lon="-2.3467">
        <ele>26.60000038147</ele>
        <time>2020-07-09T07:24:55.000Z</time>
      </trkpt>
      <trkpt lat="47.27566" lon="-2.34662">
        <ele>26.60000038147</ele>
        <time>2020-07-09T07:24:58.000Z</time>
      </trkpt>
      <trkpt lat="47.27591" lon="-2.34641">
        <ele>26.60000038147</ele>
        <time>2020-07-09T07:25:03.000Z</time>
      </trkpt>
      <trkpt lat="47.27629" lon="-2.34604">
        <ele>26.60000038147</ele>
        <time>2020-07-09T07:25:11.000Z</time>
      </trkpt>
      <trkpt lat="47.27643" lon="-2.34589">
        <ele>26.60000038147</ele>
        <time>2020-07-09T07:25:14.000Z</time>
      </trkpt>
      <trkpt lat="47.27658" lon="-2.34576">
        <ele>26.60000038147</ele>
        <time>2020-07-09T07:25:17.000Z</time>
      </trkpt>
      <trkpt lat="47.2767" lon="-2.34565">
        <ele>26.60000038147</ele>
        <time>2020-07-09T07:25:20.000Z</time>
      </trkpt>
      <trkpt lat="47.27673" lon="-2.34563">
        <ele>26.200000762939</ele>
        <time>2020-07-09T07:25:21.000Z</time>
      </trkpt>
      <trkpt lat="47.27674" lon="-2.34563">
        <ele>25.799999237061</ele>
        <time>2020-07-09T07:25:22.000Z</time>
      </trkpt>
      <trkpt lat="47.27675" lon="-2.34563">
        <ele>25.39999961853</ele>
        <time>2020-07-09T07:25:23.000Z</time>
      </trkpt>
      <trkpt lat="47.27676" lon="-2.34564">
        <ele>25</ele>
        <time>2020-07-09T07:25:24.000Z</time>
      </trkpt>
      <trkpt lat="47.27677" lon="-2.34565">
        <ele>24.60000038147</ele>
        <time>2020-07-09T07:25:25.000Z</time>
      </trkpt>
      <trkpt lat="47.27678" lon="-2.34566">
        <ele>24.60000038147</ele>
        <time>2020-07-09T07:25:26.000Z</time>
      </trkpt>
      <trkpt lat="47.27679" lon="-2.3457">
        <ele>24.60000038147</ele>
        <time>2020-07-09T07:25:28.000Z</time>
      </trkpt>
      <trkpt lat="47.27681" lon="-2.34576">
        <ele>24.60000038147</ele>
        <time>2020-07-09T07:25:30.000Z</time>
      </trkpt>
      <trkpt lat="47.27688" lon="-2.346">
        <ele>24.60000038147</ele>
        <time>2020-07-09T07:25:35.000Z</time>
      </trkpt>
      <trkpt lat="47.27692" lon="-2.34638">
        <ele>24.60000038147</ele>
        <time>2020-07-09T07:25:41.000Z</time>
      </trkpt>
      <trkpt lat="47.27694" lon="-2.34662">
        <ele>24.60000038147</ele>
        <time>2020-07-09T07:25:46.000Z</time>
      </trkpt>
      <trkpt lat="47.277" lon="-2.34678">
        <ele>24.60000038147</ele>
        <time>2020-07-09T07:25:52.000Z</time>
      </trkpt>
      <trkpt lat="47.27704" lon="-2.34696">
        <ele>24.60000038147</ele>
        <time>2020-07-09T07:25:56.000Z</time>
      </trkpt>
      <trkpt lat="47.27715" lon="-2.34726">
        <ele>24.60000038147</ele>
        <time>2020-07-09T07:26:01.000Z</time>
      </trkpt>
      <trkpt lat="47.27734" lon="-2.34775">
        <ele>24.60000038147</ele>
        <time>2020-07-09T07:26:08.000Z</time>
      </trkpt>
      <trkpt lat="47.27756" lon="-2.34819">
        <ele>24.60000038147</ele>
        <time>2020-07-09T07:26:15.000Z</time>
      </trkpt>
      <trkpt lat="47.27779" lon="-2.34859">
        <ele>24</ele>
        <time>2020-07-09T07:26:22.000Z</time>
      </trkpt>
      <trkpt lat="47.27781" lon="-2.34863">
        <ele>23.60000038147</ele>
        <time>2020-07-09T07:26:23.000Z</time>
      </trkpt>
      <trkpt lat="47.27784" lon="-2.34867">
        <ele>23.200000762939</ele>
        <time>2020-07-09T07:26:24.000Z</time>
      </trkpt>
      <trkpt lat="47.27786" lon="-2.3487">
        <ele>22.799999237061</ele>
        <time>2020-07-09T07:26:25.000Z</time>
      </trkpt>
      <trkpt lat="47.27789" lon="-2.34873">
        <ele>22.39999961853</ele>
        <time>2020-07-09T07:26:26.000Z</time>
      </trkpt>
      <trkpt lat="47.27791" lon="-2.34875">
        <ele>22.39999961853</ele>
        <time>2020-07-09T07:26:27.000Z</time>
      </trkpt>
      <trkpt lat="47.27796" lon="-2.34882">
        <ele>22</ele>
        <time>2020-07-09T07:26:30.000Z</time>
      </trkpt>
      <trkpt lat="47.27799" lon="-2.34884">
        <ele>21.60000038147</ele>
        <time>2020-07-09T07:26:31.000Z</time>
      </trkpt>
      <trkpt lat="47.27802" lon="-2.34886">
        <ele>20.60000038147</ele>
        <time>2020-07-09T07:26:32.000Z</time>
      </trkpt>
      <trkpt lat="47.27804" lon="-2.34889">
        <ele>20.200000762939</ele>
        <time>2020-07-09T07:26:33.000Z</time>
      </trkpt>
      <trkpt lat="47.27825" lon="-2.34907">
        <ele>20.200000762939</ele>
        <time>2020-07-09T07:26:39.000Z</time>
      </trkpt>
      <trkpt lat="47.27851" lon="-2.34936">
        <ele>20.200000762939</ele>
        <time>2020-07-09T07:26:46.000Z</time>
      </trkpt>
      <trkpt lat="47.2787" lon="-2.34954">
        <ele>20.200000762939</ele>
        <time>2020-07-09T07:26:52.000Z</time>
      </trkpt>
      <trkpt lat="47.27883" lon="-2.34981">
        <ele>21.200000762939</ele>
        <time>2020-07-09T07:26:57.000Z</time>
      </trkpt>
      <trkpt lat="47.27886" lon="-2.34987">
        <ele>21.60000038147</ele>
        <time>2020-07-09T07:26:58.000Z</time>
      </trkpt>
      <trkpt lat="47.27889" lon="-2.34993">
        <ele>22</ele>
        <time>2020-07-09T07:26:59.000Z</time>
      </trkpt>
      <trkpt lat="47.27892" lon="-2.35">
        <ele>22.39999961853</ele>
        <time>2020-07-09T07:27:00.000Z</time>
      </trkpt>
      <trkpt lat="47.27897" lon="-2.35013">
        <ele>22.39999961853</ele>
        <time>2020-07-09T07:27:02.000Z</time>
      </trkpt>
      <trkpt lat="47.27898" lon="-2.35021">
        <ele>22.39999961853</ele>
        <time>2020-07-09T07:27:03.000Z</time>
      </trkpt>
      <trkpt lat="47.27906" lon="-2.3504">
        <ele>22.39999961853</ele>
        <time>2020-07-09T07:27:07.000Z</time>
      </trkpt>
      <trkpt lat="47.27913" lon="-2.35037">
        <ele>22.39999961853</ele>
        <time>2020-07-09T07:27:10.000Z</time>
      </trkpt>
      <trkpt lat="47.27929" lon="-2.35038">
        <ele>22.39999961853</ele>
        <time>2020-07-09T07:27:15.000Z</time>
      </trkpt>
      <trkpt lat="47.2794" lon="-2.35046">
        <ele>22.39999961853</ele>
        <time>2020-07-09T07:27:18.000Z</time>
      </trkpt>
      <trkpt lat="47.27944" lon="-2.3505">
        <ele>22.39999961853</ele>
        <time>2020-07-09T07:27:19.000Z</time>
      </trkpt>
      <trkpt lat="47.27965" lon="-2.35084">
        <ele>22.39999961853</ele>
        <time>2020-07-09T07:27:25.000Z</time>
      </trkpt>
      <trkpt lat="47.27967" lon="-2.35093">
        <ele>22</ele>
        <time>2020-07-09T07:27:27.000Z</time>
      </trkpt>
      <trkpt lat="47.27968" lon="-2.35097">
        <ele>21.60000038147</ele>
        <time>2020-07-09T07:27:28.000Z</time>
      </trkpt>
      <trkpt lat="47.27971" lon="-2.35098">
        <ele>21.200000762939</ele>
        <time>2020-07-09T07:27:29.000Z</time>
      </trkpt>
      <trkpt lat="47.27974" lon="-2.35097">
        <ele>20.60000038147</ele>
        <time>2020-07-09T07:27:30.000Z</time>
      </trkpt>
      <trkpt lat="47.27977" lon="-2.35096">
        <ele>20.200000762939</ele>
        <time>2020-07-09T07:27:31.000Z</time>
      </trkpt>
      <trkpt lat="47.27979" lon="-2.35094">
        <ele>20.200000762939</ele>
        <time>2020-07-09T07:27:32.000Z</time>
      </trkpt>
      <trkpt lat="47.27987" lon="-2.3508">
        <ele>20.200000762939</ele>
        <time>2020-07-09T07:27:35.000Z</time>
      </trkpt>
      <trkpt lat="47.2799" lon="-2.35075">
        <ele>20.200000762939</ele>
        <time>2020-07-09T07:27:36.000Z</time>
      </trkpt>
      <trkpt lat="47.27996" lon="-2.35058">
        <ele>20.200000762939</ele>
        <time>2020-07-09T07:27:39.000Z</time>
      </trkpt>
      <trkpt lat="47.28003" lon="-2.35048">
        <ele>20.200000762939</ele>
        <time>2020-07-09T07:27:41.000Z</time>
      </trkpt>
      <trkpt lat="47.28022" lon="-2.35015">
        <ele>20.200000762939</ele>
        <time>2020-07-09T07:27:47.000Z</time>
      </trkpt>
      <trkpt lat="47.28046" lon="-2.34988">
        <ele>20.200000762939</ele>
        <time>2020-07-09T07:27:53.000Z</time>
      </trkpt>
      <trkpt lat="47.28061" lon="-2.34978">
        <ele>20.200000762939</ele>
        <time>2020-07-09T07:27:58.000Z</time>
      </trkpt>
      <trkpt lat="47.28073" lon="-2.34985">
        <ele>20.200000762939</ele>
        <time>2020-07-09T07:28:02.000Z</time>
      </trkpt>
      <trkpt lat="47.28089" lon="-2.35013">
        <ele>20.200000762939</ele>
        <time>2020-07-09T07:28:07.000Z</time>
      </trkpt>
      <trkpt lat="47.28108" lon="-2.3505">
        <ele>20.60000038147</ele>
        <time>2020-07-09T07:28:13.000Z</time>
      </trkpt>
      <trkpt lat="47.28112" lon="-2.35056">
        <ele>21</ele>
        <time>2020-07-09T07:28:14.000Z</time>
      </trkpt>
      <trkpt lat="47.28115" lon="-2.35062">
        <ele>21.60000038147</ele>
        <time>2020-07-09T07:28:15.000Z</time>
      </trkpt>
      <trkpt lat="47.28118" lon="-2.35068">
        <ele>22</ele>
        <time>2020-07-09T07:28:16.000Z</time>
      </trkpt>
      <trkpt lat="47.28121" lon="-2.35074">
        <ele>22.39999961853</ele>
        <time>2020-07-09T07:28:17.000Z</time>
      </trkpt>
      <trkpt lat="47.28128" lon="-2.35085">
        <ele>22.39999961853</ele>
        <time>2020-07-09T07:28:19.000Z</time>
      </trkpt>
      <trkpt lat="47.28143" lon="-2.35105">
        <ele>22.39999961853</ele>
        <time>2020-07-09T07:28:23.000Z</time>
      </trkpt>
      <trkpt lat="47.28162" lon="-2.35127">
        <ele>22.39999961853</ele>
        <time>2020-07-09T07:28:28.000Z</time>
      </trkpt>
      <trkpt lat="47.28166" lon="-2.35132">
        <ele>22.799999237061</ele>
        <time>2020-07-09T07:28:29.000Z</time>
      </trkpt>
      <trkpt lat="47.2817" lon="-2.35137">
        <ele>23.200000762939</ele>
        <time>2020-07-09T07:28:30.000Z</time>
      </trkpt>
      <trkpt lat="47.28173" lon="-2.35142">
        <ele>23.60000038147</ele>
        <time>2020-07-09T07:28:31.000Z</time>
      </trkpt>
      <trkpt lat="47.28177" lon="-2.35147">
        <ele>24</ele>
        <time>2020-07-09T07:28:32.000Z</time>
      </trkpt>
      <trkpt lat="47.2818" lon="-2.35153">
        <ele>24.39999961853</ele>
        <time>2020-07-09T07:28:33.000Z</time>
      </trkpt>
      <trkpt lat="47.28193" lon="-2.35175">
        <ele>24.39999961853</ele>
        <time>2020-07-09T07:28:37.000Z</time>
      </trkpt>
      <trkpt lat="47.2822" lon="-2.35223">
        <ele>24.39999961853</ele>
        <time>2020-07-09T07:28:45.000Z</time>
      </trkpt>
      <trkpt lat="47.28236" lon="-2.35248">
        <ele>24.39999961853</ele>
        <time>2020-07-09T07:28:50.000Z</time>
      </trkpt>
      <trkpt lat="47.28242" lon="-2.35247">
        <ele>24.39999961853</ele>
        <time>2020-07-09T07:28:51.000Z</time>
      </trkpt>
      <trkpt lat="47.28256" lon="-2.35238">
        <ele>24.39999961853</ele>
        <time>2020-07-09T07:28:54.000Z</time>
      </trkpt>
      <trkpt lat="47.2826" lon="-2.35235">
        <ele>24.39999961853</ele>
        <time>2020-07-09T07:28:55.000Z</time>
      </trkpt>
      <trkpt lat="47.28273" lon="-2.35227">
        <ele>24.39999961853</ele>
        <time>2020-07-09T07:28:58.000Z</time>
      </trkpt>
      <trkpt lat="47.28281" lon="-2.3523">
        <ele>24.39999961853</ele>
        <time>2020-07-09T07:29:00.000Z</time>
      </trkpt>
      <trkpt lat="47.28288" lon="-2.35244">
        <ele>24.39999961853</ele>
        <time>2020-07-09T07:29:03.000Z</time>
      </trkpt>
      <trkpt lat="47.28291" lon="-2.35256">
        <ele>24.39999961853</ele>
        <time>2020-07-09T07:29:05.000Z</time>
      </trkpt>
      <trkpt lat="47.28297" lon="-2.35273">
        <ele>24.39999961853</ele>
        <time>2020-07-09T07:29:08.000Z</time>
      </trkpt>
      <trkpt lat="47.28298" lon="-2.35279">
        <ele>24.39999961853</ele>
        <time>2020-07-09T07:29:09.000Z</time>
      </trkpt>
      <trkpt lat="47.28309" lon="-2.35308">
        <ele>24.39999961853</ele>
        <time>2020-07-09T07:29:14.000Z</time>
      </trkpt>
      <trkpt lat="47.28314" lon="-2.35311">
        <ele>24.39999961853</ele>
        <time>2020-07-09T07:29:15.000Z</time>
      </trkpt>
      <trkpt lat="47.28329" lon="-2.35305">
        <ele>24.39999961853</ele>
        <time>2020-07-09T07:29:18.000Z</time>
      </trkpt>
      <trkpt lat="47.28333" lon="-2.35302">
        <ele>24.39999961853</ele>
        <time>2020-07-09T07:29:19.000Z</time>
      </trkpt>
      <trkpt lat="47.28342" lon="-2.353">
        <ele>24.39999961853</ele>
        <time>2020-07-09T07:29:21.000Z</time>
      </trkpt>
      <trkpt lat="47.28345" lon="-2.35302">
        <ele>24.39999961853</ele>
        <time>2020-07-09T07:29:22.000Z</time>
      </trkpt>
      <trkpt lat="47.2835" lon="-2.35315">
        <ele>24.39999961853</ele>
        <time>2020-07-09T07:29:25.000Z</time>
      </trkpt>
      <trkpt lat="47.28351" lon="-2.35321">
        <ele>24.39999961853</ele>
        <time>2020-07-09T07:29:26.000Z</time>
      </trkpt>
      <trkpt lat="47.28357" lon="-2.35343">
        <ele>24.39999961853</ele>
        <time>2020-07-09T07:29:30.000Z</time>
      </trkpt>
      <trkpt lat="47.28366" lon="-2.35363">
        <ele>24.39999961853</ele>
        <time>2020-07-09T07:29:35.000Z</time>
      </trkpt>
      <trkpt lat="47.28373" lon="-2.35377">
        <ele>24.39999961853</ele>
        <time>2020-07-09T07:29:41.000Z</time>
      </trkpt>
      <trkpt lat="47.28373" lon="-2.35379">
        <ele>24.799999237061</ele>
        <time>2020-07-09T07:29:42.000Z</time>
      </trkpt>
      <trkpt lat="47.28374" lon="-2.35382">
        <ele>25.200000762939</ele>
        <time>2020-07-09T07:29:43.000Z</time>
      </trkpt>
      <trkpt lat="47.28375" lon="-2.35383">
        <ele>25.799999237061</ele>
        <time>2020-07-09T07:29:44.000Z</time>
      </trkpt>
      <trkpt lat="47.28375" lon="-2.35385">
        <ele>26.200000762939</ele>
        <time>2020-07-09T07:29:45.000Z</time>
      </trkpt>
      <trkpt lat="47.28376" lon="-2.35387">
        <ele>26.60000038147</ele>
        <time>2020-07-09T07:29:46.000Z</time>
      </trkpt>
      <trkpt lat="47.28378" lon="-2.3539">
        <ele>27</ele>
        <time>2020-07-09T07:29:48.000Z</time>
      </trkpt>
      <trkpt lat="47.28379" lon="-2.35392">
        <ele>28</ele>
        <time>2020-07-09T07:29:49.000Z</time>
      </trkpt>
      <trkpt lat="47.28379" lon="-2.35394">
        <ele>28.39999961853</ele>
        <time>2020-07-09T07:29:50.000Z</time>
      </trkpt>
      <trkpt lat="47.2838" lon="-2.35395">
        <ele>28.799999237061</ele>
        <time>2020-07-09T07:29:51.000Z</time>
      </trkpt>
      <trkpt lat="47.28383" lon="-2.35399">
        <ele>29.200000762939</ele>
        <time>2020-07-09T07:29:54.000Z</time>
      </trkpt>
      <trkpt lat="47.28384" lon="-2.35401">
        <ele>29.799999237061</ele>
        <time>2020-07-09T07:29:55.000Z</time>
      </trkpt>
      <trkpt lat="47.28385" lon="-2.35404">
        <ele>30.200000762939</ele>
        <time>2020-07-09T07:29:56.000Z</time>
      </trkpt>
      <trkpt lat="47.28386" lon="-2.35406">
        <ele>30.60000038147</ele>
        <time>2020-07-09T07:29:57.000Z</time>
      </trkpt>
      <trkpt lat="47.28387" lon="-2.35409">
        <ele>31.200000762939</ele>
        <time>2020-07-09T07:29:58.000Z</time>
      </trkpt>
      <trkpt lat="47.28393" lon="-2.35417">
        <ele>31.200000762939</ele>
        <time>2020-07-09T07:30:03.000Z</time>
      </trkpt>
      <trkpt lat="47.28404" lon="-2.35425">
        <ele>31.200000762939</ele>
        <time>2020-07-09T07:30:08.000Z</time>
      </trkpt>
      <trkpt lat="47.28406" lon="-2.35425">
        <ele>31.200000762939</ele>
        <time>2020-07-09T07:30:09.000Z</time>
      </trkpt>
      <trkpt lat="47.28413" lon="-2.35418">
        <ele>31.200000762939</ele>
        <time>2020-07-09T07:30:13.000Z</time>
      </trkpt>
      <trkpt lat="47.28416" lon="-2.35416">
        <ele>31.200000762939</ele>
        <time>2020-07-09T07:30:15.000Z</time>
      </trkpt>
      <trkpt lat="47.28424" lon="-2.35412">
        <ele>31.60000038147</ele>
        <time>2020-07-09T07:30:20.000Z</time>
      </trkpt>
      <trkpt lat="47.28426" lon="-2.35411">
        <ele>32</ele>
        <time>2020-07-09T07:30:21.000Z</time>
      </trkpt>
      <trkpt lat="47.28429" lon="-2.3541">
        <ele>32.400001525879</ele>
        <time>2020-07-09T07:30:22.000Z</time>
      </trkpt>
      <trkpt lat="47.28429" lon="-2.3541">
        <ele>32.799999237061</ele>
        <time>2020-07-09T07:30:23.000Z</time>
      </trkpt>
      <trkpt lat="47.28431" lon="-2.35409">
        <ele>33.200000762939</ele>
        <time>2020-07-09T07:30:24.000Z</time>
      </trkpt>
      <trkpt lat="47.28437" lon="-2.35408">
        <ele>33.200000762939</ele>
        <time>2020-07-09T07:30:28.000Z</time>
      </trkpt>
      <trkpt lat="47.2844" lon="-2.35407">
        <ele>33.200000762939</ele>
        <time>2020-07-09T07:30:30.000Z</time>
      </trkpt>
      <trkpt lat="47.28443" lon="-2.35405">
        <ele>33.200000762939</ele>
        <time>2020-07-09T07:30:32.000Z</time>
      </trkpt>
      <trkpt lat="47.28449" lon="-2.35396">
        <ele>32.799999237061</ele>
        <time>2020-07-09T07:30:36.000Z</time>
      </trkpt>
      <trkpt lat="47.2845" lon="-2.35392">
        <ele>32.400001525879</ele>
        <time>2020-07-09T07:30:37.000Z</time>
      </trkpt>
      <trkpt lat="47.28451" lon="-2.35388">
        <ele>31.799999237061</ele>
        <time>2020-07-09T07:30:38.000Z</time>
      </trkpt>
      <trkpt lat="47.28452" lon="-2.35381">
        <ele>31</ele>
        <time>2020-07-09T07:30:39.000Z</time>
      </trkpt>
      <trkpt lat="47.28453" lon="-2.35373">
        <ele>30.39999961853</ele>
        <time>2020-07-09T07:30:40.000Z</time>
      </trkpt>
      <trkpt lat="47.28454" lon="-2.35367">
        <ele>30</ele>
        <time>2020-07-09T07:30:41.000Z</time>
      </trkpt>
      <trkpt lat="47.28455" lon="-2.35362">
        <ele>29.200000762939</ele>
        <time>2020-07-09T07:30:42.000Z</time>
      </trkpt>
      <trkpt lat="47.28456" lon="-2.35357">
        <ele>28.60000038147</ele>
        <time>2020-07-09T07:30:43.000Z</time>
      </trkpt>
      <trkpt lat="47.28457" lon="-2.35353">
        <ele>28</ele>
        <time>2020-07-09T07:30:44.000Z</time>
      </trkpt>
      <trkpt lat="47.28458" lon="-2.3535">
        <ele>27.39999961853</ele>
        <time>2020-07-09T07:30:45.000Z</time>
      </trkpt>
      <trkpt lat="47.28459" lon="-2.35348">
        <ele>26.799999237061</ele>
        <time>2020-07-09T07:30:46.000Z</time>
      </trkpt>
      <trkpt lat="47.2846" lon="-2.35348">
        <ele>26.39999961853</ele>
        <time>2020-07-09T07:30:47.000Z</time>
      </trkpt>
      <trkpt lat="47.28462" lon="-2.3535">
        <ele>26</ele>
        <time>2020-07-09T07:30:48.000Z</time>
      </trkpt>
      <trkpt lat="47.28464" lon="-2.35352">
        <ele>25.39999961853</ele>
        <time>2020-07-09T07:30:49.000Z</time>
      </trkpt>
      <trkpt lat="47.28467" lon="-2.35357">
        <ele>25</ele>
        <time>2020-07-09T07:30:50.000Z</time>
      </trkpt>
      <trkpt lat="47.28471" lon="-2.35362">
        <ele>24.60000038147</ele>
        <time>2020-07-09T07:30:51.000Z</time>
      </trkpt>
      <trkpt lat="47.28477" lon="-2.35372">
        <ele>24.60000038147</ele>
        <time>2020-07-09T07:30:53.000Z</time>
      </trkpt>
      <trkpt lat="47.28479" lon="-2.35381">
        <ele>24.60000038147</ele>
        <time>2020-07-09T07:30:54.000Z</time>
      </trkpt>
      <trkpt lat="47.28483" lon="-2.35397">
        <ele>24.60000038147</ele>
        <time>2020-07-09T07:30:56.000Z</time>
      </trkpt>
      <trkpt lat="47.28491" lon="-2.35419">
        <ele>24.60000038147</ele>
        <time>2020-07-09T07:31:01.000Z</time>
      </trkpt>
      <trkpt lat="47.28495" lon="-2.35423">
        <ele>25.39999961853</ele>
        <time>2020-07-09T07:31:04.000Z</time>
      </trkpt>
      <trkpt lat="47.28495" lon="-2.35423">
        <ele>25.799999237061</ele>
        <time>2020-07-09T07:31:05.000Z</time>
      </trkpt>
      <trkpt lat="47.28496" lon="-2.35423">
        <ele>26.39999961853</ele>
        <time>2020-07-09T07:31:06.000Z</time>
      </trkpt>
      <trkpt lat="47.28497" lon="-2.35423">
        <ele>26.799999237061</ele>
        <time>2020-07-09T07:31:07.000Z</time>
      </trkpt>
      <trkpt lat="47.28499" lon="-2.35422">
        <ele>26.799999237061</ele>
        <time>2020-07-09T07:31:11.000Z</time>
      </trkpt>
      <trkpt lat="47.28503" lon="-2.35418">
        <ele>26.799999237061</ele>
        <time>2020-07-09T07:31:21.000Z</time>
      </trkpt>
      <trkpt lat="47.28507" lon="-2.35416">
        <ele>26.799999237061</ele>
        <time>2020-07-09T07:31:23.000Z</time>
      </trkpt>
      <trkpt lat="47.28516" lon="-2.35417">
        <ele>26.799999237061</ele>
        <time>2020-07-09T07:31:27.000Z</time>
      </trkpt>
      <trkpt lat="47.28533" lon="-2.35431">
        <ele>26.799999237061</ele>
        <time>2020-07-09T07:31:52.000Z</time>
      </trkpt>
      <trkpt lat="47.28535" lon="-2.3543">
        <ele>26.799999237061</ele>
        <time>2020-07-09T07:31:53.000Z</time>
      </trkpt>
      <trkpt lat="47.28549" lon="-2.35423">
        <ele>26.200000762939</ele>
        <time>2020-07-09T07:32:00.000Z</time>
      </trkpt>
      <trkpt lat="47.2855" lon="-2.35423">
        <ele>25.799999237061</ele>
        <time>2020-07-09T07:32:01.000Z</time>
      </trkpt>
      <trkpt lat="47.28551" lon="-2.35422">
        <ele>25.39999961853</ele>
        <time>2020-07-09T07:32:02.000Z</time>
      </trkpt>
      <trkpt lat="47.28553" lon="-2.35422">
        <ele>24.799999237061</ele>
        <time>2020-07-09T07:32:03.000Z</time>
      </trkpt>
      <trkpt lat="47.28563" lon="-2.35428">
        <ele>24.39999961853</ele>
        <time>2020-07-09T07:32:40.000Z</time>
      </trkpt>
      <trkpt lat="47.28564" lon="-2.35432">
        <ele>24.39999961853</ele>
        <time>2020-07-09T07:32:41.000Z</time>
      </trkpt>
      <trkpt lat="47.28571" lon="-2.35464">
        <ele>24.799999237061</ele>
        <time>2020-07-09T07:32:48.000Z</time>
      </trkpt>
      <trkpt lat="47.28571" lon="-2.35469">
        <ele>25.200000762939</ele>
        <time>2020-07-09T07:32:49.000Z</time>
      </trkpt>
      <trkpt lat="47.28572" lon="-2.35475">
        <ele>25.60000038147</ele>
        <time>2020-07-09T07:32:50.000Z</time>
      </trkpt>
      <trkpt lat="47.28572" lon="-2.35481">
        <ele>26</ele>
        <time>2020-07-09T07:32:51.000Z</time>
      </trkpt>
      <trkpt lat="47.28573" lon="-2.35486">
        <ele>26.60000038147</ele>
        <time>2020-07-09T07:32:52.000Z</time>
      </trkpt>
      <trkpt lat="47.28574" lon="-2.35496">
        <ele>26.60000038147</ele>
        <time>2020-07-09T07:32:54.000Z</time>
      </trkpt>
      <trkpt lat="47.28581" lon="-2.35538">
        <ele>26.60000038147</ele>
        <time>2020-07-09T07:33:00.000Z</time>
      </trkpt>
      <trkpt lat="47.28589" lon="-2.35607">
        <ele>26.60000038147</ele>
        <time>2020-07-09T07:33:10.000Z</time>
      </trkpt>
      <trkpt lat="47.28597" lon="-2.35659">
        <ele>26.60000038147</ele>
        <time>2020-07-09T07:33:18.000Z</time>
      </trkpt>
      <trkpt lat="47.28598" lon="-2.35665">
        <ele>27</ele>
        <time>2020-07-09T07:33:19.000Z</time>
      </trkpt>
      <trkpt lat="47.28599" lon="-2.35671">
        <ele>27.39999961853</ele>
        <time>2020-07-09T07:33:20.000Z</time>
      </trkpt>
      <trkpt lat="47.28601" lon="-2.35677">
        <ele>27.799999237061</ele>
        <time>2020-07-09T07:33:21.000Z</time>
      </trkpt>
      <trkpt lat="47.28602" lon="-2.35683">
        <ele>28.200000762939</ele>
        <time>2020-07-09T07:33:22.000Z</time>
      </trkpt>
      <trkpt lat="47.28603" lon="-2.35689">
        <ele>28.60000038147</ele>
        <time>2020-07-09T07:33:23.000Z</time>
      </trkpt>
      <trkpt lat="47.28605" lon="-2.35702">
        <ele>28.60000038147</ele>
        <time>2020-07-09T07:33:25.000Z</time>
      </trkpt>
      <trkpt lat="47.2861" lon="-2.35731">
        <ele>28.60000038147</ele>
        <time>2020-07-09T07:33:29.000Z</time>
      </trkpt>
      <trkpt lat="47.28618" lon="-2.3574">
        <ele>28.60000038147</ele>
        <time>2020-07-09T07:33:31.000Z</time>
      </trkpt>
      <trkpt lat="47.28624" lon="-2.35752">
        <ele>28.60000038147</ele>
        <time>2020-07-09T07:33:33.000Z</time>
      </trkpt>
      <trkpt lat="47.2863" lon="-2.35772">
        <ele>28.60000038147</ele>
        <time>2020-07-09T07:33:36.000Z</time>
      </trkpt>
      <trkpt lat="47.28632" lon="-2.35778">
        <ele>28.60000038147</ele>
        <time>2020-07-09T07:33:37.000Z</time>
      </trkpt>
      <trkpt lat="47.28643" lon="-2.35817">
        <ele>28.60000038147</ele>
        <time>2020-07-09T07:33:44.000Z</time>
      </trkpt>
      <trkpt lat="47.28648" lon="-2.35844">
        <ele>28.60000038147</ele>
        <time>2020-07-09T07:33:49.000Z</time>
      </trkpt>
      <trkpt lat="47.28659" lon="-2.35873">
        <ele>29</ele>
        <time>2020-07-09T07:33:54.000Z</time>
      </trkpt>
      <trkpt lat="47.28661" lon="-2.3588">
        <ele>29.39999961853</ele>
        <time>2020-07-09T07:33:55.000Z</time>
      </trkpt>
      <trkpt lat="47.28664" lon="-2.35886">
        <ele>29.799999237061</ele>
        <time>2020-07-09T07:33:56.000Z</time>
      </trkpt>
      <trkpt lat="47.28665" lon="-2.35893">
        <ele>30.60000038147</ele>
        <time>2020-07-09T07:33:57.000Z</time>
      </trkpt>
      <trkpt lat="47.28672" lon="-2.3592">
        <ele>30.60000038147</ele>
        <time>2020-07-09T07:34:02.000Z</time>
      </trkpt>
      <trkpt lat="47.28675" lon="-2.35921">
        <ele>30.60000038147</ele>
        <time>2020-07-09T07:34:03.000Z</time>
      </trkpt>
      <trkpt lat="47.2868" lon="-2.35918">
        <ele>30.60000038147</ele>
        <time>2020-07-09T07:34:05.000Z</time>
      </trkpt>
      <trkpt lat="47.28689" lon="-2.35905">
        <ele>30.60000038147</ele>
        <time>2020-07-09T07:34:08.000Z</time>
      </trkpt>
      <trkpt lat="47.28693" lon="-2.359">
        <ele>30.60000038147</ele>
        <time>2020-07-09T07:34:09.000Z</time>
      </trkpt>
      <trkpt lat="47.28715" lon="-2.35869">
        <ele>30.60000038147</ele>
        <time>2020-07-09T07:34:16.000Z</time>
      </trkpt>
      <trkpt lat="47.28722" lon="-2.35855">
        <ele>30.60000038147</ele>
        <time>2020-07-09T07:34:19.000Z</time>
      </trkpt>
      <trkpt lat="47.28724" lon="-2.3585">
        <ele>31</ele>
        <time>2020-07-09T07:34:20.000Z</time>
      </trkpt>
      <trkpt lat="47.28727" lon="-2.35845">
        <ele>31.39999961853</ele>
        <time>2020-07-09T07:34:21.000Z</time>
      </trkpt>
      <trkpt lat="47.2873" lon="-2.3584">
        <ele>32.200000762939</ele>
        <time>2020-07-09T07:34:22.000Z</time>
      </trkpt>
      <trkpt lat="47.28733" lon="-2.35835">
        <ele>32.599998474121</ele>
        <time>2020-07-09T07:34:23.000Z</time>
      </trkpt>
      <trkpt lat="47.28752" lon="-2.35796">
        <ele>32.599998474121</ele>
        <time>2020-07-09T07:34:30.000Z</time>
      </trkpt>
      <trkpt lat="47.28773" lon="-2.35755">
        <ele>32.599998474121</ele>
        <time>2020-07-09T07:34:37.000Z</time>
      </trkpt>
      <trkpt lat="47.28793" lon="-2.35713">
        <ele>32.599998474121</ele>
        <time>2020-07-09T07:34:44.000Z</time>
      </trkpt>
      <trkpt lat="47.28807" lon="-2.35685">
        <ele>32.599998474121</ele>
        <time>2020-07-09T07:34:48.000Z</time>
      </trkpt>
      <trkpt lat="47.2882" lon="-2.35668">
        <ele>32.599998474121</ele>
        <time>2020-07-09T07:34:51.000Z</time>
      </trkpt>
      <trkpt lat="47.28857" lon="-2.35626">
        <ele>32.599998474121</ele>
        <time>2020-07-09T07:34:59.000Z</time>
      </trkpt>
      <trkpt lat="47.28891" lon="-2.3559">
        <ele>32.599998474121</ele>
        <time>2020-07-09T07:35:06.000Z</time>
      </trkpt>
      <trkpt lat="47.28914" lon="-2.35571">
        <ele>32.599998474121</ele>
        <time>2020-07-09T07:35:11.000Z</time>
      </trkpt>
      <trkpt lat="47.28917" lon="-2.35571">
        <ele>32.599998474121</ele>
        <time>2020-07-09T07:35:12.000Z</time>
      </trkpt>
      <trkpt lat="47.2892" lon="-2.35575">
        <ele>32.599998474121</ele>
        <time>2020-07-09T07:35:13.000Z</time>
      </trkpt>
      <trkpt lat="47.28926" lon="-2.35585">
        <ele>32.599998474121</ele>
        <time>2020-07-09T07:35:15.000Z</time>
      </trkpt>
      <trkpt lat="47.28934" lon="-2.35604">
        <ele>32.599998474121</ele>
        <time>2020-07-09T07:35:18.000Z</time>
      </trkpt>
      <trkpt lat="47.28939" lon="-2.35618">
        <ele>32.599998474121</ele>
        <time>2020-07-09T07:35:20.000Z</time>
      </trkpt>
      <trkpt lat="47.28956" lon="-2.35657">
        <ele>32.599998474121</ele>
        <time>2020-07-09T07:35:26.000Z</time>
      </trkpt>
      <trkpt lat="47.28971" lon="-2.35689">
        <ele>32.599998474121</ele>
        <time>2020-07-09T07:35:31.000Z</time>
      </trkpt>
      <trkpt lat="47.28981" lon="-2.35705">
        <ele>33</ele>
        <time>2020-07-09T07:35:34.000Z</time>
      </trkpt>
      <trkpt lat="47.28985" lon="-2.3571">
        <ele>33.799999237061</ele>
        <time>2020-07-09T07:35:35.000Z</time>
      </trkpt>
      <trkpt lat="47.28988" lon="-2.35714">
        <ele>34.200000762939</ele>
        <time>2020-07-09T07:35:36.000Z</time>
      </trkpt>
      <trkpt lat="47.28992" lon="-2.35718">
        <ele>34.599998474121</ele>
        <time>2020-07-09T07:35:37.000Z</time>
      </trkpt>
      <trkpt lat="47.29002" lon="-2.3573">
        <ele>34.599998474121</ele>
        <time>2020-07-09T07:35:40.000Z</time>
      </trkpt>
      <trkpt lat="47.29007" lon="-2.3573">
        <ele>34.599998474121</ele>
        <time>2020-07-09T07:35:41.000Z</time>
      </trkpt>
      <trkpt lat="47.29016" lon="-2.35721">
        <ele>34.599998474121</ele>
        <time>2020-07-09T07:35:43.000Z</time>
      </trkpt>
      <trkpt lat="47.29058" lon="-2.35682">
        <ele>34.599998474121</ele>
        <time>2020-07-09T07:35:52.000Z</time>
      </trkpt>
      <trkpt lat="47.29072" lon="-2.35669">
        <ele>34.599998474121</ele>
        <time>2020-07-09T07:35:55.000Z</time>
      </trkpt>
      <trkpt lat="47.29081" lon="-2.35664">
        <ele>34.599998474121</ele>
        <time>2020-07-09T07:35:57.000Z</time>
      </trkpt>
      <trkpt lat="47.29086" lon="-2.35661">
        <ele>34.599998474121</ele>
        <time>2020-07-09T07:35:58.000Z</time>
      </trkpt>
      <trkpt lat="47.29107" lon="-2.35645">
        <ele>34.599998474121</ele>
        <time>2020-07-09T07:36:03.000Z</time>
      </trkpt>
      <trkpt lat="47.2911" lon="-2.35641">
        <ele>34.599998474121</ele>
        <time>2020-07-09T07:36:04.000Z</time>
      </trkpt>
      <trkpt lat="47.29112" lon="-2.35634">
        <ele>34.599998474121</ele>
        <time>2020-07-09T07:36:05.000Z</time>
      </trkpt>
      <trkpt lat="47.2912" lon="-2.35615">
        <ele>34.599998474121</ele>
        <time>2020-07-09T07:36:08.000Z</time>
      </trkpt>
      <trkpt lat="47.29125" lon="-2.35613">
        <ele>34.599998474121</ele>
        <time>2020-07-09T07:36:09.000Z</time>
      </trkpt>
      <trkpt lat="47.29137" lon="-2.35618">
        <ele>34.599998474121</ele>
        <time>2020-07-09T07:36:11.000Z</time>
      </trkpt>
      <trkpt lat="47.29145" lon="-2.35627">
        <ele>34.599998474121</ele>
        <time>2020-07-09T07:36:13.000Z</time>
      </trkpt>
      <trkpt lat="47.2916" lon="-2.35642">
        <ele>34.599998474121</ele>
        <time>2020-07-09T07:36:16.000Z</time>
      </trkpt>
      <trkpt lat="47.29172" lon="-2.35647">
        <ele>34.599998474121</ele>
        <time>2020-07-09T07:36:18.000Z</time>
      </trkpt>
      <trkpt lat="47.29178" lon="-2.35651">
        <ele>34.599998474121</ele>
        <time>2020-07-09T07:36:19.000Z</time>
      </trkpt>
      <trkpt lat="47.29183" lon="-2.35655">
        <ele>34.599998474121</ele>
        <time>2020-07-09T07:36:20.000Z</time>
      </trkpt>
      <trkpt lat="47.29188" lon="-2.35661">
        <ele>34.599998474121</ele>
        <time>2020-07-09T07:36:21.000Z</time>
      </trkpt>
      <trkpt lat="47.29204" lon="-2.35678">
        <ele>34.599998474121</ele>
        <time>2020-07-09T07:36:24.000Z</time>
      </trkpt>
      <trkpt lat="47.2924" lon="-2.35712">
        <ele>34.599998474121</ele>
        <time>2020-07-09T07:36:31.000Z</time>
      </trkpt>
      <trkpt lat="47.29273" lon="-2.35742">
        <ele>34.599998474121</ele>
        <time>2020-07-09T07:36:38.000Z</time>
      </trkpt>
      <trkpt lat="47.29305" lon="-2.35772">
        <ele>34.599998474121</ele>
        <time>2020-07-09T07:36:44.000Z</time>
      </trkpt>
      <trkpt lat="47.29356" lon="-2.35819">
        <ele>34.599998474121</ele>
        <time>2020-07-09T07:36:53.000Z</time>
      </trkpt>
      <trkpt lat="47.29403" lon="-2.35865">
        <ele>34.599998474121</ele>
        <time>2020-07-09T07:37:01.000Z</time>
      </trkpt>
      <trkpt lat="47.29435" lon="-2.35903">
        <ele>34.599998474121</ele>
        <time>2020-07-09T07:37:08.000Z</time>
      </trkpt>
      <trkpt lat="47.29439" lon="-2.35904">
        <ele>34.599998474121</ele>
        <time>2020-07-09T07:37:09.000Z</time>
      </trkpt>
      <trkpt lat="47.29459" lon="-2.35904">
        <ele>34.599998474121</ele>
        <time>2020-07-09T07:37:13.000Z</time>
      </trkpt>
      <trkpt lat="47.29485" lon="-2.35901">
        <ele>34.599998474121</ele>
        <time>2020-07-09T07:37:18.000Z</time>
      </trkpt>
      <trkpt lat="47.2949" lon="-2.35902">
        <ele>34.599998474121</ele>
        <time>2020-07-09T07:37:19.000Z</time>
      </trkpt>
      <trkpt lat="47.29501" lon="-2.35917">
        <ele>34.599998474121</ele>
        <time>2020-07-09T07:37:22.000Z</time>
      </trkpt>
      <trkpt lat="47.29503" lon="-2.35924">
        <ele>34.599998474121</ele>
        <time>2020-07-09T07:37:23.000Z</time>
      </trkpt>
      <trkpt lat="47.29508" lon="-2.35937">
        <ele>34.599998474121</ele>
        <time>2020-07-09T07:37:25.000Z</time>
      </trkpt>
      <trkpt lat="47.29514" lon="-2.35941">
        <ele>34.599998474121</ele>
        <time>2020-07-09T07:37:27.000Z</time>
      </trkpt>
      <trkpt lat="47.29525" lon="-2.35933">
        <ele>34.599998474121</ele>
        <time>2020-07-09T07:37:30.000Z</time>
      </trkpt>
      <trkpt lat="47.29534" lon="-2.35928">
        <ele>34.599998474121</ele>
        <time>2020-07-09T07:37:32.000Z</time>
      </trkpt>
      <trkpt lat="47.29569" lon="-2.35907">
        <ele>34.599998474121</ele>
        <time>2020-07-09T07:37:39.000Z</time>
      </trkpt>
      <trkpt lat="47.29588" lon="-2.35895">
        <ele>34.599998474121</ele>
        <time>2020-07-09T07:37:43.000Z</time>
      </trkpt>
      <trkpt lat="47.29598" lon="-2.35888">
        <ele>34.599998474121</ele>
        <time>2020-07-09T07:37:45.000Z</time>
      </trkpt>
      <trkpt lat="47.29632" lon="-2.3587">
        <ele>34.599998474121</ele>
        <time>2020-07-09T07:37:51.000Z</time>
      </trkpt>
      <trkpt lat="47.29637" lon="-2.35865">
        <ele>34.599998474121</ele>
        <time>2020-07-09T07:37:52.000Z</time>
      </trkpt>
      <trkpt lat="47.29654" lon="-2.35841">
        <ele>34.599998474121</ele>
        <time>2020-07-09T07:37:56.000Z</time>
      </trkpt>
      <trkpt lat="47.29668" lon="-2.35837">
        <ele>34.599998474121</ele>
        <time>2020-07-09T07:37:59.000Z</time>
      </trkpt>
      <trkpt lat="47.2968" lon="-2.35838">
        <ele>34.599998474121</ele>
        <time>2020-07-09T07:38:01.000Z</time>
      </trkpt>
      <trkpt lat="47.29696" lon="-2.35834">
        <ele>34.599998474121</ele>
        <time>2020-07-09T07:38:04.000Z</time>
      </trkpt>
      <trkpt lat="47.2973" lon="-2.35817">
        <ele>34.599998474121</ele>
        <time>2020-07-09T07:38:10.000Z</time>
      </trkpt>
      <trkpt lat="47.29735" lon="-2.35814">
        <ele>35</ele>
        <time>2020-07-09T07:38:11.000Z</time>
      </trkpt>
      <trkpt lat="47.2974" lon="-2.35811">
        <ele>35.400001525879</ele>
        <time>2020-07-09T07:38:12.000Z</time>
      </trkpt>
      <trkpt lat="47.29745" lon="-2.35808">
        <ele>35.799999237061</ele>
        <time>2020-07-09T07:38:13.000Z</time>
      </trkpt>
      <trkpt lat="47.2975" lon="-2.35806">
        <ele>36.200000762939</ele>
        <time>2020-07-09T07:38:14.000Z</time>
      </trkpt>
      <trkpt lat="47.29755" lon="-2.35804">
        <ele>36.599998474121</ele>
        <time>2020-07-09T07:38:15.000Z</time>
      </trkpt>
      <trkpt lat="47.29766" lon="-2.358">
        <ele>36.599998474121</ele>
        <time>2020-07-09T07:38:17.000Z</time>
      </trkpt>
      <trkpt lat="47.29782" lon="-2.35795">
        <ele>37</ele>
        <time>2020-07-09T07:38:20.000Z</time>
      </trkpt>
      <trkpt lat="47.29787" lon="-2.35793">
        <ele>37.400001525879</ele>
        <time>2020-07-09T07:38:21.000Z</time>
      </trkpt>
      <trkpt lat="47.29793" lon="-2.35791">
        <ele>38</ele>
        <time>2020-07-09T07:38:22.000Z</time>
      </trkpt>
      <trkpt lat="47.29798" lon="-2.3579">
        <ele>38.400001525879</ele>
        <time>2020-07-09T07:38:23.000Z</time>
      </trkpt>
      <trkpt lat="47.29803" lon="-2.35788">
        <ele>38.799999237061</ele>
        <time>2020-07-09T07:38:24.000Z</time>
      </trkpt>
      <trkpt lat="47.29819" lon="-2.35783">
        <ele>38.799999237061</ele>
        <time>2020-07-09T07:38:27.000Z</time>
      </trkpt>
      <trkpt lat="47.29855" lon="-2.35771">
        <ele>38.799999237061</ele>
        <time>2020-07-09T07:38:33.000Z</time>
      </trkpt>
      <trkpt lat="47.29874" lon="-2.35765">
        <ele>38.400001525879</ele>
        <time>2020-07-09T07:38:36.000Z</time>
      </trkpt>
      <trkpt lat="47.29881" lon="-2.35762">
        <ele>38</ele>
        <time>2020-07-09T07:38:37.000Z</time>
      </trkpt>
      <trkpt lat="47.29887" lon="-2.35759">
        <ele>37.400001525879</ele>
        <time>2020-07-09T07:38:38.000Z</time>
      </trkpt>
      <trkpt lat="47.29893" lon="-2.35756">
        <ele>37</ele>
        <time>2020-07-09T07:38:39.000Z</time>
      </trkpt>
      <trkpt lat="47.29899" lon="-2.35753">
        <ele>36.599998474121</ele>
        <time>2020-07-09T07:38:40.000Z</time>
      </trkpt>
      <trkpt lat="47.29931" lon="-2.35729">
        <ele>36.599998474121</ele>
        <time>2020-07-09T07:38:46.000Z</time>
      </trkpt>
      <trkpt lat="47.29937" lon="-2.35725">
        <ele>36.599998474121</ele>
        <time>2020-07-09T07:38:47.000Z</time>
      </trkpt>
      <trkpt lat="47.29963" lon="-2.35706">
        <ele>36.599998474121</ele>
        <time>2020-07-09T07:38:52.000Z</time>
      </trkpt>
      <trkpt lat="47.29997" lon="-2.35685">
        <ele>36.599998474121</ele>
        <time>2020-07-09T07:38:59.000Z</time>
      </trkpt>
      <trkpt lat="47.30037" lon="-2.35661">
        <ele>36.599998474121</ele>
        <time>2020-07-09T07:39:08.000Z</time>
      </trkpt>
      <trkpt lat="47.30062" lon="-2.35645">
        <ele>36.599998474121</ele>
        <time>2020-07-09T07:39:15.000Z</time>
      </trkpt>
      <trkpt lat="47.30084" lon="-2.35631">
        <ele>37</ele>
        <time>2020-07-09T07:39:21.000Z</time>
      </trkpt>
      <trkpt lat="47.30088" lon="-2.35628">
        <ele>37.400001525879</ele>
        <time>2020-07-09T07:39:22.000Z</time>
      </trkpt>
      <trkpt lat="47.30092" lon="-2.35626">
        <ele>37.799999237061</ele>
        <time>2020-07-09T07:39:23.000Z</time>
      </trkpt>
      <trkpt lat="47.30096" lon="-2.35623">
        <ele>38.400001525879</ele>
        <time>2020-07-09T07:39:24.000Z</time>
      </trkpt>
      <trkpt lat="47.301" lon="-2.35621">
        <ele>38.799999237061</ele>
        <time>2020-07-09T07:39:25.000Z</time>
      </trkpt>
      <trkpt lat="47.30117" lon="-2.35607">
        <ele>38.799999237061</ele>
        <time>2020-07-09T07:39:30.000Z</time>
      </trkpt>
      <trkpt lat="47.30126" lon="-2.35597">
        <ele>38.799999237061</ele>
        <time>2020-07-09T07:39:33.000Z</time>
      </trkpt>
      <trkpt lat="47.30129" lon="-2.35598">
        <ele>38.799999237061</ele>
        <time>2020-07-09T07:39:34.000Z</time>
      </trkpt>
      <trkpt lat="47.30135" lon="-2.35613">
        <ele>38.799999237061</ele>
        <time>2020-07-09T07:39:37.000Z</time>
      </trkpt>
      <trkpt lat="47.30133" lon="-2.3564">
        <ele>38.799999237061</ele>
        <time>2020-07-09T07:39:41.000Z</time>
      </trkpt>
      <trkpt lat="47.30134" lon="-2.35666">
        <ele>38.799999237061</ele>
        <time>2020-07-09T07:39:45.000Z</time>
      </trkpt>
      <trkpt lat="47.30135" lon="-2.35679">
        <ele>38.799999237061</ele>
        <time>2020-07-09T07:39:47.000Z</time>
      </trkpt>
      <trkpt lat="47.30139" lon="-2.35725">
        <ele>38.799999237061</ele>
        <time>2020-07-09T07:39:54.000Z</time>
      </trkpt>
      <trkpt lat="47.30141" lon="-2.35787">
        <ele>38.799999237061</ele>
        <time>2020-07-09T07:40:01.000Z</time>
      </trkpt>
      <trkpt lat="47.30141" lon="-2.35807">
        <ele>38.799999237061</ele>
        <time>2020-07-09T07:40:03.000Z</time>
      </trkpt>
      <trkpt lat="47.30137" lon="-2.3584">
        <ele>38.799999237061</ele>
        <time>2020-07-09T07:40:06.000Z</time>
      </trkpt>
      <trkpt lat="47.30123" lon="-2.35924">
        <ele>38.799999237061</ele>
        <time>2020-07-09T07:40:13.000Z</time>
      </trkpt>
      <trkpt lat="47.3012" lon="-2.35936">
        <ele>38.200000762939</ele>
        <time>2020-07-09T07:40:14.000Z</time>
      </trkpt>
      <trkpt lat="47.30118" lon="-2.35948">
        <ele>37.799999237061</ele>
        <time>2020-07-09T07:40:15.000Z</time>
      </trkpt>
      <trkpt lat="47.30116" lon="-2.35959">
        <ele>37.400001525879</ele>
        <time>2020-07-09T07:40:16.000Z</time>
      </trkpt>
      <trkpt lat="47.30114" lon="-2.35971">
        <ele>37</ele>
        <time>2020-07-09T07:40:17.000Z</time>
      </trkpt>
      <trkpt lat="47.30111" lon="-2.35983">
        <ele>36.400001525879</ele>
        <time>2020-07-09T07:40:18.000Z</time>
      </trkpt>
      <trkpt lat="47.30105" lon="-2.36031">
        <ele>36.400001525879</ele>
        <time>2020-07-09T07:40:22.000Z</time>
      </trkpt>
      <trkpt lat="47.301" lon="-2.36076">
        <ele>36</ele>
        <time>2020-07-09T07:40:26.000Z</time>
      </trkpt>
      <trkpt lat="47.30099" lon="-2.36087">
        <ele>35.599998474121</ele>
        <time>2020-07-09T07:40:27.000Z</time>
      </trkpt>
      <trkpt lat="47.30098" lon="-2.36097">
        <ele>35.200000762939</ele>
        <time>2020-07-09T07:40:28.000Z</time>
      </trkpt>
      <trkpt lat="47.30096" lon="-2.36108">
        <ele>34.599998474121</ele>
        <time>2020-07-09T07:40:29.000Z</time>
      </trkpt>
      <trkpt lat="47.30095" lon="-2.36118">
        <ele>34.200000762939</ele>
        <time>2020-07-09T07:40:30.000Z</time>
      </trkpt>
      <trkpt lat="47.3009" lon="-2.36176">
        <ele>34.200000762939</ele>
        <time>2020-07-09T07:40:36.000Z</time>
      </trkpt>
      <trkpt lat="47.3009" lon="-2.36243">
        <ele>34.200000762939</ele>
        <time>2020-07-09T07:40:43.000Z</time>
      </trkpt>
      <trkpt lat="47.30098" lon="-2.36318">
        <ele>34.200000762939</ele>
        <time>2020-07-09T07:40:52.000Z</time>
      </trkpt>
      <trkpt lat="47.30102" lon="-2.36375">
        <ele>34.599998474121</ele>
        <time>2020-07-09T07:40:59.000Z</time>
      </trkpt>
      <trkpt lat="47.30102" lon="-2.36384">
        <ele>35</ele>
        <time>2020-07-09T07:41:00.000Z</time>
      </trkpt>
      <trkpt lat="47.30103" lon="-2.36392">
        <ele>35.400001525879</ele>
        <time>2020-07-09T07:41:01.000Z</time>
      </trkpt>
      <trkpt lat="47.30104" lon="-2.364">
        <ele>35.799999237061</ele>
        <time>2020-07-09T07:41:02.000Z</time>
      </trkpt>
      <trkpt lat="47.30104" lon="-2.36409">
        <ele>36.200000762939</ele>
        <time>2020-07-09T07:41:03.000Z</time>
      </trkpt>
      <trkpt lat="47.30111" lon="-2.36449">
        <ele>36.200000762939</ele>
        <time>2020-07-09T07:41:08.000Z</time>
      </trkpt>
      <trkpt lat="47.30117" lon="-2.36499">
        <ele>36.599998474121</ele>
        <time>2020-07-09T07:41:14.000Z</time>
      </trkpt>
      <trkpt lat="47.30118" lon="-2.36507">
        <ele>37</ele>
        <time>2020-07-09T07:41:15.000Z</time>
      </trkpt>
      <trkpt lat="47.30119" lon="-2.36515">
        <ele>37.599998474121</ele>
        <time>2020-07-09T07:41:16.000Z</time>
      </trkpt>
      <trkpt lat="47.3012" lon="-2.36523">
        <ele>38</ele>
        <time>2020-07-09T07:41:17.000Z</time>
      </trkpt>
      <trkpt lat="47.30122" lon="-2.36531">
        <ele>38.400001525879</ele>
        <time>2020-07-09T07:41:18.000Z</time>
      </trkpt>
      <trkpt lat="47.30129" lon="-2.3659">
        <ele>38.400001525879</ele>
        <time>2020-07-09T07:41:25.000Z</time>
      </trkpt>
      <trkpt lat="47.30143" lon="-2.36635">
        <ele>38.400001525879</ele>
        <time>2020-07-09T07:41:31.000Z</time>
      </trkpt>
      <trkpt lat="47.30145" lon="-2.36641">
        <ele>38.799999237061</ele>
        <time>2020-07-09T07:41:32.000Z</time>
      </trkpt>
      <trkpt lat="47.30148" lon="-2.36648">
        <ele>39.200000762939</ele>
        <time>2020-07-09T07:41:33.000Z</time>
      </trkpt>
      <trkpt lat="47.30151" lon="-2.36654">
        <ele>39.599998474121</ele>
        <time>2020-07-09T07:41:34.000Z</time>
      </trkpt>
      <trkpt lat="47.30154" lon="-2.3666">
        <ele>40</ele>
        <time>2020-07-09T07:41:35.000Z</time>
      </trkpt>
      <trkpt lat="47.30156" lon="-2.36665">
        <ele>40.400001525879</ele>
        <time>2020-07-09T07:41:36.000Z</time>
      </trkpt>
      <trkpt lat="47.30161" lon="-2.36674">
        <ele>40.400001525879</ele>
        <time>2020-07-09T07:41:38.000Z</time>
      </trkpt>
      <trkpt lat="47.30171" lon="-2.36684">
        <ele>40.400001525879</ele>
        <time>2020-07-09T07:41:42.000Z</time>
      </trkpt>
      <trkpt lat="47.30177" lon="-2.36681">
        <ele>40.400001525879</ele>
        <time>2020-07-09T07:41:46.000Z</time>
      </trkpt>
      <trkpt lat="47.30178" lon="-2.36681">
        <ele>40.400001525879</ele>
        <time>2020-07-09T07:41:47.000Z</time>
      </trkpt>
      <trkpt lat="47.30178" lon="-2.3668">
        <ele>40.400001525879</ele>
        <time>2020-07-09T07:41:55.000Z</time>
      </trkpt>
      <trkpt lat="47.30179" lon="-2.3668">
        <ele>40.400001525879</ele>
        <time>2020-07-09T07:41:57.000Z</time>
      </trkpt>
      <trkpt lat="47.30179" lon="-2.36679">
        <ele>40.400001525879</ele>
        <time>2020-07-09T07:42:00.000Z</time>
      </trkpt>
      <trkpt lat="47.30182" lon="-2.36677">
        <ele>40.400001525879</ele>
        <time>2020-07-09T07:42:13.000Z</time>
      </trkpt>
      <trkpt lat="47.30183" lon="-2.36676">
        <ele>40.400001525879</ele>
        <time>2020-07-09T07:42:14.000Z</time>
      </trkpt>
      <trkpt lat="47.30198" lon="-2.36671">
        <ele>40.400001525879</ele>
        <time>2020-07-09T07:42:20.000Z</time>
      </trkpt>
      <trkpt lat="47.30219" lon="-2.36668">
        <ele>40.400001525879</ele>
        <time>2020-07-09T07:42:26.000Z</time>
      </trkpt>
      <trkpt lat="47.30242" lon="-2.36665">
        <ele>40.400001525879</ele>
        <time>2020-07-09T07:42:32.000Z</time>
      </trkpt>
      <trkpt lat="47.3027" lon="-2.36655">
        <ele>40.400001525879</ele>
        <time>2020-07-09T07:42:39.000Z</time>
      </trkpt>
      <trkpt lat="47.30294" lon="-2.36645">
        <ele>40.400001525879</ele>
        <time>2020-07-09T07:42:45.000Z</time>
      </trkpt>
      <trkpt lat="47.30298" lon="-2.36644">
        <ele>40.400001525879</ele>
        <time>2020-07-09T07:42:46.000Z</time>
      </trkpt>
      <trkpt lat="47.3032" lon="-2.36645">
        <ele>40.799999237061</ele>
        <time>2020-07-09T07:42:51.000Z</time>
      </trkpt>
      <trkpt lat="47.30324" lon="-2.36647">
        <ele>41.200000762939</ele>
        <time>2020-07-09T07:42:52.000Z</time>
      </trkpt>
      <trkpt lat="47.30329" lon="-2.36648">
        <ele>41.599998474121</ele>
        <time>2020-07-09T07:42:53.000Z</time>
      </trkpt>
      <trkpt lat="47.30333" lon="-2.36649">
        <ele>42.200000762939</ele>
        <time>2020-07-09T07:42:54.000Z</time>
      </trkpt>
      <trkpt lat="47.30337" lon="-2.3665">
        <ele>42.599998474121</ele>
        <time>2020-07-09T07:42:55.000Z</time>
      </trkpt>
      <trkpt lat="47.3035" lon="-2.36652">
        <ele>42.599998474121</ele>
        <time>2020-07-09T07:42:58.000Z</time>
      </trkpt>
      <trkpt lat="47.3037" lon="-2.36655">
        <ele>42.599998474121</ele>
        <time>2020-07-09T07:43:03.000Z</time>
      </trkpt>
      <trkpt lat="47.30395" lon="-2.36654">
        <ele>43</ele>
        <time>2020-07-09T07:43:10.000Z</time>
      </trkpt>
      <trkpt lat="47.30399" lon="-2.36653">
        <ele>43.400001525879</ele>
        <time>2020-07-09T07:43:11.000Z</time>
      </trkpt>
      <trkpt lat="47.30402" lon="-2.36652">
        <ele>43.799999237061</ele>
        <time>2020-07-09T07:43:12.000Z</time>
      </trkpt>
      <trkpt lat="47.30406" lon="-2.36651">
        <ele>44.200000762939</ele>
        <time>2020-07-09T07:43:13.000Z</time>
      </trkpt>
      <trkpt lat="47.3041" lon="-2.3665">
        <ele>44.599998474121</ele>
        <time>2020-07-09T07:43:14.000Z</time>
      </trkpt>
      <trkpt lat="47.30417" lon="-2.36646">
        <ele>44.599998474121</ele>
        <time>2020-07-09T07:43:16.000Z</time>
      </trkpt>
      <trkpt lat="47.30428" lon="-2.36637">
        <ele>44.599998474121</ele>
        <time>2020-07-09T07:43:19.000Z</time>
      </trkpt>
      <trkpt lat="47.30435" lon="-2.36629">
        <ele>44.599998474121</ele>
        <time>2020-07-09T07:43:21.000Z</time>
      </trkpt>
      <trkpt lat="47.30463" lon="-2.36609">
        <ele>44.599998474121</ele>
        <time>2020-07-09T07:43:28.000Z</time>
      </trkpt>
      <trkpt lat="47.30472" lon="-2.36605">
        <ele>44.599998474121</ele>
        <time>2020-07-09T07:43:30.000Z</time>
      </trkpt>
      <trkpt lat="47.30485" lon="-2.36601">
        <ele>44.599998474121</ele>
        <time>2020-07-09T07:43:33.000Z</time>
      </trkpt>
      <trkpt lat="47.30505" lon="-2.36596">
        <ele>44.599998474121</ele>
        <time>2020-07-09T07:43:38.000Z</time>
      </trkpt>
      <trkpt lat="47.30531" lon="-2.36583">
        <ele>44.599998474121</ele>
        <time>2020-07-09T07:43:45.000Z</time>
      </trkpt>
      <trkpt lat="47.30553" lon="-2.36563">
        <ele>44.599998474121</ele>
        <time>2020-07-09T07:43:52.000Z</time>
      </trkpt>
      <trkpt lat="47.30581" lon="-2.36549">
        <ele>44.599998474121</ele>
        <time>2020-07-09T07:43:59.000Z</time>
      </trkpt>
      <trkpt lat="47.30607" lon="-2.36543">
        <ele>44.599998474121</ele>
        <time>2020-07-09T07:44:05.000Z</time>
      </trkpt>
      <trkpt lat="47.30636" lon="-2.36533">
        <ele>44.599998474121</ele>
        <time>2020-07-09T07:44:12.000Z</time>
      </trkpt>
      <trkpt lat="47.30671" lon="-2.36517">
        <ele>44.599998474121</ele>
        <time>2020-07-09T07:44:19.000Z</time>
      </trkpt>
      <trkpt lat="47.30686" lon="-2.3651">
        <ele>44.599998474121</ele>
        <time>2020-07-09T07:44:22.000Z</time>
      </trkpt>
      <trkpt lat="47.30693" lon="-2.36514">
        <ele>44.599998474121</ele>
        <time>2020-07-09T07:44:24.000Z</time>
      </trkpt>
      <trkpt lat="47.307" lon="-2.36522">
        <ele>44.599998474121</ele>
        <time>2020-07-09T07:44:28.000Z</time>
      </trkpt>
      <trkpt lat="47.307" lon="-2.36522">
        <ele>44.599998474121</ele>
        <time>2020-07-09T07:44:29.000Z</time>
      </trkpt>
      <trkpt lat="47.30701" lon="-2.36522">
        <ele>44.599998474121</ele>
        <time>2020-07-09T07:46:14.000Z</time>
      </trkpt>
      <trkpt lat="47.30704" lon="-2.36519">
        <ele>44.599998474121</ele>
        <time>2020-07-09T07:46:16.000Z</time>
      </trkpt>
      <trkpt lat="47.30717" lon="-2.36504">
        <ele>44.599998474121</ele>
        <time>2020-07-09T07:46:21.000Z</time>
      </trkpt>
      <trkpt lat="47.30721" lon="-2.36502">
        <ele>44.200000762939</ele>
        <time>2020-07-09T07:46:22.000Z</time>
      </trkpt>
      <trkpt lat="47.30726" lon="-2.36499">
        <ele>43.799999237061</ele>
        <time>2020-07-09T07:46:23.000Z</time>
      </trkpt>
      <trkpt lat="47.3073" lon="-2.36497">
        <ele>43.400001525879</ele>
        <time>2020-07-09T07:46:24.000Z</time>
      </trkpt>
      <trkpt lat="47.30735" lon="-2.36496">
        <ele>43</ele>
        <time>2020-07-09T07:46:25.000Z</time>
      </trkpt>
      <trkpt lat="47.3074" lon="-2.36494">
        <ele>42.400001525879</ele>
        <time>2020-07-09T07:46:26.000Z</time>
      </trkpt>
      <trkpt lat="47.30745" lon="-2.36491">
        <ele>42.400001525879</ele>
        <time>2020-07-09T07:46:27.000Z</time>
      </trkpt>
      <trkpt lat="47.3078" lon="-2.36481">
        <ele>42.400001525879</ele>
        <time>2020-07-09T07:46:34.000Z</time>
      </trkpt>
      <trkpt lat="47.30809" lon="-2.36473">
        <ele>42.400001525879</ele>
        <time>2020-07-09T07:46:40.000Z</time>
      </trkpt>
      <trkpt lat="47.30821" lon="-2.3648">
        <ele>41.599998474121</ele>
        <time>2020-07-09T07:46:43.000Z</time>
      </trkpt>
      <trkpt lat="47.30825" lon="-2.36484">
        <ele>41.200000762939</ele>
        <time>2020-07-09T07:46:44.000Z</time>
      </trkpt>
      <trkpt lat="47.30829" lon="-2.36486">
        <ele>40.799999237061</ele>
        <time>2020-07-09T07:46:45.000Z</time>
      </trkpt>
      <trkpt lat="47.30834" lon="-2.36488">
        <ele>40.400001525879</ele>
        <time>2020-07-09T07:46:46.000Z</time>
      </trkpt>
      <trkpt lat="47.30839" lon="-2.36488">
        <ele>40.400001525879</ele>
        <time>2020-07-09T07:46:47.000Z</time>
      </trkpt>
      <trkpt lat="47.3085" lon="-2.36486">
        <ele>40.400001525879</ele>
        <time>2020-07-09T07:46:49.000Z</time>
      </trkpt>
      <trkpt lat="47.30871" lon="-2.36481">
        <ele>40.400001525879</ele>
        <time>2020-07-09T07:46:53.000Z</time>
      </trkpt>
      <trkpt lat="47.30881" lon="-2.36477">
        <ele>40.400001525879</ele>
        <time>2020-07-09T07:46:55.000Z</time>
      </trkpt>
      <trkpt lat="47.30905" lon="-2.36469">
        <ele>40.400001525879</ele>
        <time>2020-07-09T07:46:59.000Z</time>
      </trkpt>
      <trkpt lat="47.30937" lon="-2.3646">
        <ele>40.400001525879</ele>
        <time>2020-07-09T07:47:05.000Z</time>
      </trkpt>
      <trkpt lat="47.30977" lon="-2.36445">
        <ele>40.400001525879</ele>
        <time>2020-07-09T07:47:12.000Z</time>
      </trkpt>
      <trkpt lat="47.31011" lon="-2.36428">
        <ele>40.400001525879</ele>
        <time>2020-07-09T07:47:18.000Z</time>
      </trkpt>
      <trkpt lat="47.31043" lon="-2.36421">
        <ele>40.400001525879</ele>
        <time>2020-07-09T07:47:23.000Z</time>
      </trkpt>
      <trkpt lat="47.3107" lon="-2.36419">
        <ele>40</ele>
        <time>2020-07-09T07:47:28.000Z</time>
      </trkpt>
      <trkpt lat="47.31076" lon="-2.36418">
        <ele>39.599998474121</ele>
        <time>2020-07-09T07:47:29.000Z</time>
      </trkpt>
      <trkpt lat="47.31081" lon="-2.36417">
        <ele>39.200000762939</ele>
        <time>2020-07-09T07:47:30.000Z</time>
      </trkpt>
      <trkpt lat="47.31087" lon="-2.36417">
        <ele>38.799999237061</ele>
        <time>2020-07-09T07:47:31.000Z</time>
      </trkpt>
      <trkpt lat="47.31092" lon="-2.36416">
        <ele>38.400001525879</ele>
        <time>2020-07-09T07:47:32.000Z</time>
      </trkpt>
      <trkpt lat="47.31097" lon="-2.36415">
        <ele>38.400001525879</ele>
        <time>2020-07-09T07:47:33.000Z</time>
      </trkpt>
      <trkpt lat="47.31107" lon="-2.36409">
        <ele>38.400001525879</ele>
        <time>2020-07-09T07:47:35.000Z</time>
      </trkpt>
      <trkpt lat="47.31147" lon="-2.36381">
        <ele>38.400001525879</ele>
        <time>2020-07-09T07:47:42.000Z</time>
      </trkpt>
      <trkpt lat="47.31182" lon="-2.36356">
        <ele>38.400001525879</ele>
        <time>2020-07-09T07:47:48.000Z</time>
      </trkpt>
      <trkpt lat="47.31222" lon="-2.36334">
        <ele>38.400001525879</ele>
        <time>2020-07-09T07:47:55.000Z</time>
      </trkpt>
      <trkpt lat="47.31255" lon="-2.36311">
        <ele>38.400001525879</ele>
        <time>2020-07-09T07:48:01.000Z</time>
      </trkpt>
      <trkpt lat="47.3129" lon="-2.36297">
        <ele>38.400001525879</ele>
        <time>2020-07-09T07:48:07.000Z</time>
      </trkpt>
      <trkpt lat="47.31301" lon="-2.36291">
        <ele>38.799999237061</ele>
        <time>2020-07-09T07:48:09.000Z</time>
      </trkpt>
      <trkpt lat="47.31307" lon="-2.36289">
        <ele>39.200000762939</ele>
        <time>2020-07-09T07:48:10.000Z</time>
      </trkpt>
      <trkpt lat="47.31312" lon="-2.36285">
        <ele>39.599998474121</ele>
        <time>2020-07-09T07:48:11.000Z</time>
      </trkpt>
      <trkpt lat="47.31317" lon="-2.3628">
        <ele>40</ele>
        <time>2020-07-09T07:48:12.000Z</time>
      </trkpt>
      <trkpt lat="47.31322" lon="-2.36275">
        <ele>40.400001525879</ele>
        <time>2020-07-09T07:48:13.000Z</time>
      </trkpt>
      <trkpt lat="47.31354" lon="-2.36243">
        <ele>40.400001525879</ele>
        <time>2020-07-09T07:48:20.000Z</time>
      </trkpt>
      <trkpt lat="47.31391" lon="-2.36222">
        <ele>40.400001525879</ele>
        <time>2020-07-09T07:48:27.000Z</time>
      </trkpt>
      <trkpt lat="47.31425" lon="-2.36205">
        <ele>40.400001525879</ele>
        <time>2020-07-09T07:48:33.000Z</time>
      </trkpt>
      <trkpt lat="47.31455" lon="-2.36182">
        <ele>40.400001525879</ele>
        <time>2020-07-09T07:48:39.000Z</time>
      </trkpt>
      <trkpt lat="47.31461" lon="-2.36176">
        <ele>40.400001525879</ele>
        <time>2020-07-09T07:48:40.000Z</time>
      </trkpt>
      <trkpt lat="47.3148" lon="-2.36156">
        <ele>40.400001525879</ele>
        <time>2020-07-09T07:48:44.000Z</time>
      </trkpt>
      <trkpt lat="47.31503" lon="-2.3613">
        <ele>40.400001525879</ele>
        <time>2020-07-09T07:48:49.000Z</time>
      </trkpt>
      <trkpt lat="47.31541" lon="-2.36087">
        <ele>40.400001525879</ele>
        <time>2020-07-09T07:48:57.000Z</time>
      </trkpt>
      <trkpt lat="47.31559" lon="-2.36066">
        <ele>40.400001525879</ele>
        <time>2020-07-09T07:49:01.000Z</time>
      </trkpt>
      <trkpt lat="47.31567" lon="-2.36058">
        <ele>40.400001525879</ele>
        <time>2020-07-09T07:49:03.000Z</time>
      </trkpt>
      <trkpt lat="47.31582" lon="-2.36041">
        <ele>40</ele>
        <time>2020-07-09T07:49:07.000Z</time>
      </trkpt>
      <trkpt lat="47.31586" lon="-2.36036">
        <ele>39.599998474121</ele>
        <time>2020-07-09T07:49:08.000Z</time>
      </trkpt>
      <trkpt lat="47.31591" lon="-2.36031">
        <ele>39.200000762939</ele>
        <time>2020-07-09T07:49:09.000Z</time>
      </trkpt>
      <trkpt lat="47.31596" lon="-2.36027">
        <ele>38.799999237061</ele>
        <time>2020-07-09T07:49:10.000Z</time>
      </trkpt>
      <trkpt lat="47.31601" lon="-2.36022">
        <ele>38.400001525879</ele>
        <time>2020-07-09T07:49:11.000Z</time>
      </trkpt>
      <trkpt lat="47.31614" lon="-2.36007">
        <ele>38.400001525879</ele>
        <time>2020-07-09T07:49:14.000Z</time>
      </trkpt>
      <trkpt lat="47.31653" lon="-2.35969">
        <ele>38.400001525879</ele>
        <time>2020-07-09T07:49:22.000Z</time>
      </trkpt>
      <trkpt lat="47.31688" lon="-2.35948">
        <ele>38</ele>
        <time>2020-07-09T07:49:28.000Z</time>
      </trkpt>
      <trkpt lat="47.31694" lon="-2.35944">
        <ele>37.599998474121</ele>
        <time>2020-07-09T07:49:29.000Z</time>
      </trkpt>
      <trkpt lat="47.317" lon="-2.35941">
        <ele>37.200000762939</ele>
        <time>2020-07-09T07:49:30.000Z</time>
      </trkpt>
      <trkpt lat="47.31706" lon="-2.35938">
        <ele>36.799999237061</ele>
        <time>2020-07-09T07:49:31.000Z</time>
      </trkpt>
      <trkpt lat="47.31712" lon="-2.35935">
        <ele>36.400001525879</ele>
        <time>2020-07-09T07:49:32.000Z</time>
      </trkpt>
      <trkpt lat="47.31723" lon="-2.35929">
        <ele>36.400001525879</ele>
        <time>2020-07-09T07:49:34.000Z</time>
      </trkpt>
      <trkpt lat="47.31763" lon="-2.35904">
        <ele>36</ele>
        <time>2020-07-09T07:49:41.000Z</time>
      </trkpt>
      <trkpt lat="47.31768" lon="-2.35901">
        <ele>35.599998474121</ele>
        <time>2020-07-09T07:49:42.000Z</time>
      </trkpt>
      <trkpt lat="47.31773" lon="-2.35898">
        <ele>35</ele>
        <time>2020-07-09T07:49:43.000Z</time>
      </trkpt>
      <trkpt lat="47.31778" lon="-2.35894">
        <ele>34.599998474121</ele>
        <time>2020-07-09T07:49:44.000Z</time>
      </trkpt>
      <trkpt lat="47.31784" lon="-2.35891">
        <ele>34.200000762939</ele>
        <time>2020-07-09T07:49:45.000Z</time>
      </trkpt>
      <trkpt lat="47.31793" lon="-2.35886">
        <ele>34.200000762939</ele>
        <time>2020-07-09T07:49:47.000Z</time>
      </trkpt>
      <trkpt lat="47.31808" lon="-2.35879">
        <ele>34.200000762939</ele>
        <time>2020-07-09T07:49:50.000Z</time>
      </trkpt>
      <trkpt lat="47.31816" lon="-2.3587">
        <ele>34.200000762939</ele>
        <time>2020-07-09T07:49:52.000Z</time>
      </trkpt>
      <trkpt lat="47.31822" lon="-2.35855">
        <ele>34.200000762939</ele>
        <time>2020-07-09T07:49:55.000Z</time>
      </trkpt>
      <trkpt lat="47.31819" lon="-2.35839">
        <ele>34.200000762939</ele>
        <time>2020-07-09T07:49:59.000Z</time>
      </trkpt>
      <trkpt lat="47.31813" lon="-2.35831">
        <ele>34.200000762939</ele>
        <time>2020-07-09T07:50:01.000Z</time>
      </trkpt>
      <trkpt lat="47.31808" lon="-2.35824">
        <ele>34.200000762939</ele>
        <time>2020-07-09T07:50:03.000Z</time>
      </trkpt>
      <trkpt lat="47.31788" lon="-2.358">
        <ele>34.200000762939</ele>
        <time>2020-07-09T07:50:09.000Z</time>
      </trkpt>
      <trkpt lat="47.31781" lon="-2.35771">
        <ele>34.200000762939</ele>
        <time>2020-07-09T07:50:14.000Z</time>
      </trkpt>
      <trkpt lat="47.3178" lon="-2.35749">
        <ele>33.799999237061</ele>
        <time>2020-07-09T07:50:17.000Z</time>
      </trkpt>
      <trkpt lat="47.31779" lon="-2.35741">
        <ele>33.400001525879</ele>
        <time>2020-07-09T07:50:18.000Z</time>
      </trkpt>
      <trkpt lat="47.31779" lon="-2.35732">
        <ele>33</ele>
        <time>2020-07-09T07:50:19.000Z</time>
      </trkpt>
      <trkpt lat="47.31779" lon="-2.35723">
        <ele>32.599998474121</ele>
        <time>2020-07-09T07:50:20.000Z</time>
      </trkpt>
      <trkpt lat="47.3178" lon="-2.35715">
        <ele>32.200000762939</ele>
        <time>2020-07-09T07:50:21.000Z</time>
      </trkpt>
      <trkpt lat="47.3178" lon="-2.35679">
        <ele>31.799999237061</ele>
        <time>2020-07-09T07:50:25.000Z</time>
      </trkpt>
      <trkpt lat="47.3178" lon="-2.3567">
        <ele>31.39999961853</ele>
        <time>2020-07-09T07:50:26.000Z</time>
      </trkpt>
      <trkpt lat="47.31781" lon="-2.35662">
        <ele>31</ele>
        <time>2020-07-09T07:50:27.000Z</time>
      </trkpt>
      <trkpt lat="47.31781" lon="-2.35654">
        <ele>30.60000038147</ele>
        <time>2020-07-09T07:50:28.000Z</time>
      </trkpt>
      <trkpt lat="47.31782" lon="-2.35647">
        <ele>30.200000762939</ele>
        <time>2020-07-09T07:50:29.000Z</time>
      </trkpt>
      <trkpt lat="47.31788" lon="-2.35625">
        <ele>30.200000762939</ele>
        <time>2020-07-09T07:50:32.000Z</time>
      </trkpt>
      <trkpt lat="47.318" lon="-2.35595">
        <ele>29.60000038147</ele>
        <time>2020-07-09T07:50:36.000Z</time>
      </trkpt>
      <trkpt lat="47.31802" lon="-2.35589">
        <ele>29.200000762939</ele>
        <time>2020-07-09T07:50:37.000Z</time>
      </trkpt>
      <trkpt lat="47.31804" lon="-2.35584">
        <ele>28.799999237061</ele>
        <time>2020-07-09T07:50:38.000Z</time>
      </trkpt>
      <trkpt lat="47.31807" lon="-2.35581">
        <ele>28.200000762939</ele>
        <time>2020-07-09T07:50:39.000Z</time>
      </trkpt>
      <trkpt lat="47.3181" lon="-2.35578">
        <ele>27.799999237061</ele>
        <time>2020-07-09T07:50:40.000Z</time>
      </trkpt>
      <trkpt lat="47.3182" lon="-2.35569">
        <ele>27.799999237061</ele>
        <time>2020-07-09T07:50:43.000Z</time>
      </trkpt>
      <trkpt lat="47.31828" lon="-2.3555">
        <ele>27.799999237061</ele>
        <time>2020-07-09T07:50:47.000Z</time>
      </trkpt>
      <trkpt lat="47.31827" lon="-2.35545">
        <ele>27.799999237061</ele>
        <time>2020-07-09T07:50:48.000Z</time>
      </trkpt>
      <trkpt lat="47.31824" lon="-2.35534">
        <ele>27.799999237061</ele>
        <time>2020-07-09T07:50:50.000Z</time>
      </trkpt>
      <trkpt lat="47.31808" lon="-2.35494">
        <ele>27.799999237061</ele>
        <time>2020-07-09T07:50:58.000Z</time>
      </trkpt>
      <trkpt lat="47.31804" lon="-2.3548">
        <ele>27.799999237061</ele>
        <time>2020-07-09T07:51:02.000Z</time>
      </trkpt>
      <trkpt lat="47.31798" lon="-2.35465">
        <ele>27.799999237061</ele>
        <time>2020-07-09T07:51:07.000Z</time>
      </trkpt>
      <trkpt lat="47.31788" lon="-2.35439">
        <ele>27.799999237061</ele>
        <time>2020-07-09T07:51:14.000Z</time>
      </trkpt>
      <trkpt lat="47.31773" lon="-2.35414">
        <ele>28.200000762939</ele>
        <time>2020-07-09T07:51:19.000Z</time>
      </trkpt>
      <trkpt lat="47.31771" lon="-2.3541">
        <ele>28.60000038147</ele>
        <time>2020-07-09T07:51:20.000Z</time>
      </trkpt>
      <trkpt lat="47.31768" lon="-2.35406">
        <ele>29</ele>
        <time>2020-07-09T07:51:21.000Z</time>
      </trkpt>
      <trkpt lat="47.31766" lon="-2.35402">
        <ele>29.39999961853</ele>
        <time>2020-07-09T07:51:22.000Z</time>
      </trkpt>
      <trkpt lat="47.31764" lon="-2.35399">
        <ele>30</ele>
        <time>2020-07-09T07:51:23.000Z</time>
      </trkpt>
      <trkpt lat="47.3176" lon="-2.35392">
        <ele>30</ele>
        <time>2020-07-09T07:51:25.000Z</time>
      </trkpt>
      <trkpt lat="47.31758" lon="-2.3537">
        <ele>30</ele>
        <time>2020-07-09T07:51:30.000Z</time>
      </trkpt>
      <trkpt lat="47.31766" lon="-2.35351">
        <ele>30</ele>
        <time>2020-07-09T07:51:34.000Z</time>
      </trkpt>
      <trkpt lat="47.31782" lon="-2.35335">
        <ele>30</ele>
        <time>2020-07-09T07:51:38.000Z</time>
      </trkpt>
      <trkpt lat="47.31792" lon="-2.35329">
        <ele>30</ele>
        <time>2020-07-09T07:51:40.000Z</time>
      </trkpt>
      <trkpt lat="47.31826" lon="-2.35305">
        <ele>30</ele>
        <time>2020-07-09T07:51:46.000Z</time>
      </trkpt>
      <trkpt lat="47.31851" lon="-2.35289">
        <ele>29.39999961853</ele>
        <time>2020-07-09T07:51:50.000Z</time>
      </trkpt>
      <trkpt lat="47.31857" lon="-2.35284">
        <ele>29</ele>
        <time>2020-07-09T07:51:51.000Z</time>
      </trkpt>
      <trkpt lat="47.31863" lon="-2.3528">
        <ele>28.60000038147</ele>
        <time>2020-07-09T07:51:52.000Z</time>
      </trkpt>
      <trkpt lat="47.31868" lon="-2.35274">
        <ele>28.200000762939</ele>
        <time>2020-07-09T07:51:53.000Z</time>
      </trkpt>
      <trkpt lat="47.31875" lon="-2.35269">
        <ele>27.799999237061</ele>
        <time>2020-07-09T07:51:54.000Z</time>
      </trkpt>
      <trkpt lat="47.31896" lon="-2.3525">
        <ele>27.799999237061</ele>
        <time>2020-07-09T07:51:58.000Z</time>
      </trkpt>
      <trkpt lat="47.31933" lon="-2.35214">
        <ele>27.39999961853</ele>
        <time>2020-07-09T07:52:05.000Z</time>
      </trkpt>
      <trkpt lat="47.31939" lon="-2.3521">
        <ele>27</ele>
        <time>2020-07-09T07:52:06.000Z</time>
      </trkpt>
      <trkpt lat="47.31944" lon="-2.35205">
        <ele>26.39999961853</ele>
        <time>2020-07-09T07:52:07.000Z</time>
      </trkpt>
      <trkpt lat="47.31948" lon="-2.352">
        <ele>26</ele>
        <time>2020-07-09T07:52:08.000Z</time>
      </trkpt>
      <trkpt lat="47.31953" lon="-2.35195">
        <ele>25.60000038147</ele>
        <time>2020-07-09T07:52:09.000Z</time>
      </trkpt>
      <trkpt lat="47.31969" lon="-2.35179">
        <ele>25.60000038147</ele>
        <time>2020-07-09T07:52:12.000Z</time>
      </trkpt>
      <trkpt lat="47.31974" lon="-2.35175">
        <ele>25.60000038147</ele>
        <time>2020-07-09T07:52:13.000Z</time>
      </trkpt>
      <trkpt lat="47.31983" lon="-2.35166">
        <ele>25.60000038147</ele>
        <time>2020-07-09T07:52:15.000Z</time>
      </trkpt>
      <trkpt lat="47.31992" lon="-2.35156">
        <ele>25.60000038147</ele>
        <time>2020-07-09T07:52:17.000Z</time>
      </trkpt>
      <trkpt lat="47.32021" lon="-2.35123">
        <ele>25.60000038147</ele>
        <time>2020-07-09T07:52:23.000Z</time>
      </trkpt>
      <trkpt lat="47.32027" lon="-2.35092">
        <ele>25.60000038147</ele>
        <time>2020-07-09T07:52:27.000Z</time>
      </trkpt>
      <trkpt lat="47.32028" lon="-2.35068">
        <ele>25.60000038147</ele>
        <time>2020-07-09T07:52:31.000Z</time>
      </trkpt>
      <trkpt lat="47.3204" lon="-2.35064">
        <ele>25.60000038147</ele>
        <time>2020-07-09T07:52:34.000Z</time>
      </trkpt>
      <trkpt lat="47.32044" lon="-2.35064">
        <ele>25.60000038147</ele>
        <time>2020-07-09T07:52:35.000Z</time>
      </trkpt>
      <trkpt lat="47.32066" lon="-2.35064">
        <ele>25.60000038147</ele>
        <time>2020-07-09T07:52:39.000Z</time>
      </trkpt>
      <trkpt lat="47.32072" lon="-2.35063">
        <ele>25.60000038147</ele>
        <time>2020-07-09T07:52:40.000Z</time>
      </trkpt>
      <trkpt lat="47.32091" lon="-2.35063">
        <ele>25.60000038147</ele>
        <time>2020-07-09T07:52:43.000Z</time>
      </trkpt>
      <trkpt lat="47.32125" lon="-2.35062">
        <ele>25.60000038147</ele>
        <time>2020-07-09T07:52:49.000Z</time>
      </trkpt>
      <trkpt lat="47.32166" lon="-2.35058">
        <ele>25.60000038147</ele>
        <time>2020-07-09T07:52:57.000Z</time>
      </trkpt>
      <trkpt lat="47.32184" lon="-2.35056">
        <ele>25.60000038147</ele>
        <time>2020-07-09T07:53:01.000Z</time>
      </trkpt>
      <trkpt lat="47.32192" lon="-2.35056">
        <ele>25.60000038147</ele>
        <time>2020-07-09T07:53:03.000Z</time>
      </trkpt>
      <trkpt lat="47.32215" lon="-2.3505">
        <ele>25.60000038147</ele>
        <time>2020-07-09T07:53:10.000Z</time>
      </trkpt>
      <trkpt lat="47.32247" lon="-2.35042">
        <ele>25.60000038147</ele>
        <time>2020-07-09T07:53:19.000Z</time>
      </trkpt>
      <trkpt lat="47.32271" lon="-2.35042">
        <ele>25.60000038147</ele>
        <time>2020-07-09T07:53:25.000Z</time>
      </trkpt>
      <trkpt lat="47.32292" lon="-2.35044">
        <ele>25.60000038147</ele>
        <time>2020-07-09T07:53:31.000Z</time>
      </trkpt>
      <trkpt lat="47.32315" lon="-2.35043">
        <ele>26</ele>
        <time>2020-07-09T07:53:37.000Z</time>
      </trkpt>
      <trkpt lat="47.32319" lon="-2.35043">
        <ele>26.39999961853</ele>
        <time>2020-07-09T07:53:38.000Z</time>
      </trkpt>
      <trkpt lat="47.32323" lon="-2.35043">
        <ele>26.799999237061</ele>
        <time>2020-07-09T07:53:39.000Z</time>
      </trkpt>
      <trkpt lat="47.32327" lon="-2.35044">
        <ele>27.200000762939</ele>
        <time>2020-07-09T07:53:40.000Z</time>
      </trkpt>
      <trkpt lat="47.32331" lon="-2.35044">
        <ele>27.60000038147</ele>
        <time>2020-07-09T07:53:41.000Z</time>
      </trkpt>
      <trkpt lat="47.32344" lon="-2.35044">
        <ele>27.60000038147</ele>
        <time>2020-07-09T07:53:44.000Z</time>
      </trkpt>
      <trkpt lat="47.32369" lon="-2.35042">
        <ele>27.60000038147</ele>
        <time>2020-07-09T07:53:51.000Z</time>
      </trkpt>
      <trkpt lat="47.32412" lon="-2.35045">
        <ele>27.60000038147</ele>
        <time>2020-07-09T07:53:58.000Z</time>
      </trkpt>
      <trkpt lat="47.3245" lon="-2.35038">
        <ele>27.60000038147</ele>
        <time>2020-07-09T07:54:06.000Z</time>
      </trkpt>
      <trkpt lat="47.32478" lon="-2.35031">
        <ele>27.60000038147</ele>
        <time>2020-07-09T07:54:12.000Z</time>
      </trkpt>
      <trkpt lat="47.32506" lon="-2.35023">
        <ele>27.60000038147</ele>
        <time>2020-07-09T07:54:18.000Z</time>
      </trkpt>
      <trkpt lat="47.32537" lon="-2.35013">
        <ele>27.60000038147</ele>
        <time>2020-07-09T07:54:24.000Z</time>
      </trkpt>
      <trkpt lat="47.32573" lon="-2.34996">
        <ele>27.60000038147</ele>
        <time>2020-07-09T07:54:31.000Z</time>
      </trkpt>
      <trkpt lat="47.32616" lon="-2.34975">
        <ele>27.60000038147</ele>
        <time>2020-07-09T07:54:39.000Z</time>
      </trkpt>
      <trkpt lat="47.32634" lon="-2.34964">
        <ele>27.60000038147</ele>
        <time>2020-07-09T07:54:44.000Z</time>
      </trkpt>
      <trkpt lat="47.32641" lon="-2.34959">
        <ele>27.200000762939</ele>
        <time>2020-07-09T07:54:48.000Z</time>
      </trkpt>
      <trkpt lat="47.32643" lon="-2.34956">
        <ele>26.799999237061</ele>
        <time>2020-07-09T07:54:49.000Z</time>
      </trkpt>
      <trkpt lat="47.32646" lon="-2.34954">
        <ele>26.39999961853</ele>
        <time>2020-07-09T07:54:50.000Z</time>
      </trkpt>
      <trkpt lat="47.32648" lon="-2.34953">
        <ele>26</ele>
        <time>2020-07-09T07:54:51.000Z</time>
      </trkpt>
      <trkpt lat="47.32651" lon="-2.34952">
        <ele>25.60000038147</ele>
        <time>2020-07-09T07:54:52.000Z</time>
      </trkpt>
      <trkpt lat="47.32654" lon="-2.3495">
        <ele>25.60000038147</ele>
        <time>2020-07-09T07:54:53.000Z</time>
      </trkpt>
      <trkpt lat="47.32673" lon="-2.34934">
        <ele>25.60000038147</ele>
        <time>2020-07-09T07:54:58.000Z</time>
      </trkpt>
      <trkpt lat="47.32701" lon="-2.3491">
        <ele>25.60000038147</ele>
        <time>2020-07-09T07:55:04.000Z</time>
      </trkpt>
      <trkpt lat="47.32736" lon="-2.34882">
        <ele>25.60000038147</ele>
        <time>2020-07-09T07:55:11.000Z</time>
      </trkpt>
      <trkpt lat="47.32779" lon="-2.3485">
        <ele>25.60000038147</ele>
        <time>2020-07-09T07:55:19.000Z</time>
      </trkpt>
      <trkpt lat="47.32823" lon="-2.34815">
        <ele>25.60000038147</ele>
        <time>2020-07-09T07:55:27.000Z</time>
      </trkpt>
      <trkpt lat="47.32853" lon="-2.34794">
        <ele>25.200000762939</ele>
        <time>2020-07-09T07:55:32.000Z</time>
      </trkpt>
      <trkpt lat="47.32859" lon="-2.34791">
        <ele>24.799999237061</ele>
        <time>2020-07-09T07:55:33.000Z</time>
      </trkpt>
      <trkpt lat="47.32865" lon="-2.34787">
        <ele>24.200000762939</ele>
        <time>2020-07-09T07:55:34.000Z</time>
      </trkpt>
      <trkpt lat="47.32871" lon="-2.34784">
        <ele>23.799999237061</ele>
        <time>2020-07-09T07:55:35.000Z</time>
      </trkpt>
      <trkpt lat="47.32876" lon="-2.34781">
        <ele>23.39999961853</ele>
        <time>2020-07-09T07:55:36.000Z</time>
      </trkpt>
      <trkpt lat="47.32885" lon="-2.34778">
        <ele>23.39999961853</ele>
        <time>2020-07-09T07:55:38.000Z</time>
      </trkpt>
      <trkpt lat="47.32889" lon="-2.34779">
        <ele>23.39999961853</ele>
        <time>2020-07-09T07:55:39.000Z</time>
      </trkpt>
      <trkpt lat="47.32894" lon="-2.34785">
        <ele>23.39999961853</ele>
        <time>2020-07-09T07:55:41.000Z</time>
      </trkpt>
      <trkpt lat="47.32904" lon="-2.348">
        <ele>23.39999961853</ele>
        <time>2020-07-09T07:55:46.000Z</time>
      </trkpt>
      <trkpt lat="47.32918" lon="-2.3482">
        <ele>23.39999961853</ele>
        <time>2020-07-09T07:55:52.000Z</time>
      </trkpt>
      <trkpt lat="47.3293" lon="-2.34847">
        <ele>23.39999961853</ele>
        <time>2020-07-09T07:55:58.000Z</time>
      </trkpt>
      <trkpt lat="47.32945" lon="-2.34877">
        <ele>23.39999961853</ele>
        <time>2020-07-09T07:56:04.000Z</time>
      </trkpt>
      <trkpt lat="47.32962" lon="-2.3492">
        <ele>23.39999961853</ele>
        <time>2020-07-09T07:56:11.000Z</time>
      </trkpt>
      <trkpt lat="47.32971" lon="-2.34945">
        <ele>23.39999961853</ele>
        <time>2020-07-09T07:56:16.000Z</time>
      </trkpt>
      <trkpt lat="47.32977" lon="-2.34972">
        <ele>23.39999961853</ele>
        <time>2020-07-09T07:56:23.000Z</time>
      </trkpt>
      <trkpt lat="47.32985" lon="-2.34993">
        <ele>23.39999961853</ele>
        <time>2020-07-09T07:56:28.000Z</time>
      </trkpt>
      <trkpt lat="47.3299" lon="-2.35005">
        <ele>23.39999961853</ele>
        <time>2020-07-09T07:56:32.000Z</time>
      </trkpt>
      <trkpt lat="47.32992" lon="-2.35015">
        <ele>23.39999961853</ele>
        <time>2020-07-09T07:56:35.000Z</time>
      </trkpt>
      <trkpt lat="47.32992" lon="-2.35023">
        <ele>24.200000762939</ele>
        <time>2020-07-09T07:56:37.000Z</time>
      </trkpt>
      <trkpt lat="47.32991" lon="-2.35027">
        <ele>24.799999237061</ele>
        <time>2020-07-09T07:56:38.000Z</time>
      </trkpt>
      <trkpt lat="47.32992" lon="-2.3503">
        <ele>25.200000762939</ele>
        <time>2020-07-09T07:56:39.000Z</time>
      </trkpt>
      <trkpt lat="47.32993" lon="-2.35034">
        <ele>25.60000038147</ele>
        <time>2020-07-09T07:56:40.000Z</time>
      </trkpt>
      <trkpt lat="47.32994" lon="-2.35038">
        <ele>25.60000038147</ele>
        <time>2020-07-09T07:56:41.000Z</time>
      </trkpt>
      <trkpt lat="47.32999" lon="-2.35069">
        <ele>25.60000038147</ele>
        <time>2020-07-09T07:56:47.000Z</time>
      </trkpt>
      <trkpt lat="47.33009" lon="-2.35104">
        <ele>25.60000038147</ele>
        <time>2020-07-09T07:56:53.000Z</time>
      </trkpt>
      <trkpt lat="47.33018" lon="-2.35159">
        <ele>26</ele>
        <time>2020-07-09T07:56:59.000Z</time>
      </trkpt>
      <trkpt lat="47.33019" lon="-2.35169">
        <ele>26.39999961853</ele>
        <time>2020-07-09T07:57:00.000Z</time>
      </trkpt>
      <trkpt lat="47.3302" lon="-2.3518">
        <ele>26.799999237061</ele>
        <time>2020-07-09T07:57:01.000Z</time>
      </trkpt>
      <trkpt lat="47.33021" lon="-2.35188">
        <ele>27.60000038147</ele>
        <time>2020-07-09T07:57:02.000Z</time>
      </trkpt>
      <trkpt lat="47.33022" lon="-2.35224">
        <ele>27.60000038147</ele>
        <time>2020-07-09T07:57:07.000Z</time>
      </trkpt>
      <trkpt lat="47.33025" lon="-2.35255">
        <ele>27.60000038147</ele>
        <time>2020-07-09T07:57:12.000Z</time>
      </trkpt>
      <trkpt lat="47.33025" lon="-2.35267">
        <ele>27.60000038147</ele>
        <time>2020-07-09T07:57:14.000Z</time>
      </trkpt>
      <trkpt lat="47.33026" lon="-2.35295">
        <ele>27.60000038147</ele>
        <time>2020-07-09T07:57:18.000Z</time>
      </trkpt>
      <trkpt lat="47.3303" lon="-2.3535">
        <ele>27.60000038147</ele>
        <time>2020-07-09T07:57:25.000Z</time>
      </trkpt>
      <trkpt lat="47.33033" lon="-2.35412">
        <ele>27.60000038147</ele>
        <time>2020-07-09T07:57:31.000Z</time>
      </trkpt>
      <trkpt lat="47.33033" lon="-2.35436">
        <ele>27.60000038147</ele>
        <time>2020-07-09T07:57:34.000Z</time>
      </trkpt>
      <trkpt lat="47.33032" lon="-2.3545">
        <ele>27.60000038147</ele>
        <time>2020-07-09T07:57:36.000Z</time>
      </trkpt>
      <trkpt lat="47.3303" lon="-2.3548">
        <ele>27.200000762939</ele>
        <time>2020-07-09T07:57:40.000Z</time>
      </trkpt>
      <trkpt lat="47.33029" lon="-2.35488">
        <ele>26.799999237061</ele>
        <time>2020-07-09T07:57:41.000Z</time>
      </trkpt>
      <trkpt lat="47.33028" lon="-2.35498">
        <ele>26.39999961853</ele>
        <time>2020-07-09T07:57:42.000Z</time>
      </trkpt>
      <trkpt lat="47.33027" lon="-2.35506">
        <ele>26</ele>
        <time>2020-07-09T07:57:43.000Z</time>
      </trkpt>
      <trkpt lat="47.33026" lon="-2.35514">
        <ele>25.60000038147</ele>
        <time>2020-07-09T07:57:44.000Z</time>
      </trkpt>
      <trkpt lat="47.33025" lon="-2.35521">
        <ele>25.60000038147</ele>
        <time>2020-07-09T07:57:45.000Z</time>
      </trkpt>
      <trkpt lat="47.33025" lon="-2.35536">
        <ele>25.60000038147</ele>
        <time>2020-07-09T07:57:47.000Z</time>
      </trkpt>
      <trkpt lat="47.33025" lon="-2.35551">
        <ele>25.60000038147</ele>
        <time>2020-07-09T07:57:49.000Z</time>
      </trkpt>
      <trkpt lat="47.33024" lon="-2.35587">
        <ele>25.200000762939</ele>
        <time>2020-07-09T07:57:54.000Z</time>
      </trkpt>
      <trkpt lat="47.33023" lon="-2.35595">
        <ele>24.799999237061</ele>
        <time>2020-07-09T07:57:55.000Z</time>
      </trkpt>
      <trkpt lat="47.33022" lon="-2.35603">
        <ele>24.39999961853</ele>
        <time>2020-07-09T07:57:56.000Z</time>
      </trkpt>
      <trkpt lat="47.33021" lon="-2.35613">
        <ele>24</ele>
        <time>2020-07-09T07:57:57.000Z</time>
      </trkpt>
      <trkpt lat="47.3302" lon="-2.35622">
        <ele>23.60000038147</ele>
        <time>2020-07-09T07:57:58.000Z</time>
      </trkpt>
      <trkpt lat="47.33019" lon="-2.35638">
        <ele>23.60000038147</ele>
        <time>2020-07-09T07:58:00.000Z</time>
      </trkpt>
      <trkpt lat="47.33018" lon="-2.35646">
        <ele>23.60000038147</ele>
        <time>2020-07-09T07:58:01.000Z</time>
      </trkpt>
      <trkpt lat="47.33017" lon="-2.35656">
        <ele>23.60000038147</ele>
        <time>2020-07-09T07:58:02.000Z</time>
      </trkpt>
      <trkpt lat="47.33013" lon="-2.35697">
        <ele>23.60000038147</ele>
        <time>2020-07-09T07:58:06.000Z</time>
      </trkpt>
      <trkpt lat="47.33013" lon="-2.35747">
        <ele>23.60000038147</ele>
        <time>2020-07-09T07:58:11.000Z</time>
      </trkpt>
      <trkpt lat="47.33017" lon="-2.35766">
        <ele>23.60000038147</ele>
        <time>2020-07-09T07:58:13.000Z</time>
      </trkpt>
      <trkpt lat="47.33029" lon="-2.35787">
        <ele>23.60000038147</ele>
        <time>2020-07-09T07:58:16.000Z</time>
      </trkpt>
      <trkpt lat="47.33049" lon="-2.35798">
        <ele>23.60000038147</ele>
        <time>2020-07-09T07:58:20.000Z</time>
      </trkpt>
      <trkpt lat="47.33066" lon="-2.35799">
        <ele>23.60000038147</ele>
        <time>2020-07-09T07:58:23.000Z</time>
      </trkpt>
      <trkpt lat="47.33078" lon="-2.35799">
        <ele>23.60000038147</ele>
        <time>2020-07-09T07:58:25.000Z</time>
      </trkpt>
      <trkpt lat="47.33116" lon="-2.35799">
        <ele>23.60000038147</ele>
        <time>2020-07-09T07:58:32.000Z</time>
      </trkpt>
      <trkpt lat="47.33132" lon="-2.35801">
        <ele>24</ele>
        <time>2020-07-09T07:58:35.000Z</time>
      </trkpt>
      <trkpt lat="47.33138" lon="-2.35802">
        <ele>24.39999961853</ele>
        <time>2020-07-09T07:58:36.000Z</time>
      </trkpt>
      <trkpt lat="47.33144" lon="-2.35803">
        <ele>24.799999237061</ele>
        <time>2020-07-09T07:58:37.000Z</time>
      </trkpt>
      <trkpt lat="47.3315" lon="-2.35804">
        <ele>25.200000762939</ele>
        <time>2020-07-09T07:58:38.000Z</time>
      </trkpt>
      <trkpt lat="47.33155" lon="-2.35805">
        <ele>25.60000038147</ele>
        <time>2020-07-09T07:58:39.000Z</time>
      </trkpt>
      <trkpt lat="47.33189" lon="-2.35812">
        <ele>25.60000038147</ele>
        <time>2020-07-09T07:58:44.000Z</time>
      </trkpt>
      <trkpt lat="47.33225" lon="-2.35824">
        <ele>25.60000038147</ele>
        <time>2020-07-09T07:58:50.000Z</time>
      </trkpt>
      <trkpt lat="47.33231" lon="-2.35827">
        <ele>26</ele>
        <time>2020-07-09T07:58:51.000Z</time>
      </trkpt>
      <trkpt lat="47.33236" lon="-2.35831">
        <ele>26.60000038147</ele>
        <time>2020-07-09T07:58:52.000Z</time>
      </trkpt>
      <trkpt lat="47.33241" lon="-2.35834">
        <ele>27</ele>
        <time>2020-07-09T07:58:53.000Z</time>
      </trkpt>
      <trkpt lat="47.33246" lon="-2.35839">
        <ele>27.39999961853</ele>
        <time>2020-07-09T07:58:54.000Z</time>
      </trkpt>
      <trkpt lat="47.33251" lon="-2.35843">
        <ele>27.799999237061</ele>
        <time>2020-07-09T07:58:55.000Z</time>
      </trkpt>
      <trkpt lat="47.33256" lon="-2.35848">
        <ele>27.799999237061</ele>
        <time>2020-07-09T07:58:56.000Z</time>
      </trkpt>
      <trkpt lat="47.33264" lon="-2.35858">
        <ele>28.39999961853</ele>
        <time>2020-07-09T07:58:58.000Z</time>
      </trkpt>
      <trkpt lat="47.33269" lon="-2.35862">
        <ele>28.799999237061</ele>
        <time>2020-07-09T07:58:59.000Z</time>
      </trkpt>
      <trkpt lat="47.33273" lon="-2.35867">
        <ele>29.200000762939</ele>
        <time>2020-07-09T07:59:00.000Z</time>
      </trkpt>
      <trkpt lat="47.33276" lon="-2.35872">
        <ele>29.60000038147</ele>
        <time>2020-07-09T07:59:01.000Z</time>
      </trkpt>
      <trkpt lat="47.3328" lon="-2.35876">
        <ele>30</ele>
        <time>2020-07-09T07:59:02.000Z</time>
      </trkpt>
      <trkpt lat="47.33285" lon="-2.3588">
        <ele>30</ele>
        <time>2020-07-09T07:59:03.000Z</time>
      </trkpt>
      <trkpt lat="47.33294" lon="-2.35885">
        <ele>30.60000038147</ele>
        <time>2020-07-09T07:59:05.000Z</time>
      </trkpt>
      <trkpt lat="47.33298" lon="-2.35888">
        <ele>31</ele>
        <time>2020-07-09T07:59:06.000Z</time>
      </trkpt>
      <trkpt lat="47.33302" lon="-2.35893">
        <ele>31.39999961853</ele>
        <time>2020-07-09T07:59:07.000Z</time>
      </trkpt>
      <trkpt lat="47.33305" lon="-2.359">
        <ele>31.799999237061</ele>
        <time>2020-07-09T07:59:08.000Z</time>
      </trkpt>
      <trkpt lat="47.33308" lon="-2.35907">
        <ele>32.200000762939</ele>
        <time>2020-07-09T07:59:09.000Z</time>
      </trkpt>
      <trkpt lat="47.33311" lon="-2.35913">
        <ele>32.200000762939</ele>
        <time>2020-07-09T07:59:10.000Z</time>
      </trkpt>
      <trkpt lat="47.33318" lon="-2.35935">
        <ele>32.200000762939</ele>
        <time>2020-07-09T07:59:13.000Z</time>
      </trkpt>
      <trkpt lat="47.33322" lon="-2.35959">
        <ele>32.200000762939</ele>
        <time>2020-07-09T07:59:16.000Z</time>
      </trkpt>
      <trkpt lat="47.33322" lon="-2.35967">
        <ele>32.200000762939</ele>
        <time>2020-07-09T07:59:17.000Z</time>
      </trkpt>
      <trkpt lat="47.33321" lon="-2.35975">
        <ele>32.599998474121</ele>
        <time>2020-07-09T07:59:18.000Z</time>
      </trkpt>
      <trkpt lat="47.3332" lon="-2.35983">
        <ele>33</ele>
        <time>2020-07-09T07:59:19.000Z</time>
      </trkpt>
      <trkpt lat="47.33318" lon="-2.35992">
        <ele>33.400001525879</ele>
        <time>2020-07-09T07:59:20.000Z</time>
      </trkpt>
      <trkpt lat="47.33316" lon="-2.36001">
        <ele>33.799999237061</ele>
        <time>2020-07-09T07:59:21.000Z</time>
      </trkpt>
      <trkpt lat="47.33314" lon="-2.3601">
        <ele>34.200000762939</ele>
        <time>2020-07-09T07:59:22.000Z</time>
      </trkpt>
      <trkpt lat="47.33313" lon="-2.36019">
        <ele>34.200000762939</ele>
        <time>2020-07-09T07:59:23.000Z</time>
      </trkpt>
      <trkpt lat="47.3331" lon="-2.36047">
        <ele>34.200000762939</ele>
        <time>2020-07-09T07:59:26.000Z</time>
      </trkpt>
      <trkpt lat="47.3331" lon="-2.36094">
        <ele>34.200000762939</ele>
        <time>2020-07-09T07:59:32.000Z</time>
      </trkpt>
      <trkpt lat="47.3331" lon="-2.36138">
        <ele>34.200000762939</ele>
        <time>2020-07-09T07:59:37.000Z</time>
      </trkpt>
      <trkpt lat="47.3331" lon="-2.36208">
        <ele>34.200000762939</ele>
        <time>2020-07-09T07:59:45.000Z</time>
      </trkpt>
      <trkpt lat="47.33316" lon="-2.36215">
        <ele>34.200000762939</ele>
        <time>2020-07-09T07:59:47.000Z</time>
      </trkpt>
      <trkpt lat="47.33326" lon="-2.3621">
        <ele>34.200000762939</ele>
        <time>2020-07-09T07:59:50.000Z</time>
      </trkpt>
      <trkpt lat="47.33342" lon="-2.36204">
        <ele>34.200000762939</ele>
        <time>2020-07-09T07:59:55.000Z</time>
      </trkpt>
      <trkpt lat="47.33349" lon="-2.36198">
        <ele>34.200000762939</ele>
        <time>2020-07-09T07:59:59.000Z</time>
      </trkpt>
      <trkpt lat="47.33351" lon="-2.36197">
        <ele>34.200000762939</ele>
        <time>2020-07-09T08:00:00.000Z</time>
      </trkpt>
      <trkpt lat="47.33359" lon="-2.36192">
        <ele>34.200000762939</ele>
        <time>2020-07-09T08:00:04.000Z</time>
      </trkpt>
      <trkpt lat="47.33361" lon="-2.36191">
        <ele>34.200000762939</ele>
        <time>2020-07-09T08:00:05.000Z</time>
      </trkpt>
      <trkpt lat="47.33369" lon="-2.36185">
        <ele>34.200000762939</ele>
        <time>2020-07-09T08:00:09.000Z</time>
      </trkpt>
      <trkpt lat="47.33374" lon="-2.36182">
        <ele>34.200000762939</ele>
        <time>2020-07-09T08:00:11.000Z</time>
      </trkpt>
      <trkpt lat="47.3339" lon="-2.36169">
        <ele>34.200000762939</ele>
        <time>2020-07-09T08:00:17.000Z</time>
      </trkpt>
      <trkpt lat="47.33407" lon="-2.36162">
        <ele>34.200000762939</ele>
        <time>2020-07-09T08:00:23.000Z</time>
      </trkpt>
      <trkpt lat="47.33413" lon="-2.36173">
        <ele>34.200000762939</ele>
        <time>2020-07-09T08:00:26.000Z</time>
      </trkpt>
      <trkpt lat="47.33415" lon="-2.3619">
        <ele>34.200000762939</ele>
        <time>2020-07-09T08:00:29.000Z</time>
      </trkpt>
      <trkpt lat="47.33415" lon="-2.36202">
        <ele>34.200000762939</ele>
        <time>2020-07-09T08:00:31.000Z</time>
      </trkpt>
      <trkpt lat="47.33415" lon="-2.36214">
        <ele>34.200000762939</ele>
        <time>2020-07-09T08:00:33.000Z</time>
      </trkpt>
      <trkpt lat="47.33413" lon="-2.36234">
        <ele>34.200000762939</ele>
        <time>2020-07-09T08:00:36.000Z</time>
      </trkpt>
      <trkpt lat="47.33414" lon="-2.36283">
        <ele>34.200000762939</ele>
        <time>2020-07-09T08:00:43.000Z</time>
      </trkpt>
      <trkpt lat="47.33418" lon="-2.36303">
        <ele>33.799999237061</ele>
        <time>2020-07-09T08:00:46.000Z</time>
      </trkpt>
      <trkpt lat="47.33419" lon="-2.3631">
        <ele>33.400001525879</ele>
        <time>2020-07-09T08:00:47.000Z</time>
      </trkpt>
      <trkpt lat="47.33419" lon="-2.36316">
        <ele>33</ele>
        <time>2020-07-09T08:00:48.000Z</time>
      </trkpt>
      <trkpt lat="47.3342" lon="-2.36322">
        <ele>32.599998474121</ele>
        <time>2020-07-09T08:00:49.000Z</time>
      </trkpt>
      <trkpt lat="47.33421" lon="-2.36327">
        <ele>32.200000762939</ele>
        <time>2020-07-09T08:00:50.000Z</time>
      </trkpt>
      <trkpt lat="47.33427" lon="-2.36345">
        <ele>32.200000762939</ele>
        <time>2020-07-09T08:00:55.000Z</time>
      </trkpt>
      <trkpt lat="47.33431" lon="-2.36354">
        <ele>31.799999237061</ele>
        <time>2020-07-09T08:00:57.000Z</time>
      </trkpt>
      <trkpt lat="47.33433" lon="-2.36358">
        <ele>31.39999961853</ele>
        <time>2020-07-09T08:00:58.000Z</time>
      </trkpt>
      <trkpt lat="47.33435" lon="-2.36364">
        <ele>31</ele>
        <time>2020-07-09T08:00:59.000Z</time>
      </trkpt>
      <trkpt lat="47.33436" lon="-2.36369">
        <ele>30.39999961853</ele>
        <time>2020-07-09T08:01:00.000Z</time>
      </trkpt>
      <trkpt lat="47.33438" lon="-2.36374">
        <ele>30</ele>
        <time>2020-07-09T08:01:01.000Z</time>
      </trkpt>
      <trkpt lat="47.33442" lon="-2.36387">
        <ele>30</ele>
        <time>2020-07-09T08:01:05.000Z</time>
      </trkpt>
      <trkpt lat="47.33449" lon="-2.36407">
        <ele>30</ele>
        <time>2020-07-09T08:01:11.000Z</time>
      </trkpt>
      <trkpt lat="47.33452" lon="-2.36408">
        <ele>30</ele>
        <time>2020-07-09T08:01:12.000Z</time>
      </trkpt>
      <trkpt lat="47.33463" lon="-2.36412">
        <ele>30</ele>
        <time>2020-07-09T08:01:15.000Z</time>
      </trkpt>
      <trkpt lat="47.33465" lon="-2.36413">
        <ele>29.60000038147</ele>
        <time>2020-07-09T08:01:16.000Z</time>
      </trkpt>
      <trkpt lat="47.33468" lon="-2.36415">
        <ele>29.200000762939</ele>
        <time>2020-07-09T08:01:17.000Z</time>
      </trkpt>
      <trkpt lat="47.33469" lon="-2.36417">
        <ele>28.799999237061</ele>
        <time>2020-07-09T08:01:18.000Z</time>
      </trkpt>
      <trkpt lat="47.3347" lon="-2.3642">
        <ele>28.39999961853</ele>
        <time>2020-07-09T08:01:19.000Z</time>
      </trkpt>
      <trkpt lat="47.33471" lon="-2.36423">
        <ele>28</ele>
        <time>2020-07-09T08:01:20.000Z</time>
      </trkpt>
      <trkpt lat="47.33471" lon="-2.3644">
        <ele>28</ele>
        <time>2020-07-09T08:01:24.000Z</time>
      </trkpt>
      <trkpt lat="47.33472" lon="-2.36488">
        <ele>28</ele>
        <time>2020-07-09T08:01:32.000Z</time>
      </trkpt>
      <trkpt lat="47.33471" lon="-2.36526">
        <ele>28</ele>
        <time>2020-07-09T08:01:38.000Z</time>
      </trkpt>
      <trkpt lat="47.33476" lon="-2.36574">
        <ele>28</ele>
        <time>2020-07-09T08:01:46.000Z</time>
      </trkpt>
      <trkpt lat="47.33487" lon="-2.36582">
        <ele>28</ele>
        <time>2020-07-09T08:01:50.000Z</time>
      </trkpt>
      <trkpt lat="47.3349" lon="-2.36584">
        <ele>28</ele>
        <time>2020-07-09T08:01:51.000Z</time>
      </trkpt>
      <trkpt lat="47.33506" lon="-2.36599">
        <ele>28</ele>
        <time>2020-07-09T08:01:56.000Z</time>
      </trkpt>
      <trkpt lat="47.33513" lon="-2.36604">
        <ele>27</ele>
        <time>2020-07-09T08:01:58.000Z</time>
      </trkpt>
      <trkpt lat="47.33517" lon="-2.36606">
        <ele>26.60000038147</ele>
        <time>2020-07-09T08:01:59.000Z</time>
      </trkpt>
      <trkpt lat="47.3352" lon="-2.36608">
        <ele>26.200000762939</ele>
        <time>2020-07-09T08:02:00.000Z</time>
      </trkpt>
      <trkpt lat="47.33523" lon="-2.36611">
        <ele>25.799999237061</ele>
        <time>2020-07-09T08:02:01.000Z</time>
      </trkpt>
      <trkpt lat="47.33528" lon="-2.36619">
        <ele>25.39999961853</ele>
        <time>2020-07-09T08:02:04.000Z</time>
      </trkpt>
      <trkpt lat="47.3353" lon="-2.36621">
        <ele>25</ele>
        <time>2020-07-09T08:02:05.000Z</time>
      </trkpt>
      <trkpt lat="47.33531" lon="-2.36622">
        <ele>24.60000038147</ele>
        <time>2020-07-09T08:02:06.000Z</time>
      </trkpt>
      <trkpt lat="47.33533" lon="-2.36624">
        <ele>24.200000762939</ele>
        <time>2020-07-09T08:02:07.000Z</time>
      </trkpt>
      <trkpt lat="47.33535" lon="-2.36626">
        <ele>23.799999237061</ele>
        <time>2020-07-09T08:02:08.000Z</time>
      </trkpt>
      <trkpt lat="47.33539" lon="-2.36631">
        <ele>23.200000762939</ele>
        <time>2020-07-09T08:02:10.000Z</time>
      </trkpt>
      <trkpt lat="47.3354" lon="-2.36634">
        <ele>22.799999237061</ele>
        <time>2020-07-09T08:02:11.000Z</time>
      </trkpt>
      <trkpt lat="47.3354" lon="-2.36637">
        <ele>22.200000762939</ele>
        <time>2020-07-09T08:02:12.000Z</time>
      </trkpt>
      <trkpt lat="47.3354" lon="-2.36641">
        <ele>21.799999237061</ele>
        <time>2020-07-09T08:02:13.000Z</time>
      </trkpt>
      <trkpt lat="47.3354" lon="-2.36646">
        <ele>21.39999961853</ele>
        <time>2020-07-09T08:02:14.000Z</time>
      </trkpt>
      <trkpt lat="47.33538" lon="-2.36651">
        <ele>21.39999961853</ele>
        <time>2020-07-09T08:02:15.000Z</time>
      </trkpt>
      <trkpt lat="47.33524" lon="-2.36667">
        <ele>21.39999961853</ele>
        <time>2020-07-09T08:02:19.000Z</time>
      </trkpt>
      <trkpt lat="47.33513" lon="-2.36683">
        <ele>21.39999961853</ele>
        <time>2020-07-09T08:02:22.000Z</time>
      </trkpt>
      <trkpt lat="47.33507" lon="-2.36692">
        <ele>21.39999961853</ele>
        <time>2020-07-09T08:02:24.000Z</time>
      </trkpt>
      <trkpt lat="47.33492" lon="-2.36717">
        <ele>21.39999961853</ele>
        <time>2020-07-09T08:02:29.000Z</time>
      </trkpt>
      <trkpt lat="47.33479" lon="-2.36752">
        <ele>21.39999961853</ele>
        <time>2020-07-09T08:02:36.000Z</time>
      </trkpt>
      <trkpt lat="47.3347" lon="-2.36788">
        <ele>21.39999961853</ele>
        <time>2020-07-09T08:02:42.000Z</time>
      </trkpt>
      <trkpt lat="47.3347" lon="-2.36795">
        <ele>21.39999961853</ele>
        <time>2020-07-09T08:02:43.000Z</time>
      </trkpt>
      <trkpt lat="47.33468" lon="-2.3682">
        <ele>21.39999961853</ele>
        <time>2020-07-09T08:02:47.000Z</time>
      </trkpt>
      <trkpt lat="47.3346" lon="-2.36859">
        <ele>21.39999961853</ele>
        <time>2020-07-09T08:02:54.000Z</time>
      </trkpt>
      <trkpt lat="47.33462" lon="-2.36891">
        <ele>21.39999961853</ele>
        <time>2020-07-09T08:02:59.000Z</time>
      </trkpt>
      <trkpt lat="47.33468" lon="-2.36935">
        <ele>21.39999961853</ele>
        <time>2020-07-09T08:03:06.000Z</time>
      </trkpt>
      <trkpt lat="47.33468" lon="-2.36964">
        <ele>21.39999961853</ele>
        <time>2020-07-09T08:03:11.000Z</time>
      </trkpt>
      <trkpt lat="47.33466" lon="-2.36988">
        <ele>21.39999961853</ele>
        <time>2020-07-09T08:03:16.000Z</time>
      </trkpt>
      <trkpt lat="47.33471" lon="-2.36995">
        <ele>21.39999961853</ele>
        <time>2020-07-09T08:03:19.000Z</time>
      </trkpt>
      <trkpt lat="47.33473" lon="-2.36994">
        <ele>21.39999961853</ele>
        <time>2020-07-09T08:03:20.000Z</time>
      </trkpt>
      <trkpt lat="47.3348" lon="-2.36986">
        <ele>21.39999961853</ele>
        <time>2020-07-09T08:03:23.000Z</time>
      </trkpt>
      <trkpt lat="47.33484" lon="-2.3698">
        <ele>21.39999961853</ele>
        <time>2020-07-09T08:03:26.000Z</time>
      </trkpt>
      <trkpt lat="47.33497" lon="-2.36976">
        <ele>21.39999961853</ele>
        <time>2020-07-09T08:03:33.000Z</time>
      </trkpt>
      <trkpt lat="47.33498" lon="-2.36977">
        <ele>21.39999961853</ele>
        <time>2020-07-09T08:03:36.000Z</time>
      </trkpt>
      <trkpt lat="47.33536" lon="-2.36965">
        <ele>27.60000038147</ele>
        <time>2020-07-09T08:04:30.000Z</time>
      </trkpt>
      <trkpt lat="47.3354" lon="-2.36962">
        <ele>27.60000038147</ele>
        <time>2020-07-09T08:04:32.000Z</time>
      </trkpt>
      <trkpt lat="47.3356" lon="-2.3696">
        <ele>27.60000038147</ele>
        <time>2020-07-09T08:04:38.000Z</time>
      </trkpt>
      <trkpt lat="47.33584" lon="-2.36956">
        <ele>27.60000038147</ele>
        <time>2020-07-09T08:04:46.000Z</time>
      </trkpt>
      <trkpt lat="47.33605" lon="-2.36948">
        <ele>27.60000038147</ele>
        <time>2020-07-09T08:04:52.000Z</time>
      </trkpt>
      <trkpt lat="47.33607" lon="-2.36945">
        <ele>28</ele>
        <time>2020-07-09T08:04:53.000Z</time>
      </trkpt>
      <trkpt lat="47.3361" lon="-2.3694">
        <ele>28.39999961853</ele>
        <time>2020-07-09T08:04:54.000Z</time>
      </trkpt>
      <trkpt lat="47.33613" lon="-2.36936">
        <ele>28.799999237061</ele>
        <time>2020-07-09T08:04:55.000Z</time>
      </trkpt>
      <trkpt lat="47.33615" lon="-2.36933">
        <ele>29.39999961853</ele>
        <time>2020-07-09T08:04:56.000Z</time>
      </trkpt>
      <trkpt lat="47.33618" lon="-2.36928">
        <ele>29.799999237061</ele>
        <time>2020-07-09T08:04:57.000Z</time>
      </trkpt>
      <trkpt lat="47.33633" lon="-2.36904">
        <ele>29.799999237061</ele>
        <time>2020-07-09T08:05:02.000Z</time>
      </trkpt>
      <trkpt lat="47.33659" lon="-2.36874">
        <ele>29.799999237061</ele>
        <time>2020-07-09T08:05:09.000Z</time>
      </trkpt>
      <trkpt lat="47.33695" lon="-2.36836">
        <ele>29.799999237061</ele>
        <time>2020-07-09T08:05:18.000Z</time>
      </trkpt>
      <trkpt lat="47.33699" lon="-2.36831">
        <ele>30.200000762939</ele>
        <time>2020-07-09T08:05:19.000Z</time>
      </trkpt>
      <trkpt lat="47.33702" lon="-2.36828">
        <ele>30.60000038147</ele>
        <time>2020-07-09T08:05:20.000Z</time>
      </trkpt>
      <trkpt lat="47.33706" lon="-2.36824">
        <ele>31</ele>
        <time>2020-07-09T08:05:21.000Z</time>
      </trkpt>
      <trkpt lat="47.33709" lon="-2.36821">
        <ele>31.39999961853</ele>
        <time>2020-07-09T08:05:22.000Z</time>
      </trkpt>
      <trkpt lat="47.33712" lon="-2.36818">
        <ele>31.799999237061</ele>
        <time>2020-07-09T08:05:23.000Z</time>
      </trkpt>
      <trkpt lat="47.33731" lon="-2.36806">
        <ele>31.799999237061</ele>
        <time>2020-07-09T08:05:28.000Z</time>
      </trkpt>
      <trkpt lat="47.3375" lon="-2.36799">
        <ele>31.799999237061</ele>
        <time>2020-07-09T08:05:32.000Z</time>
      </trkpt>
      <trkpt lat="47.33756" lon="-2.36797">
        <ele>31.799999237061</ele>
        <time>2020-07-09T08:05:33.000Z</time>
      </trkpt>
      <trkpt lat="47.3379" lon="-2.36786">
        <ele>31.799999237061</ele>
        <time>2020-07-09T08:05:38.000Z</time>
      </trkpt>
      <trkpt lat="47.33842" lon="-2.36773">
        <ele>31.799999237061</ele>
        <time>2020-07-09T08:05:45.000Z</time>
      </trkpt>
      <trkpt lat="47.33888" lon="-2.36763">
        <ele>31.799999237061</ele>
        <time>2020-07-09T08:05:52.000Z</time>
      </trkpt>
      <trkpt lat="47.33916" lon="-2.36757">
        <ele>31.799999237061</ele>
        <time>2020-07-09T08:05:57.000Z</time>
      </trkpt>
      <trkpt lat="47.3392" lon="-2.36758">
        <ele>31.799999237061</ele>
        <time>2020-07-09T08:05:58.000Z</time>
      </trkpt>
      <trkpt lat="47.33944" lon="-2.36759">
        <ele>31.39999961853</ele>
        <time>2020-07-09T08:06:03.000Z</time>
      </trkpt>
      <trkpt lat="47.33949" lon="-2.36757">
        <ele>31</ele>
        <time>2020-07-09T08:06:04.000Z</time>
      </trkpt>
      <trkpt lat="47.33954" lon="-2.36756">
        <ele>30.60000038147</ele>
        <time>2020-07-09T08:06:05.000Z</time>
      </trkpt>
      <trkpt lat="47.3396" lon="-2.36754">
        <ele>29.799999237061</ele>
        <time>2020-07-09T08:06:06.000Z</time>
      </trkpt>
      <trkpt lat="47.33981" lon="-2.36745">
        <ele>29.799999237061</ele>
        <time>2020-07-09T08:06:10.000Z</time>
      </trkpt>
      <trkpt lat="47.34024" lon="-2.36731">
        <ele>29.799999237061</ele>
        <time>2020-07-09T08:06:17.000Z</time>
      </trkpt>
      <trkpt lat="47.34035" lon="-2.36723">
        <ele>29.799999237061</ele>
        <time>2020-07-09T08:06:19.000Z</time>
      </trkpt>
      <trkpt lat="47.34046" lon="-2.36717">
        <ele>29.200000762939</ele>
        <time>2020-07-09T08:06:21.000Z</time>
      </trkpt>
      <trkpt lat="47.34052" lon="-2.36713">
        <ele>28.799999237061</ele>
        <time>2020-07-09T08:06:22.000Z</time>
      </trkpt>
      <trkpt lat="47.34057" lon="-2.3671">
        <ele>28.200000762939</ele>
        <time>2020-07-09T08:06:23.000Z</time>
      </trkpt>
      <trkpt lat="47.34063" lon="-2.36706">
        <ele>27.799999237061</ele>
        <time>2020-07-09T08:06:24.000Z</time>
      </trkpt>
      <trkpt lat="47.34069" lon="-2.36703">
        <ele>27.200000762939</ele>
        <time>2020-07-09T08:06:25.000Z</time>
      </trkpt>
      <trkpt lat="47.34079" lon="-2.36702">
        <ele>27.200000762939</ele>
        <time>2020-07-09T08:06:27.000Z</time>
      </trkpt>
      <trkpt lat="47.34088" lon="-2.36717">
        <ele>27.200000762939</ele>
        <time>2020-07-09T08:06:30.000Z</time>
      </trkpt>
      <trkpt lat="47.3409" lon="-2.36732">
        <ele>26.799999237061</ele>
        <time>2020-07-09T08:06:33.000Z</time>
      </trkpt>
      <trkpt lat="47.34091" lon="-2.36736">
        <ele>26.39999961853</ele>
        <time>2020-07-09T08:06:34.000Z</time>
      </trkpt>
      <trkpt lat="47.34091" lon="-2.3674">
        <ele>26</ele>
        <time>2020-07-09T08:06:35.000Z</time>
      </trkpt>
      <trkpt lat="47.34092" lon="-2.36744">
        <ele>25.60000038147</ele>
        <time>2020-07-09T08:06:36.000Z</time>
      </trkpt>
      <trkpt lat="47.34092" lon="-2.36748">
        <ele>25.200000762939</ele>
        <time>2020-07-09T08:06:37.000Z</time>
      </trkpt>
      <trkpt lat="47.34097" lon="-2.3677">
        <ele>25.200000762939</ele>
        <time>2020-07-09T08:06:41.000Z</time>
      </trkpt>
      <trkpt lat="47.341" lon="-2.36793">
        <ele>25.200000762939</ele>
        <time>2020-07-09T08:06:44.000Z</time>
      </trkpt>
      <trkpt lat="47.34104" lon="-2.36809">
        <ele>25.200000762939</ele>
        <time>2020-07-09T08:06:46.000Z</time>
      </trkpt>
      <trkpt lat="47.34118" lon="-2.36865">
        <ele>25.200000762939</ele>
        <time>2020-07-09T08:06:53.000Z</time>
      </trkpt>
      <trkpt lat="47.34134" lon="-2.36899">
        <ele>25.200000762939</ele>
        <time>2020-07-09T08:06:58.000Z</time>
      </trkpt>
      <trkpt lat="47.34149" lon="-2.3693">
        <ele>25.200000762939</ele>
        <time>2020-07-09T08:07:03.000Z</time>
      </trkpt>
      <trkpt lat="47.34156" lon="-2.36942">
        <ele>25.200000762939</ele>
        <time>2020-07-09T08:07:05.000Z</time>
      </trkpt>
      <trkpt lat="47.34182" lon="-2.36981">
        <ele>25.200000762939</ele>
        <time>2020-07-09T08:07:12.000Z</time>
      </trkpt>
      <trkpt lat="47.34197" lon="-2.37004">
        <ele>25.200000762939</ele>
        <time>2020-07-09T08:07:16.000Z</time>
      </trkpt>
      <trkpt lat="47.34207" lon="-2.3702">
        <ele>25.60000038147</ele>
        <time>2020-07-09T08:07:19.000Z</time>
      </trkpt>
      <trkpt lat="47.3421" lon="-2.37025">
        <ele>26</ele>
        <time>2020-07-09T08:07:20.000Z</time>
      </trkpt>
      <trkpt lat="47.34213" lon="-2.3703">
        <ele>26.39999961853</ele>
        <time>2020-07-09T08:07:21.000Z</time>
      </trkpt>
      <trkpt lat="47.34215" lon="-2.37036">
        <ele>26.799999237061</ele>
        <time>2020-07-09T08:07:22.000Z</time>
      </trkpt>
      <trkpt lat="47.34218" lon="-2.37042">
        <ele>27.200000762939</ele>
        <time>2020-07-09T08:07:23.000Z</time>
      </trkpt>
      <trkpt lat="47.34226" lon="-2.37056">
        <ele>27.200000762939</ele>
        <time>2020-07-09T08:07:26.000Z</time>
      </trkpt>
      <trkpt lat="47.34229" lon="-2.3706">
        <ele>27.60000038147</ele>
        <time>2020-07-09T08:07:27.000Z</time>
      </trkpt>
      <trkpt lat="47.34232" lon="-2.37062">
        <ele>28</ele>
        <time>2020-07-09T08:07:28.000Z</time>
      </trkpt>
      <trkpt lat="47.34236" lon="-2.37062">
        <ele>28.39999961853</ele>
        <time>2020-07-09T08:07:29.000Z</time>
      </trkpt>
      <trkpt lat="47.3424" lon="-2.37061">
        <ele>28.799999237061</ele>
        <time>2020-07-09T08:07:30.000Z</time>
      </trkpt>
      <trkpt lat="47.34244" lon="-2.37059">
        <ele>29.200000762939</ele>
        <time>2020-07-09T08:07:31.000Z</time>
      </trkpt>
      <trkpt lat="47.34255" lon="-2.37049">
        <ele>29.200000762939</ele>
        <time>2020-07-09T08:07:34.000Z</time>
      </trkpt>
      <trkpt lat="47.34259" lon="-2.37045">
        <ele>29.200000762939</ele>
        <time>2020-07-09T08:07:35.000Z</time>
      </trkpt>
      <trkpt lat="47.34286" lon="-2.37015">
        <ele>29.200000762939</ele>
        <time>2020-07-09T08:07:42.000Z</time>
      </trkpt>
      <trkpt lat="47.34305" lon="-2.36986">
        <ele>29.200000762939</ele>
        <time>2020-07-09T08:07:48.000Z</time>
      </trkpt>
      <trkpt lat="47.34327" lon="-2.36959">
        <ele>29.200000762939</ele>
        <time>2020-07-09T08:07:54.000Z</time>
      </trkpt>
      <trkpt lat="47.34331" lon="-2.36953">
        <ele>29.200000762939</ele>
        <time>2020-07-09T08:07:55.000Z</time>
      </trkpt>
      <trkpt lat="47.34358" lon="-2.36913">
        <ele>29.200000762939</ele>
        <time>2020-07-09T08:08:03.000Z</time>
      </trkpt>
      <trkpt lat="47.34374" lon="-2.36887">
        <ele>29.200000762939</ele>
        <time>2020-07-09T08:08:09.000Z</time>
      </trkpt>
      <trkpt lat="47.34393" lon="-2.36855">
        <ele>29.200000762939</ele>
        <time>2020-07-09T08:08:16.000Z</time>
      </trkpt>
      <trkpt lat="47.34399" lon="-2.36846">
        <ele>29.200000762939</ele>
        <time>2020-07-09T08:08:18.000Z</time>
      </trkpt>
      <trkpt lat="47.34408" lon="-2.36832">
        <ele>29.200000762939</ele>
        <time>2020-07-09T08:08:21.000Z</time>
      </trkpt>
      <trkpt lat="47.34427" lon="-2.36803">
        <ele>29.200000762939</ele>
        <time>2020-07-09T08:08:27.000Z</time>
      </trkpt>
      <trkpt lat="47.34431" lon="-2.36798">
        <ele>29.200000762939</ele>
        <time>2020-07-09T08:08:28.000Z</time>
      </trkpt>
      <trkpt lat="47.34451" lon="-2.36763">
        <ele>29.200000762939</ele>
        <time>2020-07-09T08:08:35.000Z</time>
      </trkpt>
      <trkpt lat="47.34457" lon="-2.36754">
        <ele>29.200000762939</ele>
        <time>2020-07-09T08:08:37.000Z</time>
      </trkpt>
      <trkpt lat="47.34463" lon="-2.36746">
        <ele>29.200000762939</ele>
        <time>2020-07-09T08:08:39.000Z</time>
      </trkpt>
      <trkpt lat="47.34468" lon="-2.36735">
        <ele>28.799999237061</ele>
        <time>2020-07-09T08:08:41.000Z</time>
      </trkpt>
      <trkpt lat="47.34471" lon="-2.36731">
        <ele>28.39999961853</ele>
        <time>2020-07-09T08:08:42.000Z</time>
      </trkpt>
      <trkpt lat="47.34474" lon="-2.36726">
        <ele>28</ele>
        <time>2020-07-09T08:08:43.000Z</time>
      </trkpt>
      <trkpt lat="47.34478" lon="-2.36721">
        <ele>27.60000038147</ele>
        <time>2020-07-09T08:08:44.000Z</time>
      </trkpt>
      <trkpt lat="47.34481" lon="-2.36714">
        <ele>27.200000762939</ele>
        <time>2020-07-09T08:08:45.000Z</time>
      </trkpt>
      <trkpt lat="47.34486" lon="-2.36702">
        <ele>27.200000762939</ele>
        <time>2020-07-09T08:08:47.000Z</time>
      </trkpt>
      <trkpt lat="47.34505" lon="-2.36661">
        <ele>27.200000762939</ele>
        <time>2020-07-09T08:08:54.000Z</time>
      </trkpt>
      <trkpt lat="47.34508" lon="-2.36654">
        <ele>26.799999237061</ele>
        <time>2020-07-09T08:08:55.000Z</time>
      </trkpt>
      <trkpt lat="47.34511" lon="-2.36647">
        <ele>26.39999961853</ele>
        <time>2020-07-09T08:08:56.000Z</time>
      </trkpt>
      <trkpt lat="47.34513" lon="-2.36641">
        <ele>26</ele>
        <time>2020-07-09T08:08:57.000Z</time>
      </trkpt>
      <trkpt lat="47.34516" lon="-2.36634">
        <ele>25.200000762939</ele>
        <time>2020-07-09T08:08:58.000Z</time>
      </trkpt>
      <trkpt lat="47.34527" lon="-2.36606">
        <ele>25.200000762939</ele>
        <time>2020-07-09T08:09:02.000Z</time>
      </trkpt>
      <trkpt lat="47.34544" lon="-2.36562">
        <ele>25.200000762939</ele>
        <time>2020-07-09T08:09:08.000Z</time>
      </trkpt>
      <trkpt lat="47.3455" lon="-2.36549">
        <ele>24.799999237061</ele>
        <time>2020-07-09T08:09:10.000Z</time>
      </trkpt>
      <trkpt lat="47.34553" lon="-2.36543">
        <ele>24.39999961853</ele>
        <time>2020-07-09T08:09:11.000Z</time>
      </trkpt>
      <trkpt lat="47.34555" lon="-2.36536">
        <ele>24</ele>
        <time>2020-07-09T08:09:12.000Z</time>
      </trkpt>
      <trkpt lat="47.34558" lon="-2.36529">
        <ele>23.39999961853</ele>
        <time>2020-07-09T08:09:13.000Z</time>
      </trkpt>
      <trkpt lat="47.3456" lon="-2.36523">
        <ele>23</ele>
        <time>2020-07-09T08:09:14.000Z</time>
      </trkpt>
      <trkpt lat="47.34578" lon="-2.36475">
        <ele>23</ele>
        <time>2020-07-09T08:09:21.000Z</time>
      </trkpt>
      <trkpt lat="47.34593" lon="-2.36442">
        <ele>23</ele>
        <time>2020-07-09T08:09:27.000Z</time>
      </trkpt>
      <trkpt lat="47.34597" lon="-2.3644">
        <ele>23</ele>
        <time>2020-07-09T08:09:29.000Z</time>
      </trkpt>
      <trkpt lat="47.34601" lon="-2.3644">
        <ele>23</ele>
        <time>2020-07-09T08:09:31.000Z</time>
      </trkpt>
      <trkpt lat="47.34614" lon="-2.36432">
        <ele>23</ele>
        <time>2020-07-09T08:09:37.000Z</time>
      </trkpt>
      <trkpt lat="47.34637" lon="-2.36419">
        <ele>23</ele>
        <time>2020-07-09T08:09:43.000Z</time>
      </trkpt>
      <trkpt lat="47.34661" lon="-2.36409">
        <ele>23</ele>
        <time>2020-07-09T08:09:49.000Z</time>
      </trkpt>
      <trkpt lat="47.34681" lon="-2.364">
        <ele>23</ele>
        <time>2020-07-09T08:09:54.000Z</time>
      </trkpt>
      <trkpt lat="47.3469" lon="-2.36397">
        <ele>23.39999961853</ele>
        <time>2020-07-09T08:09:56.000Z</time>
      </trkpt>
      <trkpt lat="47.34694" lon="-2.36396">
        <ele>23.799999237061</ele>
        <time>2020-07-09T08:09:57.000Z</time>
      </trkpt>
      <trkpt lat="47.34698" lon="-2.36395">
        <ele>24.39999961853</ele>
        <time>2020-07-09T08:09:58.000Z</time>
      </trkpt>
      <trkpt lat="47.34702" lon="-2.36393">
        <ele>24.799999237061</ele>
        <time>2020-07-09T08:09:59.000Z</time>
      </trkpt>
      <trkpt lat="47.34706" lon="-2.36392">
        <ele>25.200000762939</ele>
        <time>2020-07-09T08:10:00.000Z</time>
      </trkpt>
      <trkpt lat="47.34718" lon="-2.36387">
        <ele>25.200000762939</ele>
        <time>2020-07-09T08:10:03.000Z</time>
      </trkpt>
      <trkpt lat="47.34742" lon="-2.36374">
        <ele>25.200000762939</ele>
        <time>2020-07-09T08:10:09.000Z</time>
      </trkpt>
      <trkpt lat="47.34774" lon="-2.36355">
        <ele>25.200000762939</ele>
        <time>2020-07-09T08:10:17.000Z</time>
      </trkpt>
      <trkpt lat="47.34804" lon="-2.36333">
        <ele>25.200000762939</ele>
        <time>2020-07-09T08:10:25.000Z</time>
      </trkpt>
      <trkpt lat="47.34831" lon="-2.36315">
        <ele>25.200000762939</ele>
        <time>2020-07-09T08:10:34.000Z</time>
      </trkpt>
      <trkpt lat="47.34832" lon="-2.36316">
        <ele>25.200000762939</ele>
        <time>2020-07-09T08:10:35.000Z</time>
      </trkpt>
      <trkpt lat="47.34833" lon="-2.36317">
        <ele>25.200000762939</ele>
        <time>2020-07-09T08:10:37.000Z</time>
      </trkpt>
      <trkpt lat="47.34837" lon="-2.36314">
        <ele>25.200000762939</ele>
        <time>2020-07-09T08:11:10.000Z</time>
      </trkpt>
      <trkpt lat="47.3484" lon="-2.36311">
        <ele>25.200000762939</ele>
        <time>2020-07-09T08:11:13.000Z</time>
      </trkpt>
      <trkpt lat="47.34841" lon="-2.3631">
        <ele>25.200000762939</ele>
        <time>2020-07-09T08:15:54.000Z</time>
      </trkpt>
      <trkpt lat="47.34853" lon="-2.36301">
        <ele>25.200000762939</ele>
        <time>2020-07-09T08:16:00.000Z</time>
      </trkpt>
      <trkpt lat="47.34884" lon="-2.36281">
        <ele>25.200000762939</ele>
        <time>2020-07-09T08:16:08.000Z</time>
      </trkpt>
      <trkpt lat="47.34917" lon="-2.3625">
        <ele>25.200000762939</ele>
        <time>2020-07-09T08:16:16.000Z</time>
      </trkpt>
      <trkpt lat="47.34946" lon="-2.36215">
        <ele>25.200000762939</ele>
        <time>2020-07-09T08:16:22.000Z</time>
      </trkpt>
      <trkpt lat="47.34984" lon="-2.36173">
        <ele>25.200000762939</ele>
        <time>2020-07-09T08:16:29.000Z</time>
      </trkpt>
      <trkpt lat="47.35011" lon="-2.36164">
        <ele>25.200000762939</ele>
        <time>2020-07-09T08:16:33.000Z</time>
      </trkpt>
      <trkpt lat="47.35019" lon="-2.36165">
        <ele>24.60000038147</ele>
        <time>2020-07-09T08:16:34.000Z</time>
      </trkpt>
      <trkpt lat="47.35026" lon="-2.36166">
        <ele>24.200000762939</ele>
        <time>2020-07-09T08:16:35.000Z</time>
      </trkpt>
      <trkpt lat="47.35034" lon="-2.36169">
        <ele>23.799999237061</ele>
        <time>2020-07-09T08:16:36.000Z</time>
      </trkpt>
      <trkpt lat="47.35042" lon="-2.36171">
        <ele>23.39999961853</ele>
        <time>2020-07-09T08:16:37.000Z</time>
      </trkpt>
      <trkpt lat="47.35049" lon="-2.36173">
        <ele>23</ele>
        <time>2020-07-09T08:16:38.000Z</time>
      </trkpt>
      <trkpt lat="47.35083" lon="-2.36176">
        <ele>23</ele>
        <time>2020-07-09T08:16:43.000Z</time>
      </trkpt>
      <trkpt lat="47.35091" lon="-2.36173">
        <ele>22.60000038147</ele>
        <time>2020-07-09T08:16:45.000Z</time>
      </trkpt>
      <trkpt lat="47.35095" lon="-2.36172">
        <ele>22.200000762939</ele>
        <time>2020-07-09T08:16:46.000Z</time>
      </trkpt>
      <trkpt lat="47.351" lon="-2.36171">
        <ele>21.200000762939</ele>
        <time>2020-07-09T08:16:47.000Z</time>
      </trkpt>
      <trkpt lat="47.35105" lon="-2.3617">
        <ele>20.799999237061</ele>
        <time>2020-07-09T08:16:48.000Z</time>
      </trkpt>
      <trkpt lat="47.35117" lon="-2.36165">
        <ele>20.799999237061</ele>
        <time>2020-07-09T08:16:50.000Z</time>
      </trkpt>
      <trkpt lat="47.35123" lon="-2.36162">
        <ele>20.799999237061</ele>
        <time>2020-07-09T08:16:51.000Z</time>
      </trkpt>
      <trkpt lat="47.35158" lon="-2.3614">
        <ele>20.799999237061</ele>
        <time>2020-07-09T08:16:57.000Z</time>
      </trkpt>
      <trkpt lat="47.35198" lon="-2.36109">
        <ele>20.799999237061</ele>
        <time>2020-07-09T08:17:04.000Z</time>
      </trkpt>
      <trkpt lat="47.35238" lon="-2.36073">
        <ele>20.799999237061</ele>
        <time>2020-07-09T08:17:11.000Z</time>
      </trkpt>
      <trkpt lat="47.35254" lon="-2.36057">
        <ele>20.39999961853</ele>
        <time>2020-07-09T08:17:15.000Z</time>
      </trkpt>
      <trkpt lat="47.35256" lon="-2.36055">
        <ele>20</ele>
        <time>2020-07-09T08:17:16.000Z</time>
      </trkpt>
      <trkpt lat="47.35258" lon="-2.36054">
        <ele>19.60000038147</ele>
        <time>2020-07-09T08:17:17.000Z</time>
      </trkpt>
      <trkpt lat="47.35258" lon="-2.36054">
        <ele>19.200000762939</ele>
        <time>2020-07-09T08:17:18.000Z</time>
      </trkpt>
      <trkpt lat="47.35259" lon="-2.36053">
        <ele>18.799999237061</ele>
        <time>2020-07-09T08:17:19.000Z</time>
      </trkpt>
      <trkpt lat="47.35259" lon="-2.36053">
        <ele>18.799999237061</ele>
        <time>2020-07-09T08:17:44.000Z</time>
      </trkpt>
      <trkpt lat="47.35264" lon="-2.36049">
        <ele>18.799999237061</ele>
        <time>2020-07-09T08:17:46.000Z</time>
      </trkpt>
      <trkpt lat="47.3528" lon="-2.36033">
        <ele>18.799999237061</ele>
        <time>2020-07-09T08:17:50.000Z</time>
      </trkpt>
      <trkpt lat="47.35284" lon="-2.36029">
        <ele>18.799999237061</ele>
        <time>2020-07-09T08:17:51.000Z</time>
      </trkpt>
      <trkpt lat="47.35298" lon="-2.36011">
        <ele>18.799999237061</ele>
        <time>2020-07-09T08:17:54.000Z</time>
      </trkpt>
      <trkpt lat="47.35303" lon="-2.36004">
        <ele>18.799999237061</ele>
        <time>2020-07-09T08:17:55.000Z</time>
      </trkpt>
      <trkpt lat="47.35316" lon="-2.35972">
        <ele>18.799999237061</ele>
        <time>2020-07-09T08:17:59.000Z</time>
      </trkpt>
      <trkpt lat="47.3534" lon="-2.35923">
        <ele>18.799999237061</ele>
        <time>2020-07-09T08:18:06.000Z</time>
      </trkpt>
      <trkpt lat="47.35348" lon="-2.3591">
        <ele>18.799999237061</ele>
        <time>2020-07-09T08:18:08.000Z</time>
      </trkpt>
      <trkpt lat="47.35362" lon="-2.35896">
        <ele>18.799999237061</ele>
        <time>2020-07-09T08:18:11.000Z</time>
      </trkpt>
      <trkpt lat="47.35385" lon="-2.35876">
        <ele>18.799999237061</ele>
        <time>2020-07-09T08:18:16.000Z</time>
      </trkpt>
      <trkpt lat="47.35389" lon="-2.35871">
        <ele>18.799999237061</ele>
        <time>2020-07-09T08:18:17.000Z</time>
      </trkpt>
      <trkpt lat="47.35405" lon="-2.35848">
        <ele>19.200000762939</ele>
        <time>2020-07-09T08:18:21.000Z</time>
      </trkpt>
      <trkpt lat="47.35409" lon="-2.35842">
        <ele>19.60000038147</ele>
        <time>2020-07-09T08:18:22.000Z</time>
      </trkpt>
      <trkpt lat="47.35414" lon="-2.35836">
        <ele>20</ele>
        <time>2020-07-09T08:18:23.000Z</time>
      </trkpt>
      <trkpt lat="47.35418" lon="-2.3583">
        <ele>20.39999961853</ele>
        <time>2020-07-09T08:18:24.000Z</time>
      </trkpt>
      <trkpt lat="47.35422" lon="-2.35824">
        <ele>20.799999237061</ele>
        <time>2020-07-09T08:18:25.000Z</time>
      </trkpt>
      <trkpt lat="47.35426" lon="-2.35819">
        <ele>20.799999237061</ele>
        <time>2020-07-09T08:18:26.000Z</time>
      </trkpt>
      <trkpt lat="47.35443" lon="-2.35797">
        <ele>20.799999237061</ele>
        <time>2020-07-09T08:18:30.000Z</time>
      </trkpt>
      <trkpt lat="47.35458" lon="-2.35775">
        <ele>20.799999237061</ele>
        <time>2020-07-09T08:18:34.000Z</time>
      </trkpt>
      <trkpt lat="47.35466" lon="-2.35763">
        <ele>20.799999237061</ele>
        <time>2020-07-09T08:18:36.000Z</time>
      </trkpt>
      <trkpt lat="47.35491" lon="-2.35723">
        <ele>20.799999237061</ele>
        <time>2020-07-09T08:18:42.000Z</time>
      </trkpt>
      <trkpt lat="47.35523" lon="-2.35683">
        <ele>20.799999237061</ele>
        <time>2020-07-09T08:18:49.000Z</time>
      </trkpt>
      <trkpt lat="47.35568" lon="-2.35643">
        <ele>20.799999237061</ele>
        <time>2020-07-09T08:18:57.000Z</time>
      </trkpt>
      <trkpt lat="47.35601" lon="-2.35609">
        <ele>20.39999961853</ele>
        <time>2020-07-09T08:19:03.000Z</time>
      </trkpt>
      <trkpt lat="47.35606" lon="-2.35603">
        <ele>20</ele>
        <time>2020-07-09T08:19:04.000Z</time>
      </trkpt>
      <trkpt lat="47.35612" lon="-2.35596">
        <ele>19.60000038147</ele>
        <time>2020-07-09T08:19:05.000Z</time>
      </trkpt>
      <trkpt lat="47.35617" lon="-2.3559">
        <ele>19.200000762939</ele>
        <time>2020-07-09T08:19:06.000Z</time>
      </trkpt>
      <trkpt lat="47.35622" lon="-2.35584">
        <ele>18.799999237061</ele>
        <time>2020-07-09T08:19:07.000Z</time>
      </trkpt>
      <trkpt lat="47.35651" lon="-2.35558">
        <ele>18.799999237061</ele>
        <time>2020-07-09T08:19:12.000Z</time>
      </trkpt>
      <trkpt lat="47.35681" lon="-2.35535">
        <ele>18.799999237061</ele>
        <time>2020-07-09T08:19:17.000Z</time>
      </trkpt>
      <trkpt lat="47.3571" lon="-2.35521">
        <ele>18.799999237061</ele>
        <time>2020-07-09T08:19:22.000Z</time>
      </trkpt>
      <trkpt lat="47.3575" lon="-2.35504">
        <ele>18.799999237061</ele>
        <time>2020-07-09T08:19:29.000Z</time>
      </trkpt>
      <trkpt lat="47.35756" lon="-2.35501">
        <ele>18.799999237061</ele>
        <time>2020-07-09T08:19:30.000Z</time>
      </trkpt>
      <trkpt lat="47.35784" lon="-2.35486">
        <ele>18.799999237061</ele>
        <time>2020-07-09T08:19:35.000Z</time>
      </trkpt>
      <trkpt lat="47.35818" lon="-2.3547">
        <ele>18.799999237061</ele>
        <time>2020-07-09T08:19:41.000Z</time>
      </trkpt>
      <trkpt lat="47.35852" lon="-2.35454">
        <ele>18.799999237061</ele>
        <time>2020-07-09T08:19:47.000Z</time>
      </trkpt>
      <trkpt lat="47.35884" lon="-2.35431">
        <ele>18.200000762939</ele>
        <time>2020-07-09T08:19:53.000Z</time>
      </trkpt>
      <trkpt lat="47.35889" lon="-2.35427">
        <ele>17.799999237061</ele>
        <time>2020-07-09T08:19:54.000Z</time>
      </trkpt>
      <trkpt lat="47.35894" lon="-2.35423">
        <ele>17.39999961853</ele>
        <time>2020-07-09T08:19:55.000Z</time>
      </trkpt>
      <trkpt lat="47.359" lon="-2.35419">
        <ele>17</ele>
        <time>2020-07-09T08:19:56.000Z</time>
      </trkpt>
      <trkpt lat="47.35905" lon="-2.35416">
        <ele>16.60000038147</ele>
        <time>2020-07-09T08:19:57.000Z</time>
      </trkpt>
      <trkpt lat="47.35926" lon="-2.35403">
        <ele>16.60000038147</ele>
        <time>2020-07-09T08:20:01.000Z</time>
      </trkpt>
      <trkpt lat="47.35933" lon="-2.35396">
        <ele>16.60000038147</ele>
        <time>2020-07-09T08:20:03.000Z</time>
      </trkpt>
      <trkpt lat="47.35941" lon="-2.35385">
        <ele>16.60000038147</ele>
        <time>2020-07-09T08:20:05.000Z</time>
      </trkpt>
      <trkpt lat="47.35958" lon="-2.35357">
        <ele>16.60000038147</ele>
        <time>2020-07-09T08:20:09.000Z</time>
      </trkpt>
      <trkpt lat="47.35995" lon="-2.35309">
        <ele>16.60000038147</ele>
        <time>2020-07-09T08:20:16.000Z</time>
      </trkpt>
      <trkpt lat="47.36023" lon="-2.3527">
        <ele>16.60000038147</ele>
        <time>2020-07-09T08:20:22.000Z</time>
      </trkpt>
      <trkpt lat="47.36053" lon="-2.35231">
        <ele>16.60000038147</ele>
        <time>2020-07-09T08:20:28.000Z</time>
      </trkpt>
      <trkpt lat="47.36092" lon="-2.3518">
        <ele>16.60000038147</ele>
        <time>2020-07-09T08:20:36.000Z</time>
      </trkpt>
      <trkpt lat="47.3613" lon="-2.35133">
        <ele>16.60000038147</ele>
        <time>2020-07-09T08:20:44.000Z</time>
      </trkpt>
      <trkpt lat="47.36171" lon="-2.35089">
        <ele>16.60000038147</ele>
        <time>2020-07-09T08:20:52.000Z</time>
      </trkpt>
      <trkpt lat="47.36201" lon="-2.35059">
        <ele>16.60000038147</ele>
        <time>2020-07-09T08:20:58.000Z</time>
      </trkpt>
      <trkpt lat="47.36227" lon="-2.35023">
        <ele>16.60000038147</ele>
        <time>2020-07-09T08:21:04.000Z</time>
      </trkpt>
      <trkpt lat="47.36247" lon="-2.3498">
        <ele>16.60000038147</ele>
        <time>2020-07-09T08:21:10.000Z</time>
      </trkpt>
      <trkpt lat="47.36269" lon="-2.34934">
        <ele>16.60000038147</ele>
        <time>2020-07-09T08:21:17.000Z</time>
      </trkpt>
      <trkpt lat="47.3628" lon="-2.34922">
        <ele>16.60000038147</ele>
        <time>2020-07-09T08:21:21.000Z</time>
      </trkpt>
      <trkpt lat="47.36281" lon="-2.34922">
        <ele>16.60000038147</ele>
        <time>2020-07-09T08:21:24.000Z</time>
      </trkpt>
      <trkpt lat="47.36281" lon="-2.34928">
        <ele>14.60000038147</ele>
        <time>2020-07-09T08:21:56.000Z</time>
      </trkpt>
      <trkpt lat="47.36274" lon="-2.34932">
        <ele>14.60000038147</ele>
        <time>2020-07-09T08:22:00.000Z</time>
      </trkpt>
      <trkpt lat="47.36271" lon="-2.34933">
        <ele>14.60000038147</ele>
        <time>2020-07-09T08:22:03.000Z</time>
      </trkpt>
      <trkpt lat="47.3627" lon="-2.34934">
        <ele>14.60000038147</ele>
        <time>2020-07-09T08:22:04.000Z</time>
      </trkpt>
      <trkpt lat="47.36267" lon="-2.34939">
        <ele>14.60000038147</ele>
        <time>2020-07-09T08:22:06.000Z</time>
      </trkpt>
      <trkpt lat="47.36257" lon="-2.34958">
        <ele>14.60000038147</ele>
        <time>2020-07-09T08:22:11.000Z</time>
      </trkpt>
      <trkpt lat="47.36245" lon="-2.34988">
        <ele>14.60000038147</ele>
        <time>2020-07-09T08:22:17.000Z</time>
      </trkpt>
      <trkpt lat="47.36233" lon="-2.35006">
        <ele>14.60000038147</ele>
        <time>2020-07-09T08:22:23.000Z</time>
      </trkpt>
      <trkpt lat="47.36233" lon="-2.35007">
        <ele>14.60000038147</ele>
        <time>2020-07-09T08:22:25.000Z</time>
      </trkpt>
      <trkpt lat="47.36232" lon="-2.35014">
        <ele>14.60000038147</ele>
        <time>2020-07-09T08:22:45.000Z</time>
      </trkpt>
      <trkpt lat="47.36232" lon="-2.35017">
        <ele>14.60000038147</ele>
        <time>2020-07-09T08:22:46.000Z</time>
      </trkpt>
      <trkpt lat="47.3623" lon="-2.3502">
        <ele>14.60000038147</ele>
        <time>2020-07-09T08:22:50.000Z</time>
      </trkpt>
      <trkpt lat="47.36231" lon="-2.35018">
        <ele>14.60000038147</ele>
        <time>2020-07-09T08:22:52.000Z</time>
      </trkpt>
      <trkpt lat="47.36231" lon="-2.35017">
        <ele>14.60000038147</ele>
        <time>2020-07-09T08:22:54.000Z</time>
      </trkpt>
      <trkpt lat="47.36233" lon="-2.35013">
        <ele>14.60000038147</ele>
        <time>2020-07-09T08:23:33.000Z</time>
      </trkpt>
      <trkpt lat="47.36235" lon="-2.35007">
        <ele>14.60000038147</ele>
        <time>2020-07-09T08:23:35.000Z</time>
      </trkpt>
      <trkpt lat="47.36246" lon="-2.34982">
        <ele>14.60000038147</ele>
        <time>2020-07-09T08:23:40.000Z</time>
      </trkpt>
      <trkpt lat="47.36262" lon="-2.34946">
        <ele>14.60000038147</ele>
        <time>2020-07-09T08:23:46.000Z</time>
      </trkpt>
      <trkpt lat="47.36273" lon="-2.34926">
        <ele>14.60000038147</ele>
        <time>2020-07-09T08:23:50.000Z</time>
      </trkpt>
      <trkpt lat="47.36281" lon="-2.34925">
        <ele>14.60000038147</ele>
        <time>2020-07-09T08:23:52.000Z</time>
      </trkpt>
      <trkpt lat="47.36289" lon="-2.34935">
        <ele>14.60000038147</ele>
        <time>2020-07-09T08:23:55.000Z</time>
      </trkpt>
      <trkpt lat="47.36293" lon="-2.34947">
        <ele>14.60000038147</ele>
        <time>2020-07-09T08:23:57.000Z</time>
      </trkpt>
      <trkpt lat="47.36296" lon="-2.34965">
        <ele>14.60000038147</ele>
        <time>2020-07-09T08:23:59.000Z</time>
      </trkpt>
      <trkpt lat="47.36304" lon="-2.35022">
        <ele>14.60000038147</ele>
        <time>2020-07-09T08:24:05.000Z</time>
      </trkpt>
      <trkpt lat="47.36312" lon="-2.35084">
        <ele>14.60000038147</ele>
        <time>2020-07-09T08:24:12.000Z</time>
      </trkpt>
      <trkpt lat="47.36316" lon="-2.35123">
        <ele>14.60000038147</ele>
        <time>2020-07-09T08:24:17.000Z</time>
      </trkpt>
      <trkpt lat="47.36317" lon="-2.35129">
        <ele>14.60000038147</ele>
        <time>2020-07-09T08:24:18.000Z</time>
      </trkpt>
      <trkpt lat="47.3632" lon="-2.35168">
        <ele>14.60000038147</ele>
        <time>2020-07-09T08:24:23.000Z</time>
      </trkpt>
      <trkpt lat="47.36325" lon="-2.35238">
        <ele>14.60000038147</ele>
        <time>2020-07-09T08:24:31.000Z</time>
      </trkpt>
      <trkpt lat="47.36331" lon="-2.35308">
        <ele>14.60000038147</ele>
        <time>2020-07-09T08:24:39.000Z</time>
      </trkpt>
      <trkpt lat="47.36335" lon="-2.35369">
        <ele>14.60000038147</ele>
        <time>2020-07-09T08:24:46.000Z</time>
      </trkpt>
      <trkpt lat="47.36332" lon="-2.35409">
        <ele>14.60000038147</ele>
        <time>2020-07-09T08:24:51.000Z</time>
      </trkpt>
      <trkpt lat="47.36328" lon="-2.35424">
        <ele>14.60000038147</ele>
        <time>2020-07-09T08:24:53.000Z</time>
      </trkpt>
      <trkpt lat="47.36321" lon="-2.35447">
        <ele>14.60000038147</ele>
        <time>2020-07-09T08:24:56.000Z</time>
      </trkpt>
      <trkpt lat="47.36308" lon="-2.35492">
        <ele>14.60000038147</ele>
        <time>2020-07-09T08:25:02.000Z</time>
      </trkpt>
      <trkpt lat="47.3629" lon="-2.35557">
        <ele>14.60000038147</ele>
        <time>2020-07-09T08:25:10.000Z</time>
      </trkpt>
      <trkpt lat="47.36287" lon="-2.3558">
        <ele>14.60000038147</ele>
        <time>2020-07-09T08:25:13.000Z</time>
      </trkpt>
      <trkpt lat="47.36285" lon="-2.356">
        <ele>14.60000038147</ele>
        <time>2020-07-09T08:25:16.000Z</time>
      </trkpt>
      <trkpt lat="47.36282" lon="-2.35612">
        <ele>14.60000038147</ele>
        <time>2020-07-09T08:25:19.000Z</time>
      </trkpt>
      <trkpt lat="47.3628" lon="-2.35613">
        <ele>14.60000038147</ele>
        <time>2020-07-09T08:25:20.000Z</time>
      </trkpt>
      <trkpt lat="47.36275" lon="-2.35608">
        <ele>14.60000038147</ele>
        <time>2020-07-09T08:25:23.000Z</time>
      </trkpt>
      <trkpt lat="47.36278" lon="-2.35603">
        <ele>14.60000038147</ele>
        <time>2020-07-09T08:25:26.000Z</time>
      </trkpt>
      <trkpt lat="47.36278" lon="-2.35602">
        <ele>14.60000038147</ele>
        <time>2020-07-09T08:25:27.000Z</time>
      </trkpt>
      <trkpt lat="47.36278" lon="-2.35602">
        <ele>14.60000038147</ele>
        <time>2020-07-09T08:25:28.000Z</time>
      </trkpt>
      <trkpt lat="47.3628" lon="-2.35604">
        <ele>14.60000038147</ele>
        <time>2020-07-09T08:25:32.000Z</time>
      </trkpt>
      <trkpt lat="47.3628" lon="-2.35607">
        <ele>14.60000038147</ele>
        <time>2020-07-09T08:25:34.000Z</time>
      </trkpt>
      <trkpt lat="47.36278" lon="-2.35615">
        <ele>14.60000038147</ele>
        <time>2020-07-09T08:25:38.000Z</time>
      </trkpt>
      <trkpt lat="47.36279" lon="-2.35623">
        <ele>14.60000038147</ele>
        <time>2020-07-09T08:25:43.000Z</time>
      </trkpt>
      <trkpt lat="47.36281" lon="-2.3562">
        <ele>14.60000038147</ele>
        <time>2020-07-09T08:28:41.000Z</time>
      </trkpt>
      <trkpt lat="47.36282" lon="-2.35611">
        <ele>14.60000038147</ele>
        <time>2020-07-09T08:28:44.000Z</time>
      </trkpt>
      <trkpt lat="47.36282" lon="-2.35606">
        <ele>14.60000038147</ele>
        <time>2020-07-09T08:28:45.000Z</time>
      </trkpt>
      <trkpt lat="47.3628" lon="-2.35582">
        <ele>14.60000038147</ele>
        <time>2020-07-09T08:28:49.000Z</time>
      </trkpt>
      <trkpt lat="47.36285" lon="-2.35554">
        <ele>14.60000038147</ele>
        <time>2020-07-09T08:28:53.000Z</time>
      </trkpt>
      <trkpt lat="47.36299" lon="-2.355">
        <ele>14.60000038147</ele>
        <time>2020-07-09T08:29:00.000Z</time>
      </trkpt>
      <trkpt lat="47.36314" lon="-2.35444">
        <ele>14.60000038147</ele>
        <time>2020-07-09T08:29:07.000Z</time>
      </trkpt>
      <trkpt lat="47.36319" lon="-2.35427">
        <ele>14.60000038147</ele>
        <time>2020-07-09T08:29:09.000Z</time>
      </trkpt>
      <trkpt lat="47.36327" lon="-2.3539">
        <ele>14.60000038147</ele>
        <time>2020-07-09T08:29:13.000Z</time>
      </trkpt>
      <trkpt lat="47.36328" lon="-2.3538">
        <ele>14.60000038147</ele>
        <time>2020-07-09T08:29:14.000Z</time>
      </trkpt>
      <trkpt lat="47.36329" lon="-2.35325">
        <ele>14.60000038147</ele>
        <time>2020-07-09T08:29:20.000Z</time>
      </trkpt>
      <trkpt lat="47.36324" lon="-2.35276">
        <ele>14.60000038147</ele>
        <time>2020-07-09T08:29:26.000Z</time>
      </trkpt>
      <trkpt lat="47.36317" lon="-2.35192">
        <ele>14.60000038147</ele>
        <time>2020-07-09T08:29:36.000Z</time>
      </trkpt>
      <trkpt lat="47.36313" lon="-2.35129">
        <ele>14.60000038147</ele>
        <time>2020-07-09T08:29:44.000Z</time>
      </trkpt>
      <trkpt lat="47.36307" lon="-2.35075">
        <ele>14.60000038147</ele>
        <time>2020-07-09T08:29:52.000Z</time>
      </trkpt>
      <trkpt lat="47.36301" lon="-2.35035">
        <ele>14.60000038147</ele>
        <time>2020-07-09T08:30:00.000Z</time>
      </trkpt>
      <trkpt lat="47.363" lon="-2.35021">
        <ele>14.60000038147</ele>
        <time>2020-07-09T08:30:06.000Z</time>
      </trkpt>
      <trkpt lat="47.36304" lon="-2.35036">
        <ele>14.60000038147</ele>
        <time>2020-07-09T08:30:11.000Z</time>
      </trkpt>
      <trkpt lat="47.3631" lon="-2.35069">
        <ele>14.60000038147</ele>
        <time>2020-07-09T08:30:18.000Z</time>
      </trkpt>
      <trkpt lat="47.36313" lon="-2.35108">
        <ele>14.60000038147</ele>
        <time>2020-07-09T08:30:24.000Z</time>
      </trkpt>
      <trkpt lat="47.36317" lon="-2.35147">
        <ele>14.60000038147</ele>
        <time>2020-07-09T08:30:30.000Z</time>
      </trkpt>
      <trkpt lat="47.36324" lon="-2.35211">
        <ele>14.60000038147</ele>
        <time>2020-07-09T08:30:39.000Z</time>
      </trkpt>
      <trkpt lat="47.3633" lon="-2.35275">
        <ele>14.60000038147</ele>
        <time>2020-07-09T08:30:47.000Z</time>
      </trkpt>
      <trkpt lat="47.36333" lon="-2.35318">
        <ele>14.60000038147</ele>
        <time>2020-07-09T08:30:53.000Z</time>
      </trkpt>
      <trkpt lat="47.36336" lon="-2.35379">
        <ele>14.60000038147</ele>
        <time>2020-07-09T08:31:01.000Z</time>
      </trkpt>
      <trkpt lat="47.36332" lon="-2.3541">
        <ele>14.60000038147</ele>
        <time>2020-07-09T08:31:06.000Z</time>
      </trkpt>
      <trkpt lat="47.36325" lon="-2.35432">
        <ele>14.60000038147</ele>
        <time>2020-07-09T08:31:11.000Z</time>
      </trkpt>
      <trkpt lat="47.36312" lon="-2.35477">
        <ele>14.60000038147</ele>
        <time>2020-07-09T08:31:20.000Z</time>
      </trkpt>
      <trkpt lat="47.36304" lon="-2.35501">
        <ele>14.60000038147</ele>
        <time>2020-07-09T08:31:25.000Z</time>
      </trkpt>
      <trkpt lat="47.36296" lon="-2.35531">
        <ele>14.60000038147</ele>
        <time>2020-07-09T08:31:31.000Z</time>
      </trkpt>
      <trkpt lat="47.36289" lon="-2.35567">
        <ele>14.60000038147</ele>
        <time>2020-07-09T08:31:38.000Z</time>
      </trkpt>
      <trkpt lat="47.36286" lon="-2.35608">
        <ele>14.60000038147</ele>
        <time>2020-07-09T08:31:45.000Z</time>
      </trkpt>
      <trkpt lat="47.36288" lon="-2.35626">
        <ele>14.60000038147</ele>
        <time>2020-07-09T08:31:48.000Z</time>
      </trkpt>
      <trkpt lat="47.3629" lon="-2.35643">
        <ele>14.60000038147</ele>
        <time>2020-07-09T08:31:51.000Z</time>
      </trkpt>
      <trkpt lat="47.36296" lon="-2.3567">
        <ele>14.60000038147</ele>
        <time>2020-07-09T08:31:56.000Z</time>
      </trkpt>
      <trkpt lat="47.363" lon="-2.35689">
        <ele>14.60000038147</ele>
        <time>2020-07-09T08:32:01.000Z</time>
      </trkpt>
      <trkpt lat="47.36299" lon="-2.35696">
        <ele>14.60000038147</ele>
        <time>2020-07-09T08:32:04.000Z</time>
      </trkpt>
      <trkpt lat="47.36301" lon="-2.35697">
        <ele>14.60000038147</ele>
        <time>2020-07-09T08:32:21.000Z</time>
      </trkpt>
      <trkpt lat="47.36308" lon="-2.35711">
        <ele>14.60000038147</ele>
        <time>2020-07-09T08:32:25.000Z</time>
      </trkpt>
      <trkpt lat="47.36319" lon="-2.35744">
        <ele>14.60000038147</ele>
        <time>2020-07-09T08:32:30.000Z</time>
      </trkpt>
      <trkpt lat="47.3634" lon="-2.358">
        <ele>14.60000038147</ele>
        <time>2020-07-09T08:32:37.000Z</time>
      </trkpt>
      <trkpt lat="47.36364" lon="-2.35866">
        <ele>14.60000038147</ele>
        <time>2020-07-09T08:32:45.000Z</time>
      </trkpt>
      <trkpt lat="47.36376" lon="-2.35897">
        <ele>14.60000038147</ele>
        <time>2020-07-09T08:32:49.000Z</time>
      </trkpt>
      <trkpt lat="47.36381" lon="-2.35912">
        <ele>14.60000038147</ele>
        <time>2020-07-09T08:32:51.000Z</time>
      </trkpt>
      <trkpt lat="47.36391" lon="-2.35944">
        <ele>15</ele>
        <time>2020-07-09T08:32:55.000Z</time>
      </trkpt>
      <trkpt lat="47.36394" lon="-2.35952">
        <ele>15.39999961853</ele>
        <time>2020-07-09T08:32:56.000Z</time>
      </trkpt>
      <trkpt lat="47.36396" lon="-2.35959">
        <ele>15.800000190735</ele>
        <time>2020-07-09T08:32:57.000Z</time>
      </trkpt>
      <trkpt lat="47.36399" lon="-2.35966">
        <ele>16.200000762939</ele>
        <time>2020-07-09T08:32:58.000Z</time>
      </trkpt>
      <trkpt lat="47.36401" lon="-2.35974">
        <ele>16.60000038147</ele>
        <time>2020-07-09T08:32:59.000Z</time>
      </trkpt>
      <trkpt lat="47.36416" lon="-2.36025">
        <ele>17</ele>
        <time>2020-07-09T08:33:06.000Z</time>
      </trkpt>
      <trkpt lat="47.36418" lon="-2.36032">
        <ele>17.60000038147</ele>
        <time>2020-07-09T08:33:07.000Z</time>
      </trkpt>
      <trkpt lat="47.36421" lon="-2.36039">
        <ele>18</ele>
        <time>2020-07-09T08:33:08.000Z</time>
      </trkpt>
      <trkpt lat="47.36423" lon="-2.36046">
        <ele>18.39999961853</ele>
        <time>2020-07-09T08:33:09.000Z</time>
      </trkpt>
      <trkpt lat="47.36426" lon="-2.36052">
        <ele>18.799999237061</ele>
        <time>2020-07-09T08:33:10.000Z</time>
      </trkpt>
      <trkpt lat="47.36433" lon="-2.3608">
        <ele>18.799999237061</ele>
        <time>2020-07-09T08:33:14.000Z</time>
      </trkpt>
      <trkpt lat="47.36448" lon="-2.36133">
        <ele>19.200000762939</ele>
        <time>2020-07-09T08:33:22.000Z</time>
      </trkpt>
      <trkpt lat="47.3645" lon="-2.3614">
        <ele>19.60000038147</ele>
        <time>2020-07-09T08:33:23.000Z</time>
      </trkpt>
      <trkpt lat="47.36452" lon="-2.36147">
        <ele>20</ele>
        <time>2020-07-09T08:33:24.000Z</time>
      </trkpt>
      <trkpt lat="47.36454" lon="-2.36154">
        <ele>20.39999961853</ele>
        <time>2020-07-09T08:33:25.000Z</time>
      </trkpt>
      <trkpt lat="47.36456" lon="-2.36161">
        <ele>20.799999237061</ele>
        <time>2020-07-09T08:33:26.000Z</time>
      </trkpt>
      <trkpt lat="47.36463" lon="-2.36181">
        <ele>20.799999237061</ele>
        <time>2020-07-09T08:33:29.000Z</time>
      </trkpt>
      <trkpt lat="47.36472" lon="-2.36208">
        <ele>20.799999237061</ele>
        <time>2020-07-09T08:33:34.000Z</time>
      </trkpt>
      <trkpt lat="47.36475" lon="-2.36216">
        <ele>20.39999961853</ele>
        <time>2020-07-09T08:33:36.000Z</time>
      </trkpt>
      <trkpt lat="47.36477" lon="-2.36221">
        <ele>20</ele>
        <time>2020-07-09T08:33:37.000Z</time>
      </trkpt>
      <trkpt lat="47.36479" lon="-2.36227">
        <ele>19.60000038147</ele>
        <time>2020-07-09T08:33:38.000Z</time>
      </trkpt>
      <trkpt lat="47.3648" lon="-2.36234">
        <ele>19.200000762939</ele>
        <time>2020-07-09T08:33:39.000Z</time>
      </trkpt>
      <trkpt lat="47.36482" lon="-2.36241">
        <ele>18.60000038147</ele>
        <time>2020-07-09T08:33:40.000Z</time>
      </trkpt>
      <trkpt lat="47.36489" lon="-2.36265">
        <ele>18.60000038147</ele>
        <time>2020-07-09T08:33:43.000Z</time>
      </trkpt>
      <trkpt lat="47.36505" lon="-2.36316">
        <ele>18.60000038147</ele>
        <time>2020-07-09T08:33:49.000Z</time>
      </trkpt>
      <trkpt lat="47.36512" lon="-2.36341">
        <ele>18.60000038147</ele>
        <time>2020-07-09T08:33:52.000Z</time>
      </trkpt>
      <trkpt lat="47.36518" lon="-2.36365">
        <ele>18.60000038147</ele>
        <time>2020-07-09T08:33:55.000Z</time>
      </trkpt>
      <trkpt lat="47.36538" lon="-2.36424">
        <ele>18.60000038147</ele>
        <time>2020-07-09T08:34:02.000Z</time>
      </trkpt>
      <trkpt lat="47.36559" lon="-2.36483">
        <ele>18.60000038147</ele>
        <time>2020-07-09T08:34:10.000Z</time>
      </trkpt>
      <trkpt lat="47.3657" lon="-2.36518">
        <ele>18.60000038147</ele>
        <time>2020-07-09T08:34:16.000Z</time>
      </trkpt>
      <trkpt lat="47.36574" lon="-2.36535">
        <ele>18.60000038147</ele>
        <time>2020-07-09T08:34:22.000Z</time>
      </trkpt>
      <trkpt lat="47.36573" lon="-2.36539">
        <ele>18.60000038147</ele>
        <time>2020-07-09T08:34:24.000Z</time>
      </trkpt>
      <trkpt lat="47.36569" lon="-2.36539">
        <ele>18.60000038147</ele>
        <time>2020-07-09T08:34:26.000Z</time>
      </trkpt>
      <trkpt lat="47.3657" lon="-2.36531">
        <ele>18.60000038147</ele>
        <time>2020-07-09T08:34:29.000Z</time>
      </trkpt>
      <trkpt lat="47.36571" lon="-2.36529">
        <ele>18.60000038147</ele>
        <time>2020-07-09T08:34:30.000Z</time>
      </trkpt>
      <trkpt lat="47.36574" lon="-2.36525">
        <ele>18.60000038147</ele>
        <time>2020-07-09T08:34:34.000Z</time>
      </trkpt>
      <trkpt lat="47.36575" lon="-2.36526">
        <ele>18.200000762939</ele>
        <time>2020-07-09T08:34:35.000Z</time>
      </trkpt>
      <trkpt lat="47.36575" lon="-2.36528">
        <ele>17.799999237061</ele>
        <time>2020-07-09T08:34:36.000Z</time>
      </trkpt>
      <trkpt lat="47.36575" lon="-2.3653">
        <ele>17.39999961853</ele>
        <time>2020-07-09T08:34:37.000Z</time>
      </trkpt>
      <trkpt lat="47.36574" lon="-2.3653">
        <ele>17</ele>
        <time>2020-07-09T08:34:38.000Z</time>
      </trkpt>
      <trkpt lat="47.36573" lon="-2.3653">
        <ele>16.60000038147</ele>
        <time>2020-07-09T08:34:39.000Z</time>
      </trkpt>
      <trkpt lat="47.36573" lon="-2.3653">
        <ele>16.60000038147</ele>
        <time>2020-07-09T08:34:41.000Z</time>
      </trkpt>
      <trkpt lat="47.36571" lon="-2.36528">
        <ele>16.60000038147</ele>
        <time>2020-07-09T08:34:50.000Z</time>
      </trkpt>
      <trkpt lat="47.36572" lon="-2.36526">
        <ele>16.60000038147</ele>
        <time>2020-07-09T08:34:51.000Z</time>
      </trkpt>
      <trkpt lat="47.36578" lon="-2.36521">
        <ele>16.60000038147</ele>
        <time>2020-07-09T08:34:56.000Z</time>
      </trkpt>
      <trkpt lat="47.3659" lon="-2.36507">
        <ele>16.60000038147</ele>
        <time>2020-07-09T08:35:01.000Z</time>
      </trkpt>
      <trkpt lat="47.36595" lon="-2.36505">
        <ele>16.60000038147</ele>
        <time>2020-07-09T08:35:02.000Z</time>
      </trkpt>
      <trkpt lat="47.36614" lon="-2.36492">
        <ele>16.60000038147</ele>
        <time>2020-07-09T08:35:06.000Z</time>
      </trkpt>
      <trkpt lat="47.36656" lon="-2.36467">
        <ele>16.60000038147</ele>
        <time>2020-07-09T08:35:13.000Z</time>
      </trkpt>
      <trkpt lat="47.36686" lon="-2.36446">
        <ele>16.200000762939</ele>
        <time>2020-07-09T08:35:18.000Z</time>
      </trkpt>
      <trkpt lat="47.36692" lon="-2.36441">
        <ele>15.800000190735</ele>
        <time>2020-07-09T08:35:19.000Z</time>
      </trkpt>
      <trkpt lat="47.36698" lon="-2.36435">
        <ele>15.39999961853</ele>
        <time>2020-07-09T08:35:20.000Z</time>
      </trkpt>
      <trkpt lat="47.36703" lon="-2.3643">
        <ele>15</ele>
        <time>2020-07-09T08:35:21.000Z</time>
      </trkpt>
      <trkpt lat="47.36709" lon="-2.36424">
        <ele>14.60000038147</ele>
        <time>2020-07-09T08:35:22.000Z</time>
      </trkpt>
      <trkpt lat="47.36732" lon="-2.36391">
        <ele>14.60000038147</ele>
        <time>2020-07-09T08:35:27.000Z</time>
      </trkpt>
      <trkpt lat="47.36747" lon="-2.36375">
        <ele>14.60000038147</ele>
        <time>2020-07-09T08:35:30.000Z</time>
      </trkpt>
      <trkpt lat="47.3676" lon="-2.36372">
        <ele>14.199999809265</ele>
        <time>2020-07-09T08:35:32.000Z</time>
      </trkpt>
      <trkpt lat="47.36766" lon="-2.36371">
        <ele>13.800000190735</ele>
        <time>2020-07-09T08:35:33.000Z</time>
      </trkpt>
      <trkpt lat="47.36773" lon="-2.36371">
        <ele>13.39999961853</ele>
        <time>2020-07-09T08:35:34.000Z</time>
      </trkpt>
      <trkpt lat="47.3678" lon="-2.36371">
        <ele>13</ele>
        <time>2020-07-09T08:35:35.000Z</time>
      </trkpt>
      <trkpt lat="47.36787" lon="-2.36372">
        <ele>12.60000038147</ele>
        <time>2020-07-09T08:35:36.000Z</time>
      </trkpt>
      <trkpt lat="47.36794" lon="-2.36372">
        <ele>12.60000038147</ele>
        <time>2020-07-09T08:35:37.000Z</time>
      </trkpt>
      <trkpt lat="47.36849" lon="-2.36371">
        <ele>12.60000038147</ele>
        <time>2020-07-09T08:35:45.000Z</time>
      </trkpt>
      <trkpt lat="47.36855" lon="-2.3637">
        <ele>12.60000038147</ele>
        <time>2020-07-09T08:35:46.000Z</time>
      </trkpt>
      <trkpt lat="47.36894" lon="-2.3637">
        <ele>12.60000038147</ele>
        <time>2020-07-09T08:35:52.000Z</time>
      </trkpt>
      <trkpt lat="47.36947" lon="-2.3637">
        <ele>12.60000038147</ele>
        <time>2020-07-09T08:36:00.000Z</time>
      </trkpt>
      <trkpt lat="47.36995" lon="-2.36369">
        <ele>12.60000038147</ele>
        <time>2020-07-09T08:36:07.000Z</time>
      </trkpt>
      <trkpt lat="47.37033" lon="-2.3637">
        <ele>12.60000038147</ele>
        <time>2020-07-09T08:36:13.000Z</time>
      </trkpt>
      <trkpt lat="47.37039" lon="-2.36368">
        <ele>12.60000038147</ele>
        <time>2020-07-09T08:36:14.000Z</time>
      </trkpt>
      <trkpt lat="47.37051" lon="-2.36368">
        <ele>12.60000038147</ele>
        <time>2020-07-09T08:36:16.000Z</time>
      </trkpt>
      <trkpt lat="47.37063" lon="-2.36367">
        <ele>12.60000038147</ele>
        <time>2020-07-09T08:36:18.000Z</time>
      </trkpt>
      <trkpt lat="47.37084" lon="-2.3635">
        <ele>12.60000038147</ele>
        <time>2020-07-09T08:36:22.000Z</time>
      </trkpt>
      <trkpt lat="47.37098" lon="-2.36322">
        <ele>12.60000038147</ele>
        <time>2020-07-09T08:36:26.000Z</time>
      </trkpt>
      <trkpt lat="47.37124" lon="-2.36265">
        <ele>12.60000038147</ele>
        <time>2020-07-09T08:36:33.000Z</time>
      </trkpt>
      <trkpt lat="47.37155" lon="-2.362">
        <ele>12.60000038147</ele>
        <time>2020-07-09T08:36:41.000Z</time>
      </trkpt>
      <trkpt lat="47.37159" lon="-2.36191">
        <ele>12.199999809265</ele>
        <time>2020-07-09T08:36:42.000Z</time>
      </trkpt>
      <trkpt lat="47.37163" lon="-2.36183">
        <ele>11.800000190735</ele>
        <time>2020-07-09T08:36:43.000Z</time>
      </trkpt>
      <trkpt lat="47.37167" lon="-2.36175">
        <ele>11.199999809265</ele>
        <time>2020-07-09T08:36:44.000Z</time>
      </trkpt>
      <trkpt lat="47.37171" lon="-2.36166">
        <ele>10.800000190735</ele>
        <time>2020-07-09T08:36:45.000Z</time>
      </trkpt>
      <trkpt lat="47.37175" lon="-2.36158">
        <ele>10.39999961853</ele>
        <time>2020-07-09T08:36:46.000Z</time>
      </trkpt>
      <trkpt lat="47.37188" lon="-2.36132">
        <ele>10.39999961853</ele>
        <time>2020-07-09T08:36:49.000Z</time>
      </trkpt>
      <trkpt lat="47.37209" lon="-2.36088">
        <ele>10.39999961853</ele>
        <time>2020-07-09T08:36:55.000Z</time>
      </trkpt>
      <trkpt lat="47.3721" lon="-2.36086">
        <ele>10</ele>
        <time>2020-07-09T08:36:56.000Z</time>
      </trkpt>
      <trkpt lat="47.37211" lon="-2.36087">
        <ele>9.6000003814697</ele>
        <time>2020-07-09T08:36:57.000Z</time>
      </trkpt>
      <trkpt lat="47.37211" lon="-2.36088">
        <ele>9.1999998092651</ele>
        <time>2020-07-09T08:36:58.000Z</time>
      </trkpt>
      <trkpt lat="47.37213" lon="-2.36089">
        <ele>8.8000001907349</ele>
        <time>2020-07-09T08:36:59.000Z</time>
      </trkpt>
      <trkpt lat="47.37214" lon="-2.36091">
        <ele>8.3999996185303</ele>
        <time>2020-07-09T08:37:00.000Z</time>
      </trkpt>
      <trkpt lat="47.3722" lon="-2.36095">
        <ele>8.3999996185303</ele>
        <time>2020-07-09T08:37:02.000Z</time>
      </trkpt>
      <trkpt lat="47.37229" lon="-2.36095">
        <ele>8.3999996185303</ele>
        <time>2020-07-09T08:37:05.000Z</time>
      </trkpt>
      <trkpt lat="47.37231" lon="-2.36096">
        <ele>8.3999996185303</ele>
        <time>2020-07-09T08:37:06.000Z</time>
      </trkpt>
      <trkpt lat="47.37239" lon="-2.361">
        <ele>8</ele>
        <time>2020-07-09T08:37:10.000Z</time>
      </trkpt>
      <trkpt lat="47.3724" lon="-2.36101">
        <ele>7.5999999046326</ele>
        <time>2020-07-09T08:37:11.000Z</time>
      </trkpt>
      <trkpt lat="47.37239" lon="-2.36101">
        <ele>7</ele>
        <time>2020-07-09T08:37:12.000Z</time>
      </trkpt>
      <trkpt lat="47.3724" lon="-2.36101">
        <ele>6.5999999046326</ele>
        <time>2020-07-09T08:37:13.000Z</time>
      </trkpt>
      <trkpt lat="47.37269" lon="-2.36122">
        <ele>6.1999998092651</ele>
        <time>2020-07-09T08:39:09.000Z</time>
      </trkpt>
      <trkpt lat="47.37271" lon="-2.36124">
        <ele>6.1999998092651</ele>
        <time>2020-07-09T08:39:10.000Z</time>
      </trkpt>
      <trkpt lat="47.37277" lon="-2.3613">
        <ele>6.1999998092651</ele>
        <time>2020-07-09T08:39:17.000Z</time>
      </trkpt>
      <trkpt lat="47.37278" lon="-2.3613">
        <ele>6.1999998092651</ele>
        <time>2020-07-09T08:39:22.000Z</time>
      </trkpt>
      <trkpt lat="47.37282" lon="-2.36127">
        <ele>6.1999998092651</ele>
        <time>2020-07-09T08:39:24.000Z</time>
      </trkpt>
      <trkpt lat="47.37296" lon="-2.3612">
        <ele>6.1999998092651</ele>
        <time>2020-07-09T08:39:30.000Z</time>
      </trkpt>
      <trkpt lat="47.37321" lon="-2.36119">
        <ele>6.1999998092651</ele>
        <time>2020-07-09T08:39:37.000Z</time>
      </trkpt>
      <trkpt lat="47.3734" lon="-2.36128">
        <ele>6.1999998092651</ele>
        <time>2020-07-09T08:39:42.000Z</time>
      </trkpt>
      <trkpt lat="47.37344" lon="-2.36128">
        <ele>6.1999998092651</ele>
        <time>2020-07-09T08:39:43.000Z</time>
      </trkpt>
      <trkpt lat="47.37352" lon="-2.36123">
        <ele>6.1999998092651</ele>
        <time>2020-07-09T08:39:45.000Z</time>
      </trkpt>
      <trkpt lat="47.37365" lon="-2.36115">
        <ele>6.1999998092651</ele>
        <time>2020-07-09T08:39:48.000Z</time>
      </trkpt>
      <trkpt lat="47.37377" lon="-2.36116">
        <ele>6.1999998092651</ele>
        <time>2020-07-09T08:39:50.000Z</time>
      </trkpt>
      <trkpt lat="47.37388" lon="-2.36122">
        <ele>6.1999998092651</ele>
        <time>2020-07-09T08:39:52.000Z</time>
      </trkpt>
      <trkpt lat="47.374" lon="-2.36129">
        <ele>6.1999998092651</ele>
        <time>2020-07-09T08:39:54.000Z</time>
      </trkpt>
      <trkpt lat="47.37408" lon="-2.36137">
        <ele>6.1999998092651</ele>
        <time>2020-07-09T08:39:56.000Z</time>
      </trkpt>
      <trkpt lat="47.37412" lon="-2.3614">
        <ele>6.1999998092651</ele>
        <time>2020-07-09T08:39:57.000Z</time>
      </trkpt>
      <trkpt lat="47.3742" lon="-2.36138">
        <ele>6.1999998092651</ele>
        <time>2020-07-09T08:39:59.000Z</time>
      </trkpt>
      <trkpt lat="47.37428" lon="-2.36133">
        <ele>6.1999998092651</ele>
        <time>2020-07-09T08:40:01.000Z</time>
      </trkpt>
      <trkpt lat="47.37446" lon="-2.36121">
        <ele>6.1999998092651</ele>
        <time>2020-07-09T08:40:05.000Z</time>
      </trkpt>
      <trkpt lat="47.3746" lon="-2.36111">
        <ele>6.5999999046326</ele>
        <time>2020-07-09T08:40:09.000Z</time>
      </trkpt>
      <trkpt lat="47.37463" lon="-2.36109">
        <ele>7.4000000953674</ele>
        <time>2020-07-09T08:40:10.000Z</time>
      </trkpt>
      <trkpt lat="47.37466" lon="-2.36107">
        <ele>7.8000001907349</ele>
        <time>2020-07-09T08:40:11.000Z</time>
      </trkpt>
      <trkpt lat="47.37468" lon="-2.36105">
        <ele>8.1999998092651</ele>
        <time>2020-07-09T08:40:12.000Z</time>
      </trkpt>
      <trkpt lat="47.37481" lon="-2.36097">
        <ele>8.1999998092651</ele>
        <time>2020-07-09T08:40:16.000Z</time>
      </trkpt>
      <trkpt lat="47.37495" lon="-2.36089">
        <ele>8.8000001907349</ele>
        <time>2020-07-09T08:40:20.000Z</time>
      </trkpt>
      <trkpt lat="47.37498" lon="-2.36086">
        <ele>9.1999998092651</ele>
        <time>2020-07-09T08:40:21.000Z</time>
      </trkpt>
      <trkpt lat="47.37502" lon="-2.36084">
        <ele>9.6000003814697</ele>
        <time>2020-07-09T08:40:22.000Z</time>
      </trkpt>
      <trkpt lat="47.37506" lon="-2.36082">
        <ele>10</ele>
        <time>2020-07-09T08:40:23.000Z</time>
      </trkpt>
      <trkpt lat="47.3751" lon="-2.3608">
        <ele>10.39999961853</ele>
        <time>2020-07-09T08:40:24.000Z</time>
      </trkpt>
      <trkpt lat="47.37526" lon="-2.36073">
        <ele>10.39999961853</ele>
        <time>2020-07-09T08:40:28.000Z</time>
      </trkpt>
      <trkpt lat="47.3753" lon="-2.36071">
        <ele>10.39999961853</ele>
        <time>2020-07-09T08:40:29.000Z</time>
      </trkpt>
      <trkpt lat="47.37552" lon="-2.36064">
        <ele>10.39999961853</ele>
        <time>2020-07-09T08:40:34.000Z</time>
      </trkpt>
      <trkpt lat="47.37589" lon="-2.3605">
        <ele>10.39999961853</ele>
        <time>2020-07-09T08:40:42.000Z</time>
      </trkpt>
      <trkpt lat="47.37601" lon="-2.36047">
        <ele>10.39999961853</ele>
        <time>2020-07-09T08:40:45.000Z</time>
      </trkpt>
      <trkpt lat="47.37615" lon="-2.36046">
        <ele>10.39999961853</ele>
        <time>2020-07-09T08:40:48.000Z</time>
      </trkpt>
      <trkpt lat="47.37625" lon="-2.36045">
        <ele>10.39999961853</ele>
        <time>2020-07-09T08:40:50.000Z</time>
      </trkpt>
      <trkpt lat="47.37634" lon="-2.3604">
        <ele>10.39999961853</ele>
        <time>2020-07-09T08:40:52.000Z</time>
      </trkpt>
      <trkpt lat="47.37637" lon="-2.36031">
        <ele>10.39999961853</ele>
        <time>2020-07-09T08:40:54.000Z</time>
      </trkpt>
      <trkpt lat="47.37638" lon="-2.36025">
        <ele>10.39999961853</ele>
        <time>2020-07-09T08:40:55.000Z</time>
      </trkpt>
      <trkpt lat="47.37644" lon="-2.36007">
        <ele>10.39999961853</ele>
        <time>2020-07-09T08:40:59.000Z</time>
      </trkpt>
      <trkpt lat="47.37646" lon="-2.36005">
        <ele>10.39999961853</ele>
        <time>2020-07-09T08:41:00.000Z</time>
      </trkpt>
      <trkpt lat="47.37654" lon="-2.36007">
        <ele>10.39999961853</ele>
        <time>2020-07-09T08:41:02.000Z</time>
      </trkpt>
      <trkpt lat="47.37667" lon="-2.36011">
        <ele>10.39999961853</ele>
        <time>2020-07-09T08:41:05.000Z</time>
      </trkpt>
      <trkpt lat="47.37678" lon="-2.36015">
        <ele>10.39999961853</ele>
        <time>2020-07-09T08:41:07.000Z</time>
      </trkpt>
      <trkpt lat="47.37695" lon="-2.3602">
        <ele>10.39999961853</ele>
        <time>2020-07-09T08:41:10.000Z</time>
      </trkpt>
      <trkpt lat="47.37715" lon="-2.36031">
        <ele>10.39999961853</ele>
        <time>2020-07-09T08:41:14.000Z</time>
      </trkpt>
      <trkpt lat="47.37732" lon="-2.36041">
        <ele>11</ele>
        <time>2020-07-09T08:41:17.000Z</time>
      </trkpt>
      <trkpt lat="47.37738" lon="-2.36045">
        <ele>11.39999961853</ele>
        <time>2020-07-09T08:41:18.000Z</time>
      </trkpt>
      <trkpt lat="47.37743" lon="-2.36049">
        <ele>11.800000190735</ele>
        <time>2020-07-09T08:41:19.000Z</time>
      </trkpt>
      <trkpt lat="47.37749" lon="-2.36052">
        <ele>12.199999809265</ele>
        <time>2020-07-09T08:41:20.000Z</time>
      </trkpt>
      <trkpt lat="47.37755" lon="-2.36056">
        <ele>12.60000038147</ele>
        <time>2020-07-09T08:41:21.000Z</time>
      </trkpt>
      <trkpt lat="47.37796" lon="-2.36078">
        <ele>12.60000038147</ele>
        <time>2020-07-09T08:41:28.000Z</time>
      </trkpt>
      <trkpt lat="47.37823" lon="-2.36091">
        <ele>12.60000038147</ele>
        <time>2020-07-09T08:41:33.000Z</time>
      </trkpt>
      <trkpt lat="47.37861" lon="-2.36113">
        <ele>12.60000038147</ele>
        <time>2020-07-09T08:41:40.000Z</time>
      </trkpt>
      <trkpt lat="47.37873" lon="-2.36118">
        <ele>12.60000038147</ele>
        <time>2020-07-09T08:41:42.000Z</time>
      </trkpt>
      <trkpt lat="47.37896" lon="-2.36124">
        <ele>12.60000038147</ele>
        <time>2020-07-09T08:41:46.000Z</time>
      </trkpt>
      <trkpt lat="47.3792" lon="-2.36116">
        <ele>12.60000038147</ele>
        <time>2020-07-09T08:41:50.000Z</time>
      </trkpt>
      <trkpt lat="47.37952" lon="-2.36099">
        <ele>12.60000038147</ele>
        <time>2020-07-09T08:41:56.000Z</time>
      </trkpt>
      <trkpt lat="47.37979" lon="-2.36083">
        <ele>12.60000038147</ele>
        <time>2020-07-09T08:42:02.000Z</time>
      </trkpt>
      <trkpt lat="47.37988" lon="-2.36078">
        <ele>12.199999809265</ele>
        <time>2020-07-09T08:42:04.000Z</time>
      </trkpt>
      <trkpt lat="47.37993" lon="-2.36077">
        <ele>11.800000190735</ele>
        <time>2020-07-09T08:42:05.000Z</time>
      </trkpt>
      <trkpt lat="47.37998" lon="-2.36075">
        <ele>11.39999961853</ele>
        <time>2020-07-09T08:42:06.000Z</time>
      </trkpt>
      <trkpt lat="47.38003" lon="-2.36073">
        <ele>11</ele>
        <time>2020-07-09T08:42:07.000Z</time>
      </trkpt>
      <trkpt lat="47.38008" lon="-2.36071">
        <ele>10.60000038147</ele>
        <time>2020-07-09T08:42:08.000Z</time>
      </trkpt>
      <trkpt lat="47.3804" lon="-2.36059">
        <ele>10.60000038147</ele>
        <time>2020-07-09T08:42:14.000Z</time>
      </trkpt>
      <trkpt lat="47.38074" lon="-2.36048">
        <ele>10.60000038147</ele>
        <time>2020-07-09T08:42:20.000Z</time>
      </trkpt>
      <trkpt lat="47.38111" lon="-2.36035">
        <ele>10.60000038147</ele>
        <time>2020-07-09T08:42:26.000Z</time>
      </trkpt>
      <trkpt lat="47.38148" lon="-2.36015">
        <ele>10.60000038147</ele>
        <time>2020-07-09T08:42:32.000Z</time>
      </trkpt>
      <trkpt lat="47.38195" lon="-2.35981">
        <ele>10.60000038147</ele>
        <time>2020-07-09T08:42:40.000Z</time>
      </trkpt>
      <trkpt lat="47.38235" lon="-2.35954">
        <ele>10.60000038147</ele>
        <time>2020-07-09T08:42:47.000Z</time>
      </trkpt>
      <trkpt lat="47.38269" lon="-2.35931">
        <ele>10.199999809265</ele>
        <time>2020-07-09T08:42:53.000Z</time>
      </trkpt>
      <trkpt lat="47.38275" lon="-2.35927">
        <ele>9.6000003814697</ele>
        <time>2020-07-09T08:42:54.000Z</time>
      </trkpt>
      <trkpt lat="47.38279" lon="-2.35925">
        <ele>9.1999998092651</ele>
        <time>2020-07-09T08:42:55.000Z</time>
      </trkpt>
      <trkpt lat="47.38284" lon="-2.35924">
        <ele>8.8000001907349</ele>
        <time>2020-07-09T08:42:56.000Z</time>
      </trkpt>
      <trkpt lat="47.38289" lon="-2.35926">
        <ele>8.3999996185303</ele>
        <time>2020-07-09T08:42:57.000Z</time>
      </trkpt>
      <trkpt lat="47.38293" lon="-2.35929">
        <ele>8.3999996185303</ele>
        <time>2020-07-09T08:42:58.000Z</time>
      </trkpt>
      <trkpt lat="47.38298" lon="-2.35945">
        <ele>8.3999996185303</ele>
        <time>2020-07-09T08:43:01.000Z</time>
      </trkpt>
      <trkpt lat="47.38299" lon="-2.35951">
        <ele>8.3999996185303</ele>
        <time>2020-07-09T08:43:02.000Z</time>
      </trkpt>
      <trkpt lat="47.38302" lon="-2.35964">
        <ele>8.3999996185303</ele>
        <time>2020-07-09T08:43:04.000Z</time>
      </trkpt>
      <trkpt lat="47.38308" lon="-2.3599">
        <ele>8.3999996185303</ele>
        <time>2020-07-09T08:43:08.000Z</time>
      </trkpt>
      <trkpt lat="47.38316" lon="-2.36034">
        <ele>8.3999996185303</ele>
        <time>2020-07-09T08:43:14.000Z</time>
      </trkpt>
      <trkpt lat="47.38321" lon="-2.36056">
        <ele>8.3999996185303</ele>
        <time>2020-07-09T08:43:17.000Z</time>
      </trkpt>
      <trkpt lat="47.38326" lon="-2.3607">
        <ele>8.3999996185303</ele>
        <time>2020-07-09T08:43:19.000Z</time>
      </trkpt>
      <trkpt lat="47.38343" lon="-2.36115">
        <ele>8.3999996185303</ele>
        <time>2020-07-09T08:43:26.000Z</time>
      </trkpt>
      <trkpt lat="47.38354" lon="-2.3614">
        <ele>8.3999996185303</ele>
        <time>2020-07-09T08:43:30.000Z</time>
      </trkpt>
      <trkpt lat="47.38358" lon="-2.36153">
        <ele>8.3999996185303</ele>
        <time>2020-07-09T08:43:32.000Z</time>
      </trkpt>
      <trkpt lat="47.38363" lon="-2.36167">
        <ele>8.3999996185303</ele>
        <time>2020-07-09T08:43:34.000Z</time>
      </trkpt>
      <trkpt lat="47.38371" lon="-2.36178">
        <ele>8.3999996185303</ele>
        <time>2020-07-09T08:43:36.000Z</time>
      </trkpt>
      <trkpt lat="47.38383" lon="-2.36185">
        <ele>8</ele>
        <time>2020-07-09T08:43:39.000Z</time>
      </trkpt>
      <trkpt lat="47.38385" lon="-2.36186">
        <ele>7.5999999046326</ele>
        <time>2020-07-09T08:43:40.000Z</time>
      </trkpt>
      <trkpt lat="47.38388" lon="-2.36186">
        <ele>7.1999998092651</ele>
        <time>2020-07-09T08:43:41.000Z</time>
      </trkpt>
      <trkpt lat="47.3839" lon="-2.36187">
        <ele>6.8000001907349</ele>
        <time>2020-07-09T08:43:42.000Z</time>
      </trkpt>
      <trkpt lat="47.38392" lon="-2.36188">
        <ele>6.4000000953674</ele>
        <time>2020-07-09T08:43:43.000Z</time>
      </trkpt>
      <trkpt lat="47.38396" lon="-2.36189">
        <ele>6.4000000953674</ele>
        <time>2020-07-09T08:43:45.000Z</time>
      </trkpt>
      <trkpt lat="47.38413" lon="-2.36194">
        <ele>6.4000000953674</ele>
        <time>2020-07-09T08:43:52.000Z</time>
      </trkpt>
      <trkpt lat="47.38418" lon="-2.36195">
        <ele>6.4000000953674</ele>
        <time>2020-07-09T08:43:54.000Z</time>
      </trkpt>
      <trkpt lat="47.38421" lon="-2.36199">
        <ele>6.4000000953674</ele>
        <time>2020-07-09T08:43:56.000Z</time>
      </trkpt>
      <trkpt lat="47.38418" lon="-2.36209">
        <ele>3.5999999046326</ele>
        <time>2020-07-09T08:44:00.000Z</time>
      </trkpt>
      <trkpt lat="47.38418" lon="-2.36211">
        <ele>3</ele>
        <time>2020-07-09T08:44:01.000Z</time>
      </trkpt>
      <trkpt lat="47.38417" lon="-2.36212">
        <ele>3.4000000953674</ele>
        <time>2020-07-09T08:44:02.000Z</time>
      </trkpt>
      <trkpt lat="47.38417" lon="-2.36213">
        <ele>6.8000001907349</ele>
        <time>2020-07-09T08:44:03.000Z</time>
      </trkpt>
      <trkpt lat="47.38417" lon="-2.36214">
        <ele>8.1999998092651</ele>
        <time>2020-07-09T08:44:04.000Z</time>
      </trkpt>
      <trkpt lat="47.38418" lon="-2.3622">
        <ele>9</ele>
        <time>2020-07-09T08:44:10.000Z</time>
      </trkpt>
      <trkpt lat="47.3842" lon="-2.36228">
        <ele>9</ele>
        <time>2020-07-09T08:44:14.000Z</time>
      </trkpt>
      <trkpt lat="47.38422" lon="-2.36233">
        <ele>9</ele>
        <time>2020-07-09T08:44:16.000Z</time>
      </trkpt>
      <trkpt lat="47.38431" lon="-2.36243">
        <ele>9</ele>
        <time>2020-07-09T08:44:22.000Z</time>
      </trkpt>
      <trkpt lat="47.38436" lon="-2.36245">
        <ele>8.6000003814697</ele>
        <time>2020-07-09T08:44:26.000Z</time>
      </trkpt>
      <trkpt lat="47.38437" lon="-2.36245">
        <ele>8.1999998092651</ele>
        <time>2020-07-09T08:44:27.000Z</time>
      </trkpt>
      <trkpt lat="47.38437" lon="-2.36246">
        <ele>7.8000001907349</ele>
        <time>2020-07-09T08:44:28.000Z</time>
      </trkpt>
      <trkpt lat="47.38441" lon="-2.36249">
        <ele>7</ele>
        <time>2020-07-09T08:44:40.000Z</time>
      </trkpt>
      <trkpt lat="47.38452" lon="-2.3625">
        <ele>7</ele>
        <time>2020-07-09T08:44:44.000Z</time>
      </trkpt>
      <trkpt lat="47.38458" lon="-2.36246">
        <ele>7</ele>
        <time>2020-07-09T08:44:46.000Z</time>
      </trkpt>
      <trkpt lat="47.38472" lon="-2.3624">
        <ele>7</ele>
        <time>2020-07-09T08:44:49.000Z</time>
      </trkpt>
      <trkpt lat="47.38497" lon="-2.36243">
        <ele>7</ele>
        <time>2020-07-09T08:44:54.000Z</time>
      </trkpt>
      <trkpt lat="47.38537" lon="-2.36251">
        <ele>7</ele>
        <time>2020-07-09T08:45:02.000Z</time>
      </trkpt>
      <trkpt lat="47.38547" lon="-2.36252">
        <ele>7</ele>
        <time>2020-07-09T08:45:04.000Z</time>
      </trkpt>
      <trkpt lat="47.38561" lon="-2.36248">
        <ele>7</ele>
        <time>2020-07-09T08:45:07.000Z</time>
      </trkpt>
      <trkpt lat="47.38583" lon="-2.36249">
        <ele>7</ele>
        <time>2020-07-09T08:45:12.000Z</time>
      </trkpt>
      <trkpt lat="47.38588" lon="-2.36251">
        <ele>7</ele>
        <time>2020-07-09T08:45:13.000Z</time>
      </trkpt>
      <trkpt lat="47.38605" lon="-2.36264">
        <ele>7</ele>
        <time>2020-07-09T08:45:16.000Z</time>
      </trkpt>
      <trkpt lat="47.3861" lon="-2.3627">
        <ele>7</ele>
        <time>2020-07-09T08:45:17.000Z</time>
      </trkpt>
      <trkpt lat="47.38613" lon="-2.36277">
        <ele>7</ele>
        <time>2020-07-09T08:45:18.000Z</time>
      </trkpt>
      <trkpt lat="47.38616" lon="-2.36292">
        <ele>7</ele>
        <time>2020-07-09T08:45:20.000Z</time>
      </trkpt>
      <trkpt lat="47.38613" lon="-2.36325">
        <ele>7</ele>
        <time>2020-07-09T08:45:24.000Z</time>
      </trkpt>
      <trkpt lat="47.38607" lon="-2.36347">
        <ele>7</ele>
        <time>2020-07-09T08:45:27.000Z</time>
      </trkpt>
      <trkpt lat="47.38603" lon="-2.36362">
        <ele>7</ele>
        <time>2020-07-09T08:45:29.000Z</time>
      </trkpt>
      <trkpt lat="47.38583" lon="-2.36408">
        <ele>7</ele>
        <time>2020-07-09T08:45:36.000Z</time>
      </trkpt>
      <trkpt lat="47.38578" lon="-2.36421">
        <ele>7</ele>
        <time>2020-07-09T08:45:38.000Z</time>
      </trkpt>
      <trkpt lat="47.38569" lon="-2.36442">
        <ele>7</ele>
        <time>2020-07-09T08:45:41.000Z</time>
      </trkpt>
      <trkpt lat="47.38551" lon="-2.3648">
        <ele>7</ele>
        <time>2020-07-09T08:45:46.000Z</time>
      </trkpt>
      <trkpt lat="47.38543" lon="-2.36494">
        <ele>7</ele>
        <time>2020-07-09T08:45:48.000Z</time>
      </trkpt>
      <trkpt lat="47.38532" lon="-2.36509">
        <ele>7</ele>
        <time>2020-07-09T08:45:50.000Z</time>
      </trkpt>
      <trkpt lat="47.38527" lon="-2.36516">
        <ele>7</ele>
        <time>2020-07-09T08:45:51.000Z</time>
      </trkpt>
      <trkpt lat="47.38504" lon="-2.36544">
        <ele>7</ele>
        <time>2020-07-09T08:45:56.000Z</time>
      </trkpt>
      <trkpt lat="47.3847" lon="-2.36568">
        <ele>7</ele>
        <time>2020-07-09T08:46:02.000Z</time>
      </trkpt>
      <trkpt lat="47.38441" lon="-2.36583">
        <ele>7</ele>
        <time>2020-07-09T08:46:08.000Z</time>
      </trkpt>
      <trkpt lat="47.38425" lon="-2.36602">
        <ele>7</ele>
        <time>2020-07-09T08:46:12.000Z</time>
      </trkpt>
      <trkpt lat="47.38419" lon="-2.36614">
        <ele>7</ele>
        <time>2020-07-09T08:46:14.000Z</time>
      </trkpt>
      <trkpt lat="47.38407" lon="-2.36641">
        <ele>7</ele>
        <time>2020-07-09T08:46:18.000Z</time>
      </trkpt>
      <trkpt lat="47.38396" lon="-2.36682">
        <ele>7</ele>
        <time>2020-07-09T08:46:23.000Z</time>
      </trkpt>
      <trkpt lat="47.38393" lon="-2.3669">
        <ele>7</ele>
        <time>2020-07-09T08:46:24.000Z</time>
      </trkpt>
      <trkpt lat="47.38373" lon="-2.36747">
        <ele>7</ele>
        <time>2020-07-09T08:46:32.000Z</time>
      </trkpt>
      <trkpt lat="47.38367" lon="-2.3676">
        <ele>7</ele>
        <time>2020-07-09T08:46:34.000Z</time>
      </trkpt>
      <trkpt lat="47.38357" lon="-2.36772">
        <ele>7</ele>
        <time>2020-07-09T08:46:36.000Z</time>
      </trkpt>
      <trkpt lat="47.38352" lon="-2.36777">
        <ele>7</ele>
        <time>2020-07-09T08:46:37.000Z</time>
      </trkpt>
      <trkpt lat="47.38341" lon="-2.36785">
        <ele>7</ele>
        <time>2020-07-09T08:46:39.000Z</time>
      </trkpt>
      <trkpt lat="47.38336" lon="-2.36787">
        <ele>7</ele>
        <time>2020-07-09T08:46:40.000Z</time>
      </trkpt>
      <trkpt lat="47.38298" lon="-2.36799">
        <ele>7</ele>
        <time>2020-07-09T08:46:47.000Z</time>
      </trkpt>
      <trkpt lat="47.38292" lon="-2.36801">
        <ele>7</ele>
        <time>2020-07-09T08:46:48.000Z</time>
      </trkpt>
      <trkpt lat="47.38271" lon="-2.36809">
        <ele>7</ele>
        <time>2020-07-09T08:46:52.000Z</time>
      </trkpt>
      <trkpt lat="47.38257" lon="-2.36817">
        <ele>7</ele>
        <time>2020-07-09T08:46:55.000Z</time>
      </trkpt>
      <trkpt lat="47.38243" lon="-2.36824">
        <ele>7</ele>
        <time>2020-07-09T08:46:58.000Z</time>
      </trkpt>
      <trkpt lat="47.38238" lon="-2.36827">
        <ele>7.4000000953674</ele>
        <time>2020-07-09T08:46:59.000Z</time>
      </trkpt>
      <trkpt lat="47.38234" lon="-2.3683">
        <ele>7.8000001907349</ele>
        <time>2020-07-09T08:47:00.000Z</time>
      </trkpt>
      <trkpt lat="47.3823" lon="-2.36832">
        <ele>8.1999998092651</ele>
        <time>2020-07-09T08:47:01.000Z</time>
      </trkpt>
      <trkpt lat="47.38226" lon="-2.36836">
        <ele>8.6000003814697</ele>
        <time>2020-07-09T08:47:02.000Z</time>
      </trkpt>
      <trkpt lat="47.38222" lon="-2.36838">
        <ele>9</ele>
        <time>2020-07-09T08:47:03.000Z</time>
      </trkpt>
      <trkpt lat="47.38195" lon="-2.36857">
        <ele>9</ele>
        <time>2020-07-09T08:47:09.000Z</time>
      </trkpt>
      <trkpt lat="47.38182" lon="-2.36865">
        <ele>9.3999996185303</ele>
        <time>2020-07-09T08:47:12.000Z</time>
      </trkpt>
      <trkpt lat="47.38177" lon="-2.36868">
        <ele>9.8000001907349</ele>
        <time>2020-07-09T08:47:13.000Z</time>
      </trkpt>
      <trkpt lat="47.38173" lon="-2.3687">
        <ele>10.199999809265</ele>
        <time>2020-07-09T08:47:14.000Z</time>
      </trkpt>
      <trkpt lat="47.38169" lon="-2.36872">
        <ele>10.60000038147</ele>
        <time>2020-07-09T08:47:15.000Z</time>
      </trkpt>
      <trkpt lat="47.38164" lon="-2.36874">
        <ele>11</ele>
        <time>2020-07-09T08:47:16.000Z</time>
      </trkpt>
      <trkpt lat="47.38155" lon="-2.36879">
        <ele>11</ele>
        <time>2020-07-09T08:47:18.000Z</time>
      </trkpt>
      <trkpt lat="47.38135" lon="-2.36889">
        <ele>11</ele>
        <time>2020-07-09T08:47:23.000Z</time>
      </trkpt>
      <trkpt lat="47.38121" lon="-2.36897">
        <ele>11.60000038147</ele>
        <time>2020-07-09T08:47:27.000Z</time>
      </trkpt>
      <trkpt lat="47.38118" lon="-2.36899">
        <ele>12</ele>
        <time>2020-07-09T08:47:28.000Z</time>
      </trkpt>
      <trkpt lat="47.38116" lon="-2.36902">
        <ele>12.39999961853</ele>
        <time>2020-07-09T08:47:29.000Z</time>
      </trkpt>
      <trkpt lat="47.38114" lon="-2.36905">
        <ele>12.800000190735</ele>
        <time>2020-07-09T08:47:30.000Z</time>
      </trkpt>
      <trkpt lat="47.38114" lon="-2.3691">
        <ele>13.199999809265</ele>
        <time>2020-07-09T08:47:31.000Z</time>
      </trkpt>
      <trkpt lat="47.38118" lon="-2.3692">
        <ele>13.199999809265</ele>
        <time>2020-07-09T08:47:33.000Z</time>
      </trkpt>
      <trkpt lat="47.3813" lon="-2.36959">
        <ele>13.199999809265</ele>
        <time>2020-07-09T08:47:39.000Z</time>
      </trkpt>
      <trkpt lat="47.38137" lon="-2.3698">
        <ele>13.199999809265</ele>
        <time>2020-07-09T08:47:42.000Z</time>
      </trkpt>
      <trkpt lat="47.38144" lon="-2.37">
        <ele>13.199999809265</ele>
        <time>2020-07-09T08:47:45.000Z</time>
      </trkpt>
      <trkpt lat="47.38161" lon="-2.37029">
        <ele>13.199999809265</ele>
        <time>2020-07-09T08:47:51.000Z</time>
      </trkpt>
      <trkpt lat="47.38175" lon="-2.37058">
        <ele>13.199999809265</ele>
        <time>2020-07-09T08:47:56.000Z</time>
      </trkpt>
      <trkpt lat="47.38196" lon="-2.37104">
        <ele>13.199999809265</ele>
        <time>2020-07-09T08:48:02.000Z</time>
      </trkpt>
      <trkpt lat="47.38205" lon="-2.3712">
        <ele>12.800000190735</ele>
        <time>2020-07-09T08:48:04.000Z</time>
      </trkpt>
      <trkpt lat="47.3821" lon="-2.37129">
        <ele>12.39999961853</ele>
        <time>2020-07-09T08:48:05.000Z</time>
      </trkpt>
      <trkpt lat="47.38215" lon="-2.37139">
        <ele>12</ele>
        <time>2020-07-09T08:48:06.000Z</time>
      </trkpt>
      <trkpt lat="47.3822" lon="-2.37149">
        <ele>11.60000038147</ele>
        <time>2020-07-09T08:48:07.000Z</time>
      </trkpt>
      <trkpt lat="47.38225" lon="-2.3716">
        <ele>11.199999809265</ele>
        <time>2020-07-09T08:48:08.000Z</time>
      </trkpt>
      <trkpt lat="47.3823" lon="-2.37169">
        <ele>11.199999809265</ele>
        <time>2020-07-09T08:48:09.000Z</time>
      </trkpt>
      <trkpt lat="47.38236" lon="-2.37183">
        <ele>10.60000038147</ele>
        <time>2020-07-09T08:48:11.000Z</time>
      </trkpt>
      <trkpt lat="47.38238" lon="-2.37189">
        <ele>10.199999809265</ele>
        <time>2020-07-09T08:48:12.000Z</time>
      </trkpt>
      <trkpt lat="47.38239" lon="-2.37194">
        <ele>9.6000003814697</ele>
        <time>2020-07-09T08:48:13.000Z</time>
      </trkpt>
      <trkpt lat="47.3824" lon="-2.37198">
        <ele>9</ele>
        <time>2020-07-09T08:48:14.000Z</time>
      </trkpt>
      <trkpt lat="47.38241" lon="-2.37201">
        <ele>8.6000003814697</ele>
        <time>2020-07-09T08:48:15.000Z</time>
      </trkpt>
      <trkpt lat="47.38241" lon="-2.37204">
        <ele>8.6000003814697</ele>
        <time>2020-07-09T08:48:16.000Z</time>
      </trkpt>
      <trkpt lat="47.38248" lon="-2.37213">
        <ele>8.6000003814697</ele>
        <time>2020-07-09T08:48:21.000Z</time>
      </trkpt>
      <trkpt lat="47.38261" lon="-2.37214">
        <ele>8.6000003814697</ele>
        <time>2020-07-09T08:48:28.000Z</time>
      </trkpt>
      <trkpt lat="47.38269" lon="-2.37217">
        <ele>8.6000003814697</ele>
        <time>2020-07-09T08:48:35.000Z</time>
      </trkpt>
      <trkpt lat="47.3828" lon="-2.37219">
        <ele>8.6000003814697</ele>
        <time>2020-07-09T08:48:43.000Z</time>
      </trkpt>
      <trkpt lat="47.38286" lon="-2.37224">
        <ele>8.6000003814697</ele>
        <time>2020-07-09T08:48:47.000Z</time>
      </trkpt>
      <trkpt lat="47.3829" lon="-2.37226">
        <ele>8.6000003814697</ele>
        <time>2020-07-09T08:48:51.000Z</time>
      </trkpt>
      <trkpt lat="47.38293" lon="-2.37233">
        <ele>8.6000003814697</ele>
        <time>2020-07-09T08:48:55.000Z</time>
      </trkpt>
      <trkpt lat="47.38299" lon="-2.37241">
        <ele>8.6000003814697</ele>
        <time>2020-07-09T08:48:58.000Z</time>
      </trkpt>
      <trkpt lat="47.38301" lon="-2.37243">
        <ele>8.6000003814697</ele>
        <time>2020-07-09T08:48:59.000Z</time>
      </trkpt>
      <trkpt lat="47.38309" lon="-2.3726">
        <ele>8.6000003814697</ele>
        <time>2020-07-09T08:49:04.000Z</time>
      </trkpt>
      <trkpt lat="47.38315" lon="-2.37266">
        <ele>8.6000003814697</ele>
        <time>2020-07-09T08:49:07.000Z</time>
      </trkpt>
      <trkpt lat="47.38319" lon="-2.37268">
        <ele>8.6000003814697</ele>
        <time>2020-07-09T08:49:09.000Z</time>
      </trkpt>
      <trkpt lat="47.38322" lon="-2.37268">
        <ele>8.6000003814697</ele>
        <time>2020-07-09T08:49:10.000Z</time>
      </trkpt>
      <trkpt lat="47.38332" lon="-2.37272">
        <ele>8.6000003814697</ele>
        <time>2020-07-09T08:49:13.000Z</time>
      </trkpt>
      <trkpt lat="47.38336" lon="-2.37275">
        <ele>8.6000003814697</ele>
        <time>2020-07-09T08:49:14.000Z</time>
      </trkpt>
      <trkpt lat="47.38341" lon="-2.37278">
        <ele>8.6000003814697</ele>
        <time>2020-07-09T08:49:16.000Z</time>
      </trkpt>
      <trkpt lat="47.38347" lon="-2.3728">
        <ele>8.6000003814697</ele>
        <time>2020-07-09T08:49:18.000Z</time>
      </trkpt>
      <trkpt lat="47.3835" lon="-2.37281">
        <ele>8.6000003814697</ele>
        <time>2020-07-09T08:49:19.000Z</time>
      </trkpt>
      <trkpt lat="47.38364" lon="-2.37294">
        <ele>8.6000003814697</ele>
        <time>2020-07-09T08:49:24.000Z</time>
      </trkpt>
      <trkpt lat="47.38382" lon="-2.373">
        <ele>8.6000003814697</ele>
        <time>2020-07-09T08:49:31.000Z</time>
      </trkpt>
      <trkpt lat="47.3839" lon="-2.37292">
        <ele>8.6000003814697</ele>
        <time>2020-07-09T08:49:36.000Z</time>
      </trkpt>
      <trkpt lat="47.38394" lon="-2.37289">
        <ele>8.6000003814697</ele>
        <time>2020-07-09T08:49:38.000Z</time>
      </trkpt>
      <trkpt lat="47.38403" lon="-2.37288">
        <ele>8.6000003814697</ele>
        <time>2020-07-09T08:49:41.000Z</time>
      </trkpt>
      <trkpt lat="47.38429" lon="-2.37284">
        <ele>8.6000003814697</ele>
        <time>2020-07-09T08:49:46.000Z</time>
      </trkpt>
      <trkpt lat="47.38438" lon="-2.37282">
        <ele>9</ele>
        <time>2020-07-09T08:49:48.000Z</time>
      </trkpt>
      <trkpt lat="47.38443" lon="-2.3728">
        <ele>9.3999996185303</ele>
        <time>2020-07-09T08:49:49.000Z</time>
      </trkpt>
      <trkpt lat="47.38448" lon="-2.37277">
        <ele>9.8000001907349</ele>
        <time>2020-07-09T08:49:50.000Z</time>
      </trkpt>
      <trkpt lat="47.38452" lon="-2.37275">
        <ele>10.199999809265</ele>
        <time>2020-07-09T08:49:51.000Z</time>
      </trkpt>
      <trkpt lat="47.38457" lon="-2.37272">
        <ele>10.60000038147</ele>
        <time>2020-07-09T08:49:52.000Z</time>
      </trkpt>
      <trkpt lat="47.3847" lon="-2.3726">
        <ele>11</ele>
        <time>2020-07-09T08:49:55.000Z</time>
      </trkpt>
      <trkpt lat="47.38475" lon="-2.37256">
        <ele>11.60000038147</ele>
        <time>2020-07-09T08:49:56.000Z</time>
      </trkpt>
      <trkpt lat="47.3848" lon="-2.37251">
        <ele>12</ele>
        <time>2020-07-09T08:49:57.000Z</time>
      </trkpt>
      <trkpt lat="47.38486" lon="-2.37248">
        <ele>12.39999961853</ele>
        <time>2020-07-09T08:49:58.000Z</time>
      </trkpt>
      <trkpt lat="47.38491" lon="-2.37245">
        <ele>12.800000190735</ele>
        <time>2020-07-09T08:49:59.000Z</time>
      </trkpt>
      <trkpt lat="47.38508" lon="-2.3723">
        <ele>12.800000190735</ele>
        <time>2020-07-09T08:50:03.000Z</time>
      </trkpt>
      <trkpt lat="47.38516" lon="-2.37223">
        <ele>12.800000190735</ele>
        <time>2020-07-09T08:50:05.000Z</time>
      </trkpt>
      <trkpt lat="47.38519" lon="-2.3722">
        <ele>13.199999809265</ele>
        <time>2020-07-09T08:50:06.000Z</time>
      </trkpt>
      <trkpt lat="47.38523" lon="-2.37216">
        <ele>13.60000038147</ele>
        <time>2020-07-09T08:50:07.000Z</time>
      </trkpt>
      <trkpt lat="47.38527" lon="-2.37212">
        <ele>14</ele>
        <time>2020-07-09T08:50:08.000Z</time>
      </trkpt>
      <trkpt lat="47.3853" lon="-2.37209">
        <ele>14.39999961853</ele>
        <time>2020-07-09T08:50:09.000Z</time>
      </trkpt>
      <trkpt lat="47.38533" lon="-2.37206">
        <ele>14.800000190735</ele>
        <time>2020-07-09T08:50:10.000Z</time>
      </trkpt>
      <trkpt lat="47.38543" lon="-2.37196">
        <ele>14.800000190735</ele>
        <time>2020-07-09T08:50:13.000Z</time>
      </trkpt>
      <trkpt lat="47.38554" lon="-2.37185">
        <ele>15.199999809265</ele>
        <time>2020-07-09T08:50:16.000Z</time>
      </trkpt>
      <trkpt lat="47.38558" lon="-2.37182">
        <ele>15.60000038147</ele>
        <time>2020-07-09T08:50:17.000Z</time>
      </trkpt>
      <trkpt lat="47.38562" lon="-2.37179">
        <ele>16</ele>
        <time>2020-07-09T08:50:18.000Z</time>
      </trkpt>
      <trkpt lat="47.38566" lon="-2.37176">
        <ele>16.39999961853</ele>
        <time>2020-07-09T08:50:19.000Z</time>
      </trkpt>
      <trkpt lat="47.38571" lon="-2.37172">
        <ele>16.799999237061</ele>
        <time>2020-07-09T08:50:20.000Z</time>
      </trkpt>
      <trkpt lat="47.38593" lon="-2.37157">
        <ele>16.799999237061</ele>
        <time>2020-07-09T08:50:25.000Z</time>
      </trkpt>
      <trkpt lat="47.38621" lon="-2.37135">
        <ele>16.799999237061</ele>
        <time>2020-07-09T08:50:31.000Z</time>
      </trkpt>
      <trkpt lat="47.38625" lon="-2.3713">
        <ele>16.799999237061</ele>
        <time>2020-07-09T08:50:32.000Z</time>
      </trkpt>
      <trkpt lat="47.38659" lon="-2.37093">
        <ele>16.799999237061</ele>
        <time>2020-07-09T08:50:39.000Z</time>
      </trkpt>
      <trkpt lat="47.38687" lon="-2.37062">
        <ele>16.799999237061</ele>
        <time>2020-07-09T08:50:44.000Z</time>
      </trkpt>
      <trkpt lat="47.38727" lon="-2.37017">
        <ele>16.799999237061</ele>
        <time>2020-07-09T08:50:51.000Z</time>
      </trkpt>
      <trkpt lat="47.38757" lon="-2.36984">
        <ele>16.799999237061</ele>
        <time>2020-07-09T08:50:57.000Z</time>
      </trkpt>
      <trkpt lat="47.38797" lon="-2.36937">
        <ele>16.799999237061</ele>
        <time>2020-07-09T08:51:05.000Z</time>
      </trkpt>
      <trkpt lat="47.38833" lon="-2.36895">
        <ele>16.799999237061</ele>
        <time>2020-07-09T08:51:12.000Z</time>
      </trkpt>
      <trkpt lat="47.38848" lon="-2.3688">
        <ele>16.799999237061</ele>
        <time>2020-07-09T08:51:15.000Z</time>
      </trkpt>
      <trkpt lat="47.38859" lon="-2.36873">
        <ele>16.799999237061</ele>
        <time>2020-07-09T08:51:17.000Z</time>
      </trkpt>
      <trkpt lat="47.38882" lon="-2.36863">
        <ele>16.799999237061</ele>
        <time>2020-07-09T08:51:22.000Z</time>
      </trkpt>
      <trkpt lat="47.38896" lon="-2.36865">
        <ele>16.799999237061</ele>
        <time>2020-07-09T08:51:26.000Z</time>
      </trkpt>
      <trkpt lat="47.38903" lon="-2.36883">
        <ele>16.799999237061</ele>
        <time>2020-07-09T08:51:30.000Z</time>
      </trkpt>
      <trkpt lat="47.38905" lon="-2.36912">
        <ele>16.799999237061</ele>
        <time>2020-07-09T08:51:35.000Z</time>
      </trkpt>
      <trkpt lat="47.38906" lon="-2.36931">
        <ele>17.200000762939</ele>
        <time>2020-07-09T08:51:38.000Z</time>
      </trkpt>
      <trkpt lat="47.38907" lon="-2.36936">
        <ele>17.60000038147</ele>
        <time>2020-07-09T08:51:39.000Z</time>
      </trkpt>
      <trkpt lat="47.38907" lon="-2.36942">
        <ele>18.200000762939</ele>
        <time>2020-07-09T08:51:40.000Z</time>
      </trkpt>
      <trkpt lat="47.38908" lon="-2.36948">
        <ele>19</ele>
        <time>2020-07-09T08:51:41.000Z</time>
      </trkpt>
      <trkpt lat="47.38909" lon="-2.36958">
        <ele>19</ele>
        <time>2020-07-09T08:51:43.000Z</time>
      </trkpt>
      <trkpt lat="47.38911" lon="-2.36995">
        <ele>19</ele>
        <time>2020-07-09T08:51:50.000Z</time>
      </trkpt>
      <trkpt lat="47.38919" lon="-2.37017">
        <ele>19</ele>
        <time>2020-07-09T08:51:56.000Z</time>
      </trkpt>
      <trkpt lat="47.38924" lon="-2.37018">
        <ele>19</ele>
        <time>2020-07-09T08:51:58.000Z</time>
      </trkpt>
      <trkpt lat="47.3893" lon="-2.37016">
        <ele>19</ele>
        <time>2020-07-09T08:52:00.000Z</time>
      </trkpt>
      <trkpt lat="47.38951" lon="-2.37004">
        <ele>19.799999237061</ele>
        <time>2020-07-09T08:52:06.000Z</time>
      </trkpt>
      <trkpt lat="47.38955" lon="-2.37002">
        <ele>20.200000762939</ele>
        <time>2020-07-09T08:52:07.000Z</time>
      </trkpt>
      <trkpt lat="47.38959" lon="-2.37">
        <ele>20.60000038147</ele>
        <time>2020-07-09T08:52:08.000Z</time>
      </trkpt>
      <trkpt lat="47.38963" lon="-2.36997">
        <ele>21</ele>
        <time>2020-07-09T08:52:09.000Z</time>
      </trkpt>
      <trkpt lat="47.38976" lon="-2.3699">
        <ele>21</ele>
        <time>2020-07-09T08:52:12.000Z</time>
      </trkpt>
      <trkpt lat="47.39005" lon="-2.36972">
        <ele>21</ele>
        <time>2020-07-09T08:52:19.000Z</time>
      </trkpt>
      <trkpt lat="47.39019" lon="-2.36967">
        <ele>21</ele>
        <time>2020-07-09T08:52:24.000Z</time>
      </trkpt>
      <trkpt lat="47.39025" lon="-2.36976">
        <ele>21</ele>
        <time>2020-07-09T08:52:27.000Z</time>
      </trkpt>
      <trkpt lat="47.39025" lon="-2.37">
        <ele>21</ele>
        <time>2020-07-09T08:52:31.000Z</time>
      </trkpt>
      <trkpt lat="47.39023" lon="-2.37014">
        <ele>21</ele>
        <time>2020-07-09T08:52:33.000Z</time>
      </trkpt>
      <trkpt lat="47.39019" lon="-2.37048">
        <ele>21</ele>
        <time>2020-07-09T08:52:38.000Z</time>
      </trkpt>
      <trkpt lat="47.39013" lon="-2.37095">
        <ele>21</ele>
        <time>2020-07-09T08:52:45.000Z</time>
      </trkpt>
      <trkpt lat="47.39011" lon="-2.37116">
        <ele>21.60000038147</ele>
        <time>2020-07-09T08:52:48.000Z</time>
      </trkpt>
      <trkpt lat="47.3901" lon="-2.37123">
        <ele>22</ele>
        <time>2020-07-09T08:52:49.000Z</time>
      </trkpt>
      <trkpt lat="47.39009" lon="-2.37129">
        <ele>22.39999961853</ele>
        <time>2020-07-09T08:52:50.000Z</time>
      </trkpt>
      <trkpt lat="47.39008" lon="-2.37136">
        <ele>22.799999237061</ele>
        <time>2020-07-09T08:52:51.000Z</time>
      </trkpt>
      <trkpt lat="47.39007" lon="-2.37143">
        <ele>23.200000762939</ele>
        <time>2020-07-09T08:52:52.000Z</time>
      </trkpt>
      <trkpt lat="47.39" lon="-2.37195">
        <ele>23.200000762939</ele>
        <time>2020-07-09T08:53:00.000Z</time>
      </trkpt>
      <trkpt lat="47.38995" lon="-2.37231">
        <ele>23.200000762939</ele>
        <time>2020-07-09T08:53:06.000Z</time>
      </trkpt>
      <trkpt lat="47.38991" lon="-2.37267">
        <ele>23.200000762939</ele>
        <time>2020-07-09T08:53:13.000Z</time>
      </trkpt>
      <trkpt lat="47.38996" lon="-2.37278">
        <ele>23.200000762939</ele>
        <time>2020-07-09T08:53:17.000Z</time>
      </trkpt>
      <trkpt lat="47.39" lon="-2.37271">
        <ele>23.200000762939</ele>
        <time>2020-07-09T08:53:20.000Z</time>
      </trkpt>
      <trkpt lat="47.39011" lon="-2.3726">
        <ele>23.200000762939</ele>
        <time>2020-07-09T08:53:24.000Z</time>
      </trkpt>
      <trkpt lat="47.39018" lon="-2.37251">
        <ele>23.200000762939</ele>
        <time>2020-07-09T08:53:26.000Z</time>
      </trkpt>
      <trkpt lat="47.39026" lon="-2.37241">
        <ele>23.200000762939</ele>
        <time>2020-07-09T08:53:28.000Z</time>
      </trkpt>
      <trkpt lat="47.39051" lon="-2.37206">
        <ele>23.200000762939</ele>
        <time>2020-07-09T08:53:35.000Z</time>
      </trkpt>
      <trkpt lat="47.39079" lon="-2.37168">
        <ele>23.200000762939</ele>
        <time>2020-07-09T08:53:43.000Z</time>
      </trkpt>
      <trkpt lat="47.39099" lon="-2.37139">
        <ele>23.200000762939</ele>
        <time>2020-07-09T08:53:49.000Z</time>
      </trkpt>
      <trkpt lat="47.39103" lon="-2.37135">
        <ele>23.200000762939</ele>
        <time>2020-07-09T08:53:50.000Z</time>
      </trkpt>
      <trkpt lat="47.39114" lon="-2.37124">
        <ele>23.200000762939</ele>
        <time>2020-07-09T08:53:53.000Z</time>
      </trkpt>
      <trkpt lat="47.39117" lon="-2.37119">
        <ele>23.200000762939</ele>
        <time>2020-07-09T08:53:54.000Z</time>
      </trkpt>
      <trkpt lat="47.39137" lon="-2.37093">
        <ele>23.200000762939</ele>
        <time>2020-07-09T08:54:00.000Z</time>
      </trkpt>
      <trkpt lat="47.3915" lon="-2.37086">
        <ele>23.200000762939</ele>
        <time>2020-07-09T08:54:04.000Z</time>
      </trkpt>
      <trkpt lat="47.3916" lon="-2.37095">
        <ele>23.200000762939</ele>
        <time>2020-07-09T08:54:07.000Z</time>
      </trkpt>
      <trkpt lat="47.39163" lon="-2.371">
        <ele>23.200000762939</ele>
        <time>2020-07-09T08:54:08.000Z</time>
      </trkpt>
      <trkpt lat="47.3917" lon="-2.37112">
        <ele>23.200000762939</ele>
        <time>2020-07-09T08:54:10.000Z</time>
      </trkpt>
      <trkpt lat="47.3918" lon="-2.37132">
        <ele>23.200000762939</ele>
        <time>2020-07-09T08:54:13.000Z</time>
      </trkpt>
      <trkpt lat="47.39202" lon="-2.37178">
        <ele>23.200000762939</ele>
        <time>2020-07-09T08:54:20.000Z</time>
      </trkpt>
      <trkpt lat="47.3922" lon="-2.37216">
        <ele>23.200000762939</ele>
        <time>2020-07-09T08:54:26.000Z</time>
      </trkpt>
      <trkpt lat="47.3924" lon="-2.37259">
        <ele>23.200000762939</ele>
        <time>2020-07-09T08:54:33.000Z</time>
      </trkpt>
      <trkpt lat="47.39257" lon="-2.373">
        <ele>23.200000762939</ele>
        <time>2020-07-09T08:54:39.000Z</time>
      </trkpt>
      <trkpt lat="47.39272" lon="-2.37357">
        <ele>23.200000762939</ele>
        <time>2020-07-09T08:54:46.000Z</time>
      </trkpt>
      <trkpt lat="47.39274" lon="-2.37365">
        <ele>23.200000762939</ele>
        <time>2020-07-09T08:54:47.000Z</time>
      </trkpt>
      <trkpt lat="47.39284" lon="-2.37395">
        <ele>23.200000762939</ele>
        <time>2020-07-09T08:54:51.000Z</time>
      </trkpt>
      <trkpt lat="47.39301" lon="-2.37456">
        <ele>23.200000762939</ele>
        <time>2020-07-09T08:54:59.000Z</time>
      </trkpt>
      <trkpt lat="47.39323" lon="-2.37533">
        <ele>23.200000762939</ele>
        <time>2020-07-09T08:55:09.000Z</time>
      </trkpt>
      <trkpt lat="47.39341" lon="-2.37599">
        <ele>23.200000762939</ele>
        <time>2020-07-09T08:55:17.000Z</time>
      </trkpt>
      <trkpt lat="47.39363" lon="-2.37668">
        <ele>23.200000762939</ele>
        <time>2020-07-09T08:55:25.000Z</time>
      </trkpt>
      <trkpt lat="47.39388" lon="-2.37749">
        <ele>22.799999237061</ele>
        <time>2020-07-09T08:55:34.000Z</time>
      </trkpt>
      <trkpt lat="47.3939" lon="-2.37758">
        <ele>22.200000762939</ele>
        <time>2020-07-09T08:55:35.000Z</time>
      </trkpt>
      <trkpt lat="47.39393" lon="-2.37767">
        <ele>21.799999237061</ele>
        <time>2020-07-09T08:55:36.000Z</time>
      </trkpt>
      <trkpt lat="47.39395" lon="-2.37775">
        <ele>21.39999961853</ele>
        <time>2020-07-09T08:55:37.000Z</time>
      </trkpt>
      <trkpt lat="47.39398" lon="-2.37784">
        <ele>21</ele>
        <time>2020-07-09T08:55:38.000Z</time>
      </trkpt>
      <trkpt lat="47.3941" lon="-2.37826">
        <ele>21</ele>
        <time>2020-07-09T08:55:44.000Z</time>
      </trkpt>
      <trkpt lat="47.39429" lon="-2.37891">
        <ele>21</ele>
        <time>2020-07-09T08:55:52.000Z</time>
      </trkpt>
      <trkpt lat="47.39443" lon="-2.37938">
        <ele>21</ele>
        <time>2020-07-09T08:55:59.000Z</time>
      </trkpt>
      <trkpt lat="47.39454" lon="-2.37974">
        <ele>21</ele>
        <time>2020-07-09T08:56:06.000Z</time>
      </trkpt>
      <trkpt lat="47.39461" lon="-2.37996">
        <ele>21</ele>
        <time>2020-07-09T08:56:12.000Z</time>
      </trkpt>
      <trkpt lat="47.39465" lon="-2.38001">
        <ele>21</ele>
        <time>2020-07-09T08:56:17.000Z</time>
      </trkpt>
      <trkpt lat="47.3947" lon="-2.37997">
        <ele>19</ele>
        <time>2020-07-09T08:58:02.000Z</time>
      </trkpt>
      <trkpt lat="47.39473" lon="-2.37994">
        <ele>19</ele>
        <time>2020-07-09T08:58:04.000Z</time>
      </trkpt>
      <trkpt lat="47.39478" lon="-2.3799">
        <ele>19</ele>
        <time>2020-07-09T08:58:06.000Z</time>
      </trkpt>
      <trkpt lat="47.39487" lon="-2.37981">
        <ele>19</ele>
        <time>2020-07-09T08:58:09.000Z</time>
      </trkpt>
      <trkpt lat="47.39509" lon="-2.37956">
        <ele>19</ele>
        <time>2020-07-09T08:58:15.000Z</time>
      </trkpt>
      <trkpt lat="47.39532" lon="-2.3793">
        <ele>19</ele>
        <time>2020-07-09T08:58:21.000Z</time>
      </trkpt>
      <trkpt lat="47.39561" lon="-2.37903">
        <ele>19</ele>
        <time>2020-07-09T08:58:28.000Z</time>
      </trkpt>
      <trkpt lat="47.39583" lon="-2.37905">
        <ele>19</ele>
        <time>2020-07-09T08:58:32.000Z</time>
      </trkpt>
      <trkpt lat="47.39636" lon="-2.37923">
        <ele>19</ele>
        <time>2020-07-09T08:58:41.000Z</time>
      </trkpt>
      <trkpt lat="47.39672" lon="-2.3794">
        <ele>18.60000038147</ele>
        <time>2020-07-09T08:58:47.000Z</time>
      </trkpt>
      <trkpt lat="47.39679" lon="-2.37942">
        <ele>18.200000762939</ele>
        <time>2020-07-09T08:58:48.000Z</time>
      </trkpt>
      <trkpt lat="47.39686" lon="-2.37945">
        <ele>17.60000038147</ele>
        <time>2020-07-09T08:58:49.000Z</time>
      </trkpt>
      <trkpt lat="47.39693" lon="-2.37948">
        <ele>17.200000762939</ele>
        <time>2020-07-09T08:58:50.000Z</time>
      </trkpt>
      <trkpt lat="47.39701" lon="-2.37952">
        <ele>16.799999237061</ele>
        <time>2020-07-09T08:58:51.000Z</time>
      </trkpt>
      <trkpt lat="47.39724" lon="-2.37964">
        <ele>16.799999237061</ele>
        <time>2020-07-09T08:58:54.000Z</time>
      </trkpt>
      <trkpt lat="47.39739" lon="-2.37972">
        <ele>16.39999961853</ele>
        <time>2020-07-09T08:58:56.000Z</time>
      </trkpt>
      <trkpt lat="47.39746" lon="-2.37976">
        <ele>16</ele>
        <time>2020-07-09T08:58:57.000Z</time>
      </trkpt>
      <trkpt lat="47.39754" lon="-2.3798">
        <ele>15.60000038147</ele>
        <time>2020-07-09T08:58:58.000Z</time>
      </trkpt>
      <trkpt lat="47.39761" lon="-2.37984">
        <ele>15.199999809265</ele>
        <time>2020-07-09T08:58:59.000Z</time>
      </trkpt>
      <trkpt lat="47.39768" lon="-2.37987">
        <ele>14.800000190735</ele>
        <time>2020-07-09T08:59:00.000Z</time>
      </trkpt>
      <trkpt lat="47.39776" lon="-2.37991">
        <ele>14.39999961853</ele>
        <time>2020-07-09T08:59:01.000Z</time>
      </trkpt>
      <trkpt lat="47.39782" lon="-2.37995">
        <ele>14</ele>
        <time>2020-07-09T08:59:02.000Z</time>
      </trkpt>
      <trkpt lat="47.39789" lon="-2.37999">
        <ele>13.60000038147</ele>
        <time>2020-07-09T08:59:03.000Z</time>
      </trkpt>
      <trkpt lat="47.39796" lon="-2.38003">
        <ele>13.199999809265</ele>
        <time>2020-07-09T08:59:04.000Z</time>
      </trkpt>
      <trkpt lat="47.39803" lon="-2.38006">
        <ele>12.800000190735</ele>
        <time>2020-07-09T08:59:05.000Z</time>
      </trkpt>
      <trkpt lat="47.39834" lon="-2.3802">
        <ele>12.800000190735</ele>
        <time>2020-07-09T08:59:10.000Z</time>
      </trkpt>
      <trkpt lat="47.3987" lon="-2.38026">
        <ele>12.800000190735</ele>
        <time>2020-07-09T08:59:15.000Z</time>
      </trkpt>
      <trkpt lat="47.39903" lon="-2.38042">
        <ele>12.800000190735</ele>
        <time>2020-07-09T08:59:20.000Z</time>
      </trkpt>
      <trkpt lat="47.39949" lon="-2.38067">
        <ele>12.800000190735</ele>
        <time>2020-07-09T08:59:27.000Z</time>
      </trkpt>
      <trkpt lat="47.39995" lon="-2.38091">
        <ele>12.800000190735</ele>
        <time>2020-07-09T08:59:34.000Z</time>
      </trkpt>
      <trkpt lat="47.40032" lon="-2.3811">
        <ele>12.39999961853</ele>
        <time>2020-07-09T08:59:40.000Z</time>
      </trkpt>
      <trkpt lat="47.40038" lon="-2.38113">
        <ele>12</ele>
        <time>2020-07-09T08:59:41.000Z</time>
      </trkpt>
      <trkpt lat="47.40044" lon="-2.38116">
        <ele>11.60000038147</ele>
        <time>2020-07-09T08:59:42.000Z</time>
      </trkpt>
      <trkpt lat="47.40049" lon="-2.38119">
        <ele>11.199999809265</ele>
        <time>2020-07-09T08:59:43.000Z</time>
      </trkpt>
      <trkpt lat="47.40055" lon="-2.38122">
        <ele>10.60000038147</ele>
        <time>2020-07-09T08:59:44.000Z</time>
      </trkpt>
      <trkpt lat="47.40076" lon="-2.38131">
        <ele>10.60000038147</ele>
        <time>2020-07-09T08:59:48.000Z</time>
      </trkpt>
      <trkpt lat="47.4012" lon="-2.38152">
        <ele>10.60000038147</ele>
        <time>2020-07-09T08:59:57.000Z</time>
      </trkpt>
      <trkpt lat="47.40137" lon="-2.38161">
        <ele>10.199999809265</ele>
        <time>2020-07-09T09:00:01.000Z</time>
      </trkpt>
      <trkpt lat="47.40142" lon="-2.38163">
        <ele>9.8000001907349</ele>
        <time>2020-07-09T09:00:02.000Z</time>
      </trkpt>
      <trkpt lat="47.40147" lon="-2.38165">
        <ele>9.3999996185303</ele>
        <time>2020-07-09T09:00:03.000Z</time>
      </trkpt>
      <trkpt lat="47.40152" lon="-2.38168">
        <ele>9</ele>
        <time>2020-07-09T09:00:04.000Z</time>
      </trkpt>
      <trkpt lat="47.40157" lon="-2.3817">
        <ele>8.6000003814697</ele>
        <time>2020-07-09T09:00:05.000Z</time>
      </trkpt>
      <trkpt lat="47.40198" lon="-2.38192">
        <ele>8.6000003814697</ele>
        <time>2020-07-09T09:00:12.000Z</time>
      </trkpt>
      <trkpt lat="47.40253" lon="-2.38226">
        <ele>8.6000003814697</ele>
        <time>2020-07-09T09:00:21.000Z</time>
      </trkpt>
      <trkpt lat="47.40287" lon="-2.38261">
        <ele>8.6000003814697</ele>
        <time>2020-07-09T09:00:27.000Z</time>
      </trkpt>
      <trkpt lat="47.40327" lon="-2.38301">
        <ele>8.6000003814697</ele>
        <time>2020-07-09T09:00:34.000Z</time>
      </trkpt>
      <trkpt lat="47.40365" lon="-2.38341">
        <ele>8.6000003814697</ele>
        <time>2020-07-09T09:00:41.000Z</time>
      </trkpt>
      <trkpt lat="47.4039" lon="-2.38375">
        <ele>8.6000003814697</ele>
        <time>2020-07-09T09:00:46.000Z</time>
      </trkpt>
      <trkpt lat="47.40392" lon="-2.38384">
        <ele>8.6000003814697</ele>
        <time>2020-07-09T09:00:47.000Z</time>
      </trkpt>
      <trkpt lat="47.40392" lon="-2.38426">
        <ele>8.6000003814697</ele>
        <time>2020-07-09T09:00:51.000Z</time>
      </trkpt>
      <trkpt lat="47.40386" lon="-2.38457">
        <ele>8.6000003814697</ele>
        <time>2020-07-09T09:00:54.000Z</time>
      </trkpt>
      <trkpt lat="47.40381" lon="-2.38476">
        <ele>8.6000003814697</ele>
        <time>2020-07-09T09:00:56.000Z</time>
      </trkpt>
      <trkpt lat="47.40369" lon="-2.3853">
        <ele>8.6000003814697</ele>
        <time>2020-07-09T09:01:02.000Z</time>
      </trkpt>
      <trkpt lat="47.40353" lon="-2.386">
        <ele>8.6000003814697</ele>
        <time>2020-07-09T09:01:10.000Z</time>
      </trkpt>
      <trkpt lat="47.40332" lon="-2.38655">
        <ele>8.6000003814697</ele>
        <time>2020-07-09T09:01:16.000Z</time>
      </trkpt>
      <trkpt lat="47.40319" lon="-2.38694">
        <ele>8.6000003814697</ele>
        <time>2020-07-09T09:01:21.000Z</time>
      </trkpt>
      <trkpt lat="47.40304" lon="-2.38745">
        <ele>8.6000003814697</ele>
        <time>2020-07-09T09:01:28.000Z</time>
      </trkpt>
      <trkpt lat="47.40302" lon="-2.38751">
        <ele>8.6000003814697</ele>
        <time>2020-07-09T09:01:29.000Z</time>
      </trkpt>
      <trkpt lat="47.40298" lon="-2.38779">
        <ele>8.6000003814697</ele>
        <time>2020-07-09T09:01:33.000Z</time>
      </trkpt>
      <trkpt lat="47.40297" lon="-2.38795">
        <ele>8.6000003814697</ele>
        <time>2020-07-09T09:01:37.000Z</time>
      </trkpt>
      <trkpt lat="47.40297" lon="-2.38795">
        <ele>8.6000003814697</ele>
        <time>2020-07-09T09:01:39.000Z</time>
      </trkpt>
      <trkpt lat="47.40299" lon="-2.38789">
        <ele>6.5999999046326</ele>
        <time>2020-07-09T09:05:20.000Z</time>
      </trkpt>
      <trkpt lat="47.40299" lon="-2.38791">
        <ele>6.5999999046326</ele>
        <time>2020-07-09T09:05:21.000Z</time>
      </trkpt>
      <trkpt lat="47.40298" lon="-2.38809">
        <ele>6.5999999046326</ele>
        <time>2020-07-09T09:05:26.000Z</time>
      </trkpt>
      <trkpt lat="47.40302" lon="-2.3884">
        <ele>6.5999999046326</ele>
        <time>2020-07-09T09:05:32.000Z</time>
      </trkpt>
      <trkpt lat="47.40307" lon="-2.38883">
        <ele>6.5999999046326</ele>
        <time>2020-07-09T09:05:40.000Z</time>
      </trkpt>
      <trkpt lat="47.40309" lon="-2.38903">
        <ele>6.5999999046326</ele>
        <time>2020-07-09T09:05:43.000Z</time>
      </trkpt>
      <trkpt lat="47.4031" lon="-2.3893">
        <ele>6.5999999046326</ele>
        <time>2020-07-09T09:05:47.000Z</time>
      </trkpt>
      <trkpt lat="47.40305" lon="-2.38957">
        <ele>6.5999999046326</ele>
        <time>2020-07-09T09:05:51.000Z</time>
      </trkpt>
      <trkpt lat="47.40303" lon="-2.38963">
        <ele>6.5999999046326</ele>
        <time>2020-07-09T09:05:52.000Z</time>
      </trkpt>
      <trkpt lat="47.40292" lon="-2.38988">
        <ele>6.5999999046326</ele>
        <time>2020-07-09T09:05:58.000Z</time>
      </trkpt>
      <trkpt lat="47.40286" lon="-2.38995">
        <ele>6.5999999046326</ele>
        <time>2020-07-09T09:06:04.000Z</time>
      </trkpt>
      <trkpt lat="47.40288" lon="-2.38999">
        <ele>6.5999999046326</ele>
        <time>2020-07-09T09:06:24.000Z</time>
      </trkpt>
      <trkpt lat="47.40299" lon="-2.39015">
        <ele>6.5999999046326</ele>
        <time>2020-07-09T09:06:30.000Z</time>
      </trkpt>
      <trkpt lat="47.40311" lon="-2.39028">
        <ele>6.5999999046326</ele>
        <time>2020-07-09T09:06:35.000Z</time>
      </trkpt>
      <trkpt lat="47.40312" lon="-2.39033">
        <ele>6.5999999046326</ele>
        <time>2020-07-09T09:06:39.000Z</time>
      </trkpt>
      <trkpt lat="47.40309" lon="-2.39029">
        <ele>6.5999999046326</ele>
        <time>2020-07-09T09:07:29.000Z</time>
      </trkpt>
      <trkpt lat="47.40308" lon="-2.39027">
        <ele>6.5999999046326</ele>
        <time>2020-07-09T09:07:32.000Z</time>
      </trkpt>
      <trkpt lat="47.40303" lon="-2.39023">
        <ele>6.5999999046326</ele>
        <time>2020-07-09T09:07:39.000Z</time>
      </trkpt>
      <trkpt lat="47.40302" lon="-2.39022">
        <ele>6.5999999046326</ele>
        <time>2020-07-09T09:07:40.000Z</time>
      </trkpt>
      <trkpt lat="47.4029" lon="-2.39005">
        <ele>6.5999999046326</ele>
        <time>2020-07-09T09:07:48.000Z</time>
      </trkpt>
      <trkpt lat="47.40291" lon="-2.38991">
        <ele>6.5999999046326</ele>
        <time>2020-07-09T09:07:52.000Z</time>
      </trkpt>
      <trkpt lat="47.40294" lon="-2.38986">
        <ele>6.5999999046326</ele>
        <time>2020-07-09T09:07:53.000Z</time>
      </trkpt>
      <trkpt lat="47.40301" lon="-2.38968">
        <ele>6.5999999046326</ele>
        <time>2020-07-09T09:07:56.000Z</time>
      </trkpt>
      <trkpt lat="47.40305" lon="-2.38954">
        <ele>6.5999999046326</ele>
        <time>2020-07-09T09:07:58.000Z</time>
      </trkpt>
      <trkpt lat="47.40308" lon="-2.38938">
        <ele>6.5999999046326</ele>
        <time>2020-07-09T09:08:00.000Z</time>
      </trkpt>
      <trkpt lat="47.40309" lon="-2.38921">
        <ele>6.5999999046326</ele>
        <time>2020-07-09T09:08:02.000Z</time>
      </trkpt>
      <trkpt lat="47.40309" lon="-2.38905">
        <ele>6.5999999046326</ele>
        <time>2020-07-09T09:08:04.000Z</time>
      </trkpt>
      <trkpt lat="47.40303" lon="-2.3885">
        <ele>6.5999999046326</ele>
        <time>2020-07-09T09:08:11.000Z</time>
      </trkpt>
      <trkpt lat="47.40298" lon="-2.38792">
        <ele>6.5999999046326</ele>
        <time>2020-07-09T09:08:19.000Z</time>
      </trkpt>
      <trkpt lat="47.40299" lon="-2.38783">
        <ele>6.5999999046326</ele>
        <time>2020-07-09T09:08:21.000Z</time>
      </trkpt>
      <trkpt lat="47.40301" lon="-2.38782">
        <ele>6.5999999046326</ele>
        <time>2020-07-09T09:08:22.000Z</time>
      </trkpt>
      <trkpt lat="47.4031" lon="-2.38785">
        <ele>6.5999999046326</ele>
        <time>2020-07-09T09:08:25.000Z</time>
      </trkpt>
      <trkpt lat="47.40313" lon="-2.38787">
        <ele>6.5999999046326</ele>
        <time>2020-07-09T09:08:26.000Z</time>
      </trkpt>
      <trkpt lat="47.40335" lon="-2.38797">
        <ele>6.5999999046326</ele>
        <time>2020-07-09T09:08:33.000Z</time>
      </trkpt>
      <trkpt lat="47.4036" lon="-2.38811">
        <ele>6.5999999046326</ele>
        <time>2020-07-09T09:08:41.000Z</time>
      </trkpt>
      <trkpt lat="47.4039" lon="-2.38828">
        <ele>6.5999999046326</ele>
        <time>2020-07-09T09:08:50.000Z</time>
      </trkpt>
      <trkpt lat="47.40421" lon="-2.38848">
        <ele>6.5999999046326</ele>
        <time>2020-07-09T09:08:59.000Z</time>
      </trkpt>
      <trkpt lat="47.40434" lon="-2.38852">
        <ele>6.5999999046326</ele>
        <time>2020-07-09T09:09:03.000Z</time>
      </trkpt>
      <trkpt lat="47.40453" lon="-2.38862">
        <ele>6.5999999046326</ele>
        <time>2020-07-09T09:09:10.000Z</time>
      </trkpt>
      <trkpt lat="47.40466" lon="-2.38868">
        <ele>6.5999999046326</ele>
        <time>2020-07-09T09:09:15.000Z</time>
      </trkpt>
      <trkpt lat="47.40486" lon="-2.38879">
        <ele>6.5999999046326</ele>
        <time>2020-07-09T09:09:22.000Z</time>
      </trkpt>
      <trkpt lat="47.40506" lon="-2.3889">
        <ele>6.5999999046326</ele>
        <time>2020-07-09T09:09:28.000Z</time>
      </trkpt>
      <trkpt lat="47.40532" lon="-2.38903">
        <ele>6.5999999046326</ele>
        <time>2020-07-09T09:09:36.000Z</time>
      </trkpt>
      <trkpt lat="47.40554" lon="-2.38915">
        <ele>6.5999999046326</ele>
        <time>2020-07-09T09:09:43.000Z</time>
      </trkpt>
      <trkpt lat="47.40581" lon="-2.38929">
        <ele>6.5999999046326</ele>
        <time>2020-07-09T09:09:51.000Z</time>
      </trkpt>
      <trkpt lat="47.40595" lon="-2.38932">
        <ele>6.5999999046326</ele>
        <time>2020-07-09T09:09:55.000Z</time>
      </trkpt>
      <trkpt lat="47.40598" lon="-2.38929">
        <ele>6.5999999046326</ele>
        <time>2020-07-09T09:09:56.000Z</time>
      </trkpt>
      <trkpt lat="47.40603" lon="-2.38914">
        <ele>6.5999999046326</ele>
        <time>2020-07-09T09:09:59.000Z</time>
      </trkpt>
      <trkpt lat="47.40611" lon="-2.3888">
        <ele>6.5999999046326</ele>
        <time>2020-07-09T09:10:06.000Z</time>
      </trkpt>
      <trkpt lat="47.40621" lon="-2.3883">
        <ele>6.5999999046326</ele>
        <time>2020-07-09T09:10:15.000Z</time>
      </trkpt>
      <trkpt lat="47.40626" lon="-2.38808">
        <ele>6.5999999046326</ele>
        <time>2020-07-09T09:10:19.000Z</time>
      </trkpt>
      <trkpt lat="47.40634" lon="-2.38781">
        <ele>6.5999999046326</ele>
        <time>2020-07-09T09:10:25.000Z</time>
      </trkpt>
      <trkpt lat="47.40644" lon="-2.38747">
        <ele>6.5999999046326</ele>
        <time>2020-07-09T09:10:33.000Z</time>
      </trkpt>
      <trkpt lat="47.4065" lon="-2.38723">
        <ele>6.5999999046326</ele>
        <time>2020-07-09T09:10:40.000Z</time>
      </trkpt>
      <trkpt lat="47.40656" lon="-2.38696">
        <ele>6.5999999046326</ele>
        <time>2020-07-09T09:10:46.000Z</time>
      </trkpt>
      <trkpt lat="47.40661" lon="-2.38674">
        <ele>6.5999999046326</ele>
        <time>2020-07-09T09:10:52.000Z</time>
      </trkpt>
      <trkpt lat="47.40663" lon="-2.38665">
        <ele>6.5999999046326</ele>
        <time>2020-07-09T09:10:58.000Z</time>
      </trkpt>
      <trkpt lat="47.40668" lon="-2.38658">
        <ele>6.1999998092651</ele>
        <time>2020-07-09T09:11:02.000Z</time>
      </trkpt>
      <trkpt lat="47.40668" lon="-2.38656">
        <ele>5.8000001907349</ele>
        <time>2020-07-09T09:11:03.000Z</time>
      </trkpt>
      <trkpt lat="47.40668" lon="-2.38655">
        <ele>5.4000000953674</ele>
        <time>2020-07-09T09:11:04.000Z</time>
      </trkpt>
      <trkpt lat="47.40668" lon="-2.38652">
        <ele>5</ele>
        <time>2020-07-09T09:11:05.000Z</time>
      </trkpt>
      <trkpt lat="47.40669" lon="-2.38648">
        <ele>4.5999999046326</ele>
        <time>2020-07-09T09:11:06.000Z</time>
      </trkpt>
      <trkpt lat="47.40669" lon="-2.38645">
        <ele>4.5999999046326</ele>
        <time>2020-07-09T09:11:07.000Z</time>
      </trkpt>
      <trkpt lat="47.4067" lon="-2.3864">
        <ele>4.5999999046326</ele>
        <time>2020-07-09T09:11:09.000Z</time>
      </trkpt>
      <trkpt lat="47.40675" lon="-2.3862">
        <ele>4.5999999046326</ele>
        <time>2020-07-09T09:11:15.000Z</time>
      </trkpt>
      <trkpt lat="47.4068" lon="-2.38599">
        <ele>4.5999999046326</ele>
        <time>2020-07-09T09:11:21.000Z</time>
      </trkpt>
      <trkpt lat="47.40685" lon="-2.38577">
        <ele>4.5999999046326</ele>
        <time>2020-07-09T09:11:28.000Z</time>
      </trkpt>
      <trkpt lat="47.40688" lon="-2.38556">
        <ele>4.5999999046326</ele>
        <time>2020-07-09T09:11:35.000Z</time>
      </trkpt>
      <trkpt lat="47.40689" lon="-2.38553">
        <ele>4.5999999046326</ele>
        <time>2020-07-09T09:11:37.000Z</time>
      </trkpt>
      <trkpt lat="47.40689" lon="-2.38553">
        <ele>4.5999999046326</ele>
        <time>2020-07-09T09:11:39.000Z</time>
      </trkpt>
      <trkpt lat="47.4069" lon="-2.38552">
        <ele>4.5999999046326</ele>
        <time>2020-07-09T09:11:48.000Z</time>
      </trkpt>
      <trkpt lat="47.40692" lon="-2.38536">
        <ele>4.5999999046326</ele>
        <time>2020-07-09T09:11:53.000Z</time>
      </trkpt>
      <trkpt lat="47.40702" lon="-2.3851">
        <ele>4.5999999046326</ele>
        <time>2020-07-09T09:12:00.000Z</time>
      </trkpt>
      <trkpt lat="47.4071" lon="-2.38496">
        <ele>4.5999999046326</ele>
        <time>2020-07-09T09:12:06.000Z</time>
      </trkpt>
      <trkpt lat="47.4071" lon="-2.38492">
        <ele>4.5999999046326</ele>
        <time>2020-07-09T09:12:07.000Z</time>
      </trkpt>
      <trkpt lat="47.40709" lon="-2.38477">
        <ele>4.5999999046326</ele>
        <time>2020-07-09T09:12:10.000Z</time>
      </trkpt>
      <trkpt lat="47.40712" lon="-2.38439">
        <ele>4.5999999046326</ele>
        <time>2020-07-09T09:12:16.000Z</time>
      </trkpt>
      <trkpt lat="47.40717" lon="-2.38386">
        <ele>5.4000000953674</ele>
        <time>2020-07-09T09:12:24.000Z</time>
      </trkpt>
      <trkpt lat="47.40717" lon="-2.3838">
        <ele>5.8000001907349</ele>
        <time>2020-07-09T09:12:25.000Z</time>
      </trkpt>
      <trkpt lat="47.40718" lon="-2.38375">
        <ele>6.1999998092651</ele>
        <time>2020-07-09T09:12:26.000Z</time>
      </trkpt>
      <trkpt lat="47.40718" lon="-2.38371">
        <ele>6.5999999046326</ele>
        <time>2020-07-09T09:12:27.000Z</time>
      </trkpt>
      <trkpt lat="47.4072" lon="-2.38357">
        <ele>6.5999999046326</ele>
        <time>2020-07-09T09:12:31.000Z</time>
      </trkpt>
      <trkpt lat="47.40723" lon="-2.38321">
        <ele>6.5999999046326</ele>
        <time>2020-07-09T09:12:41.000Z</time>
      </trkpt>
      <trkpt lat="47.40726" lon="-2.38284">
        <ele>6.5999999046326</ele>
        <time>2020-07-09T09:12:50.000Z</time>
      </trkpt>
      <trkpt lat="47.40728" lon="-2.38252">
        <ele>7</ele>
        <time>2020-07-09T09:12:58.000Z</time>
      </trkpt>
      <trkpt lat="47.40728" lon="-2.38247">
        <ele>7.4000000953674</ele>
        <time>2020-07-09T09:12:59.000Z</time>
      </trkpt>
      <trkpt lat="47.40729" lon="-2.38243">
        <ele>7.8000001907349</ele>
        <time>2020-07-09T09:13:00.000Z</time>
      </trkpt>
      <trkpt lat="47.40729" lon="-2.38238">
        <ele>8.1999998092651</ele>
        <time>2020-07-09T09:13:01.000Z</time>
      </trkpt>
      <trkpt lat="47.4073" lon="-2.38233">
        <ele>8.6000003814697</ele>
        <time>2020-07-09T09:13:02.000Z</time>
      </trkpt>
      <trkpt lat="47.4073" lon="-2.38228">
        <ele>8.6000003814697</ele>
        <time>2020-07-09T09:13:03.000Z</time>
      </trkpt>
      <trkpt lat="47.40734" lon="-2.38185">
        <ele>8.6000003814697</ele>
        <time>2020-07-09T09:13:12.000Z</time>
      </trkpt>
      <trkpt lat="47.40738" lon="-2.38146">
        <ele>8.6000003814697</ele>
        <time>2020-07-09T09:13:20.000Z</time>
      </trkpt>
      <trkpt lat="47.40745" lon="-2.38136">
        <ele>8.6000003814697</ele>
        <time>2020-07-09T09:13:24.000Z</time>
      </trkpt>
      <trkpt lat="47.40764" lon="-2.38132">
        <ele>8.6000003814697</ele>
        <time>2020-07-09T09:13:30.000Z</time>
      </trkpt>
      <trkpt lat="47.40788" lon="-2.38128">
        <ele>8.6000003814697</ele>
        <time>2020-07-09T09:13:38.000Z</time>
      </trkpt>
      <trkpt lat="47.40802" lon="-2.38122">
        <ele>8.6000003814697</ele>
        <time>2020-07-09T09:13:43.000Z</time>
      </trkpt>
      <trkpt lat="47.40803" lon="-2.38118">
        <ele>8.6000003814697</ele>
        <time>2020-07-09T09:13:44.000Z</time>
      </trkpt>
      <trkpt lat="47.40802" lon="-2.38104">
        <ele>8.6000003814697</ele>
        <time>2020-07-09T09:13:48.000Z</time>
      </trkpt>
      <trkpt lat="47.40801" lon="-2.38101">
        <ele>8.6000003814697</ele>
        <time>2020-07-09T09:13:49.000Z</time>
      </trkpt>
      <trkpt lat="47.40798" lon="-2.38084">
        <ele>8.6000003814697</ele>
        <time>2020-07-09T09:13:56.000Z</time>
      </trkpt>
      <trkpt lat="47.40797" lon="-2.38075">
        <ele>8.6000003814697</ele>
        <time>2020-07-09T09:14:01.000Z</time>
      </trkpt>
      <trkpt lat="47.40804" lon="-2.38121">
        <ele>8.6000003814697</ele>
        <time>2020-07-09T09:18:09.000Z</time>
      </trkpt>
      <trkpt lat="47.40804" lon="-2.38118">
        <ele>8.6000003814697</ele>
        <time>2020-07-09T09:18:10.000Z</time>
      </trkpt>
      <trkpt lat="47.40801" lon="-2.38102">
        <ele>8.6000003814697</ele>
        <time>2020-07-09T09:18:13.000Z</time>
      </trkpt>
      <trkpt lat="47.40795" lon="-2.38059">
        <ele>8.6000003814697</ele>
        <time>2020-07-09T09:18:20.000Z</time>
      </trkpt>
      <trkpt lat="47.40796" lon="-2.38038">
        <ele>8.6000003814697</ele>
        <time>2020-07-09T09:18:23.000Z</time>
      </trkpt>
      <trkpt lat="47.40796" lon="-2.38016">
        <ele>8.6000003814697</ele>
        <time>2020-07-09T09:18:26.000Z</time>
      </trkpt>
      <trkpt lat="47.40797" lon="-2.37969">
        <ele>8.6000003814697</ele>
        <time>2020-07-09T09:18:32.000Z</time>
      </trkpt>
      <trkpt lat="47.40796" lon="-2.37961">
        <ele>9</ele>
        <time>2020-07-09T09:18:33.000Z</time>
      </trkpt>
      <trkpt lat="47.40795" lon="-2.37954">
        <ele>9.3999996185303</ele>
        <time>2020-07-09T09:18:34.000Z</time>
      </trkpt>
      <trkpt lat="47.40794" lon="-2.37946">
        <ele>9.8000001907349</ele>
        <time>2020-07-09T09:18:35.000Z</time>
      </trkpt>
      <trkpt lat="47.40793" lon="-2.37938">
        <ele>10.60000038147</ele>
        <time>2020-07-09T09:18:36.000Z</time>
      </trkpt>
      <trkpt lat="47.40789" lon="-2.37899">
        <ele>10.60000038147</ele>
        <time>2020-07-09T09:18:41.000Z</time>
      </trkpt>
      <trkpt lat="47.40787" lon="-2.37847">
        <ele>10.60000038147</ele>
        <time>2020-07-09T09:18:48.000Z</time>
      </trkpt>
      <trkpt lat="47.40786" lon="-2.37793">
        <ele>10.60000038147</ele>
        <time>2020-07-09T09:18:55.000Z</time>
      </trkpt>
      <trkpt lat="47.40787" lon="-2.37784">
        <ele>10.60000038147</ele>
        <time>2020-07-09T09:18:56.000Z</time>
      </trkpt>
      <trkpt lat="47.40792" lon="-2.37759">
        <ele>11</ele>
        <time>2020-07-09T09:18:59.000Z</time>
      </trkpt>
      <trkpt lat="47.40794" lon="-2.37752">
        <ele>11.39999961853</ele>
        <time>2020-07-09T09:19:00.000Z</time>
      </trkpt>
      <trkpt lat="47.40797" lon="-2.37744">
        <ele>12.199999809265</ele>
        <time>2020-07-09T09:19:01.000Z</time>
      </trkpt>
      <trkpt lat="47.408" lon="-2.37736">
        <ele>12.60000038147</ele>
        <time>2020-07-09T09:19:02.000Z</time>
      </trkpt>
      <trkpt lat="47.40813" lon="-2.37709">
        <ele>12.60000038147</ele>
        <time>2020-07-09T09:19:06.000Z</time>
      </trkpt>
      <trkpt lat="47.40843" lon="-2.37648">
        <ele>12.60000038147</ele>
        <time>2020-07-09T09:19:15.000Z</time>
      </trkpt>
      <trkpt lat="47.40862" lon="-2.37617">
        <ele>12.60000038147</ele>
        <time>2020-07-09T09:19:20.000Z</time>
      </trkpt>
      <trkpt lat="47.40871" lon="-2.37605">
        <ele>12.60000038147</ele>
        <time>2020-07-09T09:19:22.000Z</time>
      </trkpt>
      <trkpt lat="47.4091" lon="-2.37561">
        <ele>12.60000038147</ele>
        <time>2020-07-09T09:19:30.000Z</time>
      </trkpt>
      <trkpt lat="47.40942" lon="-2.37525">
        <ele>12.60000038147</ele>
        <time>2020-07-09T09:19:37.000Z</time>
      </trkpt>
      <trkpt lat="47.4097" lon="-2.37497">
        <ele>12.60000038147</ele>
        <time>2020-07-09T09:19:43.000Z</time>
      </trkpt>
      <trkpt lat="47.41" lon="-2.37479">
        <ele>12.60000038147</ele>
        <time>2020-07-09T09:19:49.000Z</time>
      </trkpt>
      <trkpt lat="47.41039" lon="-2.37458">
        <ele>12.60000038147</ele>
        <time>2020-07-09T09:19:57.000Z</time>
      </trkpt>
      <trkpt lat="47.41078" lon="-2.37432">
        <ele>12.60000038147</ele>
        <time>2020-07-09T09:20:05.000Z</time>
      </trkpt>
      <trkpt lat="47.41113" lon="-2.3741">
        <ele>12.60000038147</ele>
        <time>2020-07-09T09:20:13.000Z</time>
      </trkpt>
      <trkpt lat="47.41124" lon="-2.3741">
        <ele>12.60000038147</ele>
        <time>2020-07-09T09:20:17.000Z</time>
      </trkpt>
      <trkpt lat="47.41125" lon="-2.37415">
        <ele>12.60000038147</ele>
        <time>2020-07-09T09:20:20.000Z</time>
      </trkpt>
      <trkpt lat="47.41126" lon="-2.37418">
        <ele>12.60000038147</ele>
        <time>2020-07-09T09:20:22.000Z</time>
      </trkpt>
      <trkpt lat="47.41125" lon="-2.37421">
        <ele>12.60000038147</ele>
        <time>2020-07-09T09:20:25.000Z</time>
      </trkpt>
      <trkpt lat="47.41124" lon="-2.37417">
        <ele>12.60000038147</ele>
        <time>2020-07-09T09:21:38.000Z</time>
      </trkpt>
      <trkpt lat="47.41124" lon="-2.37415">
        <ele>12.60000038147</ele>
        <time>2020-07-09T09:21:39.000Z</time>
      </trkpt>
      <trkpt lat="47.41129" lon="-2.37403">
        <ele>12.60000038147</ele>
        <time>2020-07-09T09:21:43.000Z</time>
      </trkpt>
      <trkpt lat="47.41132" lon="-2.37401">
        <ele>12.60000038147</ele>
        <time>2020-07-09T09:21:44.000Z</time>
      </trkpt>
      <trkpt lat="47.4114" lon="-2.37398">
        <ele>12.60000038147</ele>
        <time>2020-07-09T09:21:46.000Z</time>
      </trkpt>
      <trkpt lat="47.41149" lon="-2.37396">
        <ele>12.60000038147</ele>
        <time>2020-07-09T09:21:48.000Z</time>
      </trkpt>
      <trkpt lat="47.41155" lon="-2.37395">
        <ele>12.60000038147</ele>
        <time>2020-07-09T09:21:49.000Z</time>
      </trkpt>
      <trkpt lat="47.41186" lon="-2.37389">
        <ele>12.60000038147</ele>
        <time>2020-07-09T09:21:55.000Z</time>
      </trkpt>
      <trkpt lat="47.41218" lon="-2.37375">
        <ele>12.60000038147</ele>
        <time>2020-07-09T09:22:01.000Z</time>
      </trkpt>
      <trkpt lat="47.41223" lon="-2.37371">
        <ele>12.60000038147</ele>
        <time>2020-07-09T09:22:02.000Z</time>
      </trkpt>
      <trkpt lat="47.4125" lon="-2.37346">
        <ele>12.60000038147</ele>
        <time>2020-07-09T09:22:08.000Z</time>
      </trkpt>
      <trkpt lat="47.41258" lon="-2.37338">
        <ele>12.60000038147</ele>
        <time>2020-07-09T09:22:10.000Z</time>
      </trkpt>
      <trkpt lat="47.41276" lon="-2.3732">
        <ele>12.60000038147</ele>
        <time>2020-07-09T09:22:15.000Z</time>
      </trkpt>
      <trkpt lat="47.41287" lon="-2.37309">
        <ele>12.60000038147</ele>
        <time>2020-07-09T09:22:18.000Z</time>
      </trkpt>
      <trkpt lat="47.41313" lon="-2.37283">
        <ele>12.60000038147</ele>
        <time>2020-07-09T09:22:26.000Z</time>
      </trkpt>
      <trkpt lat="47.41341" lon="-2.37251">
        <ele>12.60000038147</ele>
        <time>2020-07-09T09:22:33.000Z</time>
      </trkpt>
      <trkpt lat="47.41352" lon="-2.37233">
        <ele>12.60000038147</ele>
        <time>2020-07-09T09:22:36.000Z</time>
      </trkpt>
      <trkpt lat="47.41358" lon="-2.37208">
        <ele>12.60000038147</ele>
        <time>2020-07-09T09:22:39.000Z</time>
      </trkpt>
      <trkpt lat="47.4136" lon="-2.37183">
        <ele>12.60000038147</ele>
        <time>2020-07-09T09:22:42.000Z</time>
      </trkpt>
      <trkpt lat="47.41359" lon="-2.3716">
        <ele>12.60000038147</ele>
        <time>2020-07-09T09:22:45.000Z</time>
      </trkpt>
      <trkpt lat="47.41356" lon="-2.37137">
        <ele>12.60000038147</ele>
        <time>2020-07-09T09:22:48.000Z</time>
      </trkpt>
      <trkpt lat="47.41351" lon="-2.37123">
        <ele>12.60000038147</ele>
        <time>2020-07-09T09:22:50.000Z</time>
      </trkpt>
      <trkpt lat="47.41345" lon="-2.37111">
        <ele>12.60000038147</ele>
        <time>2020-07-09T09:22:52.000Z</time>
      </trkpt>
      <trkpt lat="47.41337" lon="-2.371">
        <ele>12.60000038147</ele>
        <time>2020-07-09T09:22:54.000Z</time>
      </trkpt>
      <trkpt lat="47.41329" lon="-2.3709">
        <ele>12.60000038147</ele>
        <time>2020-07-09T09:22:56.000Z</time>
      </trkpt>
      <trkpt lat="47.41308" lon="-2.37053">
        <ele>12.60000038147</ele>
        <time>2020-07-09T09:23:02.000Z</time>
      </trkpt>
      <trkpt lat="47.4128" lon="-2.36994">
        <ele>12.60000038147</ele>
        <time>2020-07-09T09:23:10.000Z</time>
      </trkpt>
      <trkpt lat="47.41257" lon="-2.36944">
        <ele>12.60000038147</ele>
        <time>2020-07-09T09:23:17.000Z</time>
      </trkpt>
      <trkpt lat="47.41239" lon="-2.36905">
        <ele>12.60000038147</ele>
        <time>2020-07-09T09:23:23.000Z</time>
      </trkpt>
      <trkpt lat="47.41222" lon="-2.36865">
        <ele>12.60000038147</ele>
        <time>2020-07-09T09:23:30.000Z</time>
      </trkpt>
      <trkpt lat="47.4122" lon="-2.36837">
        <ele>12.60000038147</ele>
        <time>2020-07-09T09:23:35.000Z</time>
      </trkpt>
      <trkpt lat="47.41234" lon="-2.3682">
        <ele>12.60000038147</ele>
        <time>2020-07-09T09:23:39.000Z</time>
      </trkpt>
      <trkpt lat="47.41266" lon="-2.36788">
        <ele>12.60000038147</ele>
        <time>2020-07-09T09:23:46.000Z</time>
      </trkpt>
      <trkpt lat="47.41308" lon="-2.36747">
        <ele>12.60000038147</ele>
        <time>2020-07-09T09:23:55.000Z</time>
      </trkpt>
      <trkpt lat="47.4134" lon="-2.36715">
        <ele>12.60000038147</ele>
        <time>2020-07-09T09:24:02.000Z</time>
      </trkpt>
      <trkpt lat="47.41373" lon="-2.36684">
        <ele>12.60000038147</ele>
        <time>2020-07-09T09:24:10.000Z</time>
      </trkpt>
      <trkpt lat="47.41399" lon="-2.36657">
        <ele>12.60000038147</ele>
        <time>2020-07-09T09:24:17.000Z</time>
      </trkpt>
      <trkpt lat="47.41432" lon="-2.36624">
        <ele>12.60000038147</ele>
        <time>2020-07-09T09:24:26.000Z</time>
      </trkpt>
      <trkpt lat="47.41442" lon="-2.36614">
        <ele>12.199999809265</ele>
        <time>2020-07-09T09:24:29.000Z</time>
      </trkpt>
      <trkpt lat="47.41445" lon="-2.36612">
        <ele>11.800000190735</ele>
        <time>2020-07-09T09:24:30.000Z</time>
      </trkpt>
      <trkpt lat="47.41448" lon="-2.36611">
        <ele>11.39999961853</ele>
        <time>2020-07-09T09:24:31.000Z</time>
      </trkpt>
      <trkpt lat="47.4145" lon="-2.3661">
        <ele>10.800000190735</ele>
        <time>2020-07-09T09:24:32.000Z</time>
      </trkpt>
      <trkpt lat="47.41453" lon="-2.36609">
        <ele>10.39999961853</ele>
        <time>2020-07-09T09:24:33.000Z</time>
      </trkpt>
      <trkpt lat="47.41463" lon="-2.36609">
        <ele>10.39999961853</ele>
        <time>2020-07-09T09:24:36.000Z</time>
      </trkpt>
      <trkpt lat="47.41482" lon="-2.36616">
        <ele>10.39999961853</ele>
        <time>2020-07-09T09:24:40.000Z</time>
      </trkpt>
      <trkpt lat="47.41487" lon="-2.36619">
        <ele>10.39999961853</ele>
        <time>2020-07-09T09:24:41.000Z</time>
      </trkpt>
      <trkpt lat="47.4153" lon="-2.36643">
        <ele>10.39999961853</ele>
        <time>2020-07-09T09:24:50.000Z</time>
      </trkpt>
      <trkpt lat="47.41568" lon="-2.36663">
        <ele>10.39999961853</ele>
        <time>2020-07-09T09:24:58.000Z</time>
      </trkpt>
      <trkpt lat="47.41599" lon="-2.36681">
        <ele>10.39999961853</ele>
        <time>2020-07-09T09:25:05.000Z</time>
      </trkpt>
      <trkpt lat="47.41612" lon="-2.36689">
        <ele>10.800000190735</ele>
        <time>2020-07-09T09:25:08.000Z</time>
      </trkpt>
      <trkpt lat="47.41617" lon="-2.36692">
        <ele>11.60000038147</ele>
        <time>2020-07-09T09:25:09.000Z</time>
      </trkpt>
      <trkpt lat="47.41622" lon="-2.36695">
        <ele>12</ele>
        <time>2020-07-09T09:25:10.000Z</time>
      </trkpt>
      <trkpt lat="47.41626" lon="-2.36699">
        <ele>12.39999961853</ele>
        <time>2020-07-09T09:25:11.000Z</time>
      </trkpt>
      <trkpt lat="47.4163" lon="-2.36703">
        <ele>12.39999961853</ele>
        <time>2020-07-09T09:25:12.000Z</time>
      </trkpt>
      <trkpt lat="47.41663" lon="-2.36733">
        <ele>12.39999961853</ele>
        <time>2020-07-09T09:25:19.000Z</time>
      </trkpt>
      <trkpt lat="47.417" lon="-2.36772">
        <ele>12.39999961853</ele>
        <time>2020-07-09T09:25:27.000Z</time>
      </trkpt>
      <trkpt lat="47.41743" lon="-2.36816">
        <ele>12.39999961853</ele>
        <time>2020-07-09T09:25:35.000Z</time>
      </trkpt>
      <trkpt lat="47.41782" lon="-2.3686">
        <ele>12.39999961853</ele>
        <time>2020-07-09T09:25:42.000Z</time>
      </trkpt>
      <trkpt lat="47.41823" lon="-2.36903">
        <ele>12.39999961853</ele>
        <time>2020-07-09T09:25:49.000Z</time>
      </trkpt>
      <trkpt lat="47.41848" lon="-2.36945">
        <ele>12.39999961853</ele>
        <time>2020-07-09T09:25:54.000Z</time>
      </trkpt>
      <trkpt lat="47.4186" lon="-2.36984">
        <ele>12</ele>
        <time>2020-07-09T09:25:58.000Z</time>
      </trkpt>
      <trkpt lat="47.41863" lon="-2.36994">
        <ele>11.199999809265</ele>
        <time>2020-07-09T09:25:59.000Z</time>
      </trkpt>
      <trkpt lat="47.41865" lon="-2.37005">
        <ele>10.800000190735</ele>
        <time>2020-07-09T09:26:00.000Z</time>
      </trkpt>
      <trkpt lat="47.41867" lon="-2.37016">
        <ele>10.39999961853</ele>
        <time>2020-07-09T09:26:01.000Z</time>
      </trkpt>
      <trkpt lat="47.41877" lon="-2.37084">
        <ele>10.39999961853</ele>
        <time>2020-07-09T09:26:07.000Z</time>
      </trkpt>
      <trkpt lat="47.41888" lon="-2.3715">
        <ele>9.8000001907349</ele>
        <time>2020-07-09T09:26:13.000Z</time>
      </trkpt>
      <trkpt lat="47.4189" lon="-2.37161">
        <ele>9.1999998092651</ele>
        <time>2020-07-09T09:26:14.000Z</time>
      </trkpt>
      <trkpt lat="47.41892" lon="-2.37172">
        <ele>8.8000001907349</ele>
        <time>2020-07-09T09:26:15.000Z</time>
      </trkpt>
      <trkpt lat="47.41894" lon="-2.37184">
        <ele>8.1999998092651</ele>
        <time>2020-07-09T09:26:16.000Z</time>
      </trkpt>
      <trkpt lat="47.41896" lon="-2.37195">
        <ele>7.5999999046326</ele>
        <time>2020-07-09T09:26:17.000Z</time>
      </trkpt>
      <trkpt lat="47.41904" lon="-2.37247">
        <ele>7.5999999046326</ele>
        <time>2020-07-09T09:26:22.000Z</time>
      </trkpt>
      <trkpt lat="47.4191" lon="-2.37304">
        <ele>7.5999999046326</ele>
        <time>2020-07-09T09:26:28.000Z</time>
      </trkpt>
      <trkpt lat="47.4191" lon="-2.3735">
        <ele>7.5999999046326</ele>
        <time>2020-07-09T09:26:33.000Z</time>
      </trkpt>
      <trkpt lat="47.41905" lon="-2.37401">
        <ele>7.5999999046326</ele>
        <time>2020-07-09T09:26:39.000Z</time>
      </trkpt>
      <trkpt lat="47.41899" lon="-2.37455">
        <ele>7.5999999046326</ele>
        <time>2020-07-09T09:26:46.000Z</time>
      </trkpt>
      <trkpt lat="47.41898" lon="-2.37463">
        <ele>8</ele>
        <time>2020-07-09T09:26:47.000Z</time>
      </trkpt>
      <trkpt lat="47.41898" lon="-2.3747">
        <ele>8.8000001907349</ele>
        <time>2020-07-09T09:26:48.000Z</time>
      </trkpt>
      <trkpt lat="47.41898" lon="-2.37477">
        <ele>9.1999998092651</ele>
        <time>2020-07-09T09:26:49.000Z</time>
      </trkpt>
      <trkpt lat="47.41898" lon="-2.37485">
        <ele>9.6000003814697</ele>
        <time>2020-07-09T09:26:50.000Z</time>
      </trkpt>
      <trkpt lat="47.41897" lon="-2.37514">
        <ele>9.6000003814697</ele>
        <time>2020-07-09T09:26:54.000Z</time>
      </trkpt>
      <trkpt lat="47.41897" lon="-2.37528">
        <ele>10.199999809265</ele>
        <time>2020-07-09T09:26:56.000Z</time>
      </trkpt>
      <trkpt lat="47.41898" lon="-2.37534">
        <ele>10.60000038147</ele>
        <time>2020-07-09T09:26:57.000Z</time>
      </trkpt>
      <trkpt lat="47.41898" lon="-2.3754">
        <ele>11</ele>
        <time>2020-07-09T09:26:58.000Z</time>
      </trkpt>
      <trkpt lat="47.41899" lon="-2.37546">
        <ele>11.39999961853</ele>
        <time>2020-07-09T09:26:59.000Z</time>
      </trkpt>
      <trkpt lat="47.419" lon="-2.37552">
        <ele>11.800000190735</ele>
        <time>2020-07-09T09:27:00.000Z</time>
      </trkpt>
      <trkpt lat="47.419" lon="-2.37558">
        <ele>11.800000190735</ele>
        <time>2020-07-09T09:27:01.000Z</time>
      </trkpt>
      <trkpt lat="47.41903" lon="-2.3757">
        <ele>11.800000190735</ele>
        <time>2020-07-09T09:27:03.000Z</time>
      </trkpt>
      <trkpt lat="47.41911" lon="-2.37592">
        <ele>11.800000190735</ele>
        <time>2020-07-09T09:27:07.000Z</time>
      </trkpt>
      <trkpt lat="47.41918" lon="-2.37608">
        <ele>12.199999809265</ele>
        <time>2020-07-09T09:27:10.000Z</time>
      </trkpt>
      <trkpt lat="47.4192" lon="-2.37613">
        <ele>12.800000190735</ele>
        <time>2020-07-09T09:27:11.000Z</time>
      </trkpt>
      <trkpt lat="47.41921" lon="-2.37618">
        <ele>13.199999809265</ele>
        <time>2020-07-09T09:27:12.000Z</time>
      </trkpt>
      <trkpt lat="47.41923" lon="-2.37623">
        <ele>14</ele>
        <time>2020-07-09T09:27:13.000Z</time>
      </trkpt>
      <trkpt lat="47.41926" lon="-2.37628">
        <ele>14</ele>
        <time>2020-07-09T09:27:14.000Z</time>
      </trkpt>
      <trkpt lat="47.41939" lon="-2.37662">
        <ele>14.39999961853</ele>
        <time>2020-07-09T09:27:21.000Z</time>
      </trkpt>
      <trkpt lat="47.41941" lon="-2.37668">
        <ele>14.800000190735</ele>
        <time>2020-07-09T09:27:22.000Z</time>
      </trkpt>
      <trkpt lat="47.41943" lon="-2.37674">
        <ele>15.199999809265</ele>
        <time>2020-07-09T09:27:23.000Z</time>
      </trkpt>
      <trkpt lat="47.41945" lon="-2.37679">
        <ele>15.60000038147</ele>
        <time>2020-07-09T09:27:24.000Z</time>
      </trkpt>
      <trkpt lat="47.41947" lon="-2.37685">
        <ele>16</ele>
        <time>2020-07-09T09:27:25.000Z</time>
      </trkpt>
      <trkpt lat="47.41956" lon="-2.37707">
        <ele>16</ele>
        <time>2020-07-09T09:27:29.000Z</time>
      </trkpt>
      <trkpt lat="47.41964" lon="-2.37726">
        <ele>16.39999961853</ele>
        <time>2020-07-09T09:27:32.000Z</time>
      </trkpt>
      <trkpt lat="47.41966" lon="-2.37733">
        <ele>17</ele>
        <time>2020-07-09T09:27:33.000Z</time>
      </trkpt>
      <trkpt lat="47.41969" lon="-2.37739">
        <ele>17.39999961853</ele>
        <time>2020-07-09T09:27:34.000Z</time>
      </trkpt>
      <trkpt lat="47.41972" lon="-2.37746">
        <ele>17.799999237061</ele>
        <time>2020-07-09T09:27:35.000Z</time>
      </trkpt>
      <trkpt lat="47.41975" lon="-2.37753">
        <ele>18.200000762939</ele>
        <time>2020-07-09T09:27:36.000Z</time>
      </trkpt>
      <trkpt lat="47.4198" lon="-2.37766">
        <ele>18.200000762939</ele>
        <time>2020-07-09T09:27:38.000Z</time>
      </trkpt>
      <trkpt lat="47.41986" lon="-2.37787">
        <ele>18.60000038147</ele>
        <time>2020-07-09T09:27:41.000Z</time>
      </trkpt>
      <trkpt lat="47.41989" lon="-2.37794">
        <ele>19.200000762939</ele>
        <time>2020-07-09T09:27:42.000Z</time>
      </trkpt>
      <trkpt lat="47.41992" lon="-2.37801">
        <ele>19.799999237061</ele>
        <time>2020-07-09T09:27:43.000Z</time>
      </trkpt>
      <trkpt lat="47.41994" lon="-2.37808">
        <ele>20.200000762939</ele>
        <time>2020-07-09T09:27:44.000Z</time>
      </trkpt>
      <trkpt lat="47.41996" lon="-2.37814">
        <ele>20.799999237061</ele>
        <time>2020-07-09T09:27:45.000Z</time>
      </trkpt>
      <trkpt lat="47.42001" lon="-2.37835">
        <ele>20.799999237061</ele>
        <time>2020-07-09T09:27:48.000Z</time>
      </trkpt>
      <trkpt lat="47.41999" lon="-2.37866">
        <ele>20.799999237061</ele>
        <time>2020-07-09T09:27:52.000Z</time>
      </trkpt>
      <trkpt lat="47.41986" lon="-2.379">
        <ele>20.799999237061</ele>
        <time>2020-07-09T09:27:57.000Z</time>
      </trkpt>
      <trkpt lat="47.41959" lon="-2.37951">
        <ele>20.799999237061</ele>
        <time>2020-07-09T09:28:05.000Z</time>
      </trkpt>
      <trkpt lat="47.41938" lon="-2.37991">
        <ele>20.799999237061</ele>
        <time>2020-07-09T09:28:12.000Z</time>
      </trkpt>
      <trkpt lat="47.41929" lon="-2.38008">
        <ele>20.799999237061</ele>
        <time>2020-07-09T09:28:15.000Z</time>
      </trkpt>
      <trkpt lat="47.41924" lon="-2.38028">
        <ele>20.799999237061</ele>
        <time>2020-07-09T09:28:18.000Z</time>
      </trkpt>
      <trkpt lat="47.41927" lon="-2.38058">
        <ele>20.799999237061</ele>
        <time>2020-07-09T09:28:22.000Z</time>
      </trkpt>
      <trkpt lat="47.4193" lon="-2.38078">
        <ele>20.799999237061</ele>
        <time>2020-07-09T09:28:25.000Z</time>
      </trkpt>
      <trkpt lat="47.41929" lon="-2.38099">
        <ele>20.799999237061</ele>
        <time>2020-07-09T09:28:28.000Z</time>
      </trkpt>
      <trkpt lat="47.4192" lon="-2.38126">
        <ele>20.799999237061</ele>
        <time>2020-07-09T09:28:32.000Z</time>
      </trkpt>
      <trkpt lat="47.41917" lon="-2.38132">
        <ele>20.799999237061</ele>
        <time>2020-07-09T09:28:33.000Z</time>
      </trkpt>
      <trkpt lat="47.41902" lon="-2.38172">
        <ele>20.799999237061</ele>
        <time>2020-07-09T09:28:39.000Z</time>
      </trkpt>
      <trkpt lat="47.41894" lon="-2.38203">
        <ele>20.39999961853</ele>
        <time>2020-07-09T09:28:43.000Z</time>
      </trkpt>
      <trkpt lat="47.41893" lon="-2.38212">
        <ele>20</ele>
        <time>2020-07-09T09:28:44.000Z</time>
      </trkpt>
      <trkpt lat="47.41892" lon="-2.38221">
        <ele>19.60000038147</ele>
        <time>2020-07-09T09:28:45.000Z</time>
      </trkpt>
      <trkpt lat="47.41892" lon="-2.38232">
        <ele>19.200000762939</ele>
        <time>2020-07-09T09:28:46.000Z</time>
      </trkpt>
      <trkpt lat="47.41891" lon="-2.38241">
        <ele>18.799999237061</ele>
        <time>2020-07-09T09:28:47.000Z</time>
      </trkpt>
      <trkpt lat="47.41889" lon="-2.3827">
        <ele>18.799999237061</ele>
        <time>2020-07-09T09:28:50.000Z</time>
      </trkpt>
      <trkpt lat="47.41888" lon="-2.38323">
        <ele>18.799999237061</ele>
        <time>2020-07-09T09:28:56.000Z</time>
      </trkpt>
      <trkpt lat="47.41889" lon="-2.38339">
        <ele>18.200000762939</ele>
        <time>2020-07-09T09:28:58.000Z</time>
      </trkpt>
      <trkpt lat="47.4189" lon="-2.38347">
        <ele>17.799999237061</ele>
        <time>2020-07-09T09:28:59.000Z</time>
      </trkpt>
      <trkpt lat="47.41893" lon="-2.38356">
        <ele>17.39999961853</ele>
        <time>2020-07-09T09:29:00.000Z</time>
      </trkpt>
      <trkpt lat="47.41896" lon="-2.38363">
        <ele>17</ele>
        <time>2020-07-09T09:29:01.000Z</time>
      </trkpt>
      <trkpt lat="47.41901" lon="-2.38369">
        <ele>16.60000038147</ele>
        <time>2020-07-09T09:29:02.000Z</time>
      </trkpt>
      <trkpt lat="47.41913" lon="-2.38373">
        <ele>16.60000038147</ele>
        <time>2020-07-09T09:29:04.000Z</time>
      </trkpt>
      <trkpt lat="47.41925" lon="-2.38373">
        <ele>16.60000038147</ele>
        <time>2020-07-09T09:29:06.000Z</time>
      </trkpt>
      <trkpt lat="47.41949" lon="-2.38372">
        <ele>16.60000038147</ele>
        <time>2020-07-09T09:29:10.000Z</time>
      </trkpt>
      <trkpt lat="47.41963" lon="-2.38384">
        <ele>16.60000038147</ele>
        <time>2020-07-09T09:29:13.000Z</time>
      </trkpt>
      <trkpt lat="47.41971" lon="-2.38406">
        <ele>17</ele>
        <time>2020-07-09T09:29:16.000Z</time>
      </trkpt>
      <trkpt lat="47.41974" lon="-2.38415">
        <ele>17.39999961853</ele>
        <time>2020-07-09T09:29:17.000Z</time>
      </trkpt>
      <trkpt lat="47.41977" lon="-2.38424">
        <ele>17.799999237061</ele>
        <time>2020-07-09T09:29:18.000Z</time>
      </trkpt>
      <trkpt lat="47.4198" lon="-2.38433">
        <ele>18.39999961853</ele>
        <time>2020-07-09T09:29:19.000Z</time>
      </trkpt>
      <trkpt lat="47.41984" lon="-2.38443">
        <ele>18.799999237061</ele>
        <time>2020-07-09T09:29:20.000Z</time>
      </trkpt>
      <trkpt lat="47.41997" lon="-2.3848">
        <ele>18.799999237061</ele>
        <time>2020-07-09T09:29:24.000Z</time>
      </trkpt>
      <trkpt lat="47.42017" lon="-2.38532">
        <ele>18.799999237061</ele>
        <time>2020-07-09T09:29:30.000Z</time>
      </trkpt>
      <trkpt lat="47.42028" lon="-2.3856">
        <ele>18.799999237061</ele>
        <time>2020-07-09T09:29:33.000Z</time>
      </trkpt>
      <trkpt lat="47.42039" lon="-2.38592">
        <ele>18.799999237061</ele>
        <time>2020-07-09T09:29:36.000Z</time>
      </trkpt>
      <trkpt lat="47.4205" lon="-2.38639">
        <ele>17.799999237061</ele>
        <time>2020-07-09T09:29:40.000Z</time>
      </trkpt>
      <trkpt lat="47.42053" lon="-2.38651">
        <ele>17.200000762939</ele>
        <time>2020-07-09T09:29:41.000Z</time>
      </trkpt>
      <trkpt lat="47.42056" lon="-2.38663">
        <ele>16.799999237061</ele>
        <time>2020-07-09T09:29:42.000Z</time>
      </trkpt>
      <trkpt lat="47.42059" lon="-2.38675">
        <ele>16.200000762939</ele>
        <time>2020-07-09T09:29:43.000Z</time>
      </trkpt>
      <trkpt lat="47.42066" lon="-2.38702">
        <ele>15.800000190735</ele>
        <time>2020-07-09T09:29:45.000Z</time>
      </trkpt>
      <trkpt lat="47.42069" lon="-2.38715">
        <ele>15.39999961853</ele>
        <time>2020-07-09T09:29:46.000Z</time>
      </trkpt>
      <trkpt lat="47.42071" lon="-2.38728">
        <ele>15</ele>
        <time>2020-07-09T09:29:47.000Z</time>
      </trkpt>
      <trkpt lat="47.42072" lon="-2.38742">
        <ele>14.60000038147</ele>
        <time>2020-07-09T09:29:48.000Z</time>
      </trkpt>
      <trkpt lat="47.42073" lon="-2.38756">
        <ele>14</ele>
        <time>2020-07-09T09:29:49.000Z</time>
      </trkpt>
      <trkpt lat="47.42074" lon="-2.38783">
        <ele>13.60000038147</ele>
        <time>2020-07-09T09:29:51.000Z</time>
      </trkpt>
      <trkpt lat="47.42074" lon="-2.38799">
        <ele>13.199999809265</ele>
        <time>2020-07-09T09:29:52.000Z</time>
      </trkpt>
      <trkpt lat="47.42074" lon="-2.38814">
        <ele>12.800000190735</ele>
        <time>2020-07-09T09:29:53.000Z</time>
      </trkpt>
      <trkpt lat="47.42074" lon="-2.38829">
        <ele>12.199999809265</ele>
        <time>2020-07-09T09:29:54.000Z</time>
      </trkpt>
      <trkpt lat="47.42073" lon="-2.38844">
        <ele>11.800000190735</ele>
        <time>2020-07-09T09:29:55.000Z</time>
      </trkpt>
      <trkpt lat="47.42073" lon="-2.38904">
        <ele>11.800000190735</ele>
        <time>2020-07-09T09:29:59.000Z</time>
      </trkpt>
      <trkpt lat="47.42074" lon="-2.38987">
        <ele>11.800000190735</ele>
        <time>2020-07-09T09:30:05.000Z</time>
      </trkpt>
      <trkpt lat="47.42075" lon="-2.39">
        <ele>11.800000190735</ele>
        <time>2020-07-09T09:30:06.000Z</time>
      </trkpt>
      <trkpt lat="47.42075" lon="-2.39014">
        <ele>11.39999961853</ele>
        <time>2020-07-09T09:30:07.000Z</time>
      </trkpt>
      <trkpt lat="47.42076" lon="-2.39027">
        <ele>11</ele>
        <time>2020-07-09T09:30:08.000Z</time>
      </trkpt>
      <trkpt lat="47.42077" lon="-2.39041">
        <ele>10.60000038147</ele>
        <time>2020-07-09T09:30:09.000Z</time>
      </trkpt>
      <trkpt lat="47.42077" lon="-2.39054">
        <ele>10.199999809265</ele>
        <time>2020-07-09T09:30:10.000Z</time>
      </trkpt>
      <trkpt lat="47.42078" lon="-2.39067">
        <ele>9.6000003814697</ele>
        <time>2020-07-09T09:30:11.000Z</time>
      </trkpt>
      <trkpt lat="47.4208" lon="-2.39123">
        <ele>9.1999998092651</ele>
        <time>2020-07-09T09:30:15.000Z</time>
      </trkpt>
      <trkpt lat="47.4208" lon="-2.39137">
        <ele>8.8000001907349</ele>
        <time>2020-07-09T09:30:16.000Z</time>
      </trkpt>
      <trkpt lat="47.42081" lon="-2.39152">
        <ele>8.1999998092651</ele>
        <time>2020-07-09T09:30:17.000Z</time>
      </trkpt>
      <trkpt lat="47.42081" lon="-2.39167">
        <ele>7.8000001907349</ele>
        <time>2020-07-09T09:30:18.000Z</time>
      </trkpt>
      <trkpt lat="47.42082" lon="-2.39182">
        <ele>7.1999998092651</ele>
        <time>2020-07-09T09:30:19.000Z</time>
      </trkpt>
      <trkpt lat="47.42084" lon="-2.39225">
        <ele>6.8000001907349</ele>
        <time>2020-07-09T09:30:22.000Z</time>
      </trkpt>
      <trkpt lat="47.42085" lon="-2.39239">
        <ele>6.4000000953674</ele>
        <time>2020-07-09T09:30:23.000Z</time>
      </trkpt>
      <trkpt lat="47.42085" lon="-2.39252">
        <ele>6</ele>
        <time>2020-07-09T09:30:24.000Z</time>
      </trkpt>
      <trkpt lat="47.42086" lon="-2.39265">
        <ele>5.5999999046326</ele>
        <time>2020-07-09T09:30:25.000Z</time>
      </trkpt>
      <trkpt lat="47.42086" lon="-2.39277">
        <ele>5.1999998092651</ele>
        <time>2020-07-09T09:30:26.000Z</time>
      </trkpt>
      <trkpt lat="47.42088" lon="-2.39323">
        <ele>5.1999998092651</ele>
        <time>2020-07-09T09:30:30.000Z</time>
      </trkpt>
      <trkpt lat="47.42085" lon="-2.39374">
        <ele>5.1999998092651</ele>
        <time>2020-07-09T09:30:35.000Z</time>
      </trkpt>
      <trkpt lat="47.42076" lon="-2.39442">
        <ele>5.1999998092651</ele>
        <time>2020-07-09T09:30:42.000Z</time>
      </trkpt>
      <trkpt lat="47.42073" lon="-2.3946">
        <ele>5.5999999046326</ele>
        <time>2020-07-09T09:30:44.000Z</time>
      </trkpt>
      <trkpt lat="47.42072" lon="-2.39469">
        <ele>6</ele>
        <time>2020-07-09T09:30:45.000Z</time>
      </trkpt>
      <trkpt lat="47.42071" lon="-2.39477">
        <ele>6.4000000953674</ele>
        <time>2020-07-09T09:30:46.000Z</time>
      </trkpt>
      <trkpt lat="47.42069" lon="-2.39485">
        <ele>6.8000001907349</ele>
        <time>2020-07-09T09:30:47.000Z</time>
      </trkpt>
      <trkpt lat="47.42068" lon="-2.39493">
        <ele>7.1999998092651</ele>
        <time>2020-07-09T09:30:48.000Z</time>
      </trkpt>
      <trkpt lat="47.42067" lon="-2.39501">
        <ele>7.1999998092651</ele>
        <time>2020-07-09T09:30:49.000Z</time>
      </trkpt>
      <trkpt lat="47.42059" lon="-2.39552">
        <ele>7.1999998092651</ele>
        <time>2020-07-09T09:30:56.000Z</time>
      </trkpt>
      <trkpt lat="47.42053" lon="-2.39589">
        <ele>7.1999998092651</ele>
        <time>2020-07-09T09:31:02.000Z</time>
      </trkpt>
      <trkpt lat="47.42048" lon="-2.39613">
        <ele>7.1999998092651</ele>
        <time>2020-07-09T09:31:08.000Z</time>
      </trkpt>
      <trkpt lat="47.4204" lon="-2.3963">
        <ele>7.1999998092651</ele>
        <time>2020-07-09T09:31:14.000Z</time>
      </trkpt>
      <trkpt lat="47.42026" lon="-2.39644">
        <ele>7.1999998092651</ele>
        <time>2020-07-09T09:31:19.000Z</time>
      </trkpt>
      <trkpt lat="47.4202" lon="-2.39652">
        <ele>7.1999998092651</ele>
        <time>2020-07-09T09:31:21.000Z</time>
      </trkpt>
      <trkpt lat="47.42014" lon="-2.39669">
        <ele>7.1999998092651</ele>
        <time>2020-07-09T09:31:24.000Z</time>
      </trkpt>
      <trkpt lat="47.42006" lon="-2.39715">
        <ele>7.1999998092651</ele>
        <time>2020-07-09T09:31:31.000Z</time>
      </trkpt>
      <trkpt lat="47.42" lon="-2.39764">
        <ele>7.1999998092651</ele>
        <time>2020-07-09T09:31:38.000Z</time>
      </trkpt>
      <trkpt lat="47.41995" lon="-2.3981">
        <ele>7.1999998092651</ele>
        <time>2020-07-09T09:31:44.000Z</time>
      </trkpt>
      <trkpt lat="47.41987" lon="-2.39846">
        <ele>7.1999998092651</ele>
        <time>2020-07-09T09:31:48.000Z</time>
      </trkpt>
      <trkpt lat="47.41984" lon="-2.39854">
        <ele>7.1999998092651</ele>
        <time>2020-07-09T09:31:49.000Z</time>
      </trkpt>
      <trkpt lat="47.41964" lon="-2.39883">
        <ele>7.1999998092651</ele>
        <time>2020-07-09T09:31:53.000Z</time>
      </trkpt>
      <trkpt lat="47.41945" lon="-2.39896">
        <ele>7.1999998092651</ele>
        <time>2020-07-09T09:31:56.000Z</time>
      </trkpt>
      <trkpt lat="47.41937" lon="-2.39899">
        <ele>7.1999998092651</ele>
        <time>2020-07-09T09:31:57.000Z</time>
      </trkpt>
      <trkpt lat="47.41885" lon="-2.39921">
        <ele>7.1999998092651</ele>
        <time>2020-07-09T09:32:04.000Z</time>
      </trkpt>
      <trkpt lat="47.41827" lon="-2.39948">
        <ele>7.1999998092651</ele>
        <time>2020-07-09T09:32:12.000Z</time>
      </trkpt>
      <trkpt lat="47.41771" lon="-2.39972">
        <ele>7.1999998092651</ele>
        <time>2020-07-09T09:32:20.000Z</time>
      </trkpt>
      <trkpt lat="47.41723" lon="-2.39992">
        <ele>7.1999998092651</ele>
        <time>2020-07-09T09:32:27.000Z</time>
      </trkpt>
      <trkpt lat="47.41671" lon="-2.40014">
        <ele>7.1999998092651</ele>
        <time>2020-07-09T09:32:35.000Z</time>
      </trkpt>
      <trkpt lat="47.41654" lon="-2.40022">
        <ele>7.5999999046326</ele>
        <time>2020-07-09T09:32:38.000Z</time>
      </trkpt>
      <trkpt lat="47.41649" lon="-2.40024">
        <ele>8.1999998092651</ele>
        <time>2020-07-09T09:32:39.000Z</time>
      </trkpt>
      <trkpt lat="47.41644" lon="-2.40026">
        <ele>8.6000003814697</ele>
        <time>2020-07-09T09:32:40.000Z</time>
      </trkpt>
      <trkpt lat="47.41639" lon="-2.40029">
        <ele>9</ele>
        <time>2020-07-09T09:32:41.000Z</time>
      </trkpt>
      <trkpt lat="47.41634" lon="-2.40031">
        <ele>9.3999996185303</ele>
        <time>2020-07-09T09:32:42.000Z</time>
      </trkpt>
      <trkpt lat="47.41598" lon="-2.40047">
        <ele>9.8000001907349</ele>
        <time>2020-07-09T09:32:49.000Z</time>
      </trkpt>
      <trkpt lat="47.41593" lon="-2.40049">
        <ele>10.199999809265</ele>
        <time>2020-07-09T09:32:50.000Z</time>
      </trkpt>
      <trkpt lat="47.41587" lon="-2.4005">
        <ele>10.800000190735</ele>
        <time>2020-07-09T09:32:51.000Z</time>
      </trkpt>
      <trkpt lat="47.41582" lon="-2.4005">
        <ele>11.199999809265</ele>
        <time>2020-07-09T09:32:52.000Z</time>
      </trkpt>
      <trkpt lat="47.41576" lon="-2.40051">
        <ele>11.60000038147</ele>
        <time>2020-07-09T09:32:53.000Z</time>
      </trkpt>
      <trkpt lat="47.41566" lon="-2.4005">
        <ele>11.60000038147</ele>
        <time>2020-07-09T09:32:55.000Z</time>
      </trkpt>
      <trkpt lat="47.4154" lon="-2.40041">
        <ele>11.60000038147</ele>
        <time>2020-07-09T09:33:00.000Z</time>
      </trkpt>
      <trkpt lat="47.41535" lon="-2.40038">
        <ele>11.60000038147</ele>
        <time>2020-07-09T09:33:01.000Z</time>
      </trkpt>
      <trkpt lat="47.41515" lon="-2.40026">
        <ele>12</ele>
        <time>2020-07-09T09:33:05.000Z</time>
      </trkpt>
      <trkpt lat="47.4151" lon="-2.40023">
        <ele>12.39999961853</ele>
        <time>2020-07-09T09:33:06.000Z</time>
      </trkpt>
      <trkpt lat="47.41505" lon="-2.4002">
        <ele>12.800000190735</ele>
        <time>2020-07-09T09:33:07.000Z</time>
      </trkpt>
      <trkpt lat="47.41499" lon="-2.40016">
        <ele>13.199999809265</ele>
        <time>2020-07-09T09:33:08.000Z</time>
      </trkpt>
      <trkpt lat="47.41494" lon="-2.40013">
        <ele>13.60000038147</ele>
        <time>2020-07-09T09:33:09.000Z</time>
      </trkpt>
      <trkpt lat="47.41465" lon="-2.39988">
        <ele>13.60000038147</ele>
        <time>2020-07-09T09:33:15.000Z</time>
      </trkpt>
      <trkpt lat="47.41421" lon="-2.39954">
        <ele>13.60000038147</ele>
        <time>2020-07-09T09:33:23.000Z</time>
      </trkpt>
      <trkpt lat="47.41377" lon="-2.3992">
        <ele>13.60000038147</ele>
        <time>2020-07-09T09:33:31.000Z</time>
      </trkpt>
      <trkpt lat="47.41333" lon="-2.39889">
        <ele>13.60000038147</ele>
        <time>2020-07-09T09:33:39.000Z</time>
      </trkpt>
      <trkpt lat="47.41303" lon="-2.39866">
        <ele>13.60000038147</ele>
        <time>2020-07-09T09:33:45.000Z</time>
      </trkpt>
      <trkpt lat="47.41293" lon="-2.39857">
        <ele>13.60000038147</ele>
        <time>2020-07-09T09:33:47.000Z</time>
      </trkpt>
      <trkpt lat="47.41288" lon="-2.39853">
        <ele>12.800000190735</ele>
        <time>2020-07-09T09:33:48.000Z</time>
      </trkpt>
      <trkpt lat="47.41283" lon="-2.39849">
        <ele>12.39999961853</ele>
        <time>2020-07-09T09:33:49.000Z</time>
      </trkpt>
      <trkpt lat="47.41278" lon="-2.39843">
        <ele>12</ele>
        <time>2020-07-09T09:33:50.000Z</time>
      </trkpt>
      <trkpt lat="47.41273" lon="-2.39839">
        <ele>11.60000038147</ele>
        <time>2020-07-09T09:33:51.000Z</time>
      </trkpt>
      <trkpt lat="47.41259" lon="-2.39831">
        <ele>11.60000038147</ele>
        <time>2020-07-09T09:33:54.000Z</time>
      </trkpt>
      <trkpt lat="47.41254" lon="-2.39828">
        <ele>11.60000038147</ele>
        <time>2020-07-09T09:33:55.000Z</time>
      </trkpt>
      <trkpt lat="47.41244" lon="-2.39824">
        <ele>11.60000038147</ele>
        <time>2020-07-09T09:33:57.000Z</time>
      </trkpt>
      <trkpt lat="47.41228" lon="-2.39821">
        <ele>11.60000038147</ele>
        <time>2020-07-09T09:34:00.000Z</time>
      </trkpt>
      <trkpt lat="47.41209" lon="-2.39819">
        <ele>11.199999809265</ele>
        <time>2020-07-09T09:34:03.000Z</time>
      </trkpt>
      <trkpt lat="47.41202" lon="-2.39818">
        <ele>10.800000190735</ele>
        <time>2020-07-09T09:34:04.000Z</time>
      </trkpt>
      <trkpt lat="47.41195" lon="-2.39818">
        <ele>10.39999961853</ele>
        <time>2020-07-09T09:34:05.000Z</time>
      </trkpt>
      <trkpt lat="47.41188" lon="-2.39818">
        <ele>10</ele>
        <time>2020-07-09T09:34:06.000Z</time>
      </trkpt>
      <trkpt lat="47.41181" lon="-2.39819">
        <ele>9.6000003814697</ele>
        <time>2020-07-09T09:34:07.000Z</time>
      </trkpt>
      <trkpt lat="47.41149" lon="-2.39825">
        <ele>9.1999998092651</ele>
        <time>2020-07-09T09:34:11.000Z</time>
      </trkpt>
      <trkpt lat="47.41141" lon="-2.39828">
        <ele>8.3999996185303</ele>
        <time>2020-07-09T09:34:12.000Z</time>
      </trkpt>
      <trkpt lat="47.41133" lon="-2.3983">
        <ele>8</ele>
        <time>2020-07-09T09:34:13.000Z</time>
      </trkpt>
      <trkpt lat="47.41125" lon="-2.39831">
        <ele>7.5999999046326</ele>
        <time>2020-07-09T09:34:14.000Z</time>
      </trkpt>
      <trkpt lat="47.41109" lon="-2.39833">
        <ele>7.1999998092651</ele>
        <time>2020-07-09T09:34:16.000Z</time>
      </trkpt>
      <trkpt lat="47.41101" lon="-2.39833">
        <ele>6.8000001907349</ele>
        <time>2020-07-09T09:34:17.000Z</time>
      </trkpt>
      <trkpt lat="47.41093" lon="-2.39834">
        <ele>6.4000000953674</ele>
        <time>2020-07-09T09:34:18.000Z</time>
      </trkpt>
      <trkpt lat="47.41086" lon="-2.39835">
        <ele>6</ele>
        <time>2020-07-09T09:34:19.000Z</time>
      </trkpt>
      <trkpt lat="47.41078" lon="-2.39836">
        <ele>5.5999999046326</ele>
        <time>2020-07-09T09:34:20.000Z</time>
      </trkpt>
      <trkpt lat="47.4105" lon="-2.39841">
        <ele>5.5999999046326</ele>
        <time>2020-07-09T09:34:24.000Z</time>
      </trkpt>
      <trkpt lat="47.41002" lon="-2.39844">
        <ele>5.5999999046326</ele>
        <time>2020-07-09T09:34:31.000Z</time>
      </trkpt>
      <trkpt lat="47.40966" lon="-2.39842">
        <ele>5.5999999046326</ele>
        <time>2020-07-09T09:34:37.000Z</time>
      </trkpt>
      <trkpt lat="47.40919" lon="-2.39842">
        <ele>5.5999999046326</ele>
        <time>2020-07-09T09:34:45.000Z</time>
      </trkpt>
      <trkpt lat="47.40891" lon="-2.39841">
        <ele>5.1999998092651</ele>
        <time>2020-07-09T09:34:50.000Z</time>
      </trkpt>
      <trkpt lat="47.40885" lon="-2.39842">
        <ele>4.5999999046326</ele>
        <time>2020-07-09T09:34:51.000Z</time>
      </trkpt>
      <trkpt lat="47.4088" lon="-2.39842">
        <ele>4.1999998092651</ele>
        <time>2020-07-09T09:34:52.000Z</time>
      </trkpt>
      <trkpt lat="47.40874" lon="-2.39843">
        <ele>3.7999999523163</ele>
        <time>2020-07-09T09:34:53.000Z</time>
      </trkpt>
      <trkpt lat="47.40868" lon="-2.39843">
        <ele>3.4000000953674</ele>
        <time>2020-07-09T09:34:54.000Z</time>
      </trkpt>
      <trkpt lat="47.40831" lon="-2.39853">
        <ele>3.4000000953674</ele>
        <time>2020-07-09T09:35:01.000Z</time>
      </trkpt>
      <trkpt lat="47.40788" lon="-2.39871">
        <ele>3.4000000953674</ele>
        <time>2020-07-09T09:35:09.000Z</time>
      </trkpt>
      <trkpt lat="47.40752" lon="-2.39879">
        <ele>3.4000000953674</ele>
        <time>2020-07-09T09:35:15.000Z</time>
      </trkpt>
      <trkpt lat="47.40699" lon="-2.39897">
        <ele>3.4000000953674</ele>
        <time>2020-07-09T09:35:24.000Z</time>
      </trkpt>
      <trkpt lat="47.40642" lon="-2.39918">
        <ele>3.4000000953674</ele>
        <time>2020-07-09T09:35:34.000Z</time>
      </trkpt>
      <trkpt lat="47.40603" lon="-2.39933">
        <ele>3.4000000953674</ele>
        <time>2020-07-09T09:35:41.000Z</time>
      </trkpt>
      <trkpt lat="47.40582" lon="-2.39942">
        <ele>3.4000000953674</ele>
        <time>2020-07-09T09:35:45.000Z</time>
      </trkpt>
      <trkpt lat="47.40568" lon="-2.39952">
        <ele>3.4000000953674</ele>
        <time>2020-07-09T09:35:48.000Z</time>
      </trkpt>
      <trkpt lat="47.40546" lon="-2.39966">
        <ele>3.4000000953674</ele>
        <time>2020-07-09T09:35:53.000Z</time>
      </trkpt>
      <trkpt lat="47.40535" lon="-2.39972">
        <ele>3.4000000953674</ele>
        <time>2020-07-09T09:35:55.000Z</time>
      </trkpt>
      <trkpt lat="47.40516" lon="-2.39994">
        <ele>3.4000000953674</ele>
        <time>2020-07-09T09:35:59.000Z</time>
      </trkpt>
      <trkpt lat="47.40483" lon="-2.40023">
        <ele>3.4000000953674</ele>
        <time>2020-07-09T09:36:05.000Z</time>
      </trkpt>
      <trkpt lat="47.40451" lon="-2.4005">
        <ele>3.4000000953674</ele>
        <time>2020-07-09T09:36:11.000Z</time>
      </trkpt>
      <trkpt lat="47.40431" lon="-2.40072">
        <ele>3.4000000953674</ele>
        <time>2020-07-09T09:36:15.000Z</time>
      </trkpt>
      <trkpt lat="47.40423" lon="-2.40081">
        <ele>3.4000000953674</ele>
        <time>2020-07-09T09:36:17.000Z</time>
      </trkpt>
      <trkpt lat="47.4041" lon="-2.40075">
        <ele>3.4000000953674</ele>
        <time>2020-07-09T09:36:20.000Z</time>
      </trkpt>
      <trkpt lat="47.40396" lon="-2.40056">
        <ele>3.4000000953674</ele>
        <time>2020-07-09T09:36:24.000Z</time>
      </trkpt>
      <trkpt lat="47.40382" lon="-2.4006">
        <ele>3.4000000953674</ele>
        <time>2020-07-09T09:36:27.000Z</time>
      </trkpt>
      <trkpt lat="47.40378" lon="-2.40063">
        <ele>3.4000000953674</ele>
        <time>2020-07-09T09:36:28.000Z</time>
      </trkpt>
      <trkpt lat="47.40348" lon="-2.4009">
        <ele>3.4000000953674</ele>
        <time>2020-07-09T09:36:35.000Z</time>
      </trkpt>
      <trkpt lat="47.40344" lon="-2.40095">
        <ele>3.4000000953674</ele>
        <time>2020-07-09T09:36:36.000Z</time>
      </trkpt>
      <trkpt lat="47.40333" lon="-2.40109">
        <ele>3.4000000953674</ele>
        <time>2020-07-09T09:36:39.000Z</time>
      </trkpt>
      <trkpt lat="47.40331" lon="-2.40116">
        <ele>3.4000000953674</ele>
        <time>2020-07-09T09:36:40.000Z</time>
      </trkpt>
      <trkpt lat="47.40335" lon="-2.40135">
        <ele>3.4000000953674</ele>
        <time>2020-07-09T09:36:43.000Z</time>
      </trkpt>
      <trkpt lat="47.40337" lon="-2.40139">
        <ele>3.4000000953674</ele>
        <time>2020-07-09T09:36:44.000Z</time>
      </trkpt>
      <trkpt lat="47.40346" lon="-2.40158">
        <ele>3.4000000953674</ele>
        <time>2020-07-09T09:36:48.000Z</time>
      </trkpt>
      <trkpt lat="47.40359" lon="-2.40192">
        <ele>3.4000000953674</ele>
        <time>2020-07-09T09:36:55.000Z</time>
      </trkpt>
      <trkpt lat="47.40358" lon="-2.40199">
        <ele>3.4000000953674</ele>
        <time>2020-07-09T09:36:56.000Z</time>
      </trkpt>
      <trkpt lat="47.4035" lon="-2.40216">
        <ele>3.4000000953674</ele>
        <time>2020-07-09T09:36:59.000Z</time>
      </trkpt>
      <trkpt lat="47.40346" lon="-2.40222">
        <ele>3.4000000953674</ele>
        <time>2020-07-09T09:37:00.000Z</time>
      </trkpt>
      <trkpt lat="47.40326" lon="-2.40261">
        <ele>3.4000000953674</ele>
        <time>2020-07-09T09:37:06.000Z</time>
      </trkpt>
      <trkpt lat="47.40316" lon="-2.40279">
        <ele>3.7999999523163</ele>
        <time>2020-07-09T09:37:09.000Z</time>
      </trkpt>
      <trkpt lat="47.40312" lon="-2.40285">
        <ele>4.4000000953674</ele>
        <time>2020-07-09T09:37:10.000Z</time>
      </trkpt>
      <trkpt lat="47.40309" lon="-2.40291">
        <ele>4.8000001907349</ele>
        <time>2020-07-09T09:37:11.000Z</time>
      </trkpt>
      <trkpt lat="47.40305" lon="-2.40297">
        <ele>5.1999998092651</ele>
        <time>2020-07-09T09:37:12.000Z</time>
      </trkpt>
      <trkpt lat="47.40301" lon="-2.40302">
        <ele>5.5999999046326</ele>
        <time>2020-07-09T09:37:13.000Z</time>
      </trkpt>
      <trkpt lat="47.40298" lon="-2.40308">
        <ele>5.5999999046326</ele>
        <time>2020-07-09T09:37:14.000Z</time>
      </trkpt>
      <trkpt lat="47.40262" lon="-2.40352">
        <ele>5.5999999046326</ele>
        <time>2020-07-09T09:37:23.000Z</time>
      </trkpt>
      <trkpt lat="47.40235" lon="-2.40383">
        <ele>5.5999999046326</ele>
        <time>2020-07-09T09:37:30.000Z</time>
      </trkpt>
      <trkpt lat="47.40232" lon="-2.40389">
        <ele>5.5999999046326</ele>
        <time>2020-07-09T09:37:31.000Z</time>
      </trkpt>
      <trkpt lat="47.40221" lon="-2.40406">
        <ele>6</ele>
        <time>2020-07-09T09:37:34.000Z</time>
      </trkpt>
      <trkpt lat="47.40217" lon="-2.40412">
        <ele>6.4000000953674</ele>
        <time>2020-07-09T09:37:35.000Z</time>
      </trkpt>
      <trkpt lat="47.40213" lon="-2.40418">
        <ele>6.8000001907349</ele>
        <time>2020-07-09T09:37:36.000Z</time>
      </trkpt>
      <trkpt lat="47.40209" lon="-2.40423">
        <ele>7.1999998092651</ele>
        <time>2020-07-09T09:37:37.000Z</time>
      </trkpt>
      <trkpt lat="47.40206" lon="-2.40428">
        <ele>7.5999999046326</ele>
        <time>2020-07-09T09:37:38.000Z</time>
      </trkpt>
      <trkpt lat="47.40191" lon="-2.40452">
        <ele>7.5999999046326</ele>
        <time>2020-07-09T09:37:42.000Z</time>
      </trkpt>
      <trkpt lat="47.40161" lon="-2.40503">
        <ele>7.5999999046326</ele>
        <time>2020-07-09T09:37:50.000Z</time>
      </trkpt>
      <trkpt lat="47.40134" lon="-2.40561">
        <ele>7.5999999046326</ele>
        <time>2020-07-09T09:37:58.000Z</time>
      </trkpt>
      <trkpt lat="47.40115" lon="-2.40617">
        <ele>7.5999999046326</ele>
        <time>2020-07-09T09:38:05.000Z</time>
      </trkpt>
      <trkpt lat="47.40098" lon="-2.40672">
        <ele>7.5999999046326</ele>
        <time>2020-07-09T09:38:12.000Z</time>
      </trkpt>
      <trkpt lat="47.40077" lon="-2.4074">
        <ele>7.5999999046326</ele>
        <time>2020-07-09T09:38:21.000Z</time>
      </trkpt>
      <trkpt lat="47.40072" lon="-2.40754">
        <ele>8</ele>
        <time>2020-07-09T09:38:23.000Z</time>
      </trkpt>
      <trkpt lat="47.4007" lon="-2.4076">
        <ele>8.6000003814697</ele>
        <time>2020-07-09T09:38:24.000Z</time>
      </trkpt>
      <trkpt lat="47.40068" lon="-2.40767">
        <ele>9</ele>
        <time>2020-07-09T09:38:25.000Z</time>
      </trkpt>
      <trkpt lat="47.40066" lon="-2.40773">
        <ele>9.3999996185303</ele>
        <time>2020-07-09T09:38:26.000Z</time>
      </trkpt>
      <trkpt lat="47.40064" lon="-2.40779">
        <ele>9.8000001907349</ele>
        <time>2020-07-09T09:38:27.000Z</time>
      </trkpt>
      <trkpt lat="47.40062" lon="-2.40785">
        <ele>9.8000001907349</ele>
        <time>2020-07-09T09:38:28.000Z</time>
      </trkpt>
      <trkpt lat="47.40046" lon="-2.40838">
        <ele>9.8000001907349</ele>
        <time>2020-07-09T09:38:37.000Z</time>
      </trkpt>
      <trkpt lat="47.40031" lon="-2.40887">
        <ele>9.8000001907349</ele>
        <time>2020-07-09T09:38:45.000Z</time>
      </trkpt>
      <trkpt lat="47.40019" lon="-2.4092">
        <ele>9.8000001907349</ele>
        <time>2020-07-09T09:38:50.000Z</time>
      </trkpt>
      <trkpt lat="47.40015" lon="-2.40932">
        <ele>9.8000001907349</ele>
        <time>2020-07-09T09:38:52.000Z</time>
      </trkpt>
      <trkpt lat="47.40003" lon="-2.40968">
        <ele>9.8000001907349</ele>
        <time>2020-07-09T09:38:59.000Z</time>
      </trkpt>
      <trkpt lat="47.40004" lon="-2.40973">
        <ele>9.3999996185303</ele>
        <time>2020-07-09T09:39:01.000Z</time>
      </trkpt>
      <trkpt lat="47.40004" lon="-2.40975">
        <ele>9</ele>
        <time>2020-07-09T09:39:02.000Z</time>
      </trkpt>
      <trkpt lat="47.40005" lon="-2.40976">
        <ele>8.6000003814697</ele>
        <time>2020-07-09T09:39:03.000Z</time>
      </trkpt>
      <trkpt lat="47.40006" lon="-2.40977">
        <ele>8.1999998092651</ele>
        <time>2020-07-09T09:39:04.000Z</time>
      </trkpt>
      <trkpt lat="47.40006" lon="-2.40977">
        <ele>7.8000001907349</ele>
        <time>2020-07-09T09:39:05.000Z</time>
      </trkpt>
      <trkpt lat="47.40007" lon="-2.40977">
        <ele>7.8000001907349</ele>
        <time>2020-07-09T09:39:06.000Z</time>
      </trkpt>
      <trkpt lat="47.40008" lon="-2.40978">
        <ele>7.8000001907349</ele>
        <time>2020-07-09T09:39:21.000Z</time>
      </trkpt>
      <trkpt lat="47.40009" lon="-2.4098">
        <ele>7.8000001907349</ele>
        <time>2020-07-09T09:39:22.000Z</time>
      </trkpt>
      <trkpt lat="47.40022" lon="-2.4099">
        <ele>7.8000001907349</ele>
        <time>2020-07-09T09:39:26.000Z</time>
      </trkpt>
      <trkpt lat="47.40051" lon="-2.41014">
        <ele>7.8000001907349</ele>
        <time>2020-07-09T09:39:32.000Z</time>
      </trkpt>
      <trkpt lat="47.40082" lon="-2.4104">
        <ele>7.8000001907349</ele>
        <time>2020-07-09T09:39:37.000Z</time>
      </trkpt>
      <trkpt lat="47.40132" lon="-2.41084">
        <ele>7.4000000953674</ele>
        <time>2020-07-09T09:39:44.000Z</time>
      </trkpt>
      <trkpt lat="47.40139" lon="-2.4109">
        <ele>7</ele>
        <time>2020-07-09T09:39:45.000Z</time>
      </trkpt>
      <trkpt lat="47.40146" lon="-2.41096">
        <ele>6.5999999046326</ele>
        <time>2020-07-09T09:39:46.000Z</time>
      </trkpt>
      <trkpt lat="47.40153" lon="-2.41103">
        <ele>6.1999998092651</ele>
        <time>2020-07-09T09:39:47.000Z</time>
      </trkpt>
      <trkpt lat="47.4016" lon="-2.4111">
        <ele>5.8000001907349</ele>
        <time>2020-07-09T09:39:48.000Z</time>
      </trkpt>
      <trkpt lat="47.40178" lon="-2.4113">
        <ele>5.8000001907349</ele>
        <time>2020-07-09T09:39:51.000Z</time>
      </trkpt>
      <trkpt lat="47.40217" lon="-2.41187">
        <ele>5.8000001907349</ele>
        <time>2020-07-09T09:39:58.000Z</time>
      </trkpt>
      <trkpt lat="47.40241" lon="-2.4123">
        <ele>5.8000001907349</ele>
        <time>2020-07-09T09:40:05.000Z</time>
      </trkpt>
      <trkpt lat="47.40248" lon="-2.41244">
        <ele>6.1999998092651</ele>
        <time>2020-07-09T09:40:07.000Z</time>
      </trkpt>
      <trkpt lat="47.40251" lon="-2.4125">
        <ele>6.5999999046326</ele>
        <time>2020-07-09T09:40:08.000Z</time>
      </trkpt>
      <trkpt lat="47.40254" lon="-2.41257">
        <ele>7</ele>
        <time>2020-07-09T09:40:09.000Z</time>
      </trkpt>
      <trkpt lat="47.40257" lon="-2.41263">
        <ele>7.4000000953674</ele>
        <time>2020-07-09T09:40:10.000Z</time>
      </trkpt>
      <trkpt lat="47.40261" lon="-2.4127">
        <ele>7.8000001907349</ele>
        <time>2020-07-09T09:40:11.000Z</time>
      </trkpt>
      <trkpt lat="47.40268" lon="-2.41284">
        <ele>7.8000001907349</ele>
        <time>2020-07-09T09:40:13.000Z</time>
      </trkpt>
      <trkpt lat="47.40275" lon="-2.41299">
        <ele>8.1999998092651</ele>
        <time>2020-07-09T09:40:15.000Z</time>
      </trkpt>
      <trkpt lat="47.40278" lon="-2.41306">
        <ele>8.8000001907349</ele>
        <time>2020-07-09T09:40:16.000Z</time>
      </trkpt>
      <trkpt lat="47.40281" lon="-2.41312">
        <ele>9.1999998092651</ele>
        <time>2020-07-09T09:40:17.000Z</time>
      </trkpt>
      <trkpt lat="47.40284" lon="-2.41319">
        <ele>9.6000003814697</ele>
        <time>2020-07-09T09:40:18.000Z</time>
      </trkpt>
      <trkpt lat="47.40286" lon="-2.41326">
        <ele>10</ele>
        <time>2020-07-09T09:40:19.000Z</time>
      </trkpt>
      <trkpt lat="47.4029" lon="-2.41332">
        <ele>10</ele>
        <time>2020-07-09T09:40:20.000Z</time>
      </trkpt>
      <trkpt lat="47.40306" lon="-2.41369">
        <ele>10</ele>
        <time>2020-07-09T09:40:26.000Z</time>
      </trkpt>
      <trkpt lat="47.40307" lon="-2.41389">
        <ele>10</ele>
        <time>2020-07-09T09:40:30.000Z</time>
      </trkpt>
      <trkpt lat="47.40305" lon="-2.41398">
        <ele>10</ele>
        <time>2020-07-09T09:40:32.000Z</time>
      </trkpt>
      <trkpt lat="47.403" lon="-2.41416">
        <ele>10.39999961853</ele>
        <time>2020-07-09T09:40:36.000Z</time>
      </trkpt>
      <trkpt lat="47.40298" lon="-2.41422">
        <ele>10.800000190735</ele>
        <time>2020-07-09T09:40:37.000Z</time>
      </trkpt>
      <trkpt lat="47.40297" lon="-2.41428">
        <ele>11.199999809265</ele>
        <time>2020-07-09T09:40:38.000Z</time>
      </trkpt>
      <trkpt lat="47.40295" lon="-2.41433">
        <ele>11.60000038147</ele>
        <time>2020-07-09T09:40:39.000Z</time>
      </trkpt>
      <trkpt lat="47.40294" lon="-2.41439">
        <ele>12</ele>
        <time>2020-07-09T09:40:40.000Z</time>
      </trkpt>
      <trkpt lat="47.40289" lon="-2.41457">
        <ele>12</ele>
        <time>2020-07-09T09:40:43.000Z</time>
      </trkpt>
      <trkpt lat="47.40286" lon="-2.41469">
        <ele>12</ele>
        <time>2020-07-09T09:40:45.000Z</time>
      </trkpt>
      <trkpt lat="47.40273" lon="-2.41519">
        <ele>12</ele>
        <time>2020-07-09T09:40:52.000Z</time>
      </trkpt>
      <trkpt lat="47.40259" lon="-2.41572">
        <ele>12</ele>
        <time>2020-07-09T09:40:59.000Z</time>
      </trkpt>
      <trkpt lat="47.4024" lon="-2.41647">
        <ele>12</ele>
        <time>2020-07-09T09:41:08.000Z</time>
      </trkpt>
      <trkpt lat="47.40238" lon="-2.41656">
        <ele>12</ele>
        <time>2020-07-09T09:41:09.000Z</time>
      </trkpt>
      <trkpt lat="47.40225" lon="-2.41709">
        <ele>12</ele>
        <time>2020-07-09T09:41:16.000Z</time>
      </trkpt>
      <trkpt lat="47.40212" lon="-2.4176">
        <ele>12</ele>
        <time>2020-07-09T09:41:23.000Z</time>
      </trkpt>
      <trkpt lat="47.40206" lon="-2.41783">
        <ele>12.39999961853</ele>
        <time>2020-07-09T09:41:26.000Z</time>
      </trkpt>
      <trkpt lat="47.40204" lon="-2.4179">
        <ele>12.800000190735</ele>
        <time>2020-07-09T09:41:27.000Z</time>
      </trkpt>
      <trkpt lat="47.40203" lon="-2.41798">
        <ele>13.199999809265</ele>
        <time>2020-07-09T09:41:28.000Z</time>
      </trkpt>
      <trkpt lat="47.40201" lon="-2.41806">
        <ele>13.800000190735</ele>
        <time>2020-07-09T09:41:29.000Z</time>
      </trkpt>
      <trkpt lat="47.40199" lon="-2.41813">
        <ele>14.199999809265</ele>
        <time>2020-07-09T09:41:30.000Z</time>
      </trkpt>
      <trkpt lat="47.40195" lon="-2.41828">
        <ele>14.199999809265</ele>
        <time>2020-07-09T09:41:32.000Z</time>
      </trkpt>
      <trkpt lat="47.40182" lon="-2.41874">
        <ele>14.199999809265</ele>
        <time>2020-07-09T09:41:39.000Z</time>
      </trkpt>
      <trkpt lat="47.40177" lon="-2.41899">
        <ele>14.199999809265</ele>
        <time>2020-07-09T09:41:44.000Z</time>
      </trkpt>
      <trkpt lat="47.40184" lon="-2.41921">
        <ele>14.199999809265</ele>
        <time>2020-07-09T09:41:48.000Z</time>
      </trkpt>
      <trkpt lat="47.40187" lon="-2.41927">
        <ele>14.199999809265</ele>
        <time>2020-07-09T09:41:49.000Z</time>
      </trkpt>
      <trkpt lat="47.40201" lon="-2.41951">
        <ele>14.199999809265</ele>
        <time>2020-07-09T09:41:53.000Z</time>
      </trkpt>
      <trkpt lat="47.40222" lon="-2.41996">
        <ele>14.199999809265</ele>
        <time>2020-07-09T09:42:00.000Z</time>
      </trkpt>
      <trkpt lat="47.4024" lon="-2.42056">
        <ele>14.199999809265</ele>
        <time>2020-07-09T09:42:08.000Z</time>
      </trkpt>
      <trkpt lat="47.40255" lon="-2.42116">
        <ele>14.199999809265</ele>
        <time>2020-07-09T09:42:15.000Z</time>
      </trkpt>
      <trkpt lat="47.40276" lon="-2.42193">
        <ele>14.199999809265</ele>
        <time>2020-07-09T09:42:23.000Z</time>
      </trkpt>
      <trkpt lat="47.40282" lon="-2.42212">
        <ele>13.199999809265</ele>
        <time>2020-07-09T09:42:25.000Z</time>
      </trkpt>
      <trkpt lat="47.40285" lon="-2.42221">
        <ele>12.800000190735</ele>
        <time>2020-07-09T09:42:26.000Z</time>
      </trkpt>
      <trkpt lat="47.40289" lon="-2.42231">
        <ele>12.39999961853</ele>
        <time>2020-07-09T09:42:27.000Z</time>
      </trkpt>
      <trkpt lat="47.40293" lon="-2.4224">
        <ele>12</ele>
        <time>2020-07-09T09:42:28.000Z</time>
      </trkpt>
      <trkpt lat="47.40301" lon="-2.42259">
        <ele>12</ele>
        <time>2020-07-09T09:42:30.000Z</time>
      </trkpt>
      <trkpt lat="47.40333" lon="-2.42327">
        <ele>12</ele>
        <time>2020-07-09T09:42:38.000Z</time>
      </trkpt>
      <trkpt lat="47.4036" lon="-2.4237">
        <ele>12</ele>
        <time>2020-07-09T09:42:44.000Z</time>
      </trkpt>
      <trkpt lat="47.40381" lon="-2.42413">
        <ele>12</ele>
        <time>2020-07-09T09:42:50.000Z</time>
      </trkpt>
      <trkpt lat="47.40384" lon="-2.4242">
        <ele>12</ele>
        <time>2020-07-09T09:42:51.000Z</time>
      </trkpt>
      <trkpt lat="47.4039" lon="-2.42438">
        <ele>12</ele>
        <time>2020-07-09T09:42:54.000Z</time>
      </trkpt>
      <trkpt lat="47.40393" lon="-2.42443">
        <ele>12</ele>
        <time>2020-07-09T09:42:55.000Z</time>
      </trkpt>
      <trkpt lat="47.40407" lon="-2.42481">
        <ele>12</ele>
        <time>2020-07-09T09:43:03.000Z</time>
      </trkpt>
      <trkpt lat="47.40419" lon="-2.42517">
        <ele>12</ele>
        <time>2020-07-09T09:43:11.000Z</time>
      </trkpt>
      <trkpt lat="47.40435" lon="-2.42546">
        <ele>12</ele>
        <time>2020-07-09T09:43:18.000Z</time>
      </trkpt>
      <trkpt lat="47.40441" lon="-2.42571">
        <ele>12</ele>
        <time>2020-07-09T09:43:24.000Z</time>
      </trkpt>
      <trkpt lat="47.40431" lon="-2.42585">
        <ele>12</ele>
        <time>2020-07-09T09:43:28.000Z</time>
      </trkpt>
      <trkpt lat="47.40413" lon="-2.42603">
        <ele>12</ele>
        <time>2020-07-09T09:43:34.000Z</time>
      </trkpt>
      <trkpt lat="47.4041" lon="-2.42612">
        <ele>12</ele>
        <time>2020-07-09T09:43:36.000Z</time>
      </trkpt>
      <trkpt lat="47.40411" lon="-2.42617">
        <ele>12</ele>
        <time>2020-07-09T09:43:37.000Z</time>
      </trkpt>
      <trkpt lat="47.40412" lon="-2.42645">
        <ele>12</ele>
        <time>2020-07-09T09:43:42.000Z</time>
      </trkpt>
      <trkpt lat="47.40403" lon="-2.42663">
        <ele>12</ele>
        <time>2020-07-09T09:43:46.000Z</time>
      </trkpt>
      <trkpt lat="47.40388" lon="-2.42674">
        <ele>12</ele>
        <time>2020-07-09T09:43:51.000Z</time>
      </trkpt>
      <trkpt lat="47.40375" lon="-2.42675">
        <ele>12</ele>
        <time>2020-07-09T09:43:56.000Z</time>
      </trkpt>
      <trkpt lat="47.40361" lon="-2.42677">
        <ele>12</ele>
        <time>2020-07-09T09:44:02.000Z</time>
      </trkpt>
      <trkpt lat="47.40342" lon="-2.42685">
        <ele>12</ele>
        <time>2020-07-09T09:44:10.000Z</time>
      </trkpt>
      <trkpt lat="47.40339" lon="-2.42685">
        <ele>12</ele>
        <time>2020-07-09T09:44:13.000Z</time>
      </trkpt>
      <trkpt lat="47.40343" lon="-2.42686">
        <ele>9.8000001907349</ele>
        <time>2020-07-09T09:46:02.000Z</time>
      </trkpt>
      <trkpt lat="47.40345" lon="-2.42685">
        <ele>9.8000001907349</ele>
        <time>2020-07-09T09:46:03.000Z</time>
      </trkpt>
      <trkpt lat="47.40361" lon="-2.4268">
        <ele>9.8000001907349</ele>
        <time>2020-07-09T09:46:09.000Z</time>
      </trkpt>
      <trkpt lat="47.40389" lon="-2.42675">
        <ele>9.8000001907349</ele>
        <time>2020-07-09T09:46:16.000Z</time>
      </trkpt>
      <trkpt lat="47.40392" lon="-2.42684">
        <ele>9.8000001907349</ele>
        <time>2020-07-09T09:46:18.000Z</time>
      </trkpt>
      <trkpt lat="47.40392" lon="-2.42691">
        <ele>9.8000001907349</ele>
        <time>2020-07-09T09:46:19.000Z</time>
      </trkpt>
      <trkpt lat="47.4039" lon="-2.42723">
        <ele>9.8000001907349</ele>
        <time>2020-07-09T09:46:24.000Z</time>
      </trkpt>
      <trkpt lat="47.40386" lon="-2.42772">
        <ele>9.8000001907349</ele>
        <time>2020-07-09T09:46:31.000Z</time>
      </trkpt>
      <trkpt lat="47.40384" lon="-2.4278">
        <ele>9.8000001907349</ele>
        <time>2020-07-09T09:46:32.000Z</time>
      </trkpt>
      <trkpt lat="47.40373" lon="-2.428">
        <ele>9.8000001907349</ele>
        <time>2020-07-09T09:46:35.000Z</time>
      </trkpt>
      <trkpt lat="47.40369" lon="-2.42807">
        <ele>9.8000001907349</ele>
        <time>2020-07-09T09:46:36.000Z</time>
      </trkpt>
      <trkpt lat="47.40345" lon="-2.42847">
        <ele>9.8000001907349</ele>
        <time>2020-07-09T09:46:41.000Z</time>
      </trkpt>
      <trkpt lat="47.40339" lon="-2.42854">
        <ele>9.8000001907349</ele>
        <time>2020-07-09T09:46:42.000Z</time>
      </trkpt>
      <trkpt lat="47.40325" lon="-2.42857">
        <ele>9.1999998092651</ele>
        <time>2020-07-09T09:46:44.000Z</time>
      </trkpt>
      <trkpt lat="47.40319" lon="-2.42853">
        <ele>8.8000001907349</ele>
        <time>2020-07-09T09:46:45.000Z</time>
      </trkpt>
      <trkpt lat="47.40314" lon="-2.42848">
        <ele>8.3999996185303</ele>
        <time>2020-07-09T09:46:46.000Z</time>
      </trkpt>
      <trkpt lat="47.40308" lon="-2.42841">
        <ele>7.8000001907349</ele>
        <time>2020-07-09T09:46:47.000Z</time>
      </trkpt>
      <trkpt lat="47.40302" lon="-2.42835">
        <ele>7.4000000953674</ele>
        <time>2020-07-09T09:46:48.000Z</time>
      </trkpt>
      <trkpt lat="47.40282" lon="-2.42825">
        <ele>7.4000000953674</ele>
        <time>2020-07-09T09:46:51.000Z</time>
      </trkpt>
      <trkpt lat="47.40264" lon="-2.42828">
        <ele>7.4000000953674</ele>
        <time>2020-07-09T09:46:54.000Z</time>
      </trkpt>
      <trkpt lat="47.40227" lon="-2.42828">
        <ele>7.4000000953674</ele>
        <time>2020-07-09T09:47:00.000Z</time>
      </trkpt>
      <trkpt lat="47.4022" lon="-2.42828">
        <ele>7.4000000953674</ele>
        <time>2020-07-09T09:47:01.000Z</time>
      </trkpt>
      <trkpt lat="47.40191" lon="-2.42825">
        <ele>7.4000000953674</ele>
        <time>2020-07-09T09:47:06.000Z</time>
      </trkpt>
      <trkpt lat="47.40185" lon="-2.42826">
        <ele>7.8000001907349</ele>
        <time>2020-07-09T09:47:07.000Z</time>
      </trkpt>
      <trkpt lat="47.40179" lon="-2.42826">
        <ele>8.1999998092651</ele>
        <time>2020-07-09T09:47:08.000Z</time>
      </trkpt>
      <trkpt lat="47.40172" lon="-2.42827">
        <ele>8.6000003814697</ele>
        <time>2020-07-09T09:47:09.000Z</time>
      </trkpt>
      <trkpt lat="47.40166" lon="-2.42828">
        <ele>9</ele>
        <time>2020-07-09T09:47:10.000Z</time>
      </trkpt>
      <trkpt lat="47.40159" lon="-2.42829">
        <ele>9.3999996185303</ele>
        <time>2020-07-09T09:47:11.000Z</time>
      </trkpt>
      <trkpt lat="47.40132" lon="-2.42839">
        <ele>9.3999996185303</ele>
        <time>2020-07-09T09:47:15.000Z</time>
      </trkpt>
      <trkpt lat="47.40126" lon="-2.42845">
        <ele>9.3999996185303</ele>
        <time>2020-07-09T09:47:16.000Z</time>
      </trkpt>
      <trkpt lat="47.40105" lon="-2.42873">
        <ele>9.3999996185303</ele>
        <time>2020-07-09T09:47:20.000Z</time>
      </trkpt>
      <trkpt lat="47.40083" lon="-2.42899">
        <ele>9.8000001907349</ele>
        <time>2020-07-09T09:47:24.000Z</time>
      </trkpt>
      <trkpt lat="47.40077" lon="-2.42906">
        <ele>10.199999809265</ele>
        <time>2020-07-09T09:47:25.000Z</time>
      </trkpt>
      <trkpt lat="47.40072" lon="-2.42912">
        <ele>10.60000038147</ele>
        <time>2020-07-09T09:47:26.000Z</time>
      </trkpt>
      <trkpt lat="47.40066" lon="-2.42918">
        <ele>11.199999809265</ele>
        <time>2020-07-09T09:47:27.000Z</time>
      </trkpt>
      <trkpt lat="47.4006" lon="-2.42925">
        <ele>11.60000038147</ele>
        <time>2020-07-09T09:47:28.000Z</time>
      </trkpt>
      <trkpt lat="47.40055" lon="-2.42929">
        <ele>11.60000038147</ele>
        <time>2020-07-09T09:47:29.000Z</time>
      </trkpt>
      <trkpt lat="47.40044" lon="-2.42938">
        <ele>11.60000038147</ele>
        <time>2020-07-09T09:47:31.000Z</time>
      </trkpt>
      <trkpt lat="47.40042" lon="-2.42944">
        <ele>11.60000038147</ele>
        <time>2020-07-09T09:47:32.000Z</time>
      </trkpt>
      <trkpt lat="47.4004" lon="-2.42959">
        <ele>11.60000038147</ele>
        <time>2020-07-09T09:47:34.000Z</time>
      </trkpt>
      <trkpt lat="47.40041" lon="-2.42982">
        <ele>11.60000038147</ele>
        <time>2020-07-09T09:47:37.000Z</time>
      </trkpt>
      <trkpt lat="47.40043" lon="-2.42997">
        <ele>11.60000038147</ele>
        <time>2020-07-09T09:47:39.000Z</time>
      </trkpt>
      <trkpt lat="47.40053" lon="-2.43035">
        <ele>11.60000038147</ele>
        <time>2020-07-09T09:47:44.000Z</time>
      </trkpt>
      <trkpt lat="47.40074" lon="-2.43085">
        <ele>11.60000038147</ele>
        <time>2020-07-09T09:47:51.000Z</time>
      </trkpt>
      <trkpt lat="47.40077" lon="-2.431">
        <ele>11.60000038147</ele>
        <time>2020-07-09T09:47:55.000Z</time>
      </trkpt>
      <trkpt lat="47.40075" lon="-2.43107">
        <ele>11.60000038147</ele>
        <time>2020-07-09T09:47:58.000Z</time>
      </trkpt>
      <trkpt lat="47.40071" lon="-2.4311">
        <ele>11.60000038147</ele>
        <time>2020-07-09T09:48:00.000Z</time>
      </trkpt>
      <trkpt lat="47.40058" lon="-2.43116">
        <ele>11.60000038147</ele>
        <time>2020-07-09T09:48:06.000Z</time>
      </trkpt>
      <trkpt lat="47.40041" lon="-2.43129">
        <ele>11.60000038147</ele>
        <time>2020-07-09T09:48:11.000Z</time>
      </trkpt>
      <trkpt lat="47.40018" lon="-2.43146">
        <ele>11.60000038147</ele>
        <time>2020-07-09T09:48:17.000Z</time>
      </trkpt>
      <trkpt lat="47.4001" lon="-2.43151">
        <ele>12</ele>
        <time>2020-07-09T09:48:19.000Z</time>
      </trkpt>
      <trkpt lat="47.40007" lon="-2.43153">
        <ele>12.39999961853</ele>
        <time>2020-07-09T09:48:20.000Z</time>
      </trkpt>
      <trkpt lat="47.40003" lon="-2.43156">
        <ele>12.800000190735</ele>
        <time>2020-07-09T09:48:21.000Z</time>
      </trkpt>
      <trkpt lat="47.4" lon="-2.43158">
        <ele>13.199999809265</ele>
        <time>2020-07-09T09:48:22.000Z</time>
      </trkpt>
      <trkpt lat="47.39996" lon="-2.43161">
        <ele>13.60000038147</ele>
        <time>2020-07-09T09:48:23.000Z</time>
      </trkpt>
      <trkpt lat="47.39988" lon="-2.43165">
        <ele>13.60000038147</ele>
        <time>2020-07-09T09:48:25.000Z</time>
      </trkpt>
      <trkpt lat="47.39958" lon="-2.43186">
        <ele>13.60000038147</ele>
        <time>2020-07-09T09:48:32.000Z</time>
      </trkpt>
      <trkpt lat="47.39921" lon="-2.43209">
        <ele>13.60000038147</ele>
        <time>2020-07-09T09:48:39.000Z</time>
      </trkpt>
      <trkpt lat="47.39887" lon="-2.43234">
        <ele>13.60000038147</ele>
        <time>2020-07-09T09:48:45.000Z</time>
      </trkpt>
      <trkpt lat="47.39849" lon="-2.4326">
        <ele>13.60000038147</ele>
        <time>2020-07-09T09:48:51.000Z</time>
      </trkpt>
      <trkpt lat="47.39801" lon="-2.43292">
        <ele>13.60000038147</ele>
        <time>2020-07-09T09:48:58.000Z</time>
      </trkpt>
      <trkpt lat="47.3975" lon="-2.43328">
        <ele>13.60000038147</ele>
        <time>2020-07-09T09:49:06.000Z</time>
      </trkpt>
      <trkpt lat="47.39699" lon="-2.43361">
        <ele>13.60000038147</ele>
        <time>2020-07-09T09:49:14.000Z</time>
      </trkpt>
      <trkpt lat="47.39649" lon="-2.43397">
        <ele>13.60000038147</ele>
        <time>2020-07-09T09:49:22.000Z</time>
      </trkpt>
      <trkpt lat="47.39632" lon="-2.4341">
        <ele>12.800000190735</ele>
        <time>2020-07-09T09:49:25.000Z</time>
      </trkpt>
      <trkpt lat="47.39627" lon="-2.43414">
        <ele>12.39999961853</ele>
        <time>2020-07-09T09:49:26.000Z</time>
      </trkpt>
      <trkpt lat="47.39621" lon="-2.43417">
        <ele>12</ele>
        <time>2020-07-09T09:49:27.000Z</time>
      </trkpt>
      <trkpt lat="47.39616" lon="-2.43421">
        <ele>11.39999961853</ele>
        <time>2020-07-09T09:49:28.000Z</time>
      </trkpt>
      <trkpt lat="47.39605" lon="-2.43429">
        <ele>11.39999961853</ele>
        <time>2020-07-09T09:49:30.000Z</time>
      </trkpt>
      <trkpt lat="47.39569" lon="-2.43454">
        <ele>11.39999961853</ele>
        <time>2020-07-09T09:49:37.000Z</time>
      </trkpt>
      <trkpt lat="47.39528" lon="-2.43484">
        <ele>11.39999961853</ele>
        <time>2020-07-09T09:49:45.000Z</time>
      </trkpt>
      <trkpt lat="47.3949" lon="-2.4351">
        <ele>11.39999961853</ele>
        <time>2020-07-09T09:49:51.000Z</time>
      </trkpt>
      <trkpt lat="47.39469" lon="-2.43526">
        <ele>11</ele>
        <time>2020-07-09T09:49:54.000Z</time>
      </trkpt>
      <trkpt lat="47.39462" lon="-2.43531">
        <ele>10.60000038147</ele>
        <time>2020-07-09T09:49:55.000Z</time>
      </trkpt>
      <trkpt lat="47.39455" lon="-2.43536">
        <ele>10.199999809265</ele>
        <time>2020-07-09T09:49:56.000Z</time>
      </trkpt>
      <trkpt lat="47.39448" lon="-2.43541">
        <ele>9.8000001907349</ele>
        <time>2020-07-09T09:49:57.000Z</time>
      </trkpt>
      <trkpt lat="47.39442" lon="-2.43545">
        <ele>9.3999996185303</ele>
        <time>2020-07-09T09:49:58.000Z</time>
      </trkpt>
      <trkpt lat="47.39403" lon="-2.43564">
        <ele>9.3999996185303</ele>
        <time>2020-07-09T09:50:04.000Z</time>
      </trkpt>
      <trkpt lat="47.39376" lon="-2.43569">
        <ele>9.3999996185303</ele>
        <time>2020-07-09T09:50:09.000Z</time>
      </trkpt>
      <trkpt lat="47.39352" lon="-2.43573">
        <ele>10.199999809265</ele>
        <time>2020-07-09T09:50:14.000Z</time>
      </trkpt>
      <trkpt lat="47.39347" lon="-2.43574">
        <ele>10.800000190735</ele>
        <time>2020-07-09T09:50:15.000Z</time>
      </trkpt>
      <trkpt lat="47.39343" lon="-2.43574">
        <ele>11.199999809265</ele>
        <time>2020-07-09T09:50:16.000Z</time>
      </trkpt>
      <trkpt lat="47.39339" lon="-2.43576">
        <ele>11.60000038147</ele>
        <time>2020-07-09T09:50:17.000Z</time>
      </trkpt>
      <trkpt lat="47.3933" lon="-2.43578">
        <ele>12</ele>
        <time>2020-07-09T09:50:19.000Z</time>
      </trkpt>
      <trkpt lat="47.39326" lon="-2.43578">
        <ele>12.39999961853</ele>
        <time>2020-07-09T09:50:20.000Z</time>
      </trkpt>
      <trkpt lat="47.39322" lon="-2.43579">
        <ele>12.800000190735</ele>
        <time>2020-07-09T09:50:21.000Z</time>
      </trkpt>
      <trkpt lat="47.39317" lon="-2.4358">
        <ele>13.199999809265</ele>
        <time>2020-07-09T09:50:22.000Z</time>
      </trkpt>
      <trkpt lat="47.39313" lon="-2.4358">
        <ele>13.60000038147</ele>
        <time>2020-07-09T09:50:23.000Z</time>
      </trkpt>
      <trkpt lat="47.39304" lon="-2.43581">
        <ele>13.60000038147</ele>
        <time>2020-07-09T09:50:25.000Z</time>
      </trkpt>
      <trkpt lat="47.39275" lon="-2.43586">
        <ele>14</ele>
        <time>2020-07-09T09:50:31.000Z</time>
      </trkpt>
      <trkpt lat="47.39271" lon="-2.43587">
        <ele>14.39999961853</ele>
        <time>2020-07-09T09:50:32.000Z</time>
      </trkpt>
      <trkpt lat="47.39266" lon="-2.43589">
        <ele>15</ele>
        <time>2020-07-09T09:50:33.000Z</time>
      </trkpt>
      <trkpt lat="47.39261" lon="-2.43589">
        <ele>15.39999961853</ele>
        <time>2020-07-09T09:50:34.000Z</time>
      </trkpt>
      <trkpt lat="47.39256" lon="-2.4359">
        <ele>15.800000190735</ele>
        <time>2020-07-09T09:50:35.000Z</time>
      </trkpt>
      <trkpt lat="47.39242" lon="-2.43592">
        <ele>15.800000190735</ele>
        <time>2020-07-09T09:50:38.000Z</time>
      </trkpt>
      <trkpt lat="47.39212" lon="-2.43599">
        <ele>15.800000190735</ele>
        <time>2020-07-09T09:50:44.000Z</time>
      </trkpt>
      <trkpt lat="47.39196" lon="-2.43603">
        <ele>15.800000190735</ele>
        <time>2020-07-09T09:50:47.000Z</time>
      </trkpt>
      <trkpt lat="47.3918" lon="-2.43606">
        <ele>15.800000190735</ele>
        <time>2020-07-09T09:50:50.000Z</time>
      </trkpt>
      <trkpt lat="47.39137" lon="-2.43614">
        <ele>15.800000190735</ele>
        <time>2020-07-09T09:50:58.000Z</time>
      </trkpt>
      <trkpt lat="47.39106" lon="-2.43619">
        <ele>15.800000190735</ele>
        <time>2020-07-09T09:51:03.000Z</time>
      </trkpt>
      <trkpt lat="47.391" lon="-2.4362">
        <ele>15.800000190735</ele>
        <time>2020-07-09T09:51:04.000Z</time>
      </trkpt>
      <trkpt lat="47.39093" lon="-2.43622">
        <ele>15.39999961853</ele>
        <time>2020-07-09T09:51:05.000Z</time>
      </trkpt>
      <trkpt lat="47.39086" lon="-2.43625">
        <ele>15</ele>
        <time>2020-07-09T09:51:06.000Z</time>
      </trkpt>
      <trkpt lat="47.39079" lon="-2.43628">
        <ele>14.60000038147</ele>
        <time>2020-07-09T09:51:07.000Z</time>
      </trkpt>
      <trkpt lat="47.39072" lon="-2.43631">
        <ele>14.199999809265</ele>
        <time>2020-07-09T09:51:08.000Z</time>
      </trkpt>
      <trkpt lat="47.39065" lon="-2.43634">
        <ele>13.800000190735</ele>
        <time>2020-07-09T09:51:09.000Z</time>
      </trkpt>
      <trkpt lat="47.39041" lon="-2.43649">
        <ele>13.199999809265</ele>
        <time>2020-07-09T09:51:13.000Z</time>
      </trkpt>
      <trkpt lat="47.39037" lon="-2.43654">
        <ele>12.800000190735</ele>
        <time>2020-07-09T09:51:14.000Z</time>
      </trkpt>
      <trkpt lat="47.39034" lon="-2.43662">
        <ele>12.39999961853</ele>
        <time>2020-07-09T09:51:15.000Z</time>
      </trkpt>
      <trkpt lat="47.3903" lon="-2.43669">
        <ele>12</ele>
        <time>2020-07-09T09:51:16.000Z</time>
      </trkpt>
      <trkpt lat="47.39026" lon="-2.43674">
        <ele>11.39999961853</ele>
        <time>2020-07-09T09:51:17.000Z</time>
      </trkpt>
      <trkpt lat="47.39022" lon="-2.43679">
        <ele>11.39999961853</ele>
        <time>2020-07-09T09:51:18.000Z</time>
      </trkpt>
      <trkpt lat="47.39" lon="-2.43716">
        <ele>11.39999961853</ele>
        <time>2020-07-09T09:51:25.000Z</time>
      </trkpt>
      <trkpt lat="47.38999" lon="-2.43721">
        <ele>11</ele>
        <time>2020-07-09T09:51:26.000Z</time>
      </trkpt>
      <trkpt lat="47.38997" lon="-2.43726">
        <ele>10.60000038147</ele>
        <time>2020-07-09T09:51:27.000Z</time>
      </trkpt>
      <trkpt lat="47.38995" lon="-2.43731">
        <ele>9.8000001907349</ele>
        <time>2020-07-09T09:51:28.000Z</time>
      </trkpt>
      <trkpt lat="47.38995" lon="-2.43739">
        <ele>9.3999996185303</ele>
        <time>2020-07-09T09:51:29.000Z</time>
      </trkpt>
      <trkpt lat="47.38994" lon="-2.43746">
        <ele>9.3999996185303</ele>
        <time>2020-07-09T09:51:30.000Z</time>
      </trkpt>
      <trkpt lat="47.38994" lon="-2.43754">
        <ele>9.3999996185303</ele>
        <time>2020-07-09T09:51:31.000Z</time>
      </trkpt>
      <trkpt lat="47.38996" lon="-2.43783">
        <ele>9.3999996185303</ele>
        <time>2020-07-09T09:51:35.000Z</time>
      </trkpt>
      <trkpt lat="47.38998" lon="-2.43839">
        <ele>9.3999996185303</ele>
        <time>2020-07-09T09:51:42.000Z</time>
      </trkpt>
      <trkpt lat="47.38998" lon="-2.43874">
        <ele>9.3999996185303</ele>
        <time>2020-07-09T09:51:46.000Z</time>
      </trkpt>
      <trkpt lat="47.38998" lon="-2.4389">
        <ele>9.3999996185303</ele>
        <time>2020-07-09T09:51:48.000Z</time>
      </trkpt>
      <trkpt lat="47.38996" lon="-2.43914">
        <ele>9.3999996185303</ele>
        <time>2020-07-09T09:51:51.000Z</time>
      </trkpt>
      <trkpt lat="47.38997" lon="-2.43932">
        <ele>9.3999996185303</ele>
        <time>2020-07-09T09:51:53.000Z</time>
      </trkpt>
      <trkpt lat="47.38997" lon="-2.43967">
        <ele>9.3999996185303</ele>
        <time>2020-07-09T09:51:57.000Z</time>
      </trkpt>
      <trkpt lat="47.38997" lon="-2.43985">
        <ele>9.3999996185303</ele>
        <time>2020-07-09T09:51:59.000Z</time>
      </trkpt>
      <trkpt lat="47.38998" lon="-2.44013">
        <ele>9.8000001907349</ele>
        <time>2020-07-09T09:52:02.000Z</time>
      </trkpt>
      <trkpt lat="47.38999" lon="-2.44021">
        <ele>10.199999809265</ele>
        <time>2020-07-09T09:52:03.000Z</time>
      </trkpt>
      <trkpt lat="47.38999" lon="-2.4403">
        <ele>10.800000190735</ele>
        <time>2020-07-09T09:52:04.000Z</time>
      </trkpt>
      <trkpt lat="47.38999" lon="-2.44038">
        <ele>11.199999809265</ele>
        <time>2020-07-09T09:52:05.000Z</time>
      </trkpt>
      <trkpt lat="47.38999" lon="-2.44046">
        <ele>11.60000038147</ele>
        <time>2020-07-09T09:52:06.000Z</time>
      </trkpt>
      <trkpt lat="47.38999" lon="-2.44063">
        <ele>11.60000038147</ele>
        <time>2020-07-09T09:52:08.000Z</time>
      </trkpt>
      <trkpt lat="47.39001" lon="-2.44126">
        <ele>11.60000038147</ele>
        <time>2020-07-09T09:52:15.000Z</time>
      </trkpt>
      <trkpt lat="47.39" lon="-2.44193">
        <ele>11.60000038147</ele>
        <time>2020-07-09T09:52:22.000Z</time>
      </trkpt>
      <trkpt lat="47.38997" lon="-2.44271">
        <ele>11.60000038147</ele>
        <time>2020-07-09T09:52:30.000Z</time>
      </trkpt>
      <trkpt lat="47.38992" lon="-2.44317">
        <ele>11.199999809265</ele>
        <time>2020-07-09T09:52:35.000Z</time>
      </trkpt>
      <trkpt lat="47.3899" lon="-2.44326">
        <ele>10.60000038147</ele>
        <time>2020-07-09T09:52:36.000Z</time>
      </trkpt>
      <trkpt lat="47.3899" lon="-2.44336">
        <ele>10.199999809265</ele>
        <time>2020-07-09T09:52:37.000Z</time>
      </trkpt>
      <trkpt lat="47.38988" lon="-2.44346">
        <ele>9.8000001907349</ele>
        <time>2020-07-09T09:52:38.000Z</time>
      </trkpt>
      <trkpt lat="47.38987" lon="-2.44357">
        <ele>9.3999996185303</ele>
        <time>2020-07-09T09:52:39.000Z</time>
      </trkpt>
      <trkpt lat="47.38979" lon="-2.44413">
        <ele>9.3999996185303</ele>
        <time>2020-07-09T09:52:44.000Z</time>
      </trkpt>
      <trkpt lat="47.38968" lon="-2.44492">
        <ele>9.3999996185303</ele>
        <time>2020-07-09T09:52:51.000Z</time>
      </trkpt>
      <trkpt lat="47.38963" lon="-2.44528">
        <ele>9</ele>
        <time>2020-07-09T09:52:54.000Z</time>
      </trkpt>
      <trkpt lat="47.38961" lon="-2.4454">
        <ele>8.6000003814697</ele>
        <time>2020-07-09T09:52:55.000Z</time>
      </trkpt>
      <trkpt lat="47.3896" lon="-2.44552">
        <ele>8.1999998092651</ele>
        <time>2020-07-09T09:52:56.000Z</time>
      </trkpt>
      <trkpt lat="47.38958" lon="-2.44563">
        <ele>7.8000001907349</ele>
        <time>2020-07-09T09:52:57.000Z</time>
      </trkpt>
      <trkpt lat="47.38956" lon="-2.44574">
        <ele>7.1999998092651</ele>
        <time>2020-07-09T09:52:58.000Z</time>
      </trkpt>
      <trkpt lat="47.38954" lon="-2.44597">
        <ele>7.1999998092651</ele>
        <time>2020-07-09T09:53:00.000Z</time>
      </trkpt>
      <trkpt lat="47.38949" lon="-2.4463">
        <ele>6.8000001907349</ele>
        <time>2020-07-09T09:53:03.000Z</time>
      </trkpt>
      <trkpt lat="47.38948" lon="-2.44641">
        <ele>6.4000000953674</ele>
        <time>2020-07-09T09:53:04.000Z</time>
      </trkpt>
      <trkpt lat="47.38946" lon="-2.44651">
        <ele>6</ele>
        <time>2020-07-09T09:53:05.000Z</time>
      </trkpt>
      <trkpt lat="47.38945" lon="-2.44662">
        <ele>5.5999999046326</ele>
        <time>2020-07-09T09:53:06.000Z</time>
      </trkpt>
      <trkpt lat="47.38944" lon="-2.44673">
        <ele>5.1999998092651</ele>
        <time>2020-07-09T09:53:07.000Z</time>
      </trkpt>
      <trkpt lat="47.38941" lon="-2.44693">
        <ele>5.1999998092651</ele>
        <time>2020-07-09T09:53:09.000Z</time>
      </trkpt>
      <trkpt lat="47.3893" lon="-2.44775">
        <ele>5.1999998092651</ele>
        <time>2020-07-09T09:53:17.000Z</time>
      </trkpt>
      <trkpt lat="47.38922" lon="-2.44826">
        <ele>5.1999998092651</ele>
        <time>2020-07-09T09:53:23.000Z</time>
      </trkpt>
      <trkpt lat="47.38916" lon="-2.44868">
        <ele>5.1999998092651</ele>
        <time>2020-07-09T09:53:29.000Z</time>
      </trkpt>
      <trkpt lat="47.38906" lon="-2.44876">
        <ele>5.1999998092651</ele>
        <time>2020-07-09T09:53:32.000Z</time>
      </trkpt>
      <trkpt lat="47.38896" lon="-2.44877">
        <ele>5.1999998092651</ele>
        <time>2020-07-09T09:53:34.000Z</time>
      </trkpt>
      <trkpt lat="47.38885" lon="-2.44881">
        <ele>5.1999998092651</ele>
        <time>2020-07-09T09:53:36.000Z</time>
      </trkpt>
      <trkpt lat="47.38847" lon="-2.44892">
        <ele>5.1999998092651</ele>
        <time>2020-07-09T09:53:43.000Z</time>
      </trkpt>
      <trkpt lat="47.3882" lon="-2.449">
        <ele>5.5999999046326</ele>
        <time>2020-07-09T09:53:48.000Z</time>
      </trkpt>
      <trkpt lat="47.38815" lon="-2.44901">
        <ele>6.1999998092651</ele>
        <time>2020-07-09T09:53:49.000Z</time>
      </trkpt>
      <trkpt lat="47.3881" lon="-2.44903">
        <ele>6.5999999046326</ele>
        <time>2020-07-09T09:53:50.000Z</time>
      </trkpt>
      <trkpt lat="47.38806" lon="-2.44904">
        <ele>7</ele>
        <time>2020-07-09T09:53:51.000Z</time>
      </trkpt>
      <trkpt lat="47.38801" lon="-2.44906">
        <ele>7.4000000953674</ele>
        <time>2020-07-09T09:53:52.000Z</time>
      </trkpt>
      <trkpt lat="47.3878" lon="-2.44914">
        <ele>7.4000000953674</ele>
        <time>2020-07-09T09:53:57.000Z</time>
      </trkpt>
      <trkpt lat="47.38742" lon="-2.44929">
        <ele>7.8000001907349</ele>
        <time>2020-07-09T09:54:04.000Z</time>
      </trkpt>
      <trkpt lat="47.38737" lon="-2.44931">
        <ele>8.1999998092651</ele>
        <time>2020-07-09T09:54:05.000Z</time>
      </trkpt>
      <trkpt lat="47.38732" lon="-2.44933">
        <ele>8.6000003814697</ele>
        <time>2020-07-09T09:54:06.000Z</time>
      </trkpt>
      <trkpt lat="47.38726" lon="-2.44935">
        <ele>9</ele>
        <time>2020-07-09T09:54:07.000Z</time>
      </trkpt>
      <trkpt lat="47.38721" lon="-2.44938">
        <ele>9.3999996185303</ele>
        <time>2020-07-09T09:54:08.000Z</time>
      </trkpt>
      <trkpt lat="47.38699" lon="-2.44946">
        <ele>9.3999996185303</ele>
        <time>2020-07-09T09:54:12.000Z</time>
      </trkpt>
      <trkpt lat="47.3866" lon="-2.44963">
        <ele>10</ele>
        <time>2020-07-09T09:54:19.000Z</time>
      </trkpt>
      <trkpt lat="47.38655" lon="-2.44965">
        <ele>10.39999961853</ele>
        <time>2020-07-09T09:54:20.000Z</time>
      </trkpt>
      <trkpt lat="47.3865" lon="-2.44967">
        <ele>11.199999809265</ele>
        <time>2020-07-09T09:54:21.000Z</time>
      </trkpt>
      <trkpt lat="47.38645" lon="-2.4497">
        <ele>11.60000038147</ele>
        <time>2020-07-09T09:54:22.000Z</time>
      </trkpt>
      <trkpt lat="47.38615" lon="-2.44984">
        <ele>11.60000038147</ele>
        <time>2020-07-09T09:54:28.000Z</time>
      </trkpt>
      <trkpt lat="47.386" lon="-2.44991">
        <ele>12</ele>
        <time>2020-07-09T09:54:31.000Z</time>
      </trkpt>
      <trkpt lat="47.38595" lon="-2.44993">
        <ele>12.39999961853</ele>
        <time>2020-07-09T09:54:32.000Z</time>
      </trkpt>
      <trkpt lat="47.3859" lon="-2.44996">
        <ele>12.800000190735</ele>
        <time>2020-07-09T09:54:33.000Z</time>
      </trkpt>
      <trkpt lat="47.38585" lon="-2.44999">
        <ele>13.199999809265</ele>
        <time>2020-07-09T09:54:34.000Z</time>
      </trkpt>
      <trkpt lat="47.3858" lon="-2.45001">
        <ele>13.800000190735</ele>
        <time>2020-07-09T09:54:35.000Z</time>
      </trkpt>
      <trkpt lat="47.38558" lon="-2.45013">
        <ele>13.800000190735</ele>
        <time>2020-07-09T09:54:40.000Z</time>
      </trkpt>
      <trkpt lat="47.38544" lon="-2.4502">
        <ele>13.800000190735</ele>
        <time>2020-07-09T09:54:43.000Z</time>
      </trkpt>
      <trkpt lat="47.38525" lon="-2.45031">
        <ele>14.199999809265</ele>
        <time>2020-07-09T09:54:47.000Z</time>
      </trkpt>
      <trkpt lat="47.3852" lon="-2.45032">
        <ele>14.60000038147</ele>
        <time>2020-07-09T09:54:48.000Z</time>
      </trkpt>
      <trkpt lat="47.38516" lon="-2.45035">
        <ele>15</ele>
        <time>2020-07-09T09:54:49.000Z</time>
      </trkpt>
      <trkpt lat="47.38511" lon="-2.45037">
        <ele>15.39999961853</ele>
        <time>2020-07-09T09:54:50.000Z</time>
      </trkpt>
      <trkpt lat="47.38507" lon="-2.45039">
        <ele>15.800000190735</ele>
        <time>2020-07-09T09:54:51.000Z</time>
      </trkpt>
      <trkpt lat="47.38498" lon="-2.45043">
        <ele>15.800000190735</ele>
        <time>2020-07-09T09:54:53.000Z</time>
      </trkpt>
      <trkpt lat="47.3846" lon="-2.4506">
        <ele>15.800000190735</ele>
        <time>2020-07-09T09:55:01.000Z</time>
      </trkpt>
      <trkpt lat="47.38434" lon="-2.45072">
        <ele>15.800000190735</ele>
        <time>2020-07-09T09:55:07.000Z</time>
      </trkpt>
      <trkpt lat="47.384" lon="-2.45087">
        <ele>15.800000190735</ele>
        <time>2020-07-09T09:55:14.000Z</time>
      </trkpt>
      <trkpt lat="47.38395" lon="-2.45089">
        <ele>16.200000762939</ele>
        <time>2020-07-09T09:55:15.000Z</time>
      </trkpt>
      <trkpt lat="47.3839" lon="-2.45091">
        <ele>16.60000038147</ele>
        <time>2020-07-09T09:55:16.000Z</time>
      </trkpt>
      <trkpt lat="47.38386" lon="-2.45093">
        <ele>17</ele>
        <time>2020-07-09T09:55:17.000Z</time>
      </trkpt>
      <trkpt lat="47.38381" lon="-2.45094">
        <ele>17.39999961853</ele>
        <time>2020-07-09T09:55:18.000Z</time>
      </trkpt>
      <trkpt lat="47.38375" lon="-2.45097">
        <ele>17.799999237061</ele>
        <time>2020-07-09T09:55:19.000Z</time>
      </trkpt>
      <trkpt lat="47.38363" lon="-2.45101">
        <ele>17.799999237061</ele>
        <time>2020-07-09T09:55:21.000Z</time>
      </trkpt>
      <trkpt lat="47.38333" lon="-2.45116">
        <ele>17.799999237061</ele>
        <time>2020-07-09T09:55:27.000Z</time>
      </trkpt>
      <trkpt lat="47.38324" lon="-2.45118">
        <ele>17.799999237061</ele>
        <time>2020-07-09T09:55:29.000Z</time>
      </trkpt>
      <trkpt lat="47.38319" lon="-2.45119">
        <ele>17.799999237061</ele>
        <time>2020-07-09T09:55:30.000Z</time>
      </trkpt>
      <trkpt lat="47.38295" lon="-2.45125">
        <ele>17.799999237061</ele>
        <time>2020-07-09T09:55:34.000Z</time>
      </trkpt>
      <trkpt lat="47.38285" lon="-2.45129">
        <ele>18.60000038147</ele>
        <time>2020-07-09T09:55:36.000Z</time>
      </trkpt>
      <trkpt lat="47.3828" lon="-2.45131">
        <ele>19</ele>
        <time>2020-07-09T09:55:37.000Z</time>
      </trkpt>
      <trkpt lat="47.38275" lon="-2.45134">
        <ele>19.39999961853</ele>
        <time>2020-07-09T09:55:38.000Z</time>
      </trkpt>
      <trkpt lat="47.3827" lon="-2.45136">
        <ele>19.799999237061</ele>
        <time>2020-07-09T09:55:39.000Z</time>
      </trkpt>
      <trkpt lat="47.38243" lon="-2.45147">
        <ele>19.799999237061</ele>
        <time>2020-07-09T09:55:45.000Z</time>
      </trkpt>
      <trkpt lat="47.38219" lon="-2.45162">
        <ele>19.799999237061</ele>
        <time>2020-07-09T09:55:51.000Z</time>
      </trkpt>
      <trkpt lat="47.38214" lon="-2.45173">
        <ele>19.799999237061</ele>
        <time>2020-07-09T09:55:53.000Z</time>
      </trkpt>
      <trkpt lat="47.38208" lon="-2.45187">
        <ele>19.799999237061</ele>
        <time>2020-07-09T09:55:55.000Z</time>
      </trkpt>
      <trkpt lat="47.38185" lon="-2.45241">
        <ele>19.799999237061</ele>
        <time>2020-07-09T09:56:03.000Z</time>
      </trkpt>
      <trkpt lat="47.38175" lon="-2.45266">
        <ele>19.799999237061</ele>
        <time>2020-07-09T09:56:07.000Z</time>
      </trkpt>
      <trkpt lat="47.3817" lon="-2.4528">
        <ele>19.799999237061</ele>
        <time>2020-07-09T09:56:09.000Z</time>
      </trkpt>
      <trkpt lat="47.38153" lon="-2.45327">
        <ele>19.799999237061</ele>
        <time>2020-07-09T09:56:16.000Z</time>
      </trkpt>
      <trkpt lat="47.38149" lon="-2.4534">
        <ele>20.200000762939</ele>
        <time>2020-07-09T09:56:18.000Z</time>
      </trkpt>
      <trkpt lat="47.38147" lon="-2.45347">
        <ele>20.60000038147</ele>
        <time>2020-07-09T09:56:19.000Z</time>
      </trkpt>
      <trkpt lat="47.38144" lon="-2.45354">
        <ele>21</ele>
        <time>2020-07-09T09:56:20.000Z</time>
      </trkpt>
      <trkpt lat="47.38141" lon="-2.4536">
        <ele>21.39999961853</ele>
        <time>2020-07-09T09:56:21.000Z</time>
      </trkpt>
      <trkpt lat="47.38139" lon="-2.45367">
        <ele>21.799999237061</ele>
        <time>2020-07-09T09:56:22.000Z</time>
      </trkpt>
      <trkpt lat="47.38122" lon="-2.45422">
        <ele>21.799999237061</ele>
        <time>2020-07-09T09:56:30.000Z</time>
      </trkpt>
      <trkpt lat="47.38117" lon="-2.45443">
        <ele>21.799999237061</ele>
        <time>2020-07-09T09:56:33.000Z</time>
      </trkpt>
      <trkpt lat="47.38114" lon="-2.45465">
        <ele>21.799999237061</ele>
        <time>2020-07-09T09:56:36.000Z</time>
      </trkpt>
      <trkpt lat="47.38112" lon="-2.45479">
        <ele>21.799999237061</ele>
        <time>2020-07-09T09:56:38.000Z</time>
      </trkpt>
      <trkpt lat="47.38109" lon="-2.45503">
        <ele>21.799999237061</ele>
        <time>2020-07-09T09:56:41.000Z</time>
      </trkpt>
      <trkpt lat="47.38102" lon="-2.45559">
        <ele>21.799999237061</ele>
        <time>2020-07-09T09:56:48.000Z</time>
      </trkpt>
      <trkpt lat="47.381" lon="-2.45567">
        <ele>21.799999237061</ele>
        <time>2020-07-09T09:56:49.000Z</time>
      </trkpt>
      <trkpt lat="47.38094" lon="-2.45602">
        <ele>21.799999237061</ele>
        <time>2020-07-09T09:56:53.000Z</time>
      </trkpt>
      <trkpt lat="47.38081" lon="-2.45657">
        <ele>21.799999237061</ele>
        <time>2020-07-09T09:56:59.000Z</time>
      </trkpt>
      <trkpt lat="47.38069" lon="-2.4571">
        <ele>21.799999237061</ele>
        <time>2020-07-09T09:57:05.000Z</time>
      </trkpt>
      <trkpt lat="47.38063" lon="-2.45736">
        <ele>21.39999961853</ele>
        <time>2020-07-09T09:57:08.000Z</time>
      </trkpt>
      <trkpt lat="47.3806" lon="-2.45743">
        <ele>21</ele>
        <time>2020-07-09T09:57:09.000Z</time>
      </trkpt>
      <trkpt lat="47.38058" lon="-2.4575">
        <ele>20.60000038147</ele>
        <time>2020-07-09T09:57:10.000Z</time>
      </trkpt>
      <trkpt lat="47.38055" lon="-2.45757">
        <ele>20.200000762939</ele>
        <time>2020-07-09T09:57:11.000Z</time>
      </trkpt>
      <trkpt lat="47.38053" lon="-2.45764">
        <ele>19.799999237061</ele>
        <time>2020-07-09T09:57:12.000Z</time>
      </trkpt>
      <trkpt lat="47.38045" lon="-2.45786">
        <ele>19.799999237061</ele>
        <time>2020-07-09T09:57:15.000Z</time>
      </trkpt>
      <trkpt lat="47.38029" lon="-2.45835">
        <ele>19.799999237061</ele>
        <time>2020-07-09T09:57:22.000Z</time>
      </trkpt>
      <trkpt lat="47.38016" lon="-2.45876">
        <ele>20.200000762939</ele>
        <time>2020-07-09T09:57:28.000Z</time>
      </trkpt>
      <trkpt lat="47.38014" lon="-2.45883">
        <ele>20.60000038147</ele>
        <time>2020-07-09T09:57:29.000Z</time>
      </trkpt>
      <trkpt lat="47.38012" lon="-2.45889">
        <ele>21</ele>
        <time>2020-07-09T09:57:30.000Z</time>
      </trkpt>
      <trkpt lat="47.3801" lon="-2.45897">
        <ele>21.39999961853</ele>
        <time>2020-07-09T09:57:31.000Z</time>
      </trkpt>
      <trkpt lat="47.38009" lon="-2.45903">
        <ele>21.799999237061</ele>
        <time>2020-07-09T09:57:32.000Z</time>
      </trkpt>
      <trkpt lat="47.38006" lon="-2.45921">
        <ele>21.799999237061</ele>
        <time>2020-07-09T09:57:35.000Z</time>
      </trkpt>
      <trkpt lat="47.37997" lon="-2.4595">
        <ele>21.799999237061</ele>
        <time>2020-07-09T09:57:40.000Z</time>
      </trkpt>
      <trkpt lat="47.37993" lon="-2.45963">
        <ele>21.799999237061</ele>
        <time>2020-07-09T09:57:43.000Z</time>
      </trkpt>
      <trkpt lat="47.37987" lon="-2.45986">
        <ele>21.799999237061</ele>
        <time>2020-07-09T09:57:50.000Z</time>
      </trkpt>
      <trkpt lat="47.37981" lon="-2.46002">
        <ele>21.799999237061</ele>
        <time>2020-07-09T09:57:57.000Z</time>
      </trkpt>
      <trkpt lat="47.37981" lon="-2.46004">
        <ele>22.200000762939</ele>
        <time>2020-07-09T09:57:58.000Z</time>
      </trkpt>
      <trkpt lat="47.3798" lon="-2.46007">
        <ele>22.60000038147</ele>
        <time>2020-07-09T09:57:59.000Z</time>
      </trkpt>
      <trkpt lat="47.37979" lon="-2.46009">
        <ele>23</ele>
        <time>2020-07-09T09:58:00.000Z</time>
      </trkpt>
      <trkpt lat="47.37978" lon="-2.46012">
        <ele>23.39999961853</ele>
        <time>2020-07-09T09:58:01.000Z</time>
      </trkpt>
      <trkpt lat="47.37978" lon="-2.46015">
        <ele>23.799999237061</ele>
        <time>2020-07-09T09:58:02.000Z</time>
      </trkpt>
      <trkpt lat="47.37977" lon="-2.46028">
        <ele>23.799999237061</ele>
        <time>2020-07-09T09:58:05.000Z</time>
      </trkpt>
      <trkpt lat="47.3797" lon="-2.46053">
        <ele>23.799999237061</ele>
        <time>2020-07-09T09:58:11.000Z</time>
      </trkpt>
      <trkpt lat="47.37966" lon="-2.46063">
        <ele>23.799999237061</ele>
        <time>2020-07-09T09:58:14.000Z</time>
      </trkpt>
      <trkpt lat="47.37961" lon="-2.46071">
        <ele>23.799999237061</ele>
        <time>2020-07-09T09:58:17.000Z</time>
      </trkpt>
      <trkpt lat="47.37953" lon="-2.46096">
        <ele>23.799999237061</ele>
        <time>2020-07-09T09:58:24.000Z</time>
      </trkpt>
      <trkpt lat="47.37951" lon="-2.46114">
        <ele>24.200000762939</ele>
        <time>2020-07-09T09:58:28.000Z</time>
      </trkpt>
      <trkpt lat="47.37949" lon="-2.46122">
        <ele>24.60000038147</ele>
        <time>2020-07-09T09:58:29.000Z</time>
      </trkpt>
      <trkpt lat="47.37947" lon="-2.46129">
        <ele>25</ele>
        <time>2020-07-09T09:58:30.000Z</time>
      </trkpt>
      <trkpt lat="47.37945" lon="-2.46134">
        <ele>25.39999961853</ele>
        <time>2020-07-09T09:58:31.000Z</time>
      </trkpt>
      <trkpt lat="47.37944" lon="-2.46139">
        <ele>25.799999237061</ele>
        <time>2020-07-09T09:58:32.000Z</time>
      </trkpt>
      <trkpt lat="47.37938" lon="-2.46161">
        <ele>25.799999237061</ele>
        <time>2020-07-09T09:58:36.000Z</time>
      </trkpt>
      <trkpt lat="47.37928" lon="-2.46196">
        <ele>25.799999237061</ele>
        <time>2020-07-09T09:58:42.000Z</time>
      </trkpt>
      <trkpt lat="47.37916" lon="-2.46241">
        <ele>25.799999237061</ele>
        <time>2020-07-09T09:58:50.000Z</time>
      </trkpt>
      <trkpt lat="47.37905" lon="-2.46285">
        <ele>25.799999237061</ele>
        <time>2020-07-09T09:58:57.000Z</time>
      </trkpt>
      <trkpt lat="47.37892" lon="-2.46331">
        <ele>25.799999237061</ele>
        <time>2020-07-09T09:59:05.000Z</time>
      </trkpt>
      <trkpt lat="47.37878" lon="-2.46369">
        <ele>25.799999237061</ele>
        <time>2020-07-09T09:59:11.000Z</time>
      </trkpt>
      <trkpt lat="47.37865" lon="-2.46408">
        <ele>25.799999237061</ele>
        <time>2020-07-09T09:59:17.000Z</time>
      </trkpt>
      <trkpt lat="47.37857" lon="-2.46429">
        <ele>25.799999237061</ele>
        <time>2020-07-09T09:59:20.000Z</time>
      </trkpt>
      <trkpt lat="47.37851" lon="-2.46453">
        <ele>25.799999237061</ele>
        <time>2020-07-09T09:59:23.000Z</time>
      </trkpt>
      <trkpt lat="47.3784" lon="-2.46507">
        <ele>25.39999961853</ele>
        <time>2020-07-09T09:59:29.000Z</time>
      </trkpt>
      <trkpt lat="47.37837" lon="-2.46517">
        <ele>25</ele>
        <time>2020-07-09T09:59:30.000Z</time>
      </trkpt>
      <trkpt lat="47.37834" lon="-2.46526">
        <ele>24.60000038147</ele>
        <time>2020-07-09T09:59:31.000Z</time>
      </trkpt>
      <trkpt lat="47.37831" lon="-2.46535">
        <ele>24.200000762939</ele>
        <time>2020-07-09T09:59:32.000Z</time>
      </trkpt>
      <trkpt lat="47.37827" lon="-2.46545">
        <ele>23.799999237061</ele>
        <time>2020-07-09T09:59:33.000Z</time>
      </trkpt>
      <trkpt lat="47.37822" lon="-2.46563">
        <ele>23.799999237061</ele>
        <time>2020-07-09T09:59:35.000Z</time>
      </trkpt>
      <trkpt lat="47.37818" lon="-2.46589">
        <ele>23.799999237061</ele>
        <time>2020-07-09T09:59:38.000Z</time>
      </trkpt>
      <trkpt lat="47.37819" lon="-2.46607">
        <ele>23.799999237061</ele>
        <time>2020-07-09T09:59:40.000Z</time>
      </trkpt>
      <trkpt lat="47.37821" lon="-2.46631">
        <ele>23.799999237061</ele>
        <time>2020-07-09T09:59:43.000Z</time>
      </trkpt>
      <trkpt lat="47.37823" lon="-2.46645">
        <ele>23.799999237061</ele>
        <time>2020-07-09T09:59:45.000Z</time>
      </trkpt>
      <trkpt lat="47.37831" lon="-2.46704">
        <ele>23.799999237061</ele>
        <time>2020-07-09T09:59:53.000Z</time>
      </trkpt>
      <trkpt lat="47.37836" lon="-2.46743">
        <ele>23.799999237061</ele>
        <time>2020-07-09T10:00:00.000Z</time>
      </trkpt>
      <trkpt lat="47.37837" lon="-2.4677">
        <ele>23.799999237061</ele>
        <time>2020-07-09T10:00:07.000Z</time>
      </trkpt>
      <trkpt lat="47.37836" lon="-2.46772">
        <ele>23.799999237061</ele>
        <time>2020-07-09T10:00:09.000Z</time>
      </trkpt>
      <trkpt lat="47.37837" lon="-2.46774">
        <ele>23.799999237061</ele>
        <time>2020-07-09T10:00:29.000Z</time>
      </trkpt>
      <trkpt lat="47.37838" lon="-2.46776">
        <ele>23.799999237061</ele>
        <time>2020-07-09T10:00:30.000Z</time>
      </trkpt>
      <trkpt lat="47.37842" lon="-2.46795">
        <ele>23.799999237061</ele>
        <time>2020-07-09T10:00:36.000Z</time>
      </trkpt>
      <trkpt lat="47.37848" lon="-2.46833">
        <ele>24.200000762939</ele>
        <time>2020-07-09T10:00:43.000Z</time>
      </trkpt>
      <trkpt lat="47.37849" lon="-2.46839">
        <ele>24.799999237061</ele>
        <time>2020-07-09T10:00:44.000Z</time>
      </trkpt>
      <trkpt lat="47.3785" lon="-2.46845">
        <ele>25.200000762939</ele>
        <time>2020-07-09T10:00:45.000Z</time>
      </trkpt>
      <trkpt lat="47.37851" lon="-2.46852">
        <ele>25.60000038147</ele>
        <time>2020-07-09T10:00:46.000Z</time>
      </trkpt>
      <trkpt lat="47.37852" lon="-2.46858">
        <ele>26</ele>
        <time>2020-07-09T10:00:47.000Z</time>
      </trkpt>
      <trkpt lat="47.37857" lon="-2.46882">
        <ele>26</ele>
        <time>2020-07-09T10:00:51.000Z</time>
      </trkpt>
      <trkpt lat="47.37867" lon="-2.46923">
        <ele>26</ele>
        <time>2020-07-09T10:00:58.000Z</time>
      </trkpt>
      <trkpt lat="47.37874" lon="-2.46954">
        <ele>26.60000038147</ele>
        <time>2020-07-09T10:01:03.000Z</time>
      </trkpt>
      <trkpt lat="47.37876" lon="-2.46961">
        <ele>27</ele>
        <time>2020-07-09T10:01:04.000Z</time>
      </trkpt>
      <trkpt lat="47.37877" lon="-2.46968">
        <ele>27.39999961853</ele>
        <time>2020-07-09T10:01:05.000Z</time>
      </trkpt>
      <trkpt lat="47.37879" lon="-2.46974">
        <ele>27.799999237061</ele>
        <time>2020-07-09T10:01:06.000Z</time>
      </trkpt>
      <trkpt lat="47.3788" lon="-2.46981">
        <ele>28.200000762939</ele>
        <time>2020-07-09T10:01:07.000Z</time>
      </trkpt>
      <trkpt lat="47.37886" lon="-2.47016">
        <ele>28.200000762939</ele>
        <time>2020-07-09T10:01:11.000Z</time>
      </trkpt>
      <trkpt lat="47.3789" lon="-2.4704">
        <ele>28.200000762939</ele>
        <time>2020-07-09T10:01:14.000Z</time>
      </trkpt>
      <trkpt lat="47.37893" lon="-2.47055">
        <ele>28.200000762939</ele>
        <time>2020-07-09T10:01:16.000Z</time>
      </trkpt>
      <trkpt lat="47.37894" lon="-2.47062">
        <ele>28.200000762939</ele>
        <time>2020-07-09T10:01:17.000Z</time>
      </trkpt>
      <trkpt lat="47.37896" lon="-2.47076">
        <ele>28.200000762939</ele>
        <time>2020-07-09T10:01:19.000Z</time>
      </trkpt>
      <trkpt lat="47.37902" lon="-2.4711">
        <ele>28.200000762939</ele>
        <time>2020-07-09T10:01:24.000Z</time>
      </trkpt>
      <trkpt lat="47.37912" lon="-2.47152">
        <ele>28.200000762939</ele>
        <time>2020-07-09T10:01:30.000Z</time>
      </trkpt>
      <trkpt lat="47.37914" lon="-2.47159">
        <ele>27.799999237061</ele>
        <time>2020-07-09T10:01:31.000Z</time>
      </trkpt>
      <trkpt lat="47.37916" lon="-2.47166">
        <ele>27.39999961853</ele>
        <time>2020-07-09T10:01:32.000Z</time>
      </trkpt>
      <trkpt lat="47.37918" lon="-2.47173">
        <ele>27</ele>
        <time>2020-07-09T10:01:33.000Z</time>
      </trkpt>
      <trkpt lat="47.3792" lon="-2.47181">
        <ele>26.60000038147</ele>
        <time>2020-07-09T10:01:34.000Z</time>
      </trkpt>
      <trkpt lat="47.37922" lon="-2.47189">
        <ele>26.200000762939</ele>
        <time>2020-07-09T10:01:35.000Z</time>
      </trkpt>
      <trkpt lat="47.37925" lon="-2.47197">
        <ele>26.200000762939</ele>
        <time>2020-07-09T10:01:36.000Z</time>
      </trkpt>
      <trkpt lat="47.37928" lon="-2.47206">
        <ele>25.799999237061</ele>
        <time>2020-07-09T10:01:37.000Z</time>
      </trkpt>
      <trkpt lat="47.37931" lon="-2.47214">
        <ele>25.39999961853</ele>
        <time>2020-07-09T10:01:38.000Z</time>
      </trkpt>
      <trkpt lat="47.37934" lon="-2.47223">
        <ele>24.799999237061</ele>
        <time>2020-07-09T10:01:39.000Z</time>
      </trkpt>
      <trkpt lat="47.37937" lon="-2.47233">
        <ele>24.39999961853</ele>
        <time>2020-07-09T10:01:40.000Z</time>
      </trkpt>
      <trkpt lat="47.3794" lon="-2.47242">
        <ele>24</ele>
        <time>2020-07-09T10:01:41.000Z</time>
      </trkpt>
      <trkpt lat="47.37947" lon="-2.47264">
        <ele>24</ele>
        <time>2020-07-09T10:01:43.000Z</time>
      </trkpt>
      <trkpt lat="47.3795" lon="-2.47275">
        <ele>23.60000038147</ele>
        <time>2020-07-09T10:01:44.000Z</time>
      </trkpt>
      <trkpt lat="47.37953" lon="-2.47286">
        <ele>23.200000762939</ele>
        <time>2020-07-09T10:01:45.000Z</time>
      </trkpt>
      <trkpt lat="47.37956" lon="-2.47295">
        <ele>22.39999961853</ele>
        <time>2020-07-09T10:01:46.000Z</time>
      </trkpt>
      <trkpt lat="47.37959" lon="-2.47305">
        <ele>22</ele>
        <time>2020-07-09T10:01:47.000Z</time>
      </trkpt>
      <trkpt lat="47.37966" lon="-2.47325">
        <ele>22</ele>
        <time>2020-07-09T10:01:49.000Z</time>
      </trkpt>
      <trkpt lat="47.37985" lon="-2.47395">
        <ele>22</ele>
        <time>2020-07-09T10:01:56.000Z</time>
      </trkpt>
      <trkpt lat="47.37988" lon="-2.47411">
        <ele>22</ele>
        <time>2020-07-09T10:01:58.000Z</time>
      </trkpt>
      <trkpt lat="47.37988" lon="-2.47426">
        <ele>22</ele>
        <time>2020-07-09T10:02:00.000Z</time>
      </trkpt>
      <trkpt lat="47.37976" lon="-2.47439">
        <ele>22</ele>
        <time>2020-07-09T10:02:03.000Z</time>
      </trkpt>
      <trkpt lat="47.37971" lon="-2.47441">
        <ele>22</ele>
        <time>2020-07-09T10:02:04.000Z</time>
      </trkpt>
      <trkpt lat="47.37928" lon="-2.47463">
        <ele>22</ele>
        <time>2020-07-09T10:02:12.000Z</time>
      </trkpt>
      <trkpt lat="47.3789" lon="-2.4748">
        <ele>22</ele>
        <time>2020-07-09T10:02:19.000Z</time>
      </trkpt>
      <trkpt lat="47.37861" lon="-2.47494">
        <ele>22</ele>
        <time>2020-07-09T10:02:25.000Z</time>
      </trkpt>
      <trkpt lat="47.37857" lon="-2.47497">
        <ele>22.39999961853</ele>
        <time>2020-07-09T10:02:26.000Z</time>
      </trkpt>
      <trkpt lat="47.37854" lon="-2.47499">
        <ele>22.799999237061</ele>
        <time>2020-07-09T10:02:27.000Z</time>
      </trkpt>
      <trkpt lat="47.3785" lon="-2.47501">
        <ele>23.200000762939</ele>
        <time>2020-07-09T10:02:28.000Z</time>
      </trkpt>
      <trkpt lat="47.37847" lon="-2.47503">
        <ele>23.60000038147</ele>
        <time>2020-07-09T10:02:29.000Z</time>
      </trkpt>
      <trkpt lat="47.37844" lon="-2.47505">
        <ele>24</ele>
        <time>2020-07-09T10:02:30.000Z</time>
      </trkpt>
      <trkpt lat="47.37821" lon="-2.47519">
        <ele>24</ele>
        <time>2020-07-09T10:02:37.000Z</time>
      </trkpt>
      <trkpt lat="47.37805" lon="-2.47532">
        <ele>24.39999961853</ele>
        <time>2020-07-09T10:02:41.000Z</time>
      </trkpt>
      <trkpt lat="47.37802" lon="-2.47535">
        <ele>24.799999237061</ele>
        <time>2020-07-09T10:02:42.000Z</time>
      </trkpt>
      <trkpt lat="47.37799" lon="-2.47538">
        <ele>25.39999961853</ele>
        <time>2020-07-09T10:02:43.000Z</time>
      </trkpt>
      <trkpt lat="47.37796" lon="-2.4754">
        <ele>25.799999237061</ele>
        <time>2020-07-09T10:02:44.000Z</time>
      </trkpt>
      <trkpt lat="47.37793" lon="-2.47543">
        <ele>26.200000762939</ele>
        <time>2020-07-09T10:02:45.000Z</time>
      </trkpt>
      <trkpt lat="47.37777" lon="-2.47555">
        <ele>26.200000762939</ele>
        <time>2020-07-09T10:02:50.000Z</time>
      </trkpt>
      <trkpt lat="47.37753" lon="-2.47567">
        <ele>26.200000762939</ele>
        <time>2020-07-09T10:02:58.000Z</time>
      </trkpt>
      <trkpt lat="47.37741" lon="-2.47562">
        <ele>26.200000762939</ele>
        <time>2020-07-09T10:03:02.000Z</time>
      </trkpt>
      <trkpt lat="47.37733" lon="-2.47562">
        <ele>26.200000762939</ele>
        <time>2020-07-09T10:03:05.000Z</time>
      </trkpt>
      <trkpt lat="47.37732" lon="-2.47564">
        <ele>26.200000762939</ele>
        <time>2020-07-09T10:03:06.000Z</time>
      </trkpt>
      <trkpt lat="47.37729" lon="-2.47582">
        <ele>26.200000762939</ele>
        <time>2020-07-09T10:03:11.000Z</time>
      </trkpt>
      <trkpt lat="47.37725" lon="-2.47611">
        <ele>26.200000762939</ele>
        <time>2020-07-09T10:03:16.000Z</time>
      </trkpt>
      <trkpt lat="47.37718" lon="-2.47666">
        <ele>26.200000762939</ele>
        <time>2020-07-09T10:03:23.000Z</time>
      </trkpt>
      <trkpt lat="47.37716" lon="-2.47682">
        <ele>26.200000762939</ele>
        <time>2020-07-09T10:03:25.000Z</time>
      </trkpt>
      <trkpt lat="47.37711" lon="-2.47713">
        <ele>26.200000762939</ele>
        <time>2020-07-09T10:03:29.000Z</time>
      </trkpt>
      <trkpt lat="47.3771" lon="-2.47734">
        <ele>26.200000762939</ele>
        <time>2020-07-09T10:03:32.000Z</time>
      </trkpt>
      <trkpt lat="47.37707" lon="-2.47754">
        <ele>26.200000762939</ele>
        <time>2020-07-09T10:03:35.000Z</time>
      </trkpt>
      <trkpt lat="47.37706" lon="-2.47761">
        <ele>26.200000762939</ele>
        <time>2020-07-09T10:03:36.000Z</time>
      </trkpt>
      <trkpt lat="47.37701" lon="-2.47789">
        <ele>26.200000762939</ele>
        <time>2020-07-09T10:03:40.000Z</time>
      </trkpt>
      <trkpt lat="47.377" lon="-2.47795">
        <ele>26.200000762939</ele>
        <time>2020-07-09T10:03:41.000Z</time>
      </trkpt>
      <trkpt lat="47.37694" lon="-2.47834">
        <ele>26.200000762939</ele>
        <time>2020-07-09T10:03:47.000Z</time>
      </trkpt>
      <trkpt lat="47.37691" lon="-2.47854">
        <ele>26.60000038147</ele>
        <time>2020-07-09T10:03:50.000Z</time>
      </trkpt>
      <trkpt lat="47.3769" lon="-2.47861">
        <ele>27</ele>
        <time>2020-07-09T10:03:51.000Z</time>
      </trkpt>
      <trkpt lat="47.37689" lon="-2.47867">
        <ele>27.39999961853</ele>
        <time>2020-07-09T10:03:52.000Z</time>
      </trkpt>
      <trkpt lat="47.37688" lon="-2.47874">
        <ele>27.799999237061</ele>
        <time>2020-07-09T10:03:53.000Z</time>
      </trkpt>
      <trkpt lat="47.37687" lon="-2.4788">
        <ele>28.200000762939</ele>
        <time>2020-07-09T10:03:54.000Z</time>
      </trkpt>
      <trkpt lat="47.37681" lon="-2.47923">
        <ele>28.200000762939</ele>
        <time>2020-07-09T10:04:00.000Z</time>
      </trkpt>
      <trkpt lat="47.37677" lon="-2.47946">
        <ele>28.200000762939</ele>
        <time>2020-07-09T10:04:03.000Z</time>
      </trkpt>
      <trkpt lat="47.37674" lon="-2.47969">
        <ele>28.200000762939</ele>
        <time>2020-07-09T10:04:06.000Z</time>
      </trkpt>
      <trkpt lat="47.37672" lon="-2.48011">
        <ele>28.200000762939</ele>
        <time>2020-07-09T10:04:11.000Z</time>
      </trkpt>
      <trkpt lat="47.37672" lon="-2.4802">
        <ele>28.200000762939</ele>
        <time>2020-07-09T10:04:12.000Z</time>
      </trkpt>
      <trkpt lat="47.37667" lon="-2.4807">
        <ele>28.200000762939</ele>
        <time>2020-07-09T10:04:18.000Z</time>
      </trkpt>
      <trkpt lat="47.37665" lon="-2.48093">
        <ele>28.200000762939</ele>
        <time>2020-07-09T10:04:21.000Z</time>
      </trkpt>
      <trkpt lat="47.37662" lon="-2.48119">
        <ele>28.200000762939</ele>
        <time>2020-07-09T10:04:24.000Z</time>
      </trkpt>
      <trkpt lat="47.37656" lon="-2.48169">
        <ele>27.799999237061</ele>
        <time>2020-07-09T10:04:29.000Z</time>
      </trkpt>
      <trkpt lat="47.37654" lon="-2.48179">
        <ele>27.200000762939</ele>
        <time>2020-07-09T10:04:30.000Z</time>
      </trkpt>
      <trkpt lat="47.37653" lon="-2.48188">
        <ele>26.799999237061</ele>
        <time>2020-07-09T10:04:31.000Z</time>
      </trkpt>
      <trkpt lat="47.37651" lon="-2.48197">
        <ele>26.39999961853</ele>
        <time>2020-07-09T10:04:32.000Z</time>
      </trkpt>
      <trkpt lat="47.37648" lon="-2.48206">
        <ele>26</ele>
        <time>2020-07-09T10:04:33.000Z</time>
      </trkpt>
      <trkpt lat="47.37644" lon="-2.48225">
        <ele>26</ele>
        <time>2020-07-09T10:04:35.000Z</time>
      </trkpt>
      <trkpt lat="47.37642" lon="-2.48235">
        <ele>26</ele>
        <time>2020-07-09T10:04:36.000Z</time>
      </trkpt>
      <trkpt lat="47.37638" lon="-2.48262">
        <ele>26</ele>
        <time>2020-07-09T10:04:39.000Z</time>
      </trkpt>
      <trkpt lat="47.37637" lon="-2.48271">
        <ele>26</ele>
        <time>2020-07-09T10:04:40.000Z</time>
      </trkpt>
      <trkpt lat="47.37632" lon="-2.48296">
        <ele>26</ele>
        <time>2020-07-09T10:04:43.000Z</time>
      </trkpt>
      <trkpt lat="47.37628" lon="-2.48344">
        <ele>26</ele>
        <time>2020-07-09T10:04:49.000Z</time>
      </trkpt>
      <trkpt lat="47.37626" lon="-2.48374">
        <ele>26</ele>
        <time>2020-07-09T10:04:53.000Z</time>
      </trkpt>
      <trkpt lat="47.37626" lon="-2.48381">
        <ele>26</ele>
        <time>2020-07-09T10:04:54.000Z</time>
      </trkpt>
      <trkpt lat="47.37627" lon="-2.48429">
        <ele>26</ele>
        <time>2020-07-09T10:05:00.000Z</time>
      </trkpt>
      <trkpt lat="47.37628" lon="-2.48437">
        <ele>25.60000038147</ele>
        <time>2020-07-09T10:05:01.000Z</time>
      </trkpt>
      <trkpt lat="47.37629" lon="-2.48445">
        <ele>24.60000038147</ele>
        <time>2020-07-09T10:05:02.000Z</time>
      </trkpt>
      <trkpt lat="47.37631" lon="-2.48453">
        <ele>24.200000762939</ele>
        <time>2020-07-09T10:05:03.000Z</time>
      </trkpt>
      <trkpt lat="47.37632" lon="-2.4846">
        <ele>23.799999237061</ele>
        <time>2020-07-09T10:05:04.000Z</time>
      </trkpt>
      <trkpt lat="47.37632" lon="-2.48466">
        <ele>23.799999237061</ele>
        <time>2020-07-09T10:05:05.000Z</time>
      </trkpt>
      <trkpt lat="47.37625" lon="-2.4848">
        <ele>23.799999237061</ele>
        <time>2020-07-09T10:05:08.000Z</time>
      </trkpt>
      <trkpt lat="47.37621" lon="-2.48484">
        <ele>23.799999237061</ele>
        <time>2020-07-09T10:05:09.000Z</time>
      </trkpt>
      <trkpt lat="47.37599" lon="-2.48508">
        <ele>23.799999237061</ele>
        <time>2020-07-09T10:05:14.000Z</time>
      </trkpt>
      <trkpt lat="47.37564" lon="-2.48539">
        <ele>23.799999237061</ele>
        <time>2020-07-09T10:05:21.000Z</time>
      </trkpt>
      <trkpt lat="47.37529" lon="-2.48571">
        <ele>24.200000762939</ele>
        <time>2020-07-09T10:05:28.000Z</time>
      </trkpt>
      <trkpt lat="47.37524" lon="-2.48575">
        <ele>24.60000038147</ele>
        <time>2020-07-09T10:05:29.000Z</time>
      </trkpt>
      <trkpt lat="47.37519" lon="-2.4858">
        <ele>25.200000762939</ele>
        <time>2020-07-09T10:05:30.000Z</time>
      </trkpt>
      <trkpt lat="47.37514" lon="-2.48585">
        <ele>25.60000038147</ele>
        <time>2020-07-09T10:05:31.000Z</time>
      </trkpt>
      <trkpt lat="47.37509" lon="-2.4859">
        <ele>26</ele>
        <time>2020-07-09T10:05:32.000Z</time>
      </trkpt>
      <trkpt lat="47.3749" lon="-2.48609">
        <ele>26</ele>
        <time>2020-07-09T10:05:36.000Z</time>
      </trkpt>
      <trkpt lat="47.37444" lon="-2.48651">
        <ele>26</ele>
        <time>2020-07-09T10:05:45.000Z</time>
      </trkpt>
      <trkpt lat="47.3741" lon="-2.48684">
        <ele>26</ele>
        <time>2020-07-09T10:05:52.000Z</time>
      </trkpt>
      <trkpt lat="47.37405" lon="-2.48688">
        <ele>26.39999961853</ele>
        <time>2020-07-09T10:05:53.000Z</time>
      </trkpt>
      <trkpt lat="47.374" lon="-2.48693">
        <ele>26.799999237061</ele>
        <time>2020-07-09T10:05:54.000Z</time>
      </trkpt>
      <trkpt lat="47.37395" lon="-2.48698">
        <ele>27.200000762939</ele>
        <time>2020-07-09T10:05:55.000Z</time>
      </trkpt>
      <trkpt lat="47.3739" lon="-2.48702">
        <ele>27.60000038147</ele>
        <time>2020-07-09T10:05:56.000Z</time>
      </trkpt>
      <trkpt lat="47.37385" lon="-2.48707">
        <ele>28</ele>
        <time>2020-07-09T10:05:57.000Z</time>
      </trkpt>
      <trkpt lat="47.3737" lon="-2.48721">
        <ele>28</ele>
        <time>2020-07-09T10:06:00.000Z</time>
      </trkpt>
      <trkpt lat="47.37341" lon="-2.4875">
        <ele>28</ele>
        <time>2020-07-09T10:06:06.000Z</time>
      </trkpt>
      <trkpt lat="47.37316" lon="-2.48773">
        <ele>28</ele>
        <time>2020-07-09T10:06:11.000Z</time>
      </trkpt>
      <trkpt lat="47.37297" lon="-2.4879">
        <ele>28</ele>
        <time>2020-07-09T10:06:15.000Z</time>
      </trkpt>
      <trkpt lat="47.37287" lon="-2.48798">
        <ele>28</ele>
        <time>2020-07-09T10:06:17.000Z</time>
      </trkpt>
      <trkpt lat="47.37252" lon="-2.4883">
        <ele>28</ele>
        <time>2020-07-09T10:06:24.000Z</time>
      </trkpt>
      <trkpt lat="47.37217" lon="-2.48859">
        <ele>28</ele>
        <time>2020-07-09T10:06:31.000Z</time>
      </trkpt>
      <trkpt lat="47.37199" lon="-2.48875">
        <ele>28</ele>
        <time>2020-07-09T10:06:35.000Z</time>
      </trkpt>
      <trkpt lat="47.3719" lon="-2.48883">
        <ele>28</ele>
        <time>2020-07-09T10:06:37.000Z</time>
      </trkpt>
      <trkpt lat="47.3718" lon="-2.48892">
        <ele>28</ele>
        <time>2020-07-09T10:06:39.000Z</time>
      </trkpt>
      <trkpt lat="47.37162" lon="-2.48909">
        <ele>28.39999961853</ele>
        <time>2020-07-09T10:06:43.000Z</time>
      </trkpt>
      <trkpt lat="47.37158" lon="-2.48913">
        <ele>28.799999237061</ele>
        <time>2020-07-09T10:06:44.000Z</time>
      </trkpt>
      <trkpt lat="47.37153" lon="-2.48918">
        <ele>29.200000762939</ele>
        <time>2020-07-09T10:06:45.000Z</time>
      </trkpt>
      <trkpt lat="47.37148" lon="-2.48921">
        <ele>29.60000038147</ele>
        <time>2020-07-09T10:06:46.000Z</time>
      </trkpt>
      <trkpt lat="47.37144" lon="-2.48925">
        <ele>30</ele>
        <time>2020-07-09T10:06:47.000Z</time>
      </trkpt>
      <trkpt lat="47.3713" lon="-2.48937">
        <ele>30</ele>
        <time>2020-07-09T10:06:50.000Z</time>
      </trkpt>
      <trkpt lat="47.37098" lon="-2.48966">
        <ele>30</ele>
        <time>2020-07-09T10:06:57.000Z</time>
      </trkpt>
      <trkpt lat="47.3707" lon="-2.48993">
        <ele>30</ele>
        <time>2020-07-09T10:07:03.000Z</time>
      </trkpt>
      <trkpt lat="47.37043" lon="-2.49017">
        <ele>30</ele>
        <time>2020-07-09T10:07:09.000Z</time>
      </trkpt>
      <trkpt lat="47.37019" lon="-2.49038">
        <ele>30</ele>
        <time>2020-07-09T10:07:15.000Z</time>
      </trkpt>
      <trkpt lat="47.37006" lon="-2.49052">
        <ele>30</ele>
        <time>2020-07-09T10:07:18.000Z</time>
      </trkpt>
      <trkpt lat="47.36993" lon="-2.49066">
        <ele>30</ele>
        <time>2020-07-09T10:07:21.000Z</time>
      </trkpt>
      <trkpt lat="47.36975" lon="-2.49088">
        <ele>30.39999961853</ele>
        <time>2020-07-09T10:07:25.000Z</time>
      </trkpt>
      <trkpt lat="47.3697" lon="-2.49093">
        <ele>30.799999237061</ele>
        <time>2020-07-09T10:07:26.000Z</time>
      </trkpt>
      <trkpt lat="47.36966" lon="-2.49098">
        <ele>31.39999961853</ele>
        <time>2020-07-09T10:07:27.000Z</time>
      </trkpt>
      <trkpt lat="47.36962" lon="-2.49103">
        <ele>31.799999237061</ele>
        <time>2020-07-09T10:07:28.000Z</time>
      </trkpt>
      <trkpt lat="47.36958" lon="-2.49109">
        <ele>32.200000762939</ele>
        <time>2020-07-09T10:07:29.000Z</time>
      </trkpt>
      <trkpt lat="47.36949" lon="-2.49118">
        <ele>32.200000762939</ele>
        <time>2020-07-09T10:07:31.000Z</time>
      </trkpt>
      <trkpt lat="47.36935" lon="-2.49132">
        <ele>32.200000762939</ele>
        <time>2020-07-09T10:07:34.000Z</time>
      </trkpt>
      <trkpt lat="47.36902" lon="-2.49172">
        <ele>32.200000762939</ele>
        <time>2020-07-09T10:07:42.000Z</time>
      </trkpt>
      <trkpt lat="47.36899" lon="-2.49177">
        <ele>32.200000762939</ele>
        <time>2020-07-09T10:07:43.000Z</time>
      </trkpt>
      <trkpt lat="47.36883" lon="-2.49198">
        <ele>32.200000762939</ele>
        <time>2020-07-09T10:07:47.000Z</time>
      </trkpt>
      <trkpt lat="47.36851" lon="-2.49234">
        <ele>32.200000762939</ele>
        <time>2020-07-09T10:07:54.000Z</time>
      </trkpt>
      <trkpt lat="47.36824" lon="-2.49264">
        <ele>32.200000762939</ele>
        <time>2020-07-09T10:08:00.000Z</time>
      </trkpt>
      <trkpt lat="47.3681" lon="-2.49274">
        <ele>32.200000762939</ele>
        <time>2020-07-09T10:08:03.000Z</time>
      </trkpt>
      <trkpt lat="47.36799" lon="-2.49278">
        <ele>32.200000762939</ele>
        <time>2020-07-09T10:08:05.000Z</time>
      </trkpt>
      <trkpt lat="47.36775" lon="-2.49285">
        <ele>32.200000762939</ele>
        <time>2020-07-09T10:08:10.000Z</time>
      </trkpt>
      <trkpt lat="47.36763" lon="-2.4929">
        <ele>32.200000762939</ele>
        <time>2020-07-09T10:08:13.000Z</time>
      </trkpt>
      <trkpt lat="47.36751" lon="-2.493">
        <ele>32.200000762939</ele>
        <time>2020-07-09T10:08:16.000Z</time>
      </trkpt>
      <trkpt lat="47.3673" lon="-2.4932">
        <ele>32.200000762939</ele>
        <time>2020-07-09T10:08:21.000Z</time>
      </trkpt>
      <trkpt lat="47.36721" lon="-2.49313">
        <ele>31.799999237061</ele>
        <time>2020-07-09T10:08:25.000Z</time>
      </trkpt>
      <trkpt lat="47.3672" lon="-2.4931">
        <ele>31.39999961853</ele>
        <time>2020-07-09T10:08:26.000Z</time>
      </trkpt>
      <trkpt lat="47.36719" lon="-2.49306">
        <ele>30.799999237061</ele>
        <time>2020-07-09T10:08:27.000Z</time>
      </trkpt>
      <trkpt lat="47.36718" lon="-2.49302">
        <ele>30.39999961853</ele>
        <time>2020-07-09T10:08:28.000Z</time>
      </trkpt>
      <trkpt lat="47.36716" lon="-2.49299">
        <ele>30</ele>
        <time>2020-07-09T10:08:29.000Z</time>
      </trkpt>
      <trkpt lat="47.3671" lon="-2.4928">
        <ele>30</ele>
        <time>2020-07-09T10:08:34.000Z</time>
      </trkpt>
      <trkpt lat="47.36696" lon="-2.4925">
        <ele>30</ele>
        <time>2020-07-09T10:08:41.000Z</time>
      </trkpt>
      <trkpt lat="47.36684" lon="-2.49226">
        <ele>30</ele>
        <time>2020-07-09T10:08:47.000Z</time>
      </trkpt>
      <trkpt lat="47.36669" lon="-2.49203">
        <ele>30</ele>
        <time>2020-07-09T10:08:53.000Z</time>
      </trkpt>
      <trkpt lat="47.36656" lon="-2.49197">
        <ele>30</ele>
        <time>2020-07-09T10:08:58.000Z</time>
      </trkpt>
      <trkpt lat="47.36652" lon="-2.49202">
        <ele>30</ele>
        <time>2020-07-09T10:09:01.000Z</time>
      </trkpt>
      <trkpt lat="47.36652" lon="-2.49204">
        <ele>30</ele>
        <time>2020-07-09T10:09:02.000Z</time>
      </trkpt>
      <trkpt lat="47.3665" lon="-2.49217">
        <ele>30</ele>
        <time>2020-07-09T10:09:07.000Z</time>
      </trkpt>
      <trkpt lat="47.36644" lon="-2.49234">
        <ele>30</ele>
        <time>2020-07-09T10:09:14.000Z</time>
      </trkpt>
      <trkpt lat="47.36637" lon="-2.49256">
        <ele>30</ele>
        <time>2020-07-09T10:09:20.000Z</time>
      </trkpt>
      <trkpt lat="47.36633" lon="-2.49281">
        <ele>30</ele>
        <time>2020-07-09T10:09:25.000Z</time>
      </trkpt>
      <trkpt lat="47.36631" lon="-2.49287">
        <ele>30</ele>
        <time>2020-07-09T10:09:26.000Z</time>
      </trkpt>
      <trkpt lat="47.36626" lon="-2.493">
        <ele>30</ele>
        <time>2020-07-09T10:09:28.000Z</time>
      </trkpt>
      <trkpt lat="47.36615" lon="-2.49317">
        <ele>30</ele>
        <time>2020-07-09T10:09:31.000Z</time>
      </trkpt>
      <trkpt lat="47.36583" lon="-2.49365">
        <ele>30</ele>
        <time>2020-07-09T10:09:39.000Z</time>
      </trkpt>
      <trkpt lat="47.36558" lon="-2.49399">
        <ele>30</ele>
        <time>2020-07-09T10:09:45.000Z</time>
      </trkpt>
      <trkpt lat="47.36542" lon="-2.49422">
        <ele>30</ele>
        <time>2020-07-09T10:09:49.000Z</time>
      </trkpt>
      <trkpt lat="47.36527" lon="-2.49439">
        <ele>30</ele>
        <time>2020-07-09T10:09:52.000Z</time>
      </trkpt>
      <trkpt lat="47.36497" lon="-2.49482">
        <ele>30</ele>
        <time>2020-07-09T10:09:58.000Z</time>
      </trkpt>
      <trkpt lat="47.36482" lon="-2.49504">
        <ele>29.60000038147</ele>
        <time>2020-07-09T10:10:01.000Z</time>
      </trkpt>
      <trkpt lat="47.36478" lon="-2.49512">
        <ele>29.200000762939</ele>
        <time>2020-07-09T10:10:02.000Z</time>
      </trkpt>
      <trkpt lat="47.36472" lon="-2.4952">
        <ele>28.799999237061</ele>
        <time>2020-07-09T10:10:03.000Z</time>
      </trkpt>
      <trkpt lat="47.36467" lon="-2.49527">
        <ele>28.200000762939</ele>
        <time>2020-07-09T10:10:04.000Z</time>
      </trkpt>
      <trkpt lat="47.36461" lon="-2.49534">
        <ele>27.799999237061</ele>
        <time>2020-07-09T10:10:05.000Z</time>
      </trkpt>
      <trkpt lat="47.36429" lon="-2.49579">
        <ele>27.799999237061</ele>
        <time>2020-07-09T10:10:11.000Z</time>
      </trkpt>
      <trkpt lat="47.36418" lon="-2.49594">
        <ele>27.799999237061</ele>
        <time>2020-07-09T10:10:13.000Z</time>
      </trkpt>
      <trkpt lat="47.36405" lon="-2.49615">
        <ele>27.39999961853</ele>
        <time>2020-07-09T10:10:16.000Z</time>
      </trkpt>
      <trkpt lat="47.36401" lon="-2.49621">
        <ele>27</ele>
        <time>2020-07-09T10:10:17.000Z</time>
      </trkpt>
      <trkpt lat="47.36396" lon="-2.49626">
        <ele>26.60000038147</ele>
        <time>2020-07-09T10:10:18.000Z</time>
      </trkpt>
      <trkpt lat="47.36392" lon="-2.49629">
        <ele>26.200000762939</ele>
        <time>2020-07-09T10:10:19.000Z</time>
      </trkpt>
      <trkpt lat="47.36387" lon="-2.4963">
        <ele>25.799999237061</ele>
        <time>2020-07-09T10:10:20.000Z</time>
      </trkpt>
      <trkpt lat="47.36383" lon="-2.49628">
        <ele>25.799999237061</ele>
        <time>2020-07-09T10:10:21.000Z</time>
      </trkpt>
      <trkpt lat="47.36375" lon="-2.49609">
        <ele>25.799999237061</ele>
        <time>2020-07-09T10:10:24.000Z</time>
      </trkpt>
      <trkpt lat="47.36374" lon="-2.49583">
        <ele>25.799999237061</ele>
        <time>2020-07-09T10:10:27.000Z</time>
      </trkpt>
      <trkpt lat="47.36373" lon="-2.49573">
        <ele>25.799999237061</ele>
        <time>2020-07-09T10:10:28.000Z</time>
      </trkpt>
      <trkpt lat="47.36374" lon="-2.49564">
        <ele>25.799999237061</ele>
        <time>2020-07-09T10:10:29.000Z</time>
      </trkpt>
      <trkpt lat="47.36373" lon="-2.49534">
        <ele>25.799999237061</ele>
        <time>2020-07-09T10:10:32.000Z</time>
      </trkpt>
      <trkpt lat="47.36368" lon="-2.49482">
        <ele>26.200000762939</ele>
        <time>2020-07-09T10:10:37.000Z</time>
      </trkpt>
      <trkpt lat="47.36368" lon="-2.49472">
        <ele>26.60000038147</ele>
        <time>2020-07-09T10:10:38.000Z</time>
      </trkpt>
      <trkpt lat="47.36367" lon="-2.49461">
        <ele>27</ele>
        <time>2020-07-09T10:10:39.000Z</time>
      </trkpt>
      <trkpt lat="47.36366" lon="-2.4945">
        <ele>27.39999961853</ele>
        <time>2020-07-09T10:10:40.000Z</time>
      </trkpt>
      <trkpt lat="47.36365" lon="-2.49439">
        <ele>27.799999237061</ele>
        <time>2020-07-09T10:10:41.000Z</time>
      </trkpt>
      <trkpt lat="47.36362" lon="-2.49408">
        <ele>27.799999237061</ele>
        <time>2020-07-09T10:10:44.000Z</time>
      </trkpt>
      <trkpt lat="47.36354" lon="-2.49321">
        <ele>27.799999237061</ele>
        <time>2020-07-09T10:10:53.000Z</time>
      </trkpt>
      <trkpt lat="47.36346" lon="-2.49245">
        <ele>27.799999237061</ele>
        <time>2020-07-09T10:11:01.000Z</time>
      </trkpt>
      <trkpt lat="47.36339" lon="-2.4917">
        <ele>27.799999237061</ele>
        <time>2020-07-09T10:11:09.000Z</time>
      </trkpt>
      <trkpt lat="47.36335" lon="-2.49121">
        <ele>27.799999237061</ele>
        <time>2020-07-09T10:11:15.000Z</time>
      </trkpt>
      <trkpt lat="47.36331" lon="-2.491">
        <ele>27.799999237061</ele>
        <time>2020-07-09T10:11:18.000Z</time>
      </trkpt>
      <trkpt lat="47.36328" lon="-2.49096">
        <ele>27.799999237061</ele>
        <time>2020-07-09T10:11:19.000Z</time>
      </trkpt>
      <trkpt lat="47.36311" lon="-2.49091">
        <ele>27.799999237061</ele>
        <time>2020-07-09T10:11:23.000Z</time>
      </trkpt>
      <trkpt lat="47.36305" lon="-2.49093">
        <ele>27.799999237061</ele>
        <time>2020-07-09T10:11:24.000Z</time>
      </trkpt>
      <trkpt lat="47.36273" lon="-2.49109">
        <ele>27.799999237061</ele>
        <time>2020-07-09T10:11:30.000Z</time>
      </trkpt>
      <trkpt lat="47.36224" lon="-2.49132">
        <ele>27.799999237061</ele>
        <time>2020-07-09T10:11:39.000Z</time>
      </trkpt>
      <trkpt lat="47.36191" lon="-2.49149">
        <ele>27.799999237061</ele>
        <time>2020-07-09T10:11:45.000Z</time>
      </trkpt>
      <trkpt lat="47.36158" lon="-2.49164">
        <ele>28.200000762939</ele>
        <time>2020-07-09T10:11:51.000Z</time>
      </trkpt>
      <trkpt lat="47.36152" lon="-2.49165">
        <ele>28.60000038147</ele>
        <time>2020-07-09T10:11:52.000Z</time>
      </trkpt>
      <trkpt lat="47.36147" lon="-2.49166">
        <ele>29</ele>
        <time>2020-07-09T10:11:53.000Z</time>
      </trkpt>
      <trkpt lat="47.36141" lon="-2.49167">
        <ele>29.39999961853</ele>
        <time>2020-07-09T10:11:54.000Z</time>
      </trkpt>
      <trkpt lat="47.36136" lon="-2.49168">
        <ele>29.799999237061</ele>
        <time>2020-07-09T10:11:55.000Z</time>
      </trkpt>
      <trkpt lat="47.36113" lon="-2.49171">
        <ele>29.799999237061</ele>
        <time>2020-07-09T10:11:59.000Z</time>
      </trkpt>
      <trkpt lat="47.36085" lon="-2.4917">
        <ele>29.799999237061</ele>
        <time>2020-07-09T10:12:04.000Z</time>
      </trkpt>
      <trkpt lat="47.36074" lon="-2.49169">
        <ele>30.200000762939</ele>
        <time>2020-07-09T10:12:06.000Z</time>
      </trkpt>
      <trkpt lat="47.36069" lon="-2.49169">
        <ele>30.60000038147</ele>
        <time>2020-07-09T10:12:07.000Z</time>
      </trkpt>
      <trkpt lat="47.36064" lon="-2.49169">
        <ele>31</ele>
        <time>2020-07-09T10:12:08.000Z</time>
      </trkpt>
      <trkpt lat="47.36059" lon="-2.49168">
        <ele>31.39999961853</ele>
        <time>2020-07-09T10:12:09.000Z</time>
      </trkpt>
      <trkpt lat="47.36054" lon="-2.49167">
        <ele>31.799999237061</ele>
        <time>2020-07-09T10:12:10.000Z</time>
      </trkpt>
      <trkpt lat="47.36027" lon="-2.49164">
        <ele>31.799999237061</ele>
        <time>2020-07-09T10:12:15.000Z</time>
      </trkpt>
      <trkpt lat="47.35999" lon="-2.4916">
        <ele>31.799999237061</ele>
        <time>2020-07-09T10:12:21.000Z</time>
      </trkpt>
      <trkpt lat="47.35994" lon="-2.49159">
        <ele>31.799999237061</ele>
        <time>2020-07-09T10:12:22.000Z</time>
      </trkpt>
      <trkpt lat="47.35982" lon="-2.49149">
        <ele>31.799999237061</ele>
        <time>2020-07-09T10:12:25.000Z</time>
      </trkpt>
      <trkpt lat="47.35974" lon="-2.49142">
        <ele>32.799999237061</ele>
        <time>2020-07-09T10:12:27.000Z</time>
      </trkpt>
      <trkpt lat="47.35971" lon="-2.49138">
        <ele>33.200000762939</ele>
        <time>2020-07-09T10:12:28.000Z</time>
      </trkpt>
      <trkpt lat="47.35968" lon="-2.49135">
        <ele>33.599998474121</ele>
        <time>2020-07-09T10:12:29.000Z</time>
      </trkpt>
      <trkpt lat="47.35965" lon="-2.49131">
        <ele>34</ele>
        <time>2020-07-09T10:12:30.000Z</time>
      </trkpt>
      <trkpt lat="47.35961" lon="-2.49129">
        <ele>34</ele>
        <time>2020-07-09T10:12:31.000Z</time>
      </trkpt>
      <trkpt lat="47.35947" lon="-2.49118">
        <ele>34</ele>
        <time>2020-07-09T10:12:35.000Z</time>
      </trkpt>
      <trkpt lat="47.35943" lon="-2.49117">
        <ele>34</ele>
        <time>2020-07-09T10:12:36.000Z</time>
      </trkpt>
      <trkpt lat="47.35919" lon="-2.49111">
        <ele>34</ele>
        <time>2020-07-09T10:12:41.000Z</time>
      </trkpt>
      <trkpt lat="47.35914" lon="-2.49111">
        <ele>34</ele>
        <time>2020-07-09T10:12:42.000Z</time>
      </trkpt>
      <trkpt lat="47.35881" lon="-2.49113">
        <ele>34</ele>
        <time>2020-07-09T10:12:48.000Z</time>
      </trkpt>
      <trkpt lat="47.35842" lon="-2.49107">
        <ele>34</ele>
        <time>2020-07-09T10:12:54.000Z</time>
      </trkpt>
      <trkpt lat="47.35822" lon="-2.49107">
        <ele>34</ele>
        <time>2020-07-09T10:12:57.000Z</time>
      </trkpt>
      <trkpt lat="47.3581" lon="-2.4911">
        <ele>34</ele>
        <time>2020-07-09T10:12:59.000Z</time>
      </trkpt>
      <trkpt lat="47.35786" lon="-2.49124">
        <ele>34</ele>
        <time>2020-07-09T10:13:03.000Z</time>
      </trkpt>
      <trkpt lat="47.35782" lon="-2.49132">
        <ele>34</ele>
        <time>2020-07-09T10:13:04.000Z</time>
      </trkpt>
      <trkpt lat="47.3575" lon="-2.49165">
        <ele>33.599998474121</ele>
        <time>2020-07-09T10:13:10.000Z</time>
      </trkpt>
      <trkpt lat="47.35745" lon="-2.49171">
        <ele>33.200000762939</ele>
        <time>2020-07-09T10:13:11.000Z</time>
      </trkpt>
      <trkpt lat="47.3574" lon="-2.49177">
        <ele>32.599998474121</ele>
        <time>2020-07-09T10:13:12.000Z</time>
      </trkpt>
      <trkpt lat="47.35735" lon="-2.49183">
        <ele>32.200000762939</ele>
        <time>2020-07-09T10:13:13.000Z</time>
      </trkpt>
      <trkpt lat="47.3573" lon="-2.4919">
        <ele>31.799999237061</ele>
        <time>2020-07-09T10:13:14.000Z</time>
      </trkpt>
      <trkpt lat="47.35721" lon="-2.49203">
        <ele>31.799999237061</ele>
        <time>2020-07-09T10:13:16.000Z</time>
      </trkpt>
      <trkpt lat="47.35717" lon="-2.49207">
        <ele>31</ele>
        <time>2020-07-09T10:13:17.000Z</time>
      </trkpt>
      <trkpt lat="47.35714" lon="-2.4921">
        <ele>30.60000038147</ele>
        <time>2020-07-09T10:13:18.000Z</time>
      </trkpt>
      <trkpt lat="47.3571" lon="-2.49213">
        <ele>30</ele>
        <time>2020-07-09T10:13:19.000Z</time>
      </trkpt>
      <trkpt lat="47.35708" lon="-2.49215">
        <ele>29.60000038147</ele>
        <time>2020-07-09T10:13:20.000Z</time>
      </trkpt>
      <trkpt lat="47.35689" lon="-2.49232">
        <ele>29.60000038147</ele>
        <time>2020-07-09T10:13:27.000Z</time>
      </trkpt>
      <trkpt lat="47.35666" lon="-2.49251">
        <ele>29.60000038147</ele>
        <time>2020-07-09T10:13:35.000Z</time>
      </trkpt>
      <trkpt lat="47.35652" lon="-2.49262">
        <ele>29.60000038147</ele>
        <time>2020-07-09T10:13:42.000Z</time>
      </trkpt>
      <trkpt lat="47.35652" lon="-2.49262">
        <ele>29.60000038147</ele>
        <time>2020-07-09T10:13:43.000Z</time>
      </trkpt>
      <trkpt lat="47.3565" lon="-2.49265">
        <ele>28.39999961853</ele>
        <time>2020-07-09T10:13:48.000Z</time>
      </trkpt>
      <trkpt lat="47.35649" lon="-2.49266">
        <ele>28</ele>
        <time>2020-07-09T10:13:49.000Z</time>
      </trkpt>
      <trkpt lat="47.35648" lon="-2.49268">
        <ele>27.60000038147</ele>
        <time>2020-07-09T10:13:50.000Z</time>
      </trkpt>
      <trkpt lat="47.35646" lon="-2.49269">
        <ele>27.60000038147</ele>
        <time>2020-07-09T10:13:52.000Z</time>
      </trkpt>
      <trkpt lat="47.35644" lon="-2.49272">
        <ele>27.60000038147</ele>
        <time>2020-07-09T10:14:10.000Z</time>
      </trkpt>
      <trkpt lat="47.35642" lon="-2.49273">
        <ele>27.60000038147</ele>
        <time>2020-07-09T10:14:11.000Z</time>
      </trkpt>
      <trkpt lat="47.35628" lon="-2.49286">
        <ele>27.60000038147</ele>
        <time>2020-07-09T10:14:16.000Z</time>
      </trkpt>
      <trkpt lat="47.35624" lon="-2.49289">
        <ele>27.60000038147</ele>
        <time>2020-07-09T10:14:17.000Z</time>
      </trkpt>
      <trkpt lat="47.35615" lon="-2.49295">
        <ele>27.60000038147</ele>
        <time>2020-07-09T10:14:19.000Z</time>
      </trkpt>
      <trkpt lat="47.35607" lon="-2.49305">
        <ele>27.60000038147</ele>
        <time>2020-07-09T10:14:21.000Z</time>
      </trkpt>
      <trkpt lat="47.35598" lon="-2.49327">
        <ele>27.60000038147</ele>
        <time>2020-07-09T10:14:24.000Z</time>
      </trkpt>
      <trkpt lat="47.35592" lon="-2.49341">
        <ele>27.60000038147</ele>
        <time>2020-07-09T10:14:26.000Z</time>
      </trkpt>
      <trkpt lat="47.35583" lon="-2.49361">
        <ele>27.60000038147</ele>
        <time>2020-07-09T10:14:30.000Z</time>
      </trkpt>
      <trkpt lat="47.35581" lon="-2.49364">
        <ele>27.60000038147</ele>
        <time>2020-07-09T10:14:34.000Z</time>
      </trkpt>
      <trkpt lat="47.35581" lon="-2.49367">
        <ele>25.60000038147</ele>
        <time>2020-07-09T10:14:49.000Z</time>
      </trkpt>
      <trkpt lat="47.35575" lon="-2.4938">
        <ele>25.60000038147</ele>
        <time>2020-07-09T10:14:53.000Z</time>
      </trkpt>
      <trkpt lat="47.35562" lon="-2.49412">
        <ele>25.60000038147</ele>
        <time>2020-07-09T10:14:59.000Z</time>
      </trkpt>
      <trkpt lat="47.35544" lon="-2.4945">
        <ele>25.60000038147</ele>
        <time>2020-07-09T10:15:05.000Z</time>
      </trkpt>
      <trkpt lat="47.35525" lon="-2.4947">
        <ele>25.60000038147</ele>
        <time>2020-07-09T10:15:09.000Z</time>
      </trkpt>
      <trkpt lat="47.35503" lon="-2.49491">
        <ele>25.200000762939</ele>
        <time>2020-07-09T10:15:13.000Z</time>
      </trkpt>
      <trkpt lat="47.35497" lon="-2.49497">
        <ele>24.60000038147</ele>
        <time>2020-07-09T10:15:14.000Z</time>
      </trkpt>
      <trkpt lat="47.35492" lon="-2.49502">
        <ele>24.200000762939</ele>
        <time>2020-07-09T10:15:15.000Z</time>
      </trkpt>
      <trkpt lat="47.35487" lon="-2.49508">
        <ele>23.799999237061</ele>
        <time>2020-07-09T10:15:16.000Z</time>
      </trkpt>
      <trkpt lat="47.35481" lon="-2.49513">
        <ele>23.39999961853</ele>
        <time>2020-07-09T10:15:17.000Z</time>
      </trkpt>
      <trkpt lat="47.3546" lon="-2.49536">
        <ele>23.39999961853</ele>
        <time>2020-07-09T10:15:21.000Z</time>
      </trkpt>
      <trkpt lat="47.35441" lon="-2.49562">
        <ele>23.39999961853</ele>
        <time>2020-07-09T10:15:25.000Z</time>
      </trkpt>
      <trkpt lat="47.35436" lon="-2.49566">
        <ele>23</ele>
        <time>2020-07-09T10:15:26.000Z</time>
      </trkpt>
      <trkpt lat="47.35429" lon="-2.49568">
        <ele>22.39999961853</ele>
        <time>2020-07-09T10:15:27.000Z</time>
      </trkpt>
      <trkpt lat="47.35422" lon="-2.49569">
        <ele>22</ele>
        <time>2020-07-09T10:15:28.000Z</time>
      </trkpt>
      <trkpt lat="47.35416" lon="-2.49568">
        <ele>21.60000038147</ele>
        <time>2020-07-09T10:15:29.000Z</time>
      </trkpt>
      <trkpt lat="47.35409" lon="-2.49568">
        <ele>21.200000762939</ele>
        <time>2020-07-09T10:15:30.000Z</time>
      </trkpt>
      <trkpt lat="47.35392" lon="-2.49568">
        <ele>21.200000762939</ele>
        <time>2020-07-09T10:15:33.000Z</time>
      </trkpt>
      <trkpt lat="47.35381" lon="-2.49573">
        <ele>21.200000762939</ele>
        <time>2020-07-09T10:15:35.000Z</time>
      </trkpt>
      <trkpt lat="47.3537" lon="-2.49581">
        <ele>21.200000762939</ele>
        <time>2020-07-09T10:15:37.000Z</time>
      </trkpt>
      <trkpt lat="47.35365" lon="-2.49586">
        <ele>20.799999237061</ele>
        <time>2020-07-09T10:15:38.000Z</time>
      </trkpt>
      <trkpt lat="47.35361" lon="-2.49591">
        <ele>20.39999961853</ele>
        <time>2020-07-09T10:15:39.000Z</time>
      </trkpt>
      <trkpt lat="47.35356" lon="-2.49596">
        <ele>20</ele>
        <time>2020-07-09T10:15:40.000Z</time>
      </trkpt>
      <trkpt lat="47.35352" lon="-2.49602">
        <ele>19.60000038147</ele>
        <time>2020-07-09T10:15:41.000Z</time>
      </trkpt>
      <trkpt lat="47.35348" lon="-2.49608">
        <ele>19.200000762939</ele>
        <time>2020-07-09T10:15:42.000Z</time>
      </trkpt>
      <trkpt lat="47.35338" lon="-2.49617">
        <ele>19.200000762939</ele>
        <time>2020-07-09T10:15:44.000Z</time>
      </trkpt>
      <trkpt lat="47.35328" lon="-2.49618">
        <ele>19.200000762939</ele>
        <time>2020-07-09T10:15:46.000Z</time>
      </trkpt>
      <trkpt lat="47.35309" lon="-2.49606">
        <ele>19.200000762939</ele>
        <time>2020-07-09T10:15:50.000Z</time>
      </trkpt>
      <trkpt lat="47.35285" lon="-2.49592">
        <ele>19.200000762939</ele>
        <time>2020-07-09T10:15:55.000Z</time>
      </trkpt>
      <trkpt lat="47.3528" lon="-2.49594">
        <ele>19.200000762939</ele>
        <time>2020-07-09T10:15:56.000Z</time>
      </trkpt>
      <trkpt lat="47.3526" lon="-2.49608">
        <ele>19.200000762939</ele>
        <time>2020-07-09T10:16:00.000Z</time>
      </trkpt>
      <trkpt lat="47.35256" lon="-2.49612">
        <ele>19.200000762939</ele>
        <time>2020-07-09T10:16:01.000Z</time>
      </trkpt>
      <trkpt lat="47.35227" lon="-2.49646">
        <ele>19.200000762939</ele>
        <time>2020-07-09T10:16:08.000Z</time>
      </trkpt>
      <trkpt lat="47.3521" lon="-2.49659">
        <ele>19.60000038147</ele>
        <time>2020-07-09T10:16:12.000Z</time>
      </trkpt>
      <trkpt lat="47.35206" lon="-2.49662">
        <ele>20</ele>
        <time>2020-07-09T10:16:13.000Z</time>
      </trkpt>
      <trkpt lat="47.35201" lon="-2.49665">
        <ele>20.39999961853</ele>
        <time>2020-07-09T10:16:14.000Z</time>
      </trkpt>
      <trkpt lat="47.35197" lon="-2.49668">
        <ele>20.799999237061</ele>
        <time>2020-07-09T10:16:15.000Z</time>
      </trkpt>
      <trkpt lat="47.35193" lon="-2.49671">
        <ele>21.200000762939</ele>
        <time>2020-07-09T10:16:16.000Z</time>
      </trkpt>
      <trkpt lat="47.35172" lon="-2.49687">
        <ele>21.200000762939</ele>
        <time>2020-07-09T10:16:21.000Z</time>
      </trkpt>
      <trkpt lat="47.35164" lon="-2.49696">
        <ele>21.200000762939</ele>
        <time>2020-07-09T10:16:23.000Z</time>
      </trkpt>
      <trkpt lat="47.35153" lon="-2.49709">
        <ele>21.200000762939</ele>
        <time>2020-07-09T10:16:26.000Z</time>
      </trkpt>
      <trkpt lat="47.35148" lon="-2.4972">
        <ele>21.200000762939</ele>
        <time>2020-07-09T10:16:28.000Z</time>
      </trkpt>
      <trkpt lat="47.35136" lon="-2.49739">
        <ele>21.200000762939</ele>
        <time>2020-07-09T10:16:33.000Z</time>
      </trkpt>
      <trkpt lat="47.35121" lon="-2.49751">
        <ele>20.799999237061</ele>
        <time>2020-07-09T10:16:37.000Z</time>
      </trkpt>
      <trkpt lat="47.35117" lon="-2.49754">
        <ele>20.39999961853</ele>
        <time>2020-07-09T10:16:38.000Z</time>
      </trkpt>
      <trkpt lat="47.35113" lon="-2.49756">
        <ele>20</ele>
        <time>2020-07-09T10:16:39.000Z</time>
      </trkpt>
      <trkpt lat="47.35109" lon="-2.49759">
        <ele>19.60000038147</ele>
        <time>2020-07-09T10:16:40.000Z</time>
      </trkpt>
      <trkpt lat="47.35105" lon="-2.49763">
        <ele>19.200000762939</ele>
        <time>2020-07-09T10:16:41.000Z</time>
      </trkpt>
      <trkpt lat="47.35092" lon="-2.49779">
        <ele>19.200000762939</ele>
        <time>2020-07-09T10:16:44.000Z</time>
      </trkpt>
      <trkpt lat="47.35087" lon="-2.49783">
        <ele>18.60000038147</ele>
        <time>2020-07-09T10:16:45.000Z</time>
      </trkpt>
      <trkpt lat="47.35081" lon="-2.49787">
        <ele>18.200000762939</ele>
        <time>2020-07-09T10:16:46.000Z</time>
      </trkpt>
      <trkpt lat="47.35077" lon="-2.49789">
        <ele>17.799999237061</ele>
        <time>2020-07-09T10:16:47.000Z</time>
      </trkpt>
      <trkpt lat="47.35073" lon="-2.49791">
        <ele>17.39999961853</ele>
        <time>2020-07-09T10:16:48.000Z</time>
      </trkpt>
      <trkpt lat="47.3507" lon="-2.49792">
        <ele>17</ele>
        <time>2020-07-09T10:16:49.000Z</time>
      </trkpt>
      <trkpt lat="47.35059" lon="-2.49794">
        <ele>16.60000038147</ele>
        <time>2020-07-09T10:16:53.000Z</time>
      </trkpt>
      <trkpt lat="47.35056" lon="-2.49795">
        <ele>16.200000762939</ele>
        <time>2020-07-09T10:16:54.000Z</time>
      </trkpt>
      <trkpt lat="47.35053" lon="-2.49793">
        <ele>15.800000190735</ele>
        <time>2020-07-09T10:16:55.000Z</time>
      </trkpt>
      <trkpt lat="47.3505" lon="-2.49789">
        <ele>15.39999961853</ele>
        <time>2020-07-09T10:16:56.000Z</time>
      </trkpt>
      <trkpt lat="47.35048" lon="-2.49783">
        <ele>15</ele>
        <time>2020-07-09T10:16:57.000Z</time>
      </trkpt>
      <trkpt lat="47.35045" lon="-2.49771">
        <ele>15</ele>
        <time>2020-07-09T10:16:59.000Z</time>
      </trkpt>
      <trkpt lat="47.35043" lon="-2.49765">
        <ele>15</ele>
        <time>2020-07-09T10:17:00.000Z</time>
      </trkpt>
      <trkpt lat="47.35041" lon="-2.49752">
        <ele>15</ele>
        <time>2020-07-09T10:17:02.000Z</time>
      </trkpt>
      <trkpt lat="47.35031" lon="-2.49709">
        <ele>15</ele>
        <time>2020-07-09T10:17:09.000Z</time>
      </trkpt>
      <trkpt lat="47.3502" lon="-2.49666">
        <ele>15</ele>
        <time>2020-07-09T10:17:16.000Z</time>
      </trkpt>
      <trkpt lat="47.35016" lon="-2.49654">
        <ele>15</ele>
        <time>2020-07-09T10:17:18.000Z</time>
      </trkpt>
      <trkpt lat="47.35009" lon="-2.4963">
        <ele>15</ele>
        <time>2020-07-09T10:17:22.000Z</time>
      </trkpt>
      <trkpt lat="47.34993" lon="-2.49603">
        <ele>15</ele>
        <time>2020-07-09T10:17:27.000Z</time>
      </trkpt>
      <trkpt lat="47.34963" lon="-2.49566">
        <ele>15</ele>
        <time>2020-07-09T10:17:35.000Z</time>
      </trkpt>
      <trkpt lat="47.34933" lon="-2.49527">
        <ele>15.39999961853</ele>
        <time>2020-07-09T10:17:43.000Z</time>
      </trkpt>
      <trkpt lat="47.34931" lon="-2.49522">
        <ele>15.800000190735</ele>
        <time>2020-07-09T10:17:44.000Z</time>
      </trkpt>
      <trkpt lat="47.34928" lon="-2.49517">
        <ele>16.200000762939</ele>
        <time>2020-07-09T10:17:45.000Z</time>
      </trkpt>
      <trkpt lat="47.34925" lon="-2.49512">
        <ele>16.60000038147</ele>
        <time>2020-07-09T10:17:46.000Z</time>
      </trkpt>
      <trkpt lat="47.34923" lon="-2.49507">
        <ele>17</ele>
        <time>2020-07-09T10:17:47.000Z</time>
      </trkpt>
      <trkpt lat="47.34922" lon="-2.49501">
        <ele>17</ele>
        <time>2020-07-09T10:17:48.000Z</time>
      </trkpt>
      <trkpt lat="47.34916" lon="-2.49487">
        <ele>17</ele>
        <time>2020-07-09T10:17:51.000Z</time>
      </trkpt>
      <trkpt lat="47.34912" lon="-2.49484">
        <ele>17</ele>
        <time>2020-07-09T10:17:52.000Z</time>
      </trkpt>
      <trkpt lat="47.34889" lon="-2.49463">
        <ele>17</ele>
        <time>2020-07-09T10:17:57.000Z</time>
      </trkpt>
      <trkpt lat="47.34867" lon="-2.49433">
        <ele>17</ele>
        <time>2020-07-09T10:18:02.000Z</time>
      </trkpt>
      <trkpt lat="47.34834" lon="-2.49391">
        <ele>17</ele>
        <time>2020-07-09T10:18:09.000Z</time>
      </trkpt>
      <trkpt lat="47.34815" lon="-2.49376">
        <ele>17</ele>
        <time>2020-07-09T10:18:12.000Z</time>
      </trkpt>
      <trkpt lat="47.34808" lon="-2.49372">
        <ele>16.60000038147</ele>
        <time>2020-07-09T10:18:13.000Z</time>
      </trkpt>
      <trkpt lat="47.34802" lon="-2.49368">
        <ele>16</ele>
        <time>2020-07-09T10:18:14.000Z</time>
      </trkpt>
      <trkpt lat="47.34796" lon="-2.49365">
        <ele>15.199999809265</ele>
        <time>2020-07-09T10:18:15.000Z</time>
      </trkpt>
      <trkpt lat="47.34792" lon="-2.49362">
        <ele>14.60000038147</ele>
        <time>2020-07-09T10:18:16.000Z</time>
      </trkpt>
      <trkpt lat="47.34787" lon="-2.4936">
        <ele>14.199999809265</ele>
        <time>2020-07-09T10:18:17.000Z</time>
      </trkpt>
      <trkpt lat="47.34783" lon="-2.49359">
        <ele>13.800000190735</ele>
        <time>2020-07-09T10:18:18.000Z</time>
      </trkpt>
      <trkpt lat="47.34778" lon="-2.49357">
        <ele>13.39999961853</ele>
        <time>2020-07-09T10:18:19.000Z</time>
      </trkpt>
      <trkpt lat="47.34774" lon="-2.49355">
        <ele>13</ele>
        <time>2020-07-09T10:18:20.000Z</time>
      </trkpt>
      <trkpt lat="47.3477" lon="-2.49352">
        <ele>12.39999961853</ele>
        <time>2020-07-09T10:18:21.000Z</time>
      </trkpt>
      <trkpt lat="47.34769" lon="-2.49346">
        <ele>12.39999961853</ele>
        <time>2020-07-09T10:18:22.000Z</time>
      </trkpt>
      <trkpt lat="47.34764" lon="-2.49325">
        <ele>12.39999961853</ele>
        <time>2020-07-09T10:18:26.000Z</time>
      </trkpt>
      <trkpt lat="47.34763" lon="-2.49319">
        <ele>12.39999961853</ele>
        <time>2020-07-09T10:18:27.000Z</time>
      </trkpt>
      <trkpt lat="47.34762" lon="-2.49313">
        <ele>12.39999961853</ele>
        <time>2020-07-09T10:18:28.000Z</time>
      </trkpt>
      <trkpt lat="47.34753" lon="-2.49281">
        <ele>12.39999961853</ele>
        <time>2020-07-09T10:18:34.000Z</time>
      </trkpt>
      <trkpt lat="47.34742" lon="-2.49253">
        <ele>12.39999961853</ele>
        <time>2020-07-09T10:18:40.000Z</time>
      </trkpt>
      <trkpt lat="47.34729" lon="-2.4923">
        <ele>12.39999961853</ele>
        <time>2020-07-09T10:18:44.000Z</time>
      </trkpt>
      <trkpt lat="47.3472" lon="-2.4922">
        <ele>12.39999961853</ele>
        <time>2020-07-09T10:18:46.000Z</time>
      </trkpt>
      <trkpt lat="47.34701" lon="-2.49197">
        <ele>12.39999961853</ele>
        <time>2020-07-09T10:18:50.000Z</time>
      </trkpt>
      <trkpt lat="47.34694" lon="-2.49181">
        <ele>12.39999961853</ele>
        <time>2020-07-09T10:18:52.000Z</time>
      </trkpt>
      <trkpt lat="47.34688" lon="-2.49165">
        <ele>12.39999961853</ele>
        <time>2020-07-09T10:18:54.000Z</time>
      </trkpt>
      <trkpt lat="47.34673" lon="-2.49114">
        <ele>12.39999961853</ele>
        <time>2020-07-09T10:19:00.000Z</time>
      </trkpt>
      <trkpt lat="47.34656" lon="-2.49062">
        <ele>12.39999961853</ele>
        <time>2020-07-09T10:19:06.000Z</time>
      </trkpt>
      <trkpt lat="47.34629" lon="-2.48998">
        <ele>12.39999961853</ele>
        <time>2020-07-09T10:19:14.000Z</time>
      </trkpt>
      <trkpt lat="47.34626" lon="-2.48991">
        <ele>12.800000190735</ele>
        <time>2020-07-09T10:19:15.000Z</time>
      </trkpt>
      <trkpt lat="47.34622" lon="-2.48985">
        <ele>13.39999961853</ele>
        <time>2020-07-09T10:19:16.000Z</time>
      </trkpt>
      <trkpt lat="47.34618" lon="-2.48977">
        <ele>13.800000190735</ele>
        <time>2020-07-09T10:19:17.000Z</time>
      </trkpt>
      <trkpt lat="47.34614" lon="-2.4897">
        <ele>14.199999809265</ele>
        <time>2020-07-09T10:19:18.000Z</time>
      </trkpt>
      <trkpt lat="47.3461" lon="-2.48964">
        <ele>14.60000038147</ele>
        <time>2020-07-09T10:19:19.000Z</time>
      </trkpt>
      <trkpt lat="47.34606" lon="-2.48958">
        <ele>14.60000038147</ele>
        <time>2020-07-09T10:19:20.000Z</time>
      </trkpt>
      <trkpt lat="47.34602" lon="-2.48952">
        <ele>14.60000038147</ele>
        <time>2020-07-09T10:19:21.000Z</time>
      </trkpt>
      <trkpt lat="47.34567" lon="-2.489">
        <ele>14.60000038147</ele>
        <time>2020-07-09T10:19:29.000Z</time>
      </trkpt>
      <trkpt lat="47.34547" lon="-2.4887">
        <ele>14.60000038147</ele>
        <time>2020-07-09T10:19:35.000Z</time>
      </trkpt>
      <trkpt lat="47.34533" lon="-2.48843">
        <ele>14.60000038147</ele>
        <time>2020-07-09T10:19:41.000Z</time>
      </trkpt>
      <trkpt lat="47.34521" lon="-2.48819">
        <ele>14.60000038147</ele>
        <time>2020-07-09T10:19:47.000Z</time>
      </trkpt>
      <trkpt lat="47.34505" lon="-2.48797">
        <ele>14.60000038147</ele>
        <time>2020-07-09T10:19:53.000Z</time>
      </trkpt>
      <trkpt lat="47.34482" lon="-2.4876">
        <ele>14.60000038147</ele>
        <time>2020-07-09T10:20:00.000Z</time>
      </trkpt>
      <trkpt lat="47.34458" lon="-2.48714">
        <ele>14.60000038147</ele>
        <time>2020-07-09T10:20:07.000Z</time>
      </trkpt>
      <trkpt lat="47.34441" lon="-2.48668">
        <ele>14.60000038147</ele>
        <time>2020-07-09T10:20:13.000Z</time>
      </trkpt>
      <trkpt lat="47.3442" lon="-2.48604">
        <ele>14.60000038147</ele>
        <time>2020-07-09T10:20:21.000Z</time>
      </trkpt>
      <trkpt lat="47.34402" lon="-2.4855">
        <ele>14.60000038147</ele>
        <time>2020-07-09T10:20:28.000Z</time>
      </trkpt>
      <trkpt lat="47.34389" lon="-2.48506">
        <ele>14.60000038147</ele>
        <time>2020-07-09T10:20:34.000Z</time>
      </trkpt>
      <trkpt lat="47.34386" lon="-2.48498">
        <ele>14.60000038147</ele>
        <time>2020-07-09T10:20:35.000Z</time>
      </trkpt>
      <trkpt lat="47.34377" lon="-2.48478">
        <ele>14.60000038147</ele>
        <time>2020-07-09T10:20:38.000Z</time>
      </trkpt>
      <trkpt lat="47.3437" lon="-2.48457">
        <ele>14.60000038147</ele>
        <time>2020-07-09T10:20:41.000Z</time>
      </trkpt>
      <trkpt lat="47.34364" lon="-2.48437">
        <ele>15</ele>
        <time>2020-07-09T10:20:44.000Z</time>
      </trkpt>
      <trkpt lat="47.34362" lon="-2.4843">
        <ele>15.39999961853</ele>
        <time>2020-07-09T10:20:45.000Z</time>
      </trkpt>
      <trkpt lat="47.34361" lon="-2.48424">
        <ele>15.800000190735</ele>
        <time>2020-07-09T10:20:46.000Z</time>
      </trkpt>
      <trkpt lat="47.34359" lon="-2.48418">
        <ele>16.200000762939</ele>
        <time>2020-07-09T10:20:47.000Z</time>
      </trkpt>
      <trkpt lat="47.34357" lon="-2.48412">
        <ele>16.60000038147</ele>
        <time>2020-07-09T10:20:48.000Z</time>
      </trkpt>
      <trkpt lat="47.34356" lon="-2.48407">
        <ele>16.60000038147</ele>
        <time>2020-07-09T10:20:49.000Z</time>
      </trkpt>
      <trkpt lat="47.34353" lon="-2.48401">
        <ele>16.60000038147</ele>
        <time>2020-07-09T10:20:50.000Z</time>
      </trkpt>
      <trkpt lat="47.34347" lon="-2.4839">
        <ele>16.60000038147</ele>
        <time>2020-07-09T10:20:52.000Z</time>
      </trkpt>
      <trkpt lat="47.34342" lon="-2.48384">
        <ele>16.60000038147</ele>
        <time>2020-07-09T10:20:53.000Z</time>
      </trkpt>
      <trkpt lat="47.34319" lon="-2.48371">
        <ele>16.60000038147</ele>
        <time>2020-07-09T10:20:57.000Z</time>
      </trkpt>
      <trkpt lat="47.34291" lon="-2.48376">
        <ele>16.60000038147</ele>
        <time>2020-07-09T10:21:01.000Z</time>
      </trkpt>
      <trkpt lat="47.34261" lon="-2.48384">
        <ele>16.200000762939</ele>
        <time>2020-07-09T10:21:05.000Z</time>
      </trkpt>
      <trkpt lat="47.34253" lon="-2.48383">
        <ele>15.800000190735</ele>
        <time>2020-07-09T10:21:06.000Z</time>
      </trkpt>
      <trkpt lat="47.34245" lon="-2.4838">
        <ele>15.199999809265</ele>
        <time>2020-07-09T10:21:07.000Z</time>
      </trkpt>
      <trkpt lat="47.34236" lon="-2.48376">
        <ele>14.39999961853</ele>
        <time>2020-07-09T10:21:08.000Z</time>
      </trkpt>
      <trkpt lat="47.34211" lon="-2.48353">
        <ele>14.39999961853</ele>
        <time>2020-07-09T10:21:11.000Z</time>
      </trkpt>
      <trkpt lat="47.34196" lon="-2.48335">
        <ele>14</ele>
        <time>2020-07-09T10:21:13.000Z</time>
      </trkpt>
      <trkpt lat="47.34189" lon="-2.48325">
        <ele>13.60000038147</ele>
        <time>2020-07-09T10:21:14.000Z</time>
      </trkpt>
      <trkpt lat="47.34182" lon="-2.48316">
        <ele>13.199999809265</ele>
        <time>2020-07-09T10:21:15.000Z</time>
      </trkpt>
      <trkpt lat="47.34175" lon="-2.48307">
        <ele>12.800000190735</ele>
        <time>2020-07-09T10:21:16.000Z</time>
      </trkpt>
      <trkpt lat="47.34167" lon="-2.48298">
        <ele>12.39999961853</ele>
        <time>2020-07-09T10:21:17.000Z</time>
      </trkpt>
      <trkpt lat="47.34145" lon="-2.48277">
        <ele>12.39999961853</ele>
        <time>2020-07-09T10:21:20.000Z</time>
      </trkpt>
      <trkpt lat="47.34138" lon="-2.48273">
        <ele>12.39999961853</ele>
        <time>2020-07-09T10:21:21.000Z</time>
      </trkpt>
      <trkpt lat="47.34099" lon="-2.48259">
        <ele>12.39999961853</ele>
        <time>2020-07-09T10:21:26.000Z</time>
      </trkpt>
      <trkpt lat="47.34064" lon="-2.48249">
        <ele>12.800000190735</ele>
        <time>2020-07-09T10:21:31.000Z</time>
      </trkpt>
      <trkpt lat="47.34057" lon="-2.48246">
        <ele>13.60000038147</ele>
        <time>2020-07-09T10:21:32.000Z</time>
      </trkpt>
      <trkpt lat="47.34051" lon="-2.48245">
        <ele>14</ele>
        <time>2020-07-09T10:21:33.000Z</time>
      </trkpt>
      <trkpt lat="47.34044" lon="-2.48243">
        <ele>14.39999961853</ele>
        <time>2020-07-09T10:21:34.000Z</time>
      </trkpt>
      <trkpt lat="47.34005" lon="-2.48231">
        <ele>14.39999961853</ele>
        <time>2020-07-09T10:21:40.000Z</time>
      </trkpt>
      <trkpt lat="47.33961" lon="-2.4822">
        <ele>14.39999961853</ele>
        <time>2020-07-09T10:21:47.000Z</time>
      </trkpt>
      <trkpt lat="47.33928" lon="-2.48231">
        <ele>14.39999961853</ele>
        <time>2020-07-09T10:21:52.000Z</time>
      </trkpt>
      <trkpt lat="47.33889" lon="-2.48258">
        <ele>14.39999961853</ele>
        <time>2020-07-09T10:21:59.000Z</time>
      </trkpt>
      <trkpt lat="47.33853" lon="-2.48272">
        <ele>14.39999961853</ele>
        <time>2020-07-09T10:22:05.000Z</time>
      </trkpt>
      <trkpt lat="47.33816" lon="-2.48284">
        <ele>14.39999961853</ele>
        <time>2020-07-09T10:22:11.000Z</time>
      </trkpt>
      <trkpt lat="47.33779" lon="-2.48302">
        <ele>14.39999961853</ele>
        <time>2020-07-09T10:22:17.000Z</time>
      </trkpt>
      <trkpt lat="47.33759" lon="-2.48314">
        <ele>14</ele>
        <time>2020-07-09T10:22:20.000Z</time>
      </trkpt>
      <trkpt lat="47.33752" lon="-2.48317">
        <ele>13.60000038147</ele>
        <time>2020-07-09T10:22:21.000Z</time>
      </trkpt>
      <trkpt lat="47.33744" lon="-2.48321">
        <ele>12.60000038147</ele>
        <time>2020-07-09T10:22:22.000Z</time>
      </trkpt>
      <trkpt lat="47.33737" lon="-2.48324">
        <ele>12.199999809265</ele>
        <time>2020-07-09T10:22:23.000Z</time>
      </trkpt>
      <trkpt lat="47.33722" lon="-2.4833">
        <ele>12.199999809265</ele>
        <time>2020-07-09T10:22:25.000Z</time>
      </trkpt>
      <trkpt lat="47.33697" lon="-2.48339">
        <ele>11.800000190735</ele>
        <time>2020-07-09T10:22:28.000Z</time>
      </trkpt>
      <trkpt lat="47.33688" lon="-2.48342">
        <ele>11.199999809265</ele>
        <time>2020-07-09T10:22:29.000Z</time>
      </trkpt>
      <trkpt lat="47.33679" lon="-2.48344">
        <ele>10.800000190735</ele>
        <time>2020-07-09T10:22:30.000Z</time>
      </trkpt>
      <trkpt lat="47.3367" lon="-2.48347">
        <ele>10.199999809265</ele>
        <time>2020-07-09T10:22:31.000Z</time>
      </trkpt>
      <trkpt lat="47.33662" lon="-2.48351">
        <ele>9.8000001907349</ele>
        <time>2020-07-09T10:22:32.000Z</time>
      </trkpt>
      <trkpt lat="47.33652" lon="-2.48356">
        <ele>9.3999996185303</ele>
        <time>2020-07-09T10:22:33.000Z</time>
      </trkpt>
      <trkpt lat="47.33644" lon="-2.48362">
        <ele>9</ele>
        <time>2020-07-09T10:22:34.000Z</time>
      </trkpt>
      <trkpt lat="47.33637" lon="-2.48372">
        <ele>8.6000003814697</ele>
        <time>2020-07-09T10:22:35.000Z</time>
      </trkpt>
      <trkpt lat="47.33631" lon="-2.48383">
        <ele>8</ele>
        <time>2020-07-09T10:22:36.000Z</time>
      </trkpt>
      <trkpt lat="47.33626" lon="-2.48395">
        <ele>7.5999999046326</ele>
        <time>2020-07-09T10:22:37.000Z</time>
      </trkpt>
      <trkpt lat="47.33623" lon="-2.48407">
        <ele>7.1999998092651</ele>
        <time>2020-07-09T10:22:38.000Z</time>
      </trkpt>
      <trkpt lat="47.3362" lon="-2.48419">
        <ele>6.8000001907349</ele>
        <time>2020-07-09T10:22:39.000Z</time>
      </trkpt>
      <trkpt lat="47.33618" lon="-2.48431">
        <ele>6.4000000953674</ele>
        <time>2020-07-09T10:22:40.000Z</time>
      </trkpt>
      <trkpt lat="47.33615" lon="-2.48442">
        <ele>6</ele>
        <time>2020-07-09T10:22:41.000Z</time>
      </trkpt>
      <trkpt lat="47.33613" lon="-2.48453">
        <ele>5.4000000953674</ele>
        <time>2020-07-09T10:22:42.000Z</time>
      </trkpt>
      <trkpt lat="47.33607" lon="-2.48474">
        <ele>5.4000000953674</ele>
        <time>2020-07-09T10:22:44.000Z</time>
      </trkpt>
      <trkpt lat="47.3359" lon="-2.48515">
        <ele>5.4000000953674</ele>
        <time>2020-07-09T10:22:49.000Z</time>
      </trkpt>
      <trkpt lat="47.33553" lon="-2.48584">
        <ele>5.4000000953674</ele>
        <time>2020-07-09T10:22:58.000Z</time>
      </trkpt>
      <trkpt lat="47.33549" lon="-2.48592">
        <ele>5.4000000953674</ele>
        <time>2020-07-09T10:22:59.000Z</time>
      </trkpt>
      <trkpt lat="47.33516" lon="-2.48649">
        <ele>5.4000000953674</ele>
        <time>2020-07-09T10:23:07.000Z</time>
      </trkpt>
      <trkpt lat="47.3348" lon="-2.48697">
        <ele>5.4000000953674</ele>
        <time>2020-07-09T10:23:15.000Z</time>
      </trkpt>
      <trkpt lat="47.3344" lon="-2.48745">
        <ele>5.4000000953674</ele>
        <time>2020-07-09T10:23:24.000Z</time>
      </trkpt>
      <trkpt lat="47.33429" lon="-2.48759">
        <ele>5</ele>
        <time>2020-07-09T10:23:27.000Z</time>
      </trkpt>
      <trkpt lat="47.33425" lon="-2.48764">
        <ele>4.5999999046326</ele>
        <time>2020-07-09T10:23:28.000Z</time>
      </trkpt>
      <trkpt lat="47.33421" lon="-2.48769">
        <ele>4.1999998092651</ele>
        <time>2020-07-09T10:23:29.000Z</time>
      </trkpt>
      <trkpt lat="47.33418" lon="-2.48774">
        <ele>3.7999999523163</ele>
        <time>2020-07-09T10:23:30.000Z</time>
      </trkpt>
      <trkpt lat="47.33414" lon="-2.48778">
        <ele>3.4000000953674</ele>
        <time>2020-07-09T10:23:31.000Z</time>
      </trkpt>
      <trkpt lat="47.33404" lon="-2.48791">
        <ele>3.4000000953674</ele>
        <time>2020-07-09T10:23:34.000Z</time>
      </trkpt>
      <trkpt lat="47.33401" lon="-2.48797">
        <ele>3.4000000953674</ele>
        <time>2020-07-09T10:23:37.000Z</time>
      </trkpt>
      <trkpt lat="47.33401" lon="-2.48797">
        <ele>3.4000000953674</ele>
        <time>2020-07-09T10:23:38.000Z</time>
      </trkpt>
      <trkpt lat="47.33399" lon="-2.48796">
        <ele>3.4000000953674</ele>
        <time>2020-07-09T10:26:43.000Z</time>
      </trkpt>
      <trkpt lat="47.33396" lon="-2.48799">
        <ele>3.4000000953674</ele>
        <time>2020-07-09T10:26:45.000Z</time>
      </trkpt>
      <trkpt lat="47.33381" lon="-2.48817">
        <ele>3.4000000953674</ele>
        <time>2020-07-09T10:26:53.000Z</time>
      </trkpt>
      <trkpt lat="47.33364" lon="-2.48829">
        <ele>3.4000000953674</ele>
        <time>2020-07-09T10:26:59.000Z</time>
      </trkpt>
      <trkpt lat="47.33346" lon="-2.48832">
        <ele>3.4000000953674</ele>
        <time>2020-07-09T10:27:04.000Z</time>
      </trkpt>
      <trkpt lat="47.33342" lon="-2.48832">
        <ele>3.4000000953674</ele>
        <time>2020-07-09T10:27:05.000Z</time>
      </trkpt>
      <trkpt lat="47.33306" lon="-2.4883">
        <ele>3.4000000953674</ele>
        <time>2020-07-09T10:27:13.000Z</time>
      </trkpt>
      <trkpt lat="47.33284" lon="-2.4884">
        <ele>3.4000000953674</ele>
        <time>2020-07-09T10:27:19.000Z</time>
      </trkpt>
      <trkpt lat="47.33267" lon="-2.4886">
        <ele>3.4000000953674</ele>
        <time>2020-07-09T10:27:25.000Z</time>
      </trkpt>
      <trkpt lat="47.33251" lon="-2.48872">
        <ele>3.4000000953674</ele>
        <time>2020-07-09T10:27:31.000Z</time>
      </trkpt>
      <trkpt lat="47.3324" lon="-2.48864">
        <ele>3.4000000953674</ele>
        <time>2020-07-09T10:27:35.000Z</time>
      </trkpt>
      <trkpt lat="47.33236" lon="-2.48852">
        <ele>3.4000000953674</ele>
        <time>2020-07-09T10:27:37.000Z</time>
      </trkpt>
      <trkpt lat="47.33231" lon="-2.48838">
        <ele>3.4000000953674</ele>
        <time>2020-07-09T10:27:39.000Z</time>
      </trkpt>
      <trkpt lat="47.33211" lon="-2.48768">
        <ele>3.4000000953674</ele>
        <time>2020-07-09T10:27:49.000Z</time>
      </trkpt>
      <trkpt lat="47.33197" lon="-2.48706">
        <ele>3.4000000953674</ele>
        <time>2020-07-09T10:27:57.000Z</time>
      </trkpt>
      <trkpt lat="47.33185" lon="-2.4866">
        <ele>3.4000000953674</ele>
        <time>2020-07-09T10:28:03.000Z</time>
      </trkpt>
      <trkpt lat="47.33184" lon="-2.48652">
        <ele>3.4000000953674</ele>
        <time>2020-07-09T10:28:04.000Z</time>
      </trkpt>
      <trkpt lat="47.33184" lon="-2.48643">
        <ele>3.4000000953674</ele>
        <time>2020-07-09T10:28:05.000Z</time>
      </trkpt>
      <trkpt lat="47.33186" lon="-2.4861">
        <ele>3.4000000953674</ele>
        <time>2020-07-09T10:28:09.000Z</time>
      </trkpt>
      <trkpt lat="47.33184" lon="-2.48547">
        <ele>3.4000000953674</ele>
        <time>2020-07-09T10:28:16.000Z</time>
      </trkpt>
      <trkpt lat="47.33177" lon="-2.48464">
        <ele>3.4000000953674</ele>
        <time>2020-07-09T10:28:25.000Z</time>
      </trkpt>
      <trkpt lat="47.3317" lon="-2.48397">
        <ele>3.4000000953674</ele>
        <time>2020-07-09T10:28:33.000Z</time>
      </trkpt>
      <trkpt lat="47.33167" lon="-2.4839">
        <ele>3.4000000953674</ele>
        <time>2020-07-09T10:28:34.000Z</time>
      </trkpt>
      <trkpt lat="47.33162" lon="-2.4838">
        <ele>3.4000000953674</ele>
        <time>2020-07-09T10:28:36.000Z</time>
      </trkpt>
      <trkpt lat="47.33158" lon="-2.48371">
        <ele>3.4000000953674</ele>
        <time>2020-07-09T10:28:40.000Z</time>
      </trkpt>
      <trkpt lat="47.33152" lon="-2.48361">
        <ele>3.4000000953674</ele>
        <time>2020-07-09T10:28:46.000Z</time>
      </trkpt>
      <trkpt lat="47.33149" lon="-2.48358">
        <ele>3.4000000953674</ele>
        <time>2020-07-09T10:28:48.000Z</time>
      </trkpt>
      <trkpt lat="47.33145" lon="-2.4836">
        <ele>3.4000000953674</ele>
        <time>2020-07-09T10:28:51.000Z</time>
      </trkpt>
      <trkpt lat="47.33145" lon="-2.48362">
        <ele>3.4000000953674</ele>
        <time>2020-07-09T10:28:52.000Z</time>
      </trkpt>
      <trkpt lat="47.33144" lon="-2.48362">
        <ele>3.4000000953674</ele>
        <time>2020-07-09T10:28:54.000Z</time>
      </trkpt>
    </trkseg>
  </trk>
</gpx>